<?xml version="1.0" encoding="UTF-8" standalone="no" ?>
<gpx xmlns="http://www.topografix.com/GPX/1/1" xmlns:xsi="http://www.w3.org/2001/XMLSchema-instance" xsi:schemaLocation="http://www.topografix.com/GPX/1/1 http://www.topografix.com/GPX/1/1/gpx.xsd" version="1.1" creator="VisuGPX - https://www.visugpx.com">
  <metadata>
    <name>Boucle de Manzac: le tour de Freyrat</name>
    <desc><![CDATA[3ème boucle de Manzac située au Sud de la commune et partant comme les 2 autres de la place de la Mairie en longeant le ruisseau des Chabannes. La boucle en elle-même mesure 8,1km auxquels il convient d'ajouter une liaison d'1km500 à faire à l'aller comme au retour en passant le long du stade. Parcours accessible aux randonneurs et VTTistes sans grande technicité. 2 montées significatives sur le circuit: la première dès la sortie du stade (assez longue mais régulière avec 1km400 à 7% de pente moyenne) et la 2ème plus courte mais particulièrement raide (600m à 14,5%).]]></desc>
  </metadata>
  <trk>
    <name><![CDATA[Manzac-sur-Vern Course]]></name>
    <trkseg>
      <trkpt lat="45.08849" lon="0.58664">
        <ele>101</ele>
        <time>2020-09-22T08:03:46.000Z</time>
      </trkpt>
      <trkpt lat="45.08848" lon="0.58664">
        <ele>101</ele>
        <time>2020-09-22T08:03:47.000Z</time>
      </trkpt>
      <trkpt lat="45.08847" lon="0.58663">
        <ele>101</ele>
        <time>2020-09-22T08:03:48.000Z</time>
      </trkpt>
      <trkpt lat="45.08849" lon="0.58666">
        <ele>101</ele>
        <time>2020-09-22T08:03:49.000Z</time>
      </trkpt>
      <trkpt lat="45.08851" lon="0.58668">
        <ele>101.19999694824</ele>
        <time>2020-09-22T08:03:50.000Z</time>
      </trkpt>
      <trkpt lat="45.08852" lon="0.58673">
        <ele>101.19999694824</ele>
        <time>2020-09-22T08:03:51.000Z</time>
      </trkpt>
      <trkpt lat="45.08853" lon="0.58678">
        <ele>101.40000152588</ele>
        <time>2020-09-22T08:03:52.000Z</time>
      </trkpt>
      <trkpt lat="45.08853" lon="0.58682">
        <ele>101.40000152588</ele>
        <time>2020-09-22T08:03:53.000Z</time>
      </trkpt>
      <trkpt lat="45.08853" lon="0.58686">
        <ele>101.40000152588</ele>
        <time>2020-09-22T08:03:54.000Z</time>
      </trkpt>
      <trkpt lat="45.08852" lon="0.58689">
        <ele>101.59999847412</ele>
        <time>2020-09-22T08:03:55.000Z</time>
      </trkpt>
      <trkpt lat="45.08851" lon="0.58691">
        <ele>101.59999847412</ele>
        <time>2020-09-22T08:03:56.000Z</time>
      </trkpt>
      <trkpt lat="45.0885" lon="0.58693">
        <ele>101.80000305176</ele>
        <time>2020-09-22T08:03:57.000Z</time>
      </trkpt>
      <trkpt lat="45.08848" lon="0.58694">
        <ele>102</ele>
        <time>2020-09-22T08:03:58.000Z</time>
      </trkpt>
      <trkpt lat="45.08845" lon="0.58695">
        <ele>102.40000152588</ele>
        <time>2020-09-22T08:03:59.000Z</time>
      </trkpt>
      <trkpt lat="45.08842" lon="0.58696">
        <ele>102.59999847412</ele>
        <time>2020-09-22T08:04:00.000Z</time>
      </trkpt>
      <trkpt lat="45.08839" lon="0.58695">
        <ele>102.80000305176</ele>
        <time>2020-09-22T08:04:01.000Z</time>
      </trkpt>
      <trkpt lat="45.08837" lon="0.58694">
        <ele>102.80000305176</ele>
        <time>2020-09-22T08:04:02.000Z</time>
      </trkpt>
      <trkpt lat="45.08834" lon="0.58694">
        <ele>103</ele>
        <time>2020-09-22T08:04:03.000Z</time>
      </trkpt>
      <trkpt lat="45.08832" lon="0.58694">
        <ele>103.19999694824</ele>
        <time>2020-09-22T08:04:04.000Z</time>
      </trkpt>
      <trkpt lat="45.08829" lon="0.58694">
        <ele>103.40000152588</ele>
        <time>2020-09-22T08:04:05.000Z</time>
      </trkpt>
      <trkpt lat="45.08826" lon="0.58695">
        <ele>103.59999847412</ele>
        <time>2020-09-22T08:04:06.000Z</time>
      </trkpt>
      <trkpt lat="45.08823" lon="0.58695">
        <ele>104</ele>
        <time>2020-09-22T08:04:07.000Z</time>
      </trkpt>
      <trkpt lat="45.0882" lon="0.58696">
        <ele>104.19999694824</ele>
        <time>2020-09-22T08:04:08.000Z</time>
      </trkpt>
      <trkpt lat="45.08817" lon="0.58695">
        <ele>104.40000152588</ele>
        <time>2020-09-22T08:04:09.000Z</time>
      </trkpt>
      <trkpt lat="45.08814" lon="0.58695">
        <ele>104.59999847412</ele>
        <time>2020-09-22T08:04:10.000Z</time>
      </trkpt>
      <trkpt lat="45.08811" lon="0.58695">
        <ele>104.80000305176</ele>
        <time>2020-09-22T08:04:11.000Z</time>
      </trkpt>
      <trkpt lat="45.08809" lon="0.58694">
        <ele>104.80000305176</ele>
        <time>2020-09-22T08:04:12.000Z</time>
      </trkpt>
      <trkpt lat="45.08806" lon="0.58693">
        <ele>105</ele>
        <time>2020-09-22T08:04:13.000Z</time>
      </trkpt>
      <trkpt lat="45.08803" lon="0.58693">
        <ele>105.19999694824</ele>
        <time>2020-09-22T08:04:14.000Z</time>
      </trkpt>
      <trkpt lat="45.088" lon="0.58693">
        <ele>105.40000152588</ele>
        <time>2020-09-22T08:04:15.000Z</time>
      </trkpt>
      <trkpt lat="45.08797" lon="0.58693">
        <ele>105.59999847412</ele>
        <time>2020-09-22T08:04:16.000Z</time>
      </trkpt>
      <trkpt lat="45.08794" lon="0.58693">
        <ele>105.80000305176</ele>
        <time>2020-09-22T08:04:17.000Z</time>
      </trkpt>
      <trkpt lat="45.08791" lon="0.58692">
        <ele>105.80000305176</ele>
        <time>2020-09-22T08:04:18.000Z</time>
      </trkpt>
      <trkpt lat="45.08788" lon="0.58692">
        <ele>106</ele>
        <time>2020-09-22T08:04:19.000Z</time>
      </trkpt>
      <trkpt lat="45.08786" lon="0.58691">
        <ele>106</ele>
        <time>2020-09-22T08:04:20.000Z</time>
      </trkpt>
      <trkpt lat="45.08783" lon="0.58691">
        <ele>106</ele>
        <time>2020-09-22T08:04:21.000Z</time>
      </trkpt>
      <trkpt lat="45.0878" lon="0.5869">
        <ele>106</ele>
        <time>2020-09-22T08:04:22.000Z</time>
      </trkpt>
      <trkpt lat="45.08777" lon="0.58689">
        <ele>106</ele>
        <time>2020-09-22T08:04:23.000Z</time>
      </trkpt>
      <trkpt lat="45.08774" lon="0.58689">
        <ele>106</ele>
        <time>2020-09-22T08:04:24.000Z</time>
      </trkpt>
      <trkpt lat="45.08771" lon="0.58689">
        <ele>106</ele>
        <time>2020-09-22T08:04:25.000Z</time>
      </trkpt>
      <trkpt lat="45.08765" lon="0.58688">
        <ele>106.19999694824</ele>
        <time>2020-09-22T08:04:26.000Z</time>
      </trkpt>
      <trkpt lat="45.08762" lon="0.58688">
        <ele>106.19999694824</ele>
        <time>2020-09-22T08:04:27.000Z</time>
      </trkpt>
      <trkpt lat="45.08762" lon="0.58688">
        <ele>106.19999694824</ele>
        <time>2020-09-22T08:04:28.000Z</time>
      </trkpt>
      <trkpt lat="45.08759" lon="0.58687">
        <ele>106.19999694824</ele>
        <time>2020-09-22T08:04:29.000Z</time>
      </trkpt>
      <trkpt lat="45.08756" lon="0.58686">
        <ele>106.19999694824</ele>
        <time>2020-09-22T08:04:30.000Z</time>
      </trkpt>
      <trkpt lat="45.08753" lon="0.58685">
        <ele>106.19999694824</ele>
        <time>2020-09-22T08:04:31.000Z</time>
      </trkpt>
      <trkpt lat="45.0875" lon="0.58685">
        <ele>106</ele>
        <time>2020-09-22T08:04:32.000Z</time>
      </trkpt>
      <trkpt lat="45.08747" lon="0.58684">
        <ele>106</ele>
        <time>2020-09-22T08:04:33.000Z</time>
      </trkpt>
      <trkpt lat="45.08744" lon="0.58683">
        <ele>106</ele>
        <time>2020-09-22T08:04:34.000Z</time>
      </trkpt>
      <trkpt lat="45.08741" lon="0.58683">
        <ele>106</ele>
        <time>2020-09-22T08:04:35.000Z</time>
      </trkpt>
      <trkpt lat="45.08738" lon="0.58682">
        <ele>106</ele>
        <time>2020-09-22T08:04:36.000Z</time>
      </trkpt>
      <trkpt lat="45.08735" lon="0.58682">
        <ele>106</ele>
        <time>2020-09-22T08:04:37.000Z</time>
      </trkpt>
      <trkpt lat="45.08733" lon="0.58682">
        <ele>106</ele>
        <time>2020-09-22T08:04:38.000Z</time>
      </trkpt>
      <trkpt lat="45.0873" lon="0.58682">
        <ele>106.19999694824</ele>
        <time>2020-09-22T08:04:39.000Z</time>
      </trkpt>
      <trkpt lat="45.08727" lon="0.58682">
        <ele>106.19999694824</ele>
        <time>2020-09-22T08:04:40.000Z</time>
      </trkpt>
      <trkpt lat="45.08724" lon="0.58682">
        <ele>106.19999694824</ele>
        <time>2020-09-22T08:04:41.000Z</time>
      </trkpt>
      <trkpt lat="45.08722" lon="0.58682">
        <ele>106.19999694824</ele>
        <time>2020-09-22T08:04:42.000Z</time>
      </trkpt>
      <trkpt lat="45.08719" lon="0.58682">
        <ele>106.19999694824</ele>
        <time>2020-09-22T08:04:43.000Z</time>
      </trkpt>
      <trkpt lat="45.08716" lon="0.58682">
        <ele>106.40000152588</ele>
        <time>2020-09-22T08:04:44.000Z</time>
      </trkpt>
      <trkpt lat="45.08713" lon="0.58682">
        <ele>106.40000152588</ele>
        <time>2020-09-22T08:04:45.000Z</time>
      </trkpt>
      <trkpt lat="45.0871" lon="0.58682">
        <ele>106.40000152588</ele>
        <time>2020-09-22T08:04:46.000Z</time>
      </trkpt>
      <trkpt lat="45.08707" lon="0.58682">
        <ele>106.40000152588</ele>
        <time>2020-09-22T08:04:47.000Z</time>
      </trkpt>
      <trkpt lat="45.08705" lon="0.58681">
        <ele>106.19999694824</ele>
        <time>2020-09-22T08:04:48.000Z</time>
      </trkpt>
      <trkpt lat="45.08703" lon="0.58681">
        <ele>106.19999694824</ele>
        <time>2020-09-22T08:04:49.000Z</time>
      </trkpt>
      <trkpt lat="45.087" lon="0.5868">
        <ele>106</ele>
        <time>2020-09-22T08:04:50.000Z</time>
      </trkpt>
      <trkpt lat="45.08698" lon="0.5868">
        <ele>106</ele>
        <time>2020-09-22T08:04:51.000Z</time>
      </trkpt>
      <trkpt lat="45.08695" lon="0.58679">
        <ele>105.80000305176</ele>
        <time>2020-09-22T08:04:52.000Z</time>
      </trkpt>
      <trkpt lat="45.08692" lon="0.58678">
        <ele>105.80000305176</ele>
        <time>2020-09-22T08:04:53.000Z</time>
      </trkpt>
      <trkpt lat="45.0869" lon="0.58678">
        <ele>105.59999847412</ele>
        <time>2020-09-22T08:04:54.000Z</time>
      </trkpt>
      <trkpt lat="45.08688" lon="0.58676">
        <ele>105.40000152588</ele>
        <time>2020-09-22T08:04:55.000Z</time>
      </trkpt>
      <trkpt lat="45.08686" lon="0.58675">
        <ele>105.40000152588</ele>
        <time>2020-09-22T08:04:56.000Z</time>
      </trkpt>
      <trkpt lat="45.08684" lon="0.58675">
        <ele>105.19999694824</ele>
        <time>2020-09-22T08:04:57.000Z</time>
      </trkpt>
      <trkpt lat="45.08682" lon="0.58674">
        <ele>105.19999694824</ele>
        <time>2020-09-22T08:04:58.000Z</time>
      </trkpt>
      <trkpt lat="45.08681" lon="0.58674">
        <ele>105</ele>
        <time>2020-09-22T08:04:59.000Z</time>
      </trkpt>
      <trkpt lat="45.08678" lon="0.58674">
        <ele>105</ele>
        <time>2020-09-22T08:05:00.000Z</time>
      </trkpt>
      <trkpt lat="45.08675" lon="0.58674">
        <ele>105</ele>
        <time>2020-09-22T08:05:01.000Z</time>
      </trkpt>
      <trkpt lat="45.08673" lon="0.58674">
        <ele>105</ele>
        <time>2020-09-22T08:05:02.000Z</time>
      </trkpt>
      <trkpt lat="45.08671" lon="0.58673">
        <ele>104.80000305176</ele>
        <time>2020-09-22T08:05:03.000Z</time>
      </trkpt>
      <trkpt lat="45.08669" lon="0.58673">
        <ele>104.80000305176</ele>
        <time>2020-09-22T08:05:04.000Z</time>
      </trkpt>
      <trkpt lat="45.08667" lon="0.58673">
        <ele>104.80000305176</ele>
        <time>2020-09-22T08:05:05.000Z</time>
      </trkpt>
      <trkpt lat="45.08665" lon="0.58673">
        <ele>104.59999847412</ele>
        <time>2020-09-22T08:05:06.000Z</time>
      </trkpt>
      <trkpt lat="45.08663" lon="0.58671">
        <ele>104.59999847412</ele>
        <time>2020-09-22T08:05:07.000Z</time>
      </trkpt>
      <trkpt lat="45.08661" lon="0.58671">
        <ele>104.40000152588</ele>
        <time>2020-09-22T08:05:08.000Z</time>
      </trkpt>
      <trkpt lat="45.08659" lon="0.5867">
        <ele>104.40000152588</ele>
        <time>2020-09-22T08:05:09.000Z</time>
      </trkpt>
      <trkpt lat="45.08657" lon="0.5867">
        <ele>104.40000152588</ele>
        <time>2020-09-22T08:05:10.000Z</time>
      </trkpt>
      <trkpt lat="45.08655" lon="0.5867">
        <ele>104.40000152588</ele>
        <time>2020-09-22T08:05:11.000Z</time>
      </trkpt>
      <trkpt lat="45.08654" lon="0.5867">
        <ele>104.40000152588</ele>
        <time>2020-09-22T08:05:12.000Z</time>
      </trkpt>
      <trkpt lat="45.08651" lon="0.58669">
        <ele>104.40000152588</ele>
        <time>2020-09-22T08:05:13.000Z</time>
      </trkpt>
      <trkpt lat="45.08648" lon="0.58669">
        <ele>104.40000152588</ele>
        <time>2020-09-22T08:05:14.000Z</time>
      </trkpt>
      <trkpt lat="45.08645" lon="0.58669">
        <ele>104.40000152588</ele>
        <time>2020-09-22T08:05:15.000Z</time>
      </trkpt>
      <trkpt lat="45.08643" lon="0.58669">
        <ele>104.59999847412</ele>
        <time>2020-09-22T08:05:16.000Z</time>
      </trkpt>
      <trkpt lat="45.08639" lon="0.58669">
        <ele>104.59999847412</ele>
        <time>2020-09-22T08:05:17.000Z</time>
      </trkpt>
      <trkpt lat="45.08636" lon="0.58669">
        <ele>104.59999847412</ele>
        <time>2020-09-22T08:05:18.000Z</time>
      </trkpt>
      <trkpt lat="45.08634" lon="0.58668">
        <ele>104.59999847412</ele>
        <time>2020-09-22T08:05:19.000Z</time>
      </trkpt>
      <trkpt lat="45.08631" lon="0.58667">
        <ele>104.40000152588</ele>
        <time>2020-09-22T08:05:20.000Z</time>
      </trkpt>
      <trkpt lat="45.08629" lon="0.58667">
        <ele>104.40000152588</ele>
        <time>2020-09-22T08:05:21.000Z</time>
      </trkpt>
      <trkpt lat="45.08626" lon="0.58665">
        <ele>104.40000152588</ele>
        <time>2020-09-22T08:05:22.000Z</time>
      </trkpt>
      <trkpt lat="45.08623" lon="0.58665">
        <ele>104.40000152588</ele>
        <time>2020-09-22T08:05:23.000Z</time>
      </trkpt>
      <trkpt lat="45.0862" lon="0.58664">
        <ele>104.40000152588</ele>
        <time>2020-09-22T08:05:24.000Z</time>
      </trkpt>
      <trkpt lat="45.08617" lon="0.58663">
        <ele>104.40000152588</ele>
        <time>2020-09-22T08:05:25.000Z</time>
      </trkpt>
      <trkpt lat="45.08614" lon="0.58663">
        <ele>104.59999847412</ele>
        <time>2020-09-22T08:05:26.000Z</time>
      </trkpt>
      <trkpt lat="45.08612" lon="0.58662">
        <ele>104.59999847412</ele>
        <time>2020-09-22T08:05:27.000Z</time>
      </trkpt>
      <trkpt lat="45.08608" lon="0.58662">
        <ele>104.80000305176</ele>
        <time>2020-09-22T08:05:28.000Z</time>
      </trkpt>
      <trkpt lat="45.08599" lon="0.58661">
        <ele>105.19999694824</ele>
        <time>2020-09-22T08:05:30.000Z</time>
      </trkpt>
      <trkpt lat="45.08599" lon="0.58661">
        <ele>105.19999694824</ele>
        <time>2020-09-22T08:05:31.000Z</time>
      </trkpt>
      <trkpt lat="45.08595" lon="0.5866">
        <ele>105.19999694824</ele>
        <time>2020-09-22T08:05:32.000Z</time>
      </trkpt>
      <trkpt lat="45.08591" lon="0.5866">
        <ele>105.40000152588</ele>
        <time>2020-09-22T08:05:33.000Z</time>
      </trkpt>
      <trkpt lat="45.08587" lon="0.58659">
        <ele>105.40000152588</ele>
        <time>2020-09-22T08:05:34.000Z</time>
      </trkpt>
      <trkpt lat="45.08584" lon="0.58659">
        <ele>105.59999847412</ele>
        <time>2020-09-22T08:05:35.000Z</time>
      </trkpt>
      <trkpt lat="45.0858" lon="0.5866">
        <ele>106</ele>
        <time>2020-09-22T08:05:36.000Z</time>
      </trkpt>
      <trkpt lat="45.08576" lon="0.5866">
        <ele>106.19999694824</ele>
        <time>2020-09-22T08:05:37.000Z</time>
      </trkpt>
      <trkpt lat="45.08573" lon="0.5866">
        <ele>106.40000152588</ele>
        <time>2020-09-22T08:05:38.000Z</time>
      </trkpt>
      <trkpt lat="45.08569" lon="0.5866">
        <ele>106.40000152588</ele>
        <time>2020-09-22T08:05:39.000Z</time>
      </trkpt>
      <trkpt lat="45.08567" lon="0.5866">
        <ele>106.59999847412</ele>
        <time>2020-09-22T08:05:40.000Z</time>
      </trkpt>
      <trkpt lat="45.08564" lon="0.5866">
        <ele>106.59999847412</ele>
        <time>2020-09-22T08:05:41.000Z</time>
      </trkpt>
      <trkpt lat="45.0856" lon="0.58661">
        <ele>106.80000305176</ele>
        <time>2020-09-22T08:05:42.000Z</time>
      </trkpt>
      <trkpt lat="45.08557" lon="0.58661">
        <ele>106.80000305176</ele>
        <time>2020-09-22T08:05:43.000Z</time>
      </trkpt>
      <trkpt lat="45.08554" lon="0.58662">
        <ele>107</ele>
        <time>2020-09-22T08:05:44.000Z</time>
      </trkpt>
      <trkpt lat="45.08551" lon="0.58662">
        <ele>107</ele>
        <time>2020-09-22T08:05:45.000Z</time>
      </trkpt>
      <trkpt lat="45.08548" lon="0.58662">
        <ele>107.19999694824</ele>
        <time>2020-09-22T08:05:46.000Z</time>
      </trkpt>
      <trkpt lat="45.08545" lon="0.58662">
        <ele>107.19999694824</ele>
        <time>2020-09-22T08:05:47.000Z</time>
      </trkpt>
      <trkpt lat="45.08543" lon="0.58663">
        <ele>107.40000152588</ele>
        <time>2020-09-22T08:05:48.000Z</time>
      </trkpt>
      <trkpt lat="45.0854" lon="0.58663">
        <ele>107.19999694824</ele>
        <time>2020-09-22T08:05:49.000Z</time>
      </trkpt>
      <trkpt lat="45.08537" lon="0.58663">
        <ele>106.80000305176</ele>
        <time>2020-09-22T08:05:50.000Z</time>
      </trkpt>
      <trkpt lat="45.08535" lon="0.58664">
        <ele>106.59999847412</ele>
        <time>2020-09-22T08:05:51.000Z</time>
      </trkpt>
      <trkpt lat="45.08532" lon="0.58664">
        <ele>106.40000152588</ele>
        <time>2020-09-22T08:05:52.000Z</time>
      </trkpt>
      <trkpt lat="45.08529" lon="0.58664">
        <ele>106.19999694824</ele>
        <time>2020-09-22T08:05:53.000Z</time>
      </trkpt>
      <trkpt lat="45.08526" lon="0.58664">
        <ele>106</ele>
        <time>2020-09-22T08:05:54.000Z</time>
      </trkpt>
      <trkpt lat="45.08523" lon="0.58665">
        <ele>105.80000305176</ele>
        <time>2020-09-22T08:05:55.000Z</time>
      </trkpt>
      <trkpt lat="45.0852" lon="0.58664">
        <ele>105.59999847412</ele>
        <time>2020-09-22T08:05:56.000Z</time>
      </trkpt>
      <trkpt lat="45.08518" lon="0.58664">
        <ele>105.40000152588</ele>
        <time>2020-09-22T08:05:57.000Z</time>
      </trkpt>
      <trkpt lat="45.08515" lon="0.58663">
        <ele>105</ele>
        <time>2020-09-22T08:05:58.000Z</time>
      </trkpt>
      <trkpt lat="45.08512" lon="0.58661">
        <ele>104.59999847412</ele>
        <time>2020-09-22T08:05:59.000Z</time>
      </trkpt>
      <trkpt lat="45.08509" lon="0.5866">
        <ele>104.19999694824</ele>
        <time>2020-09-22T08:06:00.000Z</time>
      </trkpt>
      <trkpt lat="45.08506" lon="0.5866">
        <ele>104</ele>
        <time>2020-09-22T08:06:01.000Z</time>
      </trkpt>
      <trkpt lat="45.08503" lon="0.58659">
        <ele>103.59999847412</ele>
        <time>2020-09-22T08:06:02.000Z</time>
      </trkpt>
      <trkpt lat="45.08501" lon="0.58658">
        <ele>103.40000152588</ele>
        <time>2020-09-22T08:06:03.000Z</time>
      </trkpt>
      <trkpt lat="45.08498" lon="0.58658">
        <ele>103.19999694824</ele>
        <time>2020-09-22T08:06:04.000Z</time>
      </trkpt>
      <trkpt lat="45.08496" lon="0.58657">
        <ele>102.80000305176</ele>
        <time>2020-09-22T08:06:05.000Z</time>
      </trkpt>
      <trkpt lat="45.08492" lon="0.58655">
        <ele>102.40000152588</ele>
        <time>2020-09-22T08:06:06.000Z</time>
      </trkpt>
      <trkpt lat="45.0849" lon="0.58651">
        <ele>101.80000305176</ele>
        <time>2020-09-22T08:06:07.000Z</time>
      </trkpt>
      <trkpt lat="45.08489" lon="0.58646">
        <ele>101.40000152588</ele>
        <time>2020-09-22T08:06:08.000Z</time>
      </trkpt>
      <trkpt lat="45.08488" lon="0.58641">
        <ele>100.80000305176</ele>
        <time>2020-09-22T08:06:09.000Z</time>
      </trkpt>
      <trkpt lat="45.08487" lon="0.58636">
        <ele>100.40000152588</ele>
        <time>2020-09-22T08:06:10.000Z</time>
      </trkpt>
      <trkpt lat="45.08487" lon="0.58632">
        <ele>100.19999694824</ele>
        <time>2020-09-22T08:06:11.000Z</time>
      </trkpt>
      <trkpt lat="45.08487" lon="0.58627">
        <ele>100.40000152588</ele>
        <time>2020-09-22T08:06:12.000Z</time>
      </trkpt>
      <trkpt lat="45.08487" lon="0.58622">
        <ele>100.40000152588</ele>
        <time>2020-09-22T08:06:13.000Z</time>
      </trkpt>
      <trkpt lat="45.08486" lon="0.58617">
        <ele>100.40000152588</ele>
        <time>2020-09-22T08:06:14.000Z</time>
      </trkpt>
      <trkpt lat="45.08485" lon="0.58613">
        <ele>100.40000152588</ele>
        <time>2020-09-22T08:06:15.000Z</time>
      </trkpt>
      <trkpt lat="45.08484" lon="0.58608">
        <ele>100.40000152588</ele>
        <time>2020-09-22T08:06:16.000Z</time>
      </trkpt>
      <trkpt lat="45.08483" lon="0.58603">
        <ele>100.40000152588</ele>
        <time>2020-09-22T08:06:17.000Z</time>
      </trkpt>
      <trkpt lat="45.08482" lon="0.58598">
        <ele>100.19999694824</ele>
        <time>2020-09-22T08:06:18.000Z</time>
      </trkpt>
      <trkpt lat="45.08481" lon="0.58594">
        <ele>100.19999694824</ele>
        <time>2020-09-22T08:06:19.000Z</time>
      </trkpt>
      <trkpt lat="45.0848" lon="0.5859">
        <ele>100.19999694824</ele>
        <time>2020-09-22T08:06:20.000Z</time>
      </trkpt>
      <trkpt lat="45.08479" lon="0.58586">
        <ele>100.19999694824</ele>
        <time>2020-09-22T08:06:21.000Z</time>
      </trkpt>
      <trkpt lat="45.08477" lon="0.58583">
        <ele>100</ele>
        <time>2020-09-22T08:06:22.000Z</time>
      </trkpt>
      <trkpt lat="45.08476" lon="0.58579">
        <ele>100</ele>
        <time>2020-09-22T08:06:23.000Z</time>
      </trkpt>
      <trkpt lat="45.08475" lon="0.58575">
        <ele>100</ele>
        <time>2020-09-22T08:06:24.000Z</time>
      </trkpt>
      <trkpt lat="45.08475" lon="0.58572">
        <ele>100</ele>
        <time>2020-09-22T08:06:25.000Z</time>
      </trkpt>
      <trkpt lat="45.08474" lon="0.58568">
        <ele>100</ele>
        <time>2020-09-22T08:06:26.000Z</time>
      </trkpt>
      <trkpt lat="45.08474" lon="0.58564">
        <ele>100</ele>
        <time>2020-09-22T08:06:27.000Z</time>
      </trkpt>
      <trkpt lat="45.08473" lon="0.58561">
        <ele>99.800003051758</ele>
        <time>2020-09-22T08:06:28.000Z</time>
      </trkpt>
      <trkpt lat="45.08472" lon="0.58557">
        <ele>99.599998474121</ele>
        <time>2020-09-22T08:06:29.000Z</time>
      </trkpt>
      <trkpt lat="45.08471" lon="0.58554">
        <ele>99.400001525879</ele>
        <time>2020-09-22T08:06:30.000Z</time>
      </trkpt>
      <trkpt lat="45.08469" lon="0.58551">
        <ele>99.199996948242</ele>
        <time>2020-09-22T08:06:31.000Z</time>
      </trkpt>
      <trkpt lat="45.08469" lon="0.58548">
        <ele>99.199996948242</ele>
        <time>2020-09-22T08:06:32.000Z</time>
      </trkpt>
      <trkpt lat="45.08467" lon="0.58546">
        <ele>99.199996948242</ele>
        <time>2020-09-22T08:06:33.000Z</time>
      </trkpt>
      <trkpt lat="45.08463" lon="0.58541">
        <ele>99</ele>
        <time>2020-09-22T08:06:34.000Z</time>
      </trkpt>
      <trkpt lat="45.08463" lon="0.58541">
        <ele>99</ele>
        <time>2020-09-22T08:06:35.000Z</time>
      </trkpt>
      <trkpt lat="45.08461" lon="0.58538">
        <ele>98.800003051758</ele>
        <time>2020-09-22T08:06:36.000Z</time>
      </trkpt>
      <trkpt lat="45.08459" lon="0.58535">
        <ele>98.800003051758</ele>
        <time>2020-09-22T08:06:37.000Z</time>
      </trkpt>
      <trkpt lat="45.08459" lon="0.58531">
        <ele>98.800003051758</ele>
        <time>2020-09-22T08:06:38.000Z</time>
      </trkpt>
      <trkpt lat="45.08459" lon="0.58527">
        <ele>98.599998474121</ele>
        <time>2020-09-22T08:06:39.000Z</time>
      </trkpt>
      <trkpt lat="45.08457" lon="0.58523">
        <ele>98.599998474121</ele>
        <time>2020-09-22T08:06:40.000Z</time>
      </trkpt>
      <trkpt lat="45.08455" lon="0.58519">
        <ele>98.400001525879</ele>
        <time>2020-09-22T08:06:41.000Z</time>
      </trkpt>
      <trkpt lat="45.08454" lon="0.58515">
        <ele>98.400001525879</ele>
        <time>2020-09-22T08:06:42.000Z</time>
      </trkpt>
      <trkpt lat="45.08453" lon="0.58512">
        <ele>98.199996948242</ele>
        <time>2020-09-22T08:06:43.000Z</time>
      </trkpt>
      <trkpt lat="45.08453" lon="0.58508">
        <ele>98.199996948242</ele>
        <time>2020-09-22T08:06:44.000Z</time>
      </trkpt>
      <trkpt lat="45.0845" lon="0.58506">
        <ele>98.199996948242</ele>
        <time>2020-09-22T08:06:45.000Z</time>
      </trkpt>
      <trkpt lat="45.08447" lon="0.58506">
        <ele>98</ele>
        <time>2020-09-22T08:06:46.000Z</time>
      </trkpt>
      <trkpt lat="45.08445" lon="0.58506">
        <ele>98</ele>
        <time>2020-09-22T08:06:47.000Z</time>
      </trkpt>
      <trkpt lat="45.08442" lon="0.58506">
        <ele>97.800003051758</ele>
        <time>2020-09-22T08:06:48.000Z</time>
      </trkpt>
      <trkpt lat="45.08438" lon="0.58507">
        <ele>97.599998474121</ele>
        <time>2020-09-22T08:06:49.000Z</time>
      </trkpt>
      <trkpt lat="45.08434" lon="0.58507">
        <ele>97.599998474121</ele>
        <time>2020-09-22T08:06:50.000Z</time>
      </trkpt>
      <trkpt lat="45.08429" lon="0.58507">
        <ele>97.400001525879</ele>
        <time>2020-09-22T08:06:51.000Z</time>
      </trkpt>
      <trkpt lat="45.08425" lon="0.58507">
        <ele>97.199996948242</ele>
        <time>2020-09-22T08:06:52.000Z</time>
      </trkpt>
      <trkpt lat="45.08422" lon="0.58508">
        <ele>97.199996948242</ele>
        <time>2020-09-22T08:06:53.000Z</time>
      </trkpt>
      <trkpt lat="45.08419" lon="0.58507">
        <ele>97</ele>
        <time>2020-09-22T08:06:54.000Z</time>
      </trkpt>
      <trkpt lat="45.08416" lon="0.58506">
        <ele>96.800003051758</ele>
        <time>2020-09-22T08:06:55.000Z</time>
      </trkpt>
      <trkpt lat="45.08414" lon="0.58506">
        <ele>96.800003051758</ele>
        <time>2020-09-22T08:06:56.000Z</time>
      </trkpt>
      <trkpt lat="45.08412" lon="0.58505">
        <ele>96.599998474121</ele>
        <time>2020-09-22T08:06:57.000Z</time>
      </trkpt>
      <trkpt lat="45.08409" lon="0.58505">
        <ele>96.599998474121</ele>
        <time>2020-09-22T08:06:58.000Z</time>
      </trkpt>
      <trkpt lat="45.08406" lon="0.58504">
        <ele>96.400001525879</ele>
        <time>2020-09-22T08:06:59.000Z</time>
      </trkpt>
      <trkpt lat="45.08403" lon="0.58503">
        <ele>96.199996948242</ele>
        <time>2020-09-22T08:07:00.000Z</time>
      </trkpt>
      <trkpt lat="45.084" lon="0.58502">
        <ele>96</ele>
        <time>2020-09-22T08:07:01.000Z</time>
      </trkpt>
      <trkpt lat="45.08397" lon="0.585">
        <ele>95.800003051758</ele>
        <time>2020-09-22T08:07:02.000Z</time>
      </trkpt>
      <trkpt lat="45.08394" lon="0.58499">
        <ele>95.599998474121</ele>
        <time>2020-09-22T08:07:03.000Z</time>
      </trkpt>
      <trkpt lat="45.08391" lon="0.58498">
        <ele>95.599998474121</ele>
        <time>2020-09-22T08:07:04.000Z</time>
      </trkpt>
      <trkpt lat="45.08388" lon="0.58496">
        <ele>95.400001525879</ele>
        <time>2020-09-22T08:07:05.000Z</time>
      </trkpt>
      <trkpt lat="45.08386" lon="0.58495">
        <ele>95.199996948242</ele>
        <time>2020-09-22T08:07:06.000Z</time>
      </trkpt>
      <trkpt lat="45.08383" lon="0.58493">
        <ele>95</ele>
        <time>2020-09-22T08:07:07.000Z</time>
      </trkpt>
      <trkpt lat="45.0838" lon="0.58491">
        <ele>95</ele>
        <time>2020-09-22T08:07:08.000Z</time>
      </trkpt>
      <trkpt lat="45.08377" lon="0.58489">
        <ele>94.800003051758</ele>
        <time>2020-09-22T08:07:09.000Z</time>
      </trkpt>
      <trkpt lat="45.08374" lon="0.58487">
        <ele>94.599998474121</ele>
        <time>2020-09-22T08:07:10.000Z</time>
      </trkpt>
      <trkpt lat="45.08372" lon="0.58486">
        <ele>94.599998474121</ele>
        <time>2020-09-22T08:07:11.000Z</time>
      </trkpt>
      <trkpt lat="45.08369" lon="0.58485">
        <ele>94.400001525879</ele>
        <time>2020-09-22T08:07:12.000Z</time>
      </trkpt>
      <trkpt lat="45.08366" lon="0.58484">
        <ele>94.400001525879</ele>
        <time>2020-09-22T08:07:13.000Z</time>
      </trkpt>
      <trkpt lat="45.08363" lon="0.58482">
        <ele>94.199996948242</ele>
        <time>2020-09-22T08:07:14.000Z</time>
      </trkpt>
      <trkpt lat="45.0836" lon="0.58479">
        <ele>94</ele>
        <time>2020-09-22T08:07:15.000Z</time>
      </trkpt>
      <trkpt lat="45.08358" lon="0.58477">
        <ele>94</ele>
        <time>2020-09-22T08:07:16.000Z</time>
      </trkpt>
      <trkpt lat="45.08355" lon="0.58475">
        <ele>93.800003051758</ele>
        <time>2020-09-22T08:07:17.000Z</time>
      </trkpt>
      <trkpt lat="45.08353" lon="0.58473">
        <ele>93.800003051758</ele>
        <time>2020-09-22T08:07:18.000Z</time>
      </trkpt>
      <trkpt lat="45.0835" lon="0.5847">
        <ele>93.800003051758</ele>
        <time>2020-09-22T08:07:19.000Z</time>
      </trkpt>
      <trkpt lat="45.08348" lon="0.58467">
        <ele>93.599998474121</ele>
        <time>2020-09-22T08:07:20.000Z</time>
      </trkpt>
      <trkpt lat="45.08346" lon="0.58465">
        <ele>93.599998474121</ele>
        <time>2020-09-22T08:07:21.000Z</time>
      </trkpt>
      <trkpt lat="45.08343" lon="0.58461">
        <ele>93.400001525879</ele>
        <time>2020-09-22T08:07:22.000Z</time>
      </trkpt>
      <trkpt lat="45.08341" lon="0.58458">
        <ele>93.199996948242</ele>
        <time>2020-09-22T08:07:23.000Z</time>
      </trkpt>
      <trkpt lat="45.08339" lon="0.58454">
        <ele>93.199996948242</ele>
        <time>2020-09-22T08:07:24.000Z</time>
      </trkpt>
      <trkpt lat="45.08337" lon="0.58451">
        <ele>93.199996948242</ele>
        <time>2020-09-22T08:07:25.000Z</time>
      </trkpt>
      <trkpt lat="45.08335" lon="0.58448">
        <ele>93</ele>
        <time>2020-09-22T08:07:26.000Z</time>
      </trkpt>
      <trkpt lat="45.08334" lon="0.58444">
        <ele>93</ele>
        <time>2020-09-22T08:07:27.000Z</time>
      </trkpt>
      <trkpt lat="45.08332" lon="0.58441">
        <ele>92.800003051758</ele>
        <time>2020-09-22T08:07:28.000Z</time>
      </trkpt>
      <trkpt lat="45.08331" lon="0.58437">
        <ele>92.800003051758</ele>
        <time>2020-09-22T08:07:29.000Z</time>
      </trkpt>
      <trkpt lat="45.0833" lon="0.58433">
        <ele>92.800003051758</ele>
        <time>2020-09-22T08:07:30.000Z</time>
      </trkpt>
      <trkpt lat="45.08329" lon="0.58429">
        <ele>92.800003051758</ele>
        <time>2020-09-22T08:07:31.000Z</time>
      </trkpt>
      <trkpt lat="45.08327" lon="0.58425">
        <ele>92.599998474121</ele>
        <time>2020-09-22T08:07:32.000Z</time>
      </trkpt>
      <trkpt lat="45.08326" lon="0.58421">
        <ele>92.599998474121</ele>
        <time>2020-09-22T08:07:33.000Z</time>
      </trkpt>
      <trkpt lat="45.08325" lon="0.58417">
        <ele>92.599998474121</ele>
        <time>2020-09-22T08:07:34.000Z</time>
      </trkpt>
      <trkpt lat="45.08323" lon="0.58413">
        <ele>92.400001525879</ele>
        <time>2020-09-22T08:07:35.000Z</time>
      </trkpt>
      <trkpt lat="45.08322" lon="0.58409">
        <ele>92.400001525879</ele>
        <time>2020-09-22T08:07:36.000Z</time>
      </trkpt>
      <trkpt lat="45.08321" lon="0.58405">
        <ele>92.199996948242</ele>
        <time>2020-09-22T08:07:37.000Z</time>
      </trkpt>
      <trkpt lat="45.08318" lon="0.58398">
        <ele>92</ele>
        <time>2020-09-22T08:07:38.000Z</time>
      </trkpt>
      <trkpt lat="45.08318" lon="0.58398">
        <ele>92</ele>
        <time>2020-09-22T08:07:39.000Z</time>
      </trkpt>
      <trkpt lat="45.08316" lon="0.58395">
        <ele>92</ele>
        <time>2020-09-22T08:07:40.000Z</time>
      </trkpt>
      <trkpt lat="45.08314" lon="0.58392">
        <ele>91.800003051758</ele>
        <time>2020-09-22T08:07:41.000Z</time>
      </trkpt>
      <trkpt lat="45.08312" lon="0.58389">
        <ele>91.800003051758</ele>
        <time>2020-09-22T08:07:42.000Z</time>
      </trkpt>
      <trkpt lat="45.0831" lon="0.58386">
        <ele>91.599998474121</ele>
        <time>2020-09-22T08:07:43.000Z</time>
      </trkpt>
      <trkpt lat="45.08309" lon="0.58382">
        <ele>91.599998474121</ele>
        <time>2020-09-22T08:07:44.000Z</time>
      </trkpt>
      <trkpt lat="45.08307" lon="0.58379">
        <ele>91.599998474121</ele>
        <time>2020-09-22T08:07:45.000Z</time>
      </trkpt>
      <trkpt lat="45.08305" lon="0.58375">
        <ele>91.599998474121</ele>
        <time>2020-09-22T08:07:46.000Z</time>
      </trkpt>
      <trkpt lat="45.08304" lon="0.58372">
        <ele>91.599998474121</ele>
        <time>2020-09-22T08:07:47.000Z</time>
      </trkpt>
      <trkpt lat="45.08302" lon="0.58368">
        <ele>91.599998474121</ele>
        <time>2020-09-22T08:07:48.000Z</time>
      </trkpt>
      <trkpt lat="45.083" lon="0.58364">
        <ele>91.400001525879</ele>
        <time>2020-09-22T08:07:49.000Z</time>
      </trkpt>
      <trkpt lat="45.08298" lon="0.58361">
        <ele>91.400001525879</ele>
        <time>2020-09-22T08:07:50.000Z</time>
      </trkpt>
      <trkpt lat="45.08296" lon="0.58358">
        <ele>91.400001525879</ele>
        <time>2020-09-22T08:07:51.000Z</time>
      </trkpt>
      <trkpt lat="45.08295" lon="0.58354">
        <ele>91.400001525879</ele>
        <time>2020-09-22T08:07:52.000Z</time>
      </trkpt>
      <trkpt lat="45.08293" lon="0.5835">
        <ele>91.400001525879</ele>
        <time>2020-09-22T08:07:53.000Z</time>
      </trkpt>
      <trkpt lat="45.08292" lon="0.58347">
        <ele>91.400001525879</ele>
        <time>2020-09-22T08:07:54.000Z</time>
      </trkpt>
      <trkpt lat="45.0829" lon="0.58343">
        <ele>91.400001525879</ele>
        <time>2020-09-22T08:07:55.000Z</time>
      </trkpt>
      <trkpt lat="45.08288" lon="0.5834">
        <ele>91.400001525879</ele>
        <time>2020-09-22T08:07:56.000Z</time>
      </trkpt>
      <trkpt lat="45.08287" lon="0.58336">
        <ele>91.199996948242</ele>
        <time>2020-09-22T08:07:57.000Z</time>
      </trkpt>
      <trkpt lat="45.08285" lon="0.58333">
        <ele>91.199996948242</ele>
        <time>2020-09-22T08:07:58.000Z</time>
      </trkpt>
      <trkpt lat="45.08283" lon="0.58329">
        <ele>91.199996948242</ele>
        <time>2020-09-22T08:07:59.000Z</time>
      </trkpt>
      <trkpt lat="45.08282" lon="0.58326">
        <ele>91.199996948242</ele>
        <time>2020-09-22T08:08:00.000Z</time>
      </trkpt>
      <trkpt lat="45.0828" lon="0.58322">
        <ele>91.199996948242</ele>
        <time>2020-09-22T08:08:01.000Z</time>
      </trkpt>
      <trkpt lat="45.08278" lon="0.58319">
        <ele>91</ele>
        <time>2020-09-22T08:08:02.000Z</time>
      </trkpt>
      <trkpt lat="45.08276" lon="0.58315">
        <ele>91</ele>
        <time>2020-09-22T08:08:03.000Z</time>
      </trkpt>
      <trkpt lat="45.08274" lon="0.58312">
        <ele>91</ele>
        <time>2020-09-22T08:08:04.000Z</time>
      </trkpt>
      <trkpt lat="45.08273" lon="0.58308">
        <ele>91</ele>
        <time>2020-09-22T08:08:05.000Z</time>
      </trkpt>
      <trkpt lat="45.08271" lon="0.58305">
        <ele>90.800003051758</ele>
        <time>2020-09-22T08:08:06.000Z</time>
      </trkpt>
      <trkpt lat="45.08269" lon="0.58301">
        <ele>90.800003051758</ele>
        <time>2020-09-22T08:08:07.000Z</time>
      </trkpt>
      <trkpt lat="45.08267" lon="0.58298">
        <ele>90.800003051758</ele>
        <time>2020-09-22T08:08:08.000Z</time>
      </trkpt>
      <trkpt lat="45.08265" lon="0.58295">
        <ele>90.800003051758</ele>
        <time>2020-09-22T08:08:09.000Z</time>
      </trkpt>
      <trkpt lat="45.08263" lon="0.58291">
        <ele>90.599998474121</ele>
        <time>2020-09-22T08:08:10.000Z</time>
      </trkpt>
      <trkpt lat="45.08261" lon="0.58288">
        <ele>90.599998474121</ele>
        <time>2020-09-22T08:08:11.000Z</time>
      </trkpt>
      <trkpt lat="45.0826" lon="0.58285">
        <ele>90.599998474121</ele>
        <time>2020-09-22T08:08:12.000Z</time>
      </trkpt>
      <trkpt lat="45.08258" lon="0.58282">
        <ele>90.599998474121</ele>
        <time>2020-09-22T08:08:13.000Z</time>
      </trkpt>
      <trkpt lat="45.08256" lon="0.58279">
        <ele>90.400001525879</ele>
        <time>2020-09-22T08:08:14.000Z</time>
      </trkpt>
      <trkpt lat="45.08254" lon="0.58276">
        <ele>90.400001525879</ele>
        <time>2020-09-22T08:08:15.000Z</time>
      </trkpt>
      <trkpt lat="45.08252" lon="0.58275">
        <ele>90.400001525879</ele>
        <time>2020-09-22T08:08:16.000Z</time>
      </trkpt>
      <trkpt lat="45.08249" lon="0.58275">
        <ele>90.199996948242</ele>
        <time>2020-09-22T08:08:17.000Z</time>
      </trkpt>
      <trkpt lat="45.08247" lon="0.58275">
        <ele>90</ele>
        <time>2020-09-22T08:08:18.000Z</time>
      </trkpt>
      <trkpt lat="45.08244" lon="0.58275">
        <ele>90</ele>
        <time>2020-09-22T08:08:19.000Z</time>
      </trkpt>
      <trkpt lat="45.08241" lon="0.58276">
        <ele>89.800003051758</ele>
        <time>2020-09-22T08:08:20.000Z</time>
      </trkpt>
      <trkpt lat="45.08238" lon="0.58277">
        <ele>89.599998474121</ele>
        <time>2020-09-22T08:08:21.000Z</time>
      </trkpt>
      <trkpt lat="45.08235" lon="0.58278">
        <ele>89.400001525879</ele>
        <time>2020-09-22T08:08:22.000Z</time>
      </trkpt>
      <trkpt lat="45.08232" lon="0.58279">
        <ele>89.400001525879</ele>
        <time>2020-09-22T08:08:23.000Z</time>
      </trkpt>
      <trkpt lat="45.0823" lon="0.58281">
        <ele>89.199996948242</ele>
        <time>2020-09-22T08:08:24.000Z</time>
      </trkpt>
      <trkpt lat="45.08227" lon="0.58282">
        <ele>89</ele>
        <time>2020-09-22T08:08:25.000Z</time>
      </trkpt>
      <trkpt lat="45.08224" lon="0.58284">
        <ele>88.800003051758</ele>
        <time>2020-09-22T08:08:26.000Z</time>
      </trkpt>
      <trkpt lat="45.08221" lon="0.58286">
        <ele>88.800003051758</ele>
        <time>2020-09-22T08:08:27.000Z</time>
      </trkpt>
      <trkpt lat="45.08218" lon="0.58288">
        <ele>88.599998474121</ele>
        <time>2020-09-22T08:08:28.000Z</time>
      </trkpt>
      <trkpt lat="45.08216" lon="0.58289">
        <ele>88.400001525879</ele>
        <time>2020-09-22T08:08:29.000Z</time>
      </trkpt>
      <trkpt lat="45.08213" lon="0.58291">
        <ele>88.199996948242</ele>
        <time>2020-09-22T08:08:30.000Z</time>
      </trkpt>
      <trkpt lat="45.0821" lon="0.58292">
        <ele>88.199996948242</ele>
        <time>2020-09-22T08:08:31.000Z</time>
      </trkpt>
      <trkpt lat="45.08207" lon="0.58294">
        <ele>88</ele>
        <time>2020-09-22T08:08:32.000Z</time>
      </trkpt>
      <trkpt lat="45.08204" lon="0.58295">
        <ele>88</ele>
        <time>2020-09-22T08:08:33.000Z</time>
      </trkpt>
      <trkpt lat="45.08202" lon="0.58297">
        <ele>88</ele>
        <time>2020-09-22T08:08:34.000Z</time>
      </trkpt>
      <trkpt lat="45.08199" lon="0.58299">
        <ele>88</ele>
        <time>2020-09-22T08:08:35.000Z</time>
      </trkpt>
      <trkpt lat="45.08196" lon="0.58301">
        <ele>88</ele>
        <time>2020-09-22T08:08:36.000Z</time>
      </trkpt>
      <trkpt lat="45.08193" lon="0.58303">
        <ele>88</ele>
        <time>2020-09-22T08:08:37.000Z</time>
      </trkpt>
      <trkpt lat="45.08191" lon="0.58305">
        <ele>88</ele>
        <time>2020-09-22T08:08:38.000Z</time>
      </trkpt>
      <trkpt lat="45.08188" lon="0.58306">
        <ele>88</ele>
        <time>2020-09-22T08:08:39.000Z</time>
      </trkpt>
      <trkpt lat="45.08186" lon="0.58308">
        <ele>88</ele>
        <time>2020-09-22T08:08:40.000Z</time>
      </trkpt>
      <trkpt lat="45.08184" lon="0.58309">
        <ele>88</ele>
        <time>2020-09-22T08:08:41.000Z</time>
      </trkpt>
      <trkpt lat="45.0818" lon="0.58312">
        <ele>88.199996948242</ele>
        <time>2020-09-22T08:08:42.000Z</time>
      </trkpt>
      <trkpt lat="45.0818" lon="0.58312">
        <ele>88.199996948242</ele>
        <time>2020-09-22T08:08:43.000Z</time>
      </trkpt>
      <trkpt lat="45.08177" lon="0.58314">
        <ele>88.199996948242</ele>
        <time>2020-09-22T08:08:44.000Z</time>
      </trkpt>
      <trkpt lat="45.08175" lon="0.58315">
        <ele>88.199996948242</ele>
        <time>2020-09-22T08:08:45.000Z</time>
      </trkpt>
      <trkpt lat="45.08173" lon="0.58316">
        <ele>88.199996948242</ele>
        <time>2020-09-22T08:08:46.000Z</time>
      </trkpt>
      <trkpt lat="45.08171" lon="0.58318">
        <ele>88.199996948242</ele>
        <time>2020-09-22T08:08:47.000Z</time>
      </trkpt>
      <trkpt lat="45.08169" lon="0.5832">
        <ele>88.199996948242</ele>
        <time>2020-09-22T08:08:48.000Z</time>
      </trkpt>
      <trkpt lat="45.08166" lon="0.58321">
        <ele>88.199996948242</ele>
        <time>2020-09-22T08:08:49.000Z</time>
      </trkpt>
      <trkpt lat="45.08164" lon="0.58323">
        <ele>88.199996948242</ele>
        <time>2020-09-22T08:08:50.000Z</time>
      </trkpt>
      <trkpt lat="45.08161" lon="0.58324">
        <ele>88.199996948242</ele>
        <time>2020-09-22T08:08:51.000Z</time>
      </trkpt>
      <trkpt lat="45.08159" lon="0.58325">
        <ele>88.199996948242</ele>
        <time>2020-09-22T08:08:52.000Z</time>
      </trkpt>
      <trkpt lat="45.08156" lon="0.58326">
        <ele>88.199996948242</ele>
        <time>2020-09-22T08:08:53.000Z</time>
      </trkpt>
      <trkpt lat="45.08154" lon="0.58327">
        <ele>88.400001525879</ele>
        <time>2020-09-22T08:08:54.000Z</time>
      </trkpt>
      <trkpt lat="45.08151" lon="0.58329">
        <ele>88.199996948242</ele>
        <time>2020-09-22T08:08:55.000Z</time>
      </trkpt>
      <trkpt lat="45.08149" lon="0.5833">
        <ele>88.199996948242</ele>
        <time>2020-09-22T08:08:56.000Z</time>
      </trkpt>
      <trkpt lat="45.08146" lon="0.58332">
        <ele>88.199996948242</ele>
        <time>2020-09-22T08:08:57.000Z</time>
      </trkpt>
      <trkpt lat="45.08143" lon="0.58334">
        <ele>88.199996948242</ele>
        <time>2020-09-22T08:08:58.000Z</time>
      </trkpt>
      <trkpt lat="45.08141" lon="0.58336">
        <ele>88.199996948242</ele>
        <time>2020-09-22T08:08:59.000Z</time>
      </trkpt>
      <trkpt lat="45.08138" lon="0.58337">
        <ele>88.199996948242</ele>
        <time>2020-09-22T08:09:00.000Z</time>
      </trkpt>
      <trkpt lat="45.08135" lon="0.5834">
        <ele>88</ele>
        <time>2020-09-22T08:09:01.000Z</time>
      </trkpt>
      <trkpt lat="45.08132" lon="0.58342">
        <ele>88</ele>
        <time>2020-09-22T08:09:02.000Z</time>
      </trkpt>
      <trkpt lat="45.0813" lon="0.58343">
        <ele>88</ele>
        <time>2020-09-22T08:09:03.000Z</time>
      </trkpt>
      <trkpt lat="45.08128" lon="0.58344">
        <ele>88</ele>
        <time>2020-09-22T08:09:04.000Z</time>
      </trkpt>
      <trkpt lat="45.08125" lon="0.58345">
        <ele>88</ele>
        <time>2020-09-22T08:09:05.000Z</time>
      </trkpt>
      <trkpt lat="45.08122" lon="0.58347">
        <ele>88</ele>
        <time>2020-09-22T08:09:06.000Z</time>
      </trkpt>
      <trkpt lat="45.08119" lon="0.58349">
        <ele>88</ele>
        <time>2020-09-22T08:09:07.000Z</time>
      </trkpt>
      <trkpt lat="45.08116" lon="0.58351">
        <ele>88</ele>
        <time>2020-09-22T08:09:08.000Z</time>
      </trkpt>
      <trkpt lat="45.08114" lon="0.58352">
        <ele>88</ele>
        <time>2020-09-22T08:09:09.000Z</time>
      </trkpt>
      <trkpt lat="45.08111" lon="0.58354">
        <ele>88</ele>
        <time>2020-09-22T08:09:10.000Z</time>
      </trkpt>
      <trkpt lat="45.08109" lon="0.58355">
        <ele>88</ele>
        <time>2020-09-22T08:09:11.000Z</time>
      </trkpt>
      <trkpt lat="45.08106" lon="0.58356">
        <ele>88</ele>
        <time>2020-09-22T08:09:12.000Z</time>
      </trkpt>
      <trkpt lat="45.08103" lon="0.58357">
        <ele>88</ele>
        <time>2020-09-22T08:09:13.000Z</time>
      </trkpt>
      <trkpt lat="45.081" lon="0.58359">
        <ele>88</ele>
        <time>2020-09-22T08:09:14.000Z</time>
      </trkpt>
      <trkpt lat="45.08097" lon="0.58361">
        <ele>88</ele>
        <time>2020-09-22T08:09:15.000Z</time>
      </trkpt>
      <trkpt lat="45.08094" lon="0.58363">
        <ele>88</ele>
        <time>2020-09-22T08:09:16.000Z</time>
      </trkpt>
      <trkpt lat="45.08091" lon="0.58365">
        <ele>88</ele>
        <time>2020-09-22T08:09:17.000Z</time>
      </trkpt>
      <trkpt lat="45.08088" lon="0.58366">
        <ele>88</ele>
        <time>2020-09-22T08:09:18.000Z</time>
      </trkpt>
      <trkpt lat="45.08085" lon="0.58368">
        <ele>88</ele>
        <time>2020-09-22T08:09:19.000Z</time>
      </trkpt>
      <trkpt lat="45.08082" lon="0.58369">
        <ele>88</ele>
        <time>2020-09-22T08:09:20.000Z</time>
      </trkpt>
      <trkpt lat="45.08079" lon="0.58371">
        <ele>88</ele>
        <time>2020-09-22T08:09:21.000Z</time>
      </trkpt>
      <trkpt lat="45.08075" lon="0.58373">
        <ele>88</ele>
        <time>2020-09-22T08:09:22.000Z</time>
      </trkpt>
      <trkpt lat="45.08072" lon="0.58374">
        <ele>88</ele>
        <time>2020-09-22T08:09:23.000Z</time>
      </trkpt>
      <trkpt lat="45.08069" lon="0.58376">
        <ele>88</ele>
        <time>2020-09-22T08:09:24.000Z</time>
      </trkpt>
      <trkpt lat="45.08066" lon="0.58378">
        <ele>88</ele>
        <time>2020-09-22T08:09:25.000Z</time>
      </trkpt>
      <trkpt lat="45.08063" lon="0.58379">
        <ele>88</ele>
        <time>2020-09-22T08:09:26.000Z</time>
      </trkpt>
      <trkpt lat="45.0806" lon="0.58381">
        <ele>88</ele>
        <time>2020-09-22T08:09:27.000Z</time>
      </trkpt>
      <trkpt lat="45.08058" lon="0.58382">
        <ele>88</ele>
        <time>2020-09-22T08:09:28.000Z</time>
      </trkpt>
      <trkpt lat="45.08055" lon="0.58384">
        <ele>88</ele>
        <time>2020-09-22T08:09:29.000Z</time>
      </trkpt>
      <trkpt lat="45.08052" lon="0.58385">
        <ele>88</ele>
        <time>2020-09-22T08:09:30.000Z</time>
      </trkpt>
      <trkpt lat="45.08049" lon="0.58387">
        <ele>88</ele>
        <time>2020-09-22T08:09:31.000Z</time>
      </trkpt>
      <trkpt lat="45.08045" lon="0.58388">
        <ele>88</ele>
        <time>2020-09-22T08:09:32.000Z</time>
      </trkpt>
      <trkpt lat="45.08042" lon="0.5839">
        <ele>88.199996948242</ele>
        <time>2020-09-22T08:09:33.000Z</time>
      </trkpt>
      <trkpt lat="45.08039" lon="0.58392">
        <ele>88.199996948242</ele>
        <time>2020-09-22T08:09:34.000Z</time>
      </trkpt>
      <trkpt lat="45.08035" lon="0.58394">
        <ele>88.400001525879</ele>
        <time>2020-09-22T08:09:35.000Z</time>
      </trkpt>
      <trkpt lat="45.08032" lon="0.58395">
        <ele>88.400001525879</ele>
        <time>2020-09-22T08:09:36.000Z</time>
      </trkpt>
      <trkpt lat="45.08029" lon="0.58397">
        <ele>88.400001525879</ele>
        <time>2020-09-22T08:09:37.000Z</time>
      </trkpt>
      <trkpt lat="45.08026" lon="0.58398">
        <ele>88.599998474121</ele>
        <time>2020-09-22T08:09:38.000Z</time>
      </trkpt>
      <trkpt lat="45.08023" lon="0.58399">
        <ele>88.599998474121</ele>
        <time>2020-09-22T08:09:39.000Z</time>
      </trkpt>
      <trkpt lat="45.0802" lon="0.584">
        <ele>88.599998474121</ele>
        <time>2020-09-22T08:09:40.000Z</time>
      </trkpt>
      <trkpt lat="45.08018" lon="0.58401">
        <ele>88.599998474121</ele>
        <time>2020-09-22T08:09:41.000Z</time>
      </trkpt>
      <trkpt lat="45.08015" lon="0.58401">
        <ele>88.800003051758</ele>
        <time>2020-09-22T08:09:42.000Z</time>
      </trkpt>
      <trkpt lat="45.08012" lon="0.584">
        <ele>88.800003051758</ele>
        <time>2020-09-22T08:09:43.000Z</time>
      </trkpt>
      <trkpt lat="45.08009" lon="0.58398">
        <ele>88.800003051758</ele>
        <time>2020-09-22T08:09:44.000Z</time>
      </trkpt>
      <trkpt lat="45.08006" lon="0.58396">
        <ele>88.800003051758</ele>
        <time>2020-09-22T08:09:45.000Z</time>
      </trkpt>
      <trkpt lat="45.08003" lon="0.58393">
        <ele>88.599998474121</ele>
        <time>2020-09-22T08:09:46.000Z</time>
      </trkpt>
      <trkpt lat="45.08" lon="0.5839">
        <ele>88.599998474121</ele>
        <time>2020-09-22T08:09:47.000Z</time>
      </trkpt>
      <trkpt lat="45.07997" lon="0.58388">
        <ele>88.599998474121</ele>
        <time>2020-09-22T08:09:48.000Z</time>
      </trkpt>
      <trkpt lat="45.07993" lon="0.58385">
        <ele>88.599998474121</ele>
        <time>2020-09-22T08:09:49.000Z</time>
      </trkpt>
      <trkpt lat="45.0799" lon="0.58383">
        <ele>88.599998474121</ele>
        <time>2020-09-22T08:09:50.000Z</time>
      </trkpt>
      <trkpt lat="45.07987" lon="0.5838">
        <ele>88.599998474121</ele>
        <time>2020-09-22T08:09:51.000Z</time>
      </trkpt>
      <trkpt lat="45.07985" lon="0.58377">
        <ele>88.800003051758</ele>
        <time>2020-09-22T08:09:52.000Z</time>
      </trkpt>
      <trkpt lat="45.07982" lon="0.58374">
        <ele>88.800003051758</ele>
        <time>2020-09-22T08:09:53.000Z</time>
      </trkpt>
      <trkpt lat="45.07979" lon="0.58372">
        <ele>88.800003051758</ele>
        <time>2020-09-22T08:09:54.000Z</time>
      </trkpt>
      <trkpt lat="45.07976" lon="0.58369">
        <ele>88.800003051758</ele>
        <time>2020-09-22T08:09:55.000Z</time>
      </trkpt>
      <trkpt lat="45.07973" lon="0.58367">
        <ele>88.800003051758</ele>
        <time>2020-09-22T08:09:56.000Z</time>
      </trkpt>
      <trkpt lat="45.0797" lon="0.58365">
        <ele>88.800003051758</ele>
        <time>2020-09-22T08:09:57.000Z</time>
      </trkpt>
      <trkpt lat="45.07968" lon="0.58362">
        <ele>89</ele>
        <time>2020-09-22T08:09:58.000Z</time>
      </trkpt>
      <trkpt lat="45.07965" lon="0.58361">
        <ele>89</ele>
        <time>2020-09-22T08:09:59.000Z</time>
      </trkpt>
      <trkpt lat="45.07962" lon="0.58359">
        <ele>89</ele>
        <time>2020-09-22T08:10:00.000Z</time>
      </trkpt>
      <trkpt lat="45.07959" lon="0.58357">
        <ele>89</ele>
        <time>2020-09-22T08:10:01.000Z</time>
      </trkpt>
      <trkpt lat="45.07956" lon="0.58355">
        <ele>89.199996948242</ele>
        <time>2020-09-22T08:10:02.000Z</time>
      </trkpt>
      <trkpt lat="45.07953" lon="0.58353">
        <ele>89.199996948242</ele>
        <time>2020-09-22T08:10:03.000Z</time>
      </trkpt>
      <trkpt lat="45.0795" lon="0.58351">
        <ele>89.400001525879</ele>
        <time>2020-09-22T08:10:04.000Z</time>
      </trkpt>
      <trkpt lat="45.07948" lon="0.58349">
        <ele>89.400001525879</ele>
        <time>2020-09-22T08:10:05.000Z</time>
      </trkpt>
      <trkpt lat="45.07945" lon="0.58348">
        <ele>89.599998474121</ele>
        <time>2020-09-22T08:10:06.000Z</time>
      </trkpt>
      <trkpt lat="45.07942" lon="0.58346">
        <ele>89.599998474121</ele>
        <time>2020-09-22T08:10:07.000Z</time>
      </trkpt>
      <trkpt lat="45.0794" lon="0.58344">
        <ele>89.800003051758</ele>
        <time>2020-09-22T08:10:08.000Z</time>
      </trkpt>
      <trkpt lat="45.07937" lon="0.58342">
        <ele>89.800003051758</ele>
        <time>2020-09-22T08:10:09.000Z</time>
      </trkpt>
      <trkpt lat="45.07934" lon="0.58341">
        <ele>90</ele>
        <time>2020-09-22T08:10:10.000Z</time>
      </trkpt>
      <trkpt lat="45.07932" lon="0.5834">
        <ele>90</ele>
        <time>2020-09-22T08:10:11.000Z</time>
      </trkpt>
      <trkpt lat="45.07929" lon="0.58338">
        <ele>90</ele>
        <time>2020-09-22T08:10:12.000Z</time>
      </trkpt>
      <trkpt lat="45.07926" lon="0.58336">
        <ele>90.199996948242</ele>
        <time>2020-09-22T08:10:13.000Z</time>
      </trkpt>
      <trkpt lat="45.07923" lon="0.58334">
        <ele>90.400001525879</ele>
        <time>2020-09-22T08:10:14.000Z</time>
      </trkpt>
      <trkpt lat="45.07921" lon="0.58332">
        <ele>90.400001525879</ele>
        <time>2020-09-22T08:10:15.000Z</time>
      </trkpt>
      <trkpt lat="45.07918" lon="0.5833">
        <ele>90.599998474121</ele>
        <time>2020-09-22T08:10:16.000Z</time>
      </trkpt>
      <trkpt lat="45.07916" lon="0.58328">
        <ele>90.599998474121</ele>
        <time>2020-09-22T08:10:17.000Z</time>
      </trkpt>
      <trkpt lat="45.07913" lon="0.58326">
        <ele>90.599998474121</ele>
        <time>2020-09-22T08:10:18.000Z</time>
      </trkpt>
      <trkpt lat="45.0791" lon="0.58324">
        <ele>90.800003051758</ele>
        <time>2020-09-22T08:10:19.000Z</time>
      </trkpt>
      <trkpt lat="45.07908" lon="0.58322">
        <ele>90.800003051758</ele>
        <time>2020-09-22T08:10:20.000Z</time>
      </trkpt>
      <trkpt lat="45.07906" lon="0.5832">
        <ele>91</ele>
        <time>2020-09-22T08:10:21.000Z</time>
      </trkpt>
      <trkpt lat="45.07904" lon="0.58318">
        <ele>91</ele>
        <time>2020-09-22T08:10:22.000Z</time>
      </trkpt>
      <trkpt lat="45.07902" lon="0.58317">
        <ele>91</ele>
        <time>2020-09-22T08:10:23.000Z</time>
      </trkpt>
      <trkpt lat="45.07899" lon="0.58315">
        <ele>91.199996948242</ele>
        <time>2020-09-22T08:10:24.000Z</time>
      </trkpt>
      <trkpt lat="45.07897" lon="0.58314">
        <ele>91.199996948242</ele>
        <time>2020-09-22T08:10:25.000Z</time>
      </trkpt>
      <trkpt lat="45.07891" lon="0.5831">
        <ele>91.400001525879</ele>
        <time>2020-09-22T08:10:26.000Z</time>
      </trkpt>
      <trkpt lat="45.07888" lon="0.58309">
        <ele>91.599998474121</ele>
        <time>2020-09-22T08:10:27.000Z</time>
      </trkpt>
      <trkpt lat="45.07888" lon="0.58309">
        <ele>91.599998474121</ele>
        <time>2020-09-22T08:10:28.000Z</time>
      </trkpt>
      <trkpt lat="45.07886" lon="0.58307">
        <ele>91.599998474121</ele>
        <time>2020-09-22T08:10:29.000Z</time>
      </trkpt>
      <trkpt lat="45.07883" lon="0.58306">
        <ele>91.800003051758</ele>
        <time>2020-09-22T08:10:30.000Z</time>
      </trkpt>
      <trkpt lat="45.07881" lon="0.58304">
        <ele>91.800003051758</ele>
        <time>2020-09-22T08:10:31.000Z</time>
      </trkpt>
      <trkpt lat="45.07878" lon="0.58303">
        <ele>92</ele>
        <time>2020-09-22T08:10:32.000Z</time>
      </trkpt>
      <trkpt lat="45.07876" lon="0.58301">
        <ele>92</ele>
        <time>2020-09-22T08:10:33.000Z</time>
      </trkpt>
      <trkpt lat="45.07873" lon="0.583">
        <ele>92.400001525879</ele>
        <time>2020-09-22T08:10:34.000Z</time>
      </trkpt>
      <trkpt lat="45.07871" lon="0.58298">
        <ele>92.599998474121</ele>
        <time>2020-09-22T08:10:35.000Z</time>
      </trkpt>
      <trkpt lat="45.07869" lon="0.58296">
        <ele>92.800003051758</ele>
        <time>2020-09-22T08:10:36.000Z</time>
      </trkpt>
      <trkpt lat="45.07868" lon="0.58294">
        <ele>92.800003051758</ele>
        <time>2020-09-22T08:10:37.000Z</time>
      </trkpt>
      <trkpt lat="45.07866" lon="0.58292">
        <ele>93</ele>
        <time>2020-09-22T08:10:38.000Z</time>
      </trkpt>
      <trkpt lat="45.07864" lon="0.5829">
        <ele>93.199996948242</ele>
        <time>2020-09-22T08:10:39.000Z</time>
      </trkpt>
      <trkpt lat="45.07863" lon="0.58288">
        <ele>93.400001525879</ele>
        <time>2020-09-22T08:10:40.000Z</time>
      </trkpt>
      <trkpt lat="45.07861" lon="0.58287">
        <ele>93.599998474121</ele>
        <time>2020-09-22T08:10:41.000Z</time>
      </trkpt>
      <trkpt lat="45.07858" lon="0.58285">
        <ele>93.800003051758</ele>
        <time>2020-09-22T08:10:42.000Z</time>
      </trkpt>
      <trkpt lat="45.07856" lon="0.58284">
        <ele>94</ele>
        <time>2020-09-22T08:10:43.000Z</time>
      </trkpt>
      <trkpt lat="45.07854" lon="0.58283">
        <ele>94.400001525879</ele>
        <time>2020-09-22T08:10:44.000Z</time>
      </trkpt>
      <trkpt lat="45.07852" lon="0.58281">
        <ele>94.400001525879</ele>
        <time>2020-09-22T08:10:45.000Z</time>
      </trkpt>
      <trkpt lat="45.07851" lon="0.58279">
        <ele>94.599998474121</ele>
        <time>2020-09-22T08:10:46.000Z</time>
      </trkpt>
      <trkpt lat="45.0785" lon="0.58277">
        <ele>94.599998474121</ele>
        <time>2020-09-22T08:10:47.000Z</time>
      </trkpt>
      <trkpt lat="45.07848" lon="0.58275">
        <ele>94.800003051758</ele>
        <time>2020-09-22T08:10:48.000Z</time>
      </trkpt>
      <trkpt lat="45.07847" lon="0.58273">
        <ele>94.800003051758</ele>
        <time>2020-09-22T08:10:49.000Z</time>
      </trkpt>
      <trkpt lat="45.07845" lon="0.58271">
        <ele>95</ele>
        <time>2020-09-22T08:10:50.000Z</time>
      </trkpt>
      <trkpt lat="45.07842" lon="0.5827">
        <ele>95.400001525879</ele>
        <time>2020-09-22T08:10:51.000Z</time>
      </trkpt>
      <trkpt lat="45.07838" lon="0.58269">
        <ele>96</ele>
        <time>2020-09-22T08:10:52.000Z</time>
      </trkpt>
      <trkpt lat="45.07836" lon="0.58267">
        <ele>96.199996948242</ele>
        <time>2020-09-22T08:10:53.000Z</time>
      </trkpt>
      <trkpt lat="45.07834" lon="0.58266">
        <ele>96.199996948242</ele>
        <time>2020-09-22T08:10:54.000Z</time>
      </trkpt>
      <trkpt lat="45.07832" lon="0.58265">
        <ele>96.599998474121</ele>
        <time>2020-09-22T08:10:55.000Z</time>
      </trkpt>
      <trkpt lat="45.07829" lon="0.58264">
        <ele>96.800003051758</ele>
        <time>2020-09-22T08:10:56.000Z</time>
      </trkpt>
      <trkpt lat="45.07827" lon="0.58263">
        <ele>97.199996948242</ele>
        <time>2020-09-22T08:10:57.000Z</time>
      </trkpt>
      <trkpt lat="45.07825" lon="0.58261">
        <ele>97.400001525879</ele>
        <time>2020-09-22T08:10:58.000Z</time>
      </trkpt>
      <trkpt lat="45.07823" lon="0.5826">
        <ele>97.599998474121</ele>
        <time>2020-09-22T08:10:59.000Z</time>
      </trkpt>
      <trkpt lat="45.07821" lon="0.5826">
        <ele>97.800003051758</ele>
        <time>2020-09-22T08:11:00.000Z</time>
      </trkpt>
      <trkpt lat="45.07819" lon="0.58258">
        <ele>98</ele>
        <time>2020-09-22T08:11:01.000Z</time>
      </trkpt>
      <trkpt lat="45.07817" lon="0.58257">
        <ele>98.199996948242</ele>
        <time>2020-09-22T08:11:02.000Z</time>
      </trkpt>
      <trkpt lat="45.07815" lon="0.58255">
        <ele>98.400001525879</ele>
        <time>2020-09-22T08:11:03.000Z</time>
      </trkpt>
      <trkpt lat="45.07813" lon="0.58253">
        <ele>98.599998474121</ele>
        <time>2020-09-22T08:11:04.000Z</time>
      </trkpt>
      <trkpt lat="45.07811" lon="0.58252">
        <ele>98.800003051758</ele>
        <time>2020-09-22T08:11:05.000Z</time>
      </trkpt>
      <trkpt lat="45.07808" lon="0.58251">
        <ele>99.199996948242</ele>
        <time>2020-09-22T08:11:06.000Z</time>
      </trkpt>
      <trkpt lat="45.07806" lon="0.5825">
        <ele>99.400001525879</ele>
        <time>2020-09-22T08:11:07.000Z</time>
      </trkpt>
      <trkpt lat="45.07804" lon="0.58249">
        <ele>99.599998474121</ele>
        <time>2020-09-22T08:11:08.000Z</time>
      </trkpt>
      <trkpt lat="45.07801" lon="0.58247">
        <ele>100</ele>
        <time>2020-09-22T08:11:09.000Z</time>
      </trkpt>
      <trkpt lat="45.07799" lon="0.58245">
        <ele>100.19999694824</ele>
        <time>2020-09-22T08:11:10.000Z</time>
      </trkpt>
      <trkpt lat="45.07797" lon="0.58243">
        <ele>100.40000152588</ele>
        <time>2020-09-22T08:11:11.000Z</time>
      </trkpt>
      <trkpt lat="45.07794" lon="0.58241">
        <ele>100.59999847412</ele>
        <time>2020-09-22T08:11:12.000Z</time>
      </trkpt>
      <trkpt lat="45.07792" lon="0.58239">
        <ele>100.80000305176</ele>
        <time>2020-09-22T08:11:13.000Z</time>
      </trkpt>
      <trkpt lat="45.0779" lon="0.58238">
        <ele>101</ele>
        <time>2020-09-22T08:11:14.000Z</time>
      </trkpt>
      <trkpt lat="45.07788" lon="0.58235">
        <ele>101.19999694824</ele>
        <time>2020-09-22T08:11:15.000Z</time>
      </trkpt>
      <trkpt lat="45.07785" lon="0.58234">
        <ele>101.40000152588</ele>
        <time>2020-09-22T08:11:16.000Z</time>
      </trkpt>
      <trkpt lat="45.07783" lon="0.58232">
        <ele>101.59999847412</ele>
        <time>2020-09-22T08:11:17.000Z</time>
      </trkpt>
      <trkpt lat="45.0778" lon="0.58231">
        <ele>101.80000305176</ele>
        <time>2020-09-22T08:11:18.000Z</time>
      </trkpt>
      <trkpt lat="45.07778" lon="0.58229">
        <ele>101.80000305176</ele>
        <time>2020-09-22T08:11:19.000Z</time>
      </trkpt>
      <trkpt lat="45.07775" lon="0.58228">
        <ele>102</ele>
        <time>2020-09-22T08:11:20.000Z</time>
      </trkpt>
      <trkpt lat="45.07773" lon="0.58227">
        <ele>102.19999694824</ele>
        <time>2020-09-22T08:11:21.000Z</time>
      </trkpt>
      <trkpt lat="45.07771" lon="0.58225">
        <ele>102.40000152588</ele>
        <time>2020-09-22T08:11:22.000Z</time>
      </trkpt>
      <trkpt lat="45.07769" lon="0.58223">
        <ele>102.59999847412</ele>
        <time>2020-09-22T08:11:23.000Z</time>
      </trkpt>
      <trkpt lat="45.07767" lon="0.58221">
        <ele>102.59999847412</ele>
        <time>2020-09-22T08:11:24.000Z</time>
      </trkpt>
      <trkpt lat="45.07765" lon="0.5822">
        <ele>102.80000305176</ele>
        <time>2020-09-22T08:11:25.000Z</time>
      </trkpt>
      <trkpt lat="45.07763" lon="0.58219">
        <ele>103</ele>
        <time>2020-09-22T08:11:26.000Z</time>
      </trkpt>
      <trkpt lat="45.07761" lon="0.58218">
        <ele>103.19999694824</ele>
        <time>2020-09-22T08:11:27.000Z</time>
      </trkpt>
      <trkpt lat="45.07758" lon="0.58217">
        <ele>103.40000152588</ele>
        <time>2020-09-22T08:11:28.000Z</time>
      </trkpt>
      <trkpt lat="45.07756" lon="0.58215">
        <ele>103.59999847412</ele>
        <time>2020-09-22T08:11:29.000Z</time>
      </trkpt>
      <trkpt lat="45.07754" lon="0.58213">
        <ele>103.80000305176</ele>
        <time>2020-09-22T08:11:30.000Z</time>
      </trkpt>
      <trkpt lat="45.07752" lon="0.58211">
        <ele>104</ele>
        <time>2020-09-22T08:11:31.000Z</time>
      </trkpt>
      <trkpt lat="45.07749" lon="0.58209">
        <ele>104.40000152588</ele>
        <time>2020-09-22T08:11:32.000Z</time>
      </trkpt>
      <trkpt lat="45.07747" lon="0.58207">
        <ele>104.59999847412</ele>
        <time>2020-09-22T08:11:33.000Z</time>
      </trkpt>
      <trkpt lat="45.07745" lon="0.58204">
        <ele>104.80000305176</ele>
        <time>2020-09-22T08:11:34.000Z</time>
      </trkpt>
      <trkpt lat="45.07743" lon="0.58202">
        <ele>105</ele>
        <time>2020-09-22T08:11:35.000Z</time>
      </trkpt>
      <trkpt lat="45.07741" lon="0.582">
        <ele>105.19999694824</ele>
        <time>2020-09-22T08:11:36.000Z</time>
      </trkpt>
      <trkpt lat="45.07739" lon="0.58198">
        <ele>105.40000152588</ele>
        <time>2020-09-22T08:11:37.000Z</time>
      </trkpt>
      <trkpt lat="45.07737" lon="0.58196">
        <ele>105.59999847412</ele>
        <time>2020-09-22T08:11:38.000Z</time>
      </trkpt>
      <trkpt lat="45.07735" lon="0.58194">
        <ele>105.80000305176</ele>
        <time>2020-09-22T08:11:39.000Z</time>
      </trkpt>
      <trkpt lat="45.07733" lon="0.58193">
        <ele>106</ele>
        <time>2020-09-22T08:11:40.000Z</time>
      </trkpt>
      <trkpt lat="45.07731" lon="0.58192">
        <ele>106.19999694824</ele>
        <time>2020-09-22T08:11:41.000Z</time>
      </trkpt>
      <trkpt lat="45.07729" lon="0.58191">
        <ele>106.40000152588</ele>
        <time>2020-09-22T08:11:42.000Z</time>
      </trkpt>
      <trkpt lat="45.07727" lon="0.58189">
        <ele>106.80000305176</ele>
        <time>2020-09-22T08:11:43.000Z</time>
      </trkpt>
      <trkpt lat="45.07724" lon="0.58188">
        <ele>107</ele>
        <time>2020-09-22T08:11:44.000Z</time>
      </trkpt>
      <trkpt lat="45.07722" lon="0.58187">
        <ele>107.19999694824</ele>
        <time>2020-09-22T08:11:45.000Z</time>
      </trkpt>
      <trkpt lat="45.0772" lon="0.58186">
        <ele>107.40000152588</ele>
        <time>2020-09-22T08:11:46.000Z</time>
      </trkpt>
      <trkpt lat="45.07717" lon="0.58184">
        <ele>107.59999847412</ele>
        <time>2020-09-22T08:11:47.000Z</time>
      </trkpt>
      <trkpt lat="45.07715" lon="0.58183">
        <ele>107.80000305176</ele>
        <time>2020-09-22T08:11:48.000Z</time>
      </trkpt>
      <trkpt lat="45.07714" lon="0.58181">
        <ele>108</ele>
        <time>2020-09-22T08:11:49.000Z</time>
      </trkpt>
      <trkpt lat="45.07712" lon="0.5818">
        <ele>108.19999694824</ele>
        <time>2020-09-22T08:11:50.000Z</time>
      </trkpt>
      <trkpt lat="45.0771" lon="0.58178">
        <ele>108.40000152588</ele>
        <time>2020-09-22T08:11:51.000Z</time>
      </trkpt>
      <trkpt lat="45.07708" lon="0.58177">
        <ele>108.80000305176</ele>
        <time>2020-09-22T08:11:52.000Z</time>
      </trkpt>
      <trkpt lat="45.07705" lon="0.58175">
        <ele>109</ele>
        <time>2020-09-22T08:11:53.000Z</time>
      </trkpt>
      <trkpt lat="45.07703" lon="0.58174">
        <ele>109.19999694824</ele>
        <time>2020-09-22T08:11:54.000Z</time>
      </trkpt>
      <trkpt lat="45.07701" lon="0.58173">
        <ele>109.40000152588</ele>
        <time>2020-09-22T08:11:55.000Z</time>
      </trkpt>
      <trkpt lat="45.07698" lon="0.58171">
        <ele>109.59999847412</ele>
        <time>2020-09-22T08:11:56.000Z</time>
      </trkpt>
      <trkpt lat="45.07696" lon="0.58171">
        <ele>109.80000305176</ele>
        <time>2020-09-22T08:11:57.000Z</time>
      </trkpt>
      <trkpt lat="45.07694" lon="0.5817">
        <ele>110</ele>
        <time>2020-09-22T08:11:58.000Z</time>
      </trkpt>
      <trkpt lat="45.07693" lon="0.58168">
        <ele>110.19999694824</ele>
        <time>2020-09-22T08:11:59.000Z</time>
      </trkpt>
      <trkpt lat="45.07691" lon="0.58167">
        <ele>110.40000152588</ele>
        <time>2020-09-22T08:12:00.000Z</time>
      </trkpt>
      <trkpt lat="45.07689" lon="0.58166">
        <ele>110.59999847412</ele>
        <time>2020-09-22T08:12:01.000Z</time>
      </trkpt>
      <trkpt lat="45.07687" lon="0.58164">
        <ele>110.80000305176</ele>
        <time>2020-09-22T08:12:02.000Z</time>
      </trkpt>
      <trkpt lat="45.07685" lon="0.58162">
        <ele>111</ele>
        <time>2020-09-22T08:12:03.000Z</time>
      </trkpt>
      <trkpt lat="45.07683" lon="0.5816">
        <ele>111.19999694824</ele>
        <time>2020-09-22T08:12:04.000Z</time>
      </trkpt>
      <trkpt lat="45.07681" lon="0.58159">
        <ele>111.40000152588</ele>
        <time>2020-09-22T08:12:05.000Z</time>
      </trkpt>
      <trkpt lat="45.07679" lon="0.58157">
        <ele>111.80000305176</ele>
        <time>2020-09-22T08:12:06.000Z</time>
      </trkpt>
      <trkpt lat="45.07677" lon="0.58156">
        <ele>112</ele>
        <time>2020-09-22T08:12:07.000Z</time>
      </trkpt>
      <trkpt lat="45.07674" lon="0.58154">
        <ele>112.19999694824</ele>
        <time>2020-09-22T08:12:08.000Z</time>
      </trkpt>
      <trkpt lat="45.07672" lon="0.58153">
        <ele>112.40000152588</ele>
        <time>2020-09-22T08:12:09.000Z</time>
      </trkpt>
      <trkpt lat="45.0767" lon="0.58151">
        <ele>112.59999847412</ele>
        <time>2020-09-22T08:12:10.000Z</time>
      </trkpt>
      <trkpt lat="45.07668" lon="0.58149">
        <ele>112.80000305176</ele>
        <time>2020-09-22T08:12:11.000Z</time>
      </trkpt>
      <trkpt lat="45.07666" lon="0.58148">
        <ele>113</ele>
        <time>2020-09-22T08:12:12.000Z</time>
      </trkpt>
      <trkpt lat="45.07664" lon="0.58147">
        <ele>113.19999694824</ele>
        <time>2020-09-22T08:12:13.000Z</time>
      </trkpt>
      <trkpt lat="45.07662" lon="0.58145">
        <ele>113.40000152588</ele>
        <time>2020-09-22T08:12:14.000Z</time>
      </trkpt>
      <trkpt lat="45.0766" lon="0.58143">
        <ele>113.59999847412</ele>
        <time>2020-09-22T08:12:15.000Z</time>
      </trkpt>
      <trkpt lat="45.07658" lon="0.58141">
        <ele>113.80000305176</ele>
        <time>2020-09-22T08:12:16.000Z</time>
      </trkpt>
      <trkpt lat="45.07656" lon="0.58139">
        <ele>114</ele>
        <time>2020-09-22T08:12:17.000Z</time>
      </trkpt>
      <trkpt lat="45.07652" lon="0.58136">
        <ele>114.40000152588</ele>
        <time>2020-09-22T08:12:18.000Z</time>
      </trkpt>
      <trkpt lat="45.07652" lon="0.58136">
        <ele>114.40000152588</ele>
        <time>2020-09-22T08:12:19.000Z</time>
      </trkpt>
      <trkpt lat="45.0765" lon="0.58134">
        <ele>114.80000305176</ele>
        <time>2020-09-22T08:12:20.000Z</time>
      </trkpt>
      <trkpt lat="45.07648" lon="0.58133">
        <ele>115</ele>
        <time>2020-09-22T08:12:21.000Z</time>
      </trkpt>
      <trkpt lat="45.07646" lon="0.58131">
        <ele>115.19999694824</ele>
        <time>2020-09-22T08:12:22.000Z</time>
      </trkpt>
      <trkpt lat="45.07644" lon="0.5813">
        <ele>115.59999847412</ele>
        <time>2020-09-22T08:12:23.000Z</time>
      </trkpt>
      <trkpt lat="45.07642" lon="0.58128">
        <ele>115.80000305176</ele>
        <time>2020-09-22T08:12:24.000Z</time>
      </trkpt>
      <trkpt lat="45.0764" lon="0.58127">
        <ele>116</ele>
        <time>2020-09-22T08:12:25.000Z</time>
      </trkpt>
      <trkpt lat="45.07638" lon="0.58126">
        <ele>116.19999694824</ele>
        <time>2020-09-22T08:12:26.000Z</time>
      </trkpt>
      <trkpt lat="45.07636" lon="0.58125">
        <ele>116.40000152588</ele>
        <time>2020-09-22T08:12:27.000Z</time>
      </trkpt>
      <trkpt lat="45.07634" lon="0.58123">
        <ele>116.59999847412</ele>
        <time>2020-09-22T08:12:28.000Z</time>
      </trkpt>
      <trkpt lat="45.07632" lon="0.58122">
        <ele>117</ele>
        <time>2020-09-22T08:12:29.000Z</time>
      </trkpt>
      <trkpt lat="45.0763" lon="0.58122">
        <ele>117.19999694824</ele>
        <time>2020-09-22T08:12:30.000Z</time>
      </trkpt>
      <trkpt lat="45.07628" lon="0.58121">
        <ele>117.40000152588</ele>
        <time>2020-09-22T08:12:31.000Z</time>
      </trkpt>
      <trkpt lat="45.07627" lon="0.58119">
        <ele>117.59999847412</ele>
        <time>2020-09-22T08:12:32.000Z</time>
      </trkpt>
      <trkpt lat="45.07625" lon="0.58118">
        <ele>117.80000305176</ele>
        <time>2020-09-22T08:12:33.000Z</time>
      </trkpt>
      <trkpt lat="45.07624" lon="0.58116">
        <ele>118.19999694824</ele>
        <time>2020-09-22T08:12:34.000Z</time>
      </trkpt>
      <trkpt lat="45.07622" lon="0.58115">
        <ele>118.40000152588</ele>
        <time>2020-09-22T08:12:35.000Z</time>
      </trkpt>
      <trkpt lat="45.0762" lon="0.58114">
        <ele>118.80000305176</ele>
        <time>2020-09-22T08:12:36.000Z</time>
      </trkpt>
      <trkpt lat="45.07618" lon="0.58113">
        <ele>119.19999694824</ele>
        <time>2020-09-22T08:12:37.000Z</time>
      </trkpt>
      <trkpt lat="45.07616" lon="0.58112">
        <ele>119.40000152588</ele>
        <time>2020-09-22T08:12:38.000Z</time>
      </trkpt>
      <trkpt lat="45.07614" lon="0.5811">
        <ele>119.80000305176</ele>
        <time>2020-09-22T08:12:39.000Z</time>
      </trkpt>
      <trkpt lat="45.07612" lon="0.58109">
        <ele>120</ele>
        <time>2020-09-22T08:12:40.000Z</time>
      </trkpt>
      <trkpt lat="45.07611" lon="0.58108">
        <ele>120.40000152588</ele>
        <time>2020-09-22T08:12:41.000Z</time>
      </trkpt>
      <trkpt lat="45.07609" lon="0.58108">
        <ele>120.59999847412</ele>
        <time>2020-09-22T08:12:42.000Z</time>
      </trkpt>
      <trkpt lat="45.07607" lon="0.58107">
        <ele>121</ele>
        <time>2020-09-22T08:12:43.000Z</time>
      </trkpt>
      <trkpt lat="45.07606" lon="0.58105">
        <ele>121.19999694824</ele>
        <time>2020-09-22T08:12:44.000Z</time>
      </trkpt>
      <trkpt lat="45.07605" lon="0.58103">
        <ele>121.40000152588</ele>
        <time>2020-09-22T08:12:45.000Z</time>
      </trkpt>
      <trkpt lat="45.07604" lon="0.58102">
        <ele>121.59999847412</ele>
        <time>2020-09-22T08:12:46.000Z</time>
      </trkpt>
      <trkpt lat="45.07603" lon="0.581">
        <ele>121.80000305176</ele>
        <time>2020-09-22T08:12:47.000Z</time>
      </trkpt>
      <trkpt lat="45.07601" lon="0.58099">
        <ele>122.19999694824</ele>
        <time>2020-09-22T08:12:48.000Z</time>
      </trkpt>
      <trkpt lat="45.076" lon="0.58096">
        <ele>122.40000152588</ele>
        <time>2020-09-22T08:12:49.000Z</time>
      </trkpt>
      <trkpt lat="45.07598" lon="0.58095">
        <ele>122.80000305176</ele>
        <time>2020-09-22T08:12:50.000Z</time>
      </trkpt>
      <trkpt lat="45.07597" lon="0.58093">
        <ele>123.19999694824</ele>
        <time>2020-09-22T08:12:51.000Z</time>
      </trkpt>
      <trkpt lat="45.07595" lon="0.58092">
        <ele>123.40000152588</ele>
        <time>2020-09-22T08:12:52.000Z</time>
      </trkpt>
      <trkpt lat="45.07594" lon="0.5809">
        <ele>123.59999847412</ele>
        <time>2020-09-22T08:12:53.000Z</time>
      </trkpt>
      <trkpt lat="45.07593" lon="0.58088">
        <ele>124</ele>
        <time>2020-09-22T08:12:54.000Z</time>
      </trkpt>
      <trkpt lat="45.07591" lon="0.58087">
        <ele>124.19999694824</ele>
        <time>2020-09-22T08:12:55.000Z</time>
      </trkpt>
      <trkpt lat="45.0759" lon="0.58085">
        <ele>124.59999847412</ele>
        <time>2020-09-22T08:12:56.000Z</time>
      </trkpt>
      <trkpt lat="45.07588" lon="0.58083">
        <ele>124.80000305176</ele>
        <time>2020-09-22T08:12:57.000Z</time>
      </trkpt>
      <trkpt lat="45.07587" lon="0.58081">
        <ele>125</ele>
        <time>2020-09-22T08:12:58.000Z</time>
      </trkpt>
      <trkpt lat="45.07586" lon="0.58079">
        <ele>125.40000152588</ele>
        <time>2020-09-22T08:12:59.000Z</time>
      </trkpt>
      <trkpt lat="45.07585" lon="0.58077">
        <ele>125.59999847412</ele>
        <time>2020-09-22T08:13:00.000Z</time>
      </trkpt>
      <trkpt lat="45.07583" lon="0.58075">
        <ele>125.80000305176</ele>
        <time>2020-09-22T08:13:01.000Z</time>
      </trkpt>
      <trkpt lat="45.07582" lon="0.58073">
        <ele>126.19999694824</ele>
        <time>2020-09-22T08:13:02.000Z</time>
      </trkpt>
      <trkpt lat="45.07581" lon="0.58071">
        <ele>126.40000152588</ele>
        <time>2020-09-22T08:13:03.000Z</time>
      </trkpt>
      <trkpt lat="45.07579" lon="0.5807">
        <ele>126.59999847412</ele>
        <time>2020-09-22T08:13:04.000Z</time>
      </trkpt>
      <trkpt lat="45.07578" lon="0.58069">
        <ele>127</ele>
        <time>2020-09-22T08:13:05.000Z</time>
      </trkpt>
      <trkpt lat="45.07575" lon="0.58067">
        <ele>127.40000152588</ele>
        <time>2020-09-22T08:13:06.000Z</time>
      </trkpt>
      <trkpt lat="45.07573" lon="0.58066">
        <ele>127.80000305176</ele>
        <time>2020-09-22T08:13:07.000Z</time>
      </trkpt>
      <trkpt lat="45.07571" lon="0.58064">
        <ele>128.19999694824</ele>
        <time>2020-09-22T08:13:08.000Z</time>
      </trkpt>
      <trkpt lat="45.07569" lon="0.58062">
        <ele>128.60000610352</ele>
        <time>2020-09-22T08:13:09.000Z</time>
      </trkpt>
      <trkpt lat="45.07567" lon="0.5806">
        <ele>129</ele>
        <time>2020-09-22T08:13:10.000Z</time>
      </trkpt>
      <trkpt lat="45.07565" lon="0.58058">
        <ele>129.39999389648</ele>
        <time>2020-09-22T08:13:11.000Z</time>
      </trkpt>
      <trkpt lat="45.07563" lon="0.58056">
        <ele>129.60000610352</ele>
        <time>2020-09-22T08:13:12.000Z</time>
      </trkpt>
      <trkpt lat="45.07561" lon="0.58054">
        <ele>130</ele>
        <time>2020-09-22T08:13:13.000Z</time>
      </trkpt>
      <trkpt lat="45.07559" lon="0.58052">
        <ele>130.39999389648</ele>
        <time>2020-09-22T08:13:14.000Z</time>
      </trkpt>
      <trkpt lat="45.07557" lon="0.5805">
        <ele>130.80000305176</ele>
        <time>2020-09-22T08:13:15.000Z</time>
      </trkpt>
      <trkpt lat="45.07555" lon="0.58048">
        <ele>131</ele>
        <time>2020-09-22T08:13:16.000Z</time>
      </trkpt>
      <trkpt lat="45.07553" lon="0.58046">
        <ele>131.19999694824</ele>
        <time>2020-09-22T08:13:17.000Z</time>
      </trkpt>
      <trkpt lat="45.07551" lon="0.58044">
        <ele>131.39999389648</ele>
        <time>2020-09-22T08:13:18.000Z</time>
      </trkpt>
      <trkpt lat="45.07549" lon="0.58043">
        <ele>131.60000610352</ele>
        <time>2020-09-22T08:13:19.000Z</time>
      </trkpt>
      <trkpt lat="45.07544" lon="0.5804">
        <ele>132.19999694824</ele>
        <time>2020-09-22T08:13:20.000Z</time>
      </trkpt>
      <trkpt lat="45.07544" lon="0.5804">
        <ele>132.19999694824</ele>
        <time>2020-09-22T08:13:21.000Z</time>
      </trkpt>
      <trkpt lat="45.07542" lon="0.58038">
        <ele>132.39999389648</ele>
        <time>2020-09-22T08:13:22.000Z</time>
      </trkpt>
      <trkpt lat="45.0754" lon="0.58037">
        <ele>132.80000305176</ele>
        <time>2020-09-22T08:13:23.000Z</time>
      </trkpt>
      <trkpt lat="45.07538" lon="0.58036">
        <ele>133.19999694824</ele>
        <time>2020-09-22T08:13:24.000Z</time>
      </trkpt>
      <trkpt lat="45.07535" lon="0.58035">
        <ele>133.80000305176</ele>
        <time>2020-09-22T08:13:25.000Z</time>
      </trkpt>
      <trkpt lat="45.07533" lon="0.58034">
        <ele>134.19999694824</ele>
        <time>2020-09-22T08:13:26.000Z</time>
      </trkpt>
      <trkpt lat="45.0753" lon="0.58033">
        <ele>134.80000305176</ele>
        <time>2020-09-22T08:13:27.000Z</time>
      </trkpt>
      <trkpt lat="45.07528" lon="0.58032">
        <ele>135.19999694824</ele>
        <time>2020-09-22T08:13:28.000Z</time>
      </trkpt>
      <trkpt lat="45.07525" lon="0.5803">
        <ele>135.60000610352</ele>
        <time>2020-09-22T08:13:29.000Z</time>
      </trkpt>
      <trkpt lat="45.07523" lon="0.58029">
        <ele>136</ele>
        <time>2020-09-22T08:13:30.000Z</time>
      </trkpt>
      <trkpt lat="45.0752" lon="0.58028">
        <ele>136.39999389648</ele>
        <time>2020-09-22T08:13:31.000Z</time>
      </trkpt>
      <trkpt lat="45.07518" lon="0.58027">
        <ele>136.80000305176</ele>
        <time>2020-09-22T08:13:32.000Z</time>
      </trkpt>
      <trkpt lat="45.07516" lon="0.58025">
        <ele>137.39999389648</ele>
        <time>2020-09-22T08:13:33.000Z</time>
      </trkpt>
      <trkpt lat="45.07514" lon="0.58024">
        <ele>137.80000305176</ele>
        <time>2020-09-22T08:13:34.000Z</time>
      </trkpt>
      <trkpt lat="45.07511" lon="0.58022">
        <ele>138.19999694824</ele>
        <time>2020-09-22T08:13:35.000Z</time>
      </trkpt>
      <trkpt lat="45.07509" lon="0.58021">
        <ele>138.80000305176</ele>
        <time>2020-09-22T08:13:36.000Z</time>
      </trkpt>
      <trkpt lat="45.07507" lon="0.5802">
        <ele>139.19999694824</ele>
        <time>2020-09-22T08:13:37.000Z</time>
      </trkpt>
      <trkpt lat="45.07505" lon="0.58018">
        <ele>139.39999389648</ele>
        <time>2020-09-22T08:13:38.000Z</time>
      </trkpt>
      <trkpt lat="45.07503" lon="0.58016">
        <ele>139.80000305176</ele>
        <time>2020-09-22T08:13:39.000Z</time>
      </trkpt>
      <trkpt lat="45.07501" lon="0.58015">
        <ele>140</ele>
        <time>2020-09-22T08:13:40.000Z</time>
      </trkpt>
      <trkpt lat="45.07499" lon="0.58013">
        <ele>140.39999389648</ele>
        <time>2020-09-22T08:13:41.000Z</time>
      </trkpt>
      <trkpt lat="45.07497" lon="0.58012">
        <ele>140.80000305176</ele>
        <time>2020-09-22T08:13:42.000Z</time>
      </trkpt>
      <trkpt lat="45.07495" lon="0.5801">
        <ele>141.19999694824</ele>
        <time>2020-09-22T08:13:43.000Z</time>
      </trkpt>
      <trkpt lat="45.07493" lon="0.58008">
        <ele>141.39999389648</ele>
        <time>2020-09-22T08:13:44.000Z</time>
      </trkpt>
      <trkpt lat="45.07492" lon="0.58006">
        <ele>141.80000305176</ele>
        <time>2020-09-22T08:13:45.000Z</time>
      </trkpt>
      <trkpt lat="45.0749" lon="0.58004">
        <ele>142</ele>
        <time>2020-09-22T08:13:46.000Z</time>
      </trkpt>
      <trkpt lat="45.07488" lon="0.58002">
        <ele>142.19999694824</ele>
        <time>2020-09-22T08:13:47.000Z</time>
      </trkpt>
      <trkpt lat="45.07487" lon="0.58">
        <ele>142.39999389648</ele>
        <time>2020-09-22T08:13:48.000Z</time>
      </trkpt>
      <trkpt lat="45.07485" lon="0.57999">
        <ele>142.80000305176</ele>
        <time>2020-09-22T08:13:49.000Z</time>
      </trkpt>
      <trkpt lat="45.07483" lon="0.57998">
        <ele>143.19999694824</ele>
        <time>2020-09-22T08:13:50.000Z</time>
      </trkpt>
      <trkpt lat="45.07481" lon="0.57997">
        <ele>143.60000610352</ele>
        <time>2020-09-22T08:13:51.000Z</time>
      </trkpt>
      <trkpt lat="45.07479" lon="0.57996">
        <ele>144</ele>
        <time>2020-09-22T08:13:52.000Z</time>
      </trkpt>
      <trkpt lat="45.07477" lon="0.57994">
        <ele>144.19999694824</ele>
        <time>2020-09-22T08:13:53.000Z</time>
      </trkpt>
      <trkpt lat="45.07476" lon="0.57993">
        <ele>144.60000610352</ele>
        <time>2020-09-22T08:13:54.000Z</time>
      </trkpt>
      <trkpt lat="45.07474" lon="0.57991">
        <ele>145</ele>
        <time>2020-09-22T08:13:55.000Z</time>
      </trkpt>
      <trkpt lat="45.07469" lon="0.5799">
        <ele>146</ele>
        <time>2020-09-22T08:13:56.000Z</time>
      </trkpt>
      <trkpt lat="45.07467" lon="0.57988">
        <ele>146.39999389648</ele>
        <time>2020-09-22T08:13:57.000Z</time>
      </trkpt>
      <trkpt lat="45.07467" lon="0.57988">
        <ele>146.39999389648</ele>
        <time>2020-09-22T08:13:58.000Z</time>
      </trkpt>
      <trkpt lat="45.07465" lon="0.57987">
        <ele>146.80000305176</ele>
        <time>2020-09-22T08:13:59.000Z</time>
      </trkpt>
      <trkpt lat="45.07462" lon="0.57986">
        <ele>147.39999389648</ele>
        <time>2020-09-22T08:14:00.000Z</time>
      </trkpt>
      <trkpt lat="45.0746" lon="0.57985">
        <ele>147.80000305176</ele>
        <time>2020-09-22T08:14:01.000Z</time>
      </trkpt>
      <trkpt lat="45.07458" lon="0.57985">
        <ele>148.39999389648</ele>
        <time>2020-09-22T08:14:02.000Z</time>
      </trkpt>
      <trkpt lat="45.07454" lon="0.57981">
        <ele>149</ele>
        <time>2020-09-22T08:14:03.000Z</time>
      </trkpt>
      <trkpt lat="45.07452" lon="0.5798">
        <ele>149.19999694824</ele>
        <time>2020-09-22T08:14:04.000Z</time>
      </trkpt>
      <trkpt lat="45.07452" lon="0.5798">
        <ele>149.19999694824</ele>
        <time>2020-09-22T08:14:05.000Z</time>
      </trkpt>
      <trkpt lat="45.0745" lon="0.57978">
        <ele>149.39999389648</ele>
        <time>2020-09-22T08:14:06.000Z</time>
      </trkpt>
      <trkpt lat="45.07449" lon="0.57976">
        <ele>149.60000610352</ele>
        <time>2020-09-22T08:14:07.000Z</time>
      </trkpt>
      <trkpt lat="45.07447" lon="0.57974">
        <ele>149.80000305176</ele>
        <time>2020-09-22T08:14:08.000Z</time>
      </trkpt>
      <trkpt lat="45.07445" lon="0.57973">
        <ele>150</ele>
        <time>2020-09-22T08:14:09.000Z</time>
      </trkpt>
      <trkpt lat="45.07443" lon="0.57971">
        <ele>150.39999389648</ele>
        <time>2020-09-22T08:14:10.000Z</time>
      </trkpt>
      <trkpt lat="45.07441" lon="0.57969">
        <ele>150.60000610352</ele>
        <time>2020-09-22T08:14:11.000Z</time>
      </trkpt>
      <trkpt lat="45.07439" lon="0.57967">
        <ele>151</ele>
        <time>2020-09-22T08:14:12.000Z</time>
      </trkpt>
      <trkpt lat="45.07436" lon="0.57965">
        <ele>151.39999389648</ele>
        <time>2020-09-22T08:14:13.000Z</time>
      </trkpt>
      <trkpt lat="45.07434" lon="0.57963">
        <ele>151.80000305176</ele>
        <time>2020-09-22T08:14:14.000Z</time>
      </trkpt>
      <trkpt lat="45.07432" lon="0.57962">
        <ele>152.19999694824</ele>
        <time>2020-09-22T08:14:15.000Z</time>
      </trkpt>
      <trkpt lat="45.0743" lon="0.57961">
        <ele>152.39999389648</ele>
        <time>2020-09-22T08:14:16.000Z</time>
      </trkpt>
      <trkpt lat="45.07429" lon="0.57959">
        <ele>152.80000305176</ele>
        <time>2020-09-22T08:14:17.000Z</time>
      </trkpt>
      <trkpt lat="45.07427" lon="0.57957">
        <ele>153</ele>
        <time>2020-09-22T08:14:18.000Z</time>
      </trkpt>
      <trkpt lat="45.07425" lon="0.57954">
        <ele>153.39999389648</ele>
        <time>2020-09-22T08:14:19.000Z</time>
      </trkpt>
      <trkpt lat="45.07423" lon="0.57953">
        <ele>153.80000305176</ele>
        <time>2020-09-22T08:14:20.000Z</time>
      </trkpt>
      <trkpt lat="45.07421" lon="0.5795">
        <ele>154</ele>
        <time>2020-09-22T08:14:21.000Z</time>
      </trkpt>
      <trkpt lat="45.07419" lon="0.57948">
        <ele>154.39999389648</ele>
        <time>2020-09-22T08:14:22.000Z</time>
      </trkpt>
      <trkpt lat="45.07418" lon="0.57946">
        <ele>154.60000610352</ele>
        <time>2020-09-22T08:14:23.000Z</time>
      </trkpt>
      <trkpt lat="45.07416" lon="0.57945">
        <ele>154.80000305176</ele>
        <time>2020-09-22T08:14:24.000Z</time>
      </trkpt>
      <trkpt lat="45.07414" lon="0.57942">
        <ele>155.19999694824</ele>
        <time>2020-09-22T08:14:25.000Z</time>
      </trkpt>
      <trkpt lat="45.07412" lon="0.57941">
        <ele>155.39999389648</ele>
        <time>2020-09-22T08:14:26.000Z</time>
      </trkpt>
      <trkpt lat="45.07411" lon="0.57939">
        <ele>155.60000610352</ele>
        <time>2020-09-22T08:14:27.000Z</time>
      </trkpt>
      <trkpt lat="45.0741" lon="0.57937">
        <ele>155.80000305176</ele>
        <time>2020-09-22T08:14:28.000Z</time>
      </trkpt>
      <trkpt lat="45.07408" lon="0.57936">
        <ele>156</ele>
        <time>2020-09-22T08:14:29.000Z</time>
      </trkpt>
      <trkpt lat="45.07405" lon="0.57934">
        <ele>156.60000610352</ele>
        <time>2020-09-22T08:14:30.000Z</time>
      </trkpt>
      <trkpt lat="45.07403" lon="0.57932">
        <ele>157</ele>
        <time>2020-09-22T08:14:31.000Z</time>
      </trkpt>
      <trkpt lat="45.074" lon="0.57928">
        <ele>157.39999389648</ele>
        <time>2020-09-22T08:14:32.000Z</time>
      </trkpt>
      <trkpt lat="45.07399" lon="0.57926">
        <ele>157.60000610352</ele>
        <time>2020-09-22T08:14:33.000Z</time>
      </trkpt>
      <trkpt lat="45.07397" lon="0.57924">
        <ele>157.80000305176</ele>
        <time>2020-09-22T08:14:34.000Z</time>
      </trkpt>
      <trkpt lat="45.07395" lon="0.57922">
        <ele>158.19999694824</ele>
        <time>2020-09-22T08:14:35.000Z</time>
      </trkpt>
      <trkpt lat="45.07394" lon="0.5792">
        <ele>158.39999389648</ele>
        <time>2020-09-22T08:14:36.000Z</time>
      </trkpt>
      <trkpt lat="45.07393" lon="0.57917">
        <ele>158.39999389648</ele>
        <time>2020-09-22T08:14:37.000Z</time>
      </trkpt>
      <trkpt lat="45.07391" lon="0.57914">
        <ele>158.39999389648</ele>
        <time>2020-09-22T08:14:38.000Z</time>
      </trkpt>
      <trkpt lat="45.0739" lon="0.57911">
        <ele>158.60000610352</ele>
        <time>2020-09-22T08:14:39.000Z</time>
      </trkpt>
      <trkpt lat="45.07388" lon="0.57909">
        <ele>158.80000305176</ele>
        <time>2020-09-22T08:14:40.000Z</time>
      </trkpt>
      <trkpt lat="45.07387" lon="0.57906">
        <ele>159</ele>
        <time>2020-09-22T08:14:41.000Z</time>
      </trkpt>
      <trkpt lat="45.07385" lon="0.57904">
        <ele>159.19999694824</ele>
        <time>2020-09-22T08:14:42.000Z</time>
      </trkpt>
      <trkpt lat="45.07383" lon="0.57901">
        <ele>159.39999389648</ele>
        <time>2020-09-22T08:14:43.000Z</time>
      </trkpt>
      <trkpt lat="45.07382" lon="0.57899">
        <ele>159.60000610352</ele>
        <time>2020-09-22T08:14:44.000Z</time>
      </trkpt>
      <trkpt lat="45.07381" lon="0.57896">
        <ele>159.80000305176</ele>
        <time>2020-09-22T08:14:45.000Z</time>
      </trkpt>
      <trkpt lat="45.0738" lon="0.57894">
        <ele>159.80000305176</ele>
        <time>2020-09-22T08:14:46.000Z</time>
      </trkpt>
      <trkpt lat="45.07378" lon="0.57892">
        <ele>160</ele>
        <time>2020-09-22T08:14:47.000Z</time>
      </trkpt>
      <trkpt lat="45.07377" lon="0.57889">
        <ele>160.19999694824</ele>
        <time>2020-09-22T08:14:48.000Z</time>
      </trkpt>
      <trkpt lat="45.07375" lon="0.57887">
        <ele>160.39999389648</ele>
        <time>2020-09-22T08:14:49.000Z</time>
      </trkpt>
      <trkpt lat="45.07373" lon="0.57885">
        <ele>160.39999389648</ele>
        <time>2020-09-22T08:14:50.000Z</time>
      </trkpt>
      <trkpt lat="45.07372" lon="0.57882">
        <ele>160.60000610352</ele>
        <time>2020-09-22T08:14:51.000Z</time>
      </trkpt>
      <trkpt lat="45.0737" lon="0.5788">
        <ele>160.80000305176</ele>
        <time>2020-09-22T08:14:52.000Z</time>
      </trkpt>
      <trkpt lat="45.07368" lon="0.57878">
        <ele>161</ele>
        <time>2020-09-22T08:14:53.000Z</time>
      </trkpt>
      <trkpt lat="45.07366" lon="0.57875">
        <ele>161.19999694824</ele>
        <time>2020-09-22T08:14:54.000Z</time>
      </trkpt>
      <trkpt lat="45.07365" lon="0.57873">
        <ele>161.19999694824</ele>
        <time>2020-09-22T08:14:55.000Z</time>
      </trkpt>
      <trkpt lat="45.07364" lon="0.5787">
        <ele>161.39999389648</ele>
        <time>2020-09-22T08:14:56.000Z</time>
      </trkpt>
      <trkpt lat="45.07362" lon="0.57868">
        <ele>161.39999389648</ele>
        <time>2020-09-22T08:14:57.000Z</time>
      </trkpt>
      <trkpt lat="45.0736" lon="0.57866">
        <ele>161.60000610352</ele>
        <time>2020-09-22T08:14:58.000Z</time>
      </trkpt>
      <trkpt lat="45.07359" lon="0.57864">
        <ele>161.60000610352</ele>
        <time>2020-09-22T08:14:59.000Z</time>
      </trkpt>
      <trkpt lat="45.07357" lon="0.57861">
        <ele>161.80000305176</ele>
        <time>2020-09-22T08:15:00.000Z</time>
      </trkpt>
      <trkpt lat="45.07355" lon="0.57859">
        <ele>162</ele>
        <time>2020-09-22T08:15:01.000Z</time>
      </trkpt>
      <trkpt lat="45.07351" lon="0.57852">
        <ele>162.39999389648</ele>
        <time>2020-09-22T08:15:02.000Z</time>
      </trkpt>
      <trkpt lat="45.07351" lon="0.57852">
        <ele>162.39999389648</ele>
        <time>2020-09-22T08:15:03.000Z</time>
      </trkpt>
      <trkpt lat="45.0735" lon="0.5785">
        <ele>162.39999389648</ele>
        <time>2020-09-22T08:15:04.000Z</time>
      </trkpt>
      <trkpt lat="45.07348" lon="0.57849">
        <ele>162.60000610352</ele>
        <time>2020-09-22T08:15:05.000Z</time>
      </trkpt>
      <trkpt lat="45.07345" lon="0.57847">
        <ele>163</ele>
        <time>2020-09-22T08:15:06.000Z</time>
      </trkpt>
      <trkpt lat="45.07342" lon="0.57844">
        <ele>163.39999389648</ele>
        <time>2020-09-22T08:15:07.000Z</time>
      </trkpt>
      <trkpt lat="45.0734" lon="0.57842">
        <ele>163.60000610352</ele>
        <time>2020-09-22T08:15:08.000Z</time>
      </trkpt>
      <trkpt lat="45.07337" lon="0.57838">
        <ele>164</ele>
        <time>2020-09-22T08:15:09.000Z</time>
      </trkpt>
      <trkpt lat="45.07335" lon="0.57835">
        <ele>164</ele>
        <time>2020-09-22T08:15:10.000Z</time>
      </trkpt>
      <trkpt lat="45.07334" lon="0.57833">
        <ele>164.19999694824</ele>
        <time>2020-09-22T08:15:11.000Z</time>
      </trkpt>
      <trkpt lat="45.07332" lon="0.5783">
        <ele>164.39999389648</ele>
        <time>2020-09-22T08:15:12.000Z</time>
      </trkpt>
      <trkpt lat="45.0733" lon="0.57827">
        <ele>164.39999389648</ele>
        <time>2020-09-22T08:15:13.000Z</time>
      </trkpt>
      <trkpt lat="45.07329" lon="0.57825">
        <ele>164.60000610352</ele>
        <time>2020-09-22T08:15:14.000Z</time>
      </trkpt>
      <trkpt lat="45.07327" lon="0.57823">
        <ele>164.80000305176</ele>
        <time>2020-09-22T08:15:15.000Z</time>
      </trkpt>
      <trkpt lat="45.07325" lon="0.5782">
        <ele>165</ele>
        <time>2020-09-22T08:15:16.000Z</time>
      </trkpt>
      <trkpt lat="45.07324" lon="0.57817">
        <ele>165</ele>
        <time>2020-09-22T08:15:17.000Z</time>
      </trkpt>
      <trkpt lat="45.07322" lon="0.57815">
        <ele>165.19999694824</ele>
        <time>2020-09-22T08:15:18.000Z</time>
      </trkpt>
      <trkpt lat="45.07321" lon="0.57812">
        <ele>165.19999694824</ele>
        <time>2020-09-22T08:15:19.000Z</time>
      </trkpt>
      <trkpt lat="45.07319" lon="0.57807">
        <ele>165.19999694824</ele>
        <time>2020-09-22T08:15:20.000Z</time>
      </trkpt>
      <trkpt lat="45.07317" lon="0.57804">
        <ele>165.39999389648</ele>
        <time>2020-09-22T08:15:21.000Z</time>
      </trkpt>
      <trkpt lat="45.07315" lon="0.578">
        <ele>165.60000610352</ele>
        <time>2020-09-22T08:15:22.000Z</time>
      </trkpt>
      <trkpt lat="45.07314" lon="0.57797">
        <ele>166</ele>
        <time>2020-09-22T08:15:23.000Z</time>
      </trkpt>
      <trkpt lat="45.07313" lon="0.57793">
        <ele>166.19999694824</ele>
        <time>2020-09-22T08:15:24.000Z</time>
      </trkpt>
      <trkpt lat="45.07312" lon="0.57789">
        <ele>166.60000610352</ele>
        <time>2020-09-22T08:15:25.000Z</time>
      </trkpt>
      <trkpt lat="45.07311" lon="0.57786">
        <ele>167</ele>
        <time>2020-09-22T08:15:26.000Z</time>
      </trkpt>
      <trkpt lat="45.0731" lon="0.57782">
        <ele>167.39999389648</ele>
        <time>2020-09-22T08:15:27.000Z</time>
      </trkpt>
      <trkpt lat="45.07309" lon="0.57778">
        <ele>167.60000610352</ele>
        <time>2020-09-22T08:15:28.000Z</time>
      </trkpt>
      <trkpt lat="45.07309" lon="0.57774">
        <ele>167.80000305176</ele>
        <time>2020-09-22T08:15:29.000Z</time>
      </trkpt>
      <trkpt lat="45.07309" lon="0.57769">
        <ele>168</ele>
        <time>2020-09-22T08:15:30.000Z</time>
      </trkpt>
      <trkpt lat="45.07309" lon="0.57766">
        <ele>168.19999694824</ele>
        <time>2020-09-22T08:15:31.000Z</time>
      </trkpt>
      <trkpt lat="45.07308" lon="0.57761">
        <ele>168.60000610352</ele>
        <time>2020-09-22T08:15:32.000Z</time>
      </trkpt>
      <trkpt lat="45.07309" lon="0.57758">
        <ele>168.60000610352</ele>
        <time>2020-09-22T08:15:33.000Z</time>
      </trkpt>
      <trkpt lat="45.07309" lon="0.57756">
        <ele>168.60000610352</ele>
        <time>2020-09-22T08:15:34.000Z</time>
      </trkpt>
      <trkpt lat="45.07309" lon="0.57752">
        <ele>168.80000305176</ele>
        <time>2020-09-22T08:15:35.000Z</time>
      </trkpt>
      <trkpt lat="45.0731" lon="0.57748">
        <ele>169</ele>
        <time>2020-09-22T08:15:36.000Z</time>
      </trkpt>
      <trkpt lat="45.0731" lon="0.57745">
        <ele>169</ele>
        <time>2020-09-22T08:15:37.000Z</time>
      </trkpt>
      <trkpt lat="45.0731" lon="0.57741">
        <ele>169.19999694824</ele>
        <time>2020-09-22T08:15:38.000Z</time>
      </trkpt>
      <trkpt lat="45.07309" lon="0.57738">
        <ele>169.39999389648</ele>
        <time>2020-09-22T08:15:39.000Z</time>
      </trkpt>
      <trkpt lat="45.07309" lon="0.57734">
        <ele>169.80000305176</ele>
        <time>2020-09-22T08:15:40.000Z</time>
      </trkpt>
      <trkpt lat="45.07309" lon="0.5773">
        <ele>170.39999389648</ele>
        <time>2020-09-22T08:15:41.000Z</time>
      </trkpt>
      <trkpt lat="45.0731" lon="0.57727">
        <ele>171</ele>
        <time>2020-09-22T08:15:42.000Z</time>
      </trkpt>
      <trkpt lat="45.07311" lon="0.57723">
        <ele>171.60000610352</ele>
        <time>2020-09-22T08:15:43.000Z</time>
      </trkpt>
      <trkpt lat="45.07312" lon="0.57719">
        <ele>172.19999694824</ele>
        <time>2020-09-22T08:15:44.000Z</time>
      </trkpt>
      <trkpt lat="45.07312" lon="0.57715">
        <ele>172.60000610352</ele>
        <time>2020-09-22T08:15:45.000Z</time>
      </trkpt>
      <trkpt lat="45.07313" lon="0.57712">
        <ele>173</ele>
        <time>2020-09-22T08:15:46.000Z</time>
      </trkpt>
      <trkpt lat="45.07314" lon="0.57709">
        <ele>173.19999694824</ele>
        <time>2020-09-22T08:15:47.000Z</time>
      </trkpt>
      <trkpt lat="45.07315" lon="0.57706">
        <ele>173.60000610352</ele>
        <time>2020-09-22T08:15:48.000Z</time>
      </trkpt>
      <trkpt lat="45.07316" lon="0.57703">
        <ele>173.80000305176</ele>
        <time>2020-09-22T08:15:49.000Z</time>
      </trkpt>
      <trkpt lat="45.07317" lon="0.57701">
        <ele>174</ele>
        <time>2020-09-22T08:15:50.000Z</time>
      </trkpt>
      <trkpt lat="45.07318" lon="0.57698">
        <ele>174.19999694824</ele>
        <time>2020-09-22T08:15:51.000Z</time>
      </trkpt>
      <trkpt lat="45.07319" lon="0.57695">
        <ele>174.39999389648</ele>
        <time>2020-09-22T08:15:52.000Z</time>
      </trkpt>
      <trkpt lat="45.07321" lon="0.57693">
        <ele>174.60000610352</ele>
        <time>2020-09-22T08:15:53.000Z</time>
      </trkpt>
      <trkpt lat="45.07323" lon="0.5769">
        <ele>175</ele>
        <time>2020-09-22T08:15:54.000Z</time>
      </trkpt>
      <trkpt lat="45.07324" lon="0.57688">
        <ele>175.19999694824</ele>
        <time>2020-09-22T08:15:55.000Z</time>
      </trkpt>
      <trkpt lat="45.07325" lon="0.57686">
        <ele>175.39999389648</ele>
        <time>2020-09-22T08:15:56.000Z</time>
      </trkpt>
      <trkpt lat="45.07328" lon="0.57683">
        <ele>175.39999389648</ele>
        <time>2020-09-22T08:15:57.000Z</time>
      </trkpt>
      <trkpt lat="45.0733" lon="0.57681">
        <ele>175.60000610352</ele>
        <time>2020-09-22T08:15:58.000Z</time>
      </trkpt>
      <trkpt lat="45.07332" lon="0.57679">
        <ele>175.80000305176</ele>
        <time>2020-09-22T08:15:59.000Z</time>
      </trkpt>
      <trkpt lat="45.07333" lon="0.57677">
        <ele>176</ele>
        <time>2020-09-22T08:16:00.000Z</time>
      </trkpt>
      <trkpt lat="45.07336" lon="0.57674">
        <ele>176.19999694824</ele>
        <time>2020-09-22T08:16:01.000Z</time>
      </trkpt>
      <trkpt lat="45.07338" lon="0.57671">
        <ele>176.39999389648</ele>
        <time>2020-09-22T08:16:02.000Z</time>
      </trkpt>
      <trkpt lat="45.0734" lon="0.57669">
        <ele>176.60000610352</ele>
        <time>2020-09-22T08:16:03.000Z</time>
      </trkpt>
      <trkpt lat="45.07342" lon="0.57667">
        <ele>176.80000305176</ele>
        <time>2020-09-22T08:16:04.000Z</time>
      </trkpt>
      <trkpt lat="45.07344" lon="0.57665">
        <ele>176.80000305176</ele>
        <time>2020-09-22T08:16:05.000Z</time>
      </trkpt>
      <trkpt lat="45.07345" lon="0.57663">
        <ele>177</ele>
        <time>2020-09-22T08:16:06.000Z</time>
      </trkpt>
      <trkpt lat="45.07347" lon="0.57661">
        <ele>177.19999694824</ele>
        <time>2020-09-22T08:16:07.000Z</time>
      </trkpt>
      <trkpt lat="45.07348" lon="0.57658">
        <ele>177.39999389648</ele>
        <time>2020-09-22T08:16:08.000Z</time>
      </trkpt>
      <trkpt lat="45.0735" lon="0.57655">
        <ele>177.80000305176</ele>
        <time>2020-09-22T08:16:09.000Z</time>
      </trkpt>
      <trkpt lat="45.07352" lon="0.57653">
        <ele>177.80000305176</ele>
        <time>2020-09-22T08:16:10.000Z</time>
      </trkpt>
      <trkpt lat="45.07355" lon="0.5765">
        <ele>178</ele>
        <time>2020-09-22T08:16:11.000Z</time>
      </trkpt>
      <trkpt lat="45.07357" lon="0.57647">
        <ele>178.39999389648</ele>
        <time>2020-09-22T08:16:12.000Z</time>
      </trkpt>
      <trkpt lat="45.07359" lon="0.57645">
        <ele>178.60000610352</ele>
        <time>2020-09-22T08:16:13.000Z</time>
      </trkpt>
      <trkpt lat="45.07361" lon="0.57642">
        <ele>178.80000305176</ele>
        <time>2020-09-22T08:16:14.000Z</time>
      </trkpt>
      <trkpt lat="45.07363" lon="0.57639">
        <ele>179</ele>
        <time>2020-09-22T08:16:15.000Z</time>
      </trkpt>
      <trkpt lat="45.07364" lon="0.57637">
        <ele>179.19999694824</ele>
        <time>2020-09-22T08:16:16.000Z</time>
      </trkpt>
      <trkpt lat="45.07365" lon="0.57634">
        <ele>179.39999389648</ele>
        <time>2020-09-22T08:16:17.000Z</time>
      </trkpt>
      <trkpt lat="45.07367" lon="0.57631">
        <ele>179.80000305176</ele>
        <time>2020-09-22T08:16:18.000Z</time>
      </trkpt>
      <trkpt lat="45.07369" lon="0.57628">
        <ele>180.19999694824</ele>
        <time>2020-09-22T08:16:19.000Z</time>
      </trkpt>
      <trkpt lat="45.0737" lon="0.57625">
        <ele>180.19999694824</ele>
        <time>2020-09-22T08:16:20.000Z</time>
      </trkpt>
      <trkpt lat="45.07372" lon="0.57624">
        <ele>180.19999694824</ele>
        <time>2020-09-22T08:16:21.000Z</time>
      </trkpt>
      <trkpt lat="45.07373" lon="0.57622">
        <ele>180.39999389648</ele>
        <time>2020-09-22T08:16:22.000Z</time>
      </trkpt>
      <trkpt lat="45.07375" lon="0.57619">
        <ele>180.39999389648</ele>
        <time>2020-09-22T08:16:23.000Z</time>
      </trkpt>
      <trkpt lat="45.07377" lon="0.57617">
        <ele>180.60000610352</ele>
        <time>2020-09-22T08:16:24.000Z</time>
      </trkpt>
      <trkpt lat="45.07378" lon="0.57614">
        <ele>180.60000610352</ele>
        <time>2020-09-22T08:16:25.000Z</time>
      </trkpt>
      <trkpt lat="45.0738" lon="0.57612">
        <ele>180.60000610352</ele>
        <time>2020-09-22T08:16:26.000Z</time>
      </trkpt>
      <trkpt lat="45.07385" lon="0.57613">
        <ele>180.19999694824</ele>
        <time>2020-09-22T08:16:27.000Z</time>
      </trkpt>
      <trkpt lat="45.07391" lon="0.57613">
        <ele>179.60000610352</ele>
        <time>2020-09-22T08:16:28.000Z</time>
      </trkpt>
      <trkpt lat="45.07393" lon="0.5761">
        <ele>179.60000610352</ele>
        <time>2020-09-22T08:16:29.000Z</time>
      </trkpt>
      <trkpt lat="45.07395" lon="0.57607">
        <ele>179.80000305176</ele>
        <time>2020-09-22T08:16:30.000Z</time>
      </trkpt>
      <trkpt lat="45.07398" lon="0.57605">
        <ele>179.80000305176</ele>
        <time>2020-09-22T08:16:31.000Z</time>
      </trkpt>
      <trkpt lat="45.074" lon="0.57602">
        <ele>179.80000305176</ele>
        <time>2020-09-22T08:16:32.000Z</time>
      </trkpt>
      <trkpt lat="45.07401" lon="0.576">
        <ele>179.80000305176</ele>
        <time>2020-09-22T08:16:33.000Z</time>
      </trkpt>
      <trkpt lat="45.07403" lon="0.57597">
        <ele>180</ele>
        <time>2020-09-22T08:16:34.000Z</time>
      </trkpt>
      <trkpt lat="45.07406" lon="0.57593">
        <ele>180</ele>
        <time>2020-09-22T08:16:35.000Z</time>
      </trkpt>
      <trkpt lat="45.07408" lon="0.5759">
        <ele>180</ele>
        <time>2020-09-22T08:16:36.000Z</time>
      </trkpt>
      <trkpt lat="45.0741" lon="0.57587">
        <ele>180.19999694824</ele>
        <time>2020-09-22T08:16:37.000Z</time>
      </trkpt>
      <trkpt lat="45.07412" lon="0.57584">
        <ele>180.19999694824</ele>
        <time>2020-09-22T08:16:38.000Z</time>
      </trkpt>
      <trkpt lat="45.07414" lon="0.57582">
        <ele>180.19999694824</ele>
        <time>2020-09-22T08:16:39.000Z</time>
      </trkpt>
      <trkpt lat="45.07416" lon="0.57579">
        <ele>180.19999694824</ele>
        <time>2020-09-22T08:16:40.000Z</time>
      </trkpt>
      <trkpt lat="45.07419" lon="0.57577">
        <ele>180</ele>
        <time>2020-09-22T08:16:41.000Z</time>
      </trkpt>
      <trkpt lat="45.07421" lon="0.57575">
        <ele>180</ele>
        <time>2020-09-22T08:16:42.000Z</time>
      </trkpt>
      <trkpt lat="45.07422" lon="0.57573">
        <ele>180</ele>
        <time>2020-09-22T08:16:43.000Z</time>
      </trkpt>
      <trkpt lat="45.07423" lon="0.5757">
        <ele>180.19999694824</ele>
        <time>2020-09-22T08:16:44.000Z</time>
      </trkpt>
      <trkpt lat="45.07422" lon="0.57566">
        <ele>180.60000610352</ele>
        <time>2020-09-22T08:16:45.000Z</time>
      </trkpt>
      <trkpt lat="45.07423" lon="0.5756">
        <ele>181</ele>
        <time>2020-09-22T08:16:46.000Z</time>
      </trkpt>
      <trkpt lat="45.07424" lon="0.57556">
        <ele>181</ele>
        <time>2020-09-22T08:16:47.000Z</time>
      </trkpt>
      <trkpt lat="45.07424" lon="0.57556">
        <ele>181</ele>
        <time>2020-09-22T08:16:48.000Z</time>
      </trkpt>
      <trkpt lat="45.07426" lon="0.57553">
        <ele>181</ele>
        <time>2020-09-22T08:16:49.000Z</time>
      </trkpt>
      <trkpt lat="45.07428" lon="0.57551">
        <ele>181</ele>
        <time>2020-09-22T08:16:50.000Z</time>
      </trkpt>
      <trkpt lat="45.07429" lon="0.57548">
        <ele>181</ele>
        <time>2020-09-22T08:16:51.000Z</time>
      </trkpt>
      <trkpt lat="45.07432" lon="0.57545">
        <ele>180.80000305176</ele>
        <time>2020-09-22T08:16:52.000Z</time>
      </trkpt>
      <trkpt lat="45.07433" lon="0.57542">
        <ele>180.80000305176</ele>
        <time>2020-09-22T08:16:53.000Z</time>
      </trkpt>
      <trkpt lat="45.07435" lon="0.57539">
        <ele>180.60000610352</ele>
        <time>2020-09-22T08:16:54.000Z</time>
      </trkpt>
      <trkpt lat="45.07437" lon="0.57536">
        <ele>180.60000610352</ele>
        <time>2020-09-22T08:16:55.000Z</time>
      </trkpt>
      <trkpt lat="45.07439" lon="0.57533">
        <ele>180.39999389648</ele>
        <time>2020-09-22T08:16:56.000Z</time>
      </trkpt>
      <trkpt lat="45.07441" lon="0.5753">
        <ele>180.39999389648</ele>
        <time>2020-09-22T08:16:57.000Z</time>
      </trkpt>
      <trkpt lat="45.07442" lon="0.57526">
        <ele>180.39999389648</ele>
        <time>2020-09-22T08:16:58.000Z</time>
      </trkpt>
      <trkpt lat="45.07442" lon="0.57523">
        <ele>180.60000610352</ele>
        <time>2020-09-22T08:16:59.000Z</time>
      </trkpt>
      <trkpt lat="45.07444" lon="0.5752">
        <ele>180.60000610352</ele>
        <time>2020-09-22T08:17:00.000Z</time>
      </trkpt>
      <trkpt lat="45.07446" lon="0.57517">
        <ele>180.60000610352</ele>
        <time>2020-09-22T08:17:01.000Z</time>
      </trkpt>
      <trkpt lat="45.07447" lon="0.57513">
        <ele>180.80000305176</ele>
        <time>2020-09-22T08:17:02.000Z</time>
      </trkpt>
      <trkpt lat="45.07448" lon="0.5751">
        <ele>180.80000305176</ele>
        <time>2020-09-22T08:17:03.000Z</time>
      </trkpt>
      <trkpt lat="45.07449" lon="0.57506">
        <ele>181</ele>
        <time>2020-09-22T08:17:04.000Z</time>
      </trkpt>
      <trkpt lat="45.0745" lon="0.57502">
        <ele>181</ele>
        <time>2020-09-22T08:17:05.000Z</time>
      </trkpt>
      <trkpt lat="45.07451" lon="0.57499">
        <ele>181.19999694824</ele>
        <time>2020-09-22T08:17:06.000Z</time>
      </trkpt>
      <trkpt lat="45.07452" lon="0.57495">
        <ele>181.19999694824</ele>
        <time>2020-09-22T08:17:07.000Z</time>
      </trkpt>
      <trkpt lat="45.07452" lon="0.57492">
        <ele>181.39999389648</ele>
        <time>2020-09-22T08:17:08.000Z</time>
      </trkpt>
      <trkpt lat="45.07452" lon="0.57488">
        <ele>181.60000610352</ele>
        <time>2020-09-22T08:17:09.000Z</time>
      </trkpt>
      <trkpt lat="45.07453" lon="0.57484">
        <ele>181.80000305176</ele>
        <time>2020-09-22T08:17:10.000Z</time>
      </trkpt>
      <trkpt lat="45.07455" lon="0.5748">
        <ele>181.80000305176</ele>
        <time>2020-09-22T08:17:11.000Z</time>
      </trkpt>
      <trkpt lat="45.07456" lon="0.57477">
        <ele>181.80000305176</ele>
        <time>2020-09-22T08:17:12.000Z</time>
      </trkpt>
      <trkpt lat="45.07458" lon="0.57473">
        <ele>181.80000305176</ele>
        <time>2020-09-22T08:17:13.000Z</time>
      </trkpt>
      <trkpt lat="45.0746" lon="0.5747">
        <ele>182</ele>
        <time>2020-09-22T08:17:14.000Z</time>
      </trkpt>
      <trkpt lat="45.07461" lon="0.57466">
        <ele>182</ele>
        <time>2020-09-22T08:17:15.000Z</time>
      </trkpt>
      <trkpt lat="45.07461" lon="0.57462">
        <ele>182.19999694824</ele>
        <time>2020-09-22T08:17:16.000Z</time>
      </trkpt>
      <trkpt lat="45.07462" lon="0.57459">
        <ele>182.39999389648</ele>
        <time>2020-09-22T08:17:17.000Z</time>
      </trkpt>
      <trkpt lat="45.07462" lon="0.57455">
        <ele>182.60000610352</ele>
        <time>2020-09-22T08:17:18.000Z</time>
      </trkpt>
      <trkpt lat="45.07463" lon="0.57451">
        <ele>182.60000610352</ele>
        <time>2020-09-22T08:17:19.000Z</time>
      </trkpt>
      <trkpt lat="45.07464" lon="0.57448">
        <ele>182.80000305176</ele>
        <time>2020-09-22T08:17:20.000Z</time>
      </trkpt>
      <trkpt lat="45.07466" lon="0.57444">
        <ele>183</ele>
        <time>2020-09-22T08:17:21.000Z</time>
      </trkpt>
      <trkpt lat="45.07467" lon="0.5744">
        <ele>183</ele>
        <time>2020-09-22T08:17:22.000Z</time>
      </trkpt>
      <trkpt lat="45.07468" lon="0.57437">
        <ele>183.19999694824</ele>
        <time>2020-09-22T08:17:23.000Z</time>
      </trkpt>
      <trkpt lat="45.07468" lon="0.57433">
        <ele>183.39999389648</ele>
        <time>2020-09-22T08:17:24.000Z</time>
      </trkpt>
      <trkpt lat="45.07469" lon="0.57429">
        <ele>183.60000610352</ele>
        <time>2020-09-22T08:17:25.000Z</time>
      </trkpt>
      <trkpt lat="45.0747" lon="0.57425">
        <ele>183.60000610352</ele>
        <time>2020-09-22T08:17:26.000Z</time>
      </trkpt>
      <trkpt lat="45.07471" lon="0.57421">
        <ele>183.80000305176</ele>
        <time>2020-09-22T08:17:27.000Z</time>
      </trkpt>
      <trkpt lat="45.07472" lon="0.57417">
        <ele>184</ele>
        <time>2020-09-22T08:17:28.000Z</time>
      </trkpt>
      <trkpt lat="45.07472" lon="0.57414">
        <ele>184.19999694824</ele>
        <time>2020-09-22T08:17:29.000Z</time>
      </trkpt>
      <trkpt lat="45.07473" lon="0.5741">
        <ele>184.39999389648</ele>
        <time>2020-09-22T08:17:30.000Z</time>
      </trkpt>
      <trkpt lat="45.07473" lon="0.57406">
        <ele>184.60000610352</ele>
        <time>2020-09-22T08:17:31.000Z</time>
      </trkpt>
      <trkpt lat="45.07473" lon="0.57402">
        <ele>184.80000305176</ele>
        <time>2020-09-22T08:17:32.000Z</time>
      </trkpt>
      <trkpt lat="45.07473" lon="0.57397">
        <ele>185.19999694824</ele>
        <time>2020-09-22T08:17:33.000Z</time>
      </trkpt>
      <trkpt lat="45.07473" lon="0.57393">
        <ele>185.39999389648</ele>
        <time>2020-09-22T08:17:34.000Z</time>
      </trkpt>
      <trkpt lat="45.07473" lon="0.57389">
        <ele>185.80000305176</ele>
        <time>2020-09-22T08:17:35.000Z</time>
      </trkpt>
      <trkpt lat="45.07473" lon="0.57385">
        <ele>186.19999694824</ele>
        <time>2020-09-22T08:17:36.000Z</time>
      </trkpt>
      <trkpt lat="45.07473" lon="0.57381">
        <ele>186.39999389648</ele>
        <time>2020-09-22T08:17:37.000Z</time>
      </trkpt>
      <trkpt lat="45.07474" lon="0.57376">
        <ele>186.39999389648</ele>
        <time>2020-09-22T08:17:38.000Z</time>
      </trkpt>
      <trkpt lat="45.07474" lon="0.57372">
        <ele>186.60000610352</ele>
        <time>2020-09-22T08:17:39.000Z</time>
      </trkpt>
      <trkpt lat="45.07475" lon="0.57369">
        <ele>186.60000610352</ele>
        <time>2020-09-22T08:17:40.000Z</time>
      </trkpt>
      <trkpt lat="45.07475" lon="0.57365">
        <ele>186.80000305176</ele>
        <time>2020-09-22T08:17:41.000Z</time>
      </trkpt>
      <trkpt lat="45.07476" lon="0.57362">
        <ele>186.80000305176</ele>
        <time>2020-09-22T08:17:42.000Z</time>
      </trkpt>
      <trkpt lat="45.07476" lon="0.57358">
        <ele>187</ele>
        <time>2020-09-22T08:17:43.000Z</time>
      </trkpt>
      <trkpt lat="45.07475" lon="0.57354">
        <ele>187.19999694824</ele>
        <time>2020-09-22T08:17:44.000Z</time>
      </trkpt>
      <trkpt lat="45.07475" lon="0.57351">
        <ele>187.19999694824</ele>
        <time>2020-09-22T08:17:45.000Z</time>
      </trkpt>
      <trkpt lat="45.07475" lon="0.57348">
        <ele>187.39999389648</ele>
        <time>2020-09-22T08:17:46.000Z</time>
      </trkpt>
      <trkpt lat="45.07476" lon="0.57344">
        <ele>187.39999389648</ele>
        <time>2020-09-22T08:17:47.000Z</time>
      </trkpt>
      <trkpt lat="45.07476" lon="0.57341">
        <ele>187.60000610352</ele>
        <time>2020-09-22T08:17:48.000Z</time>
      </trkpt>
      <trkpt lat="45.07476" lon="0.57337">
        <ele>187.80000305176</ele>
        <time>2020-09-22T08:17:49.000Z</time>
      </trkpt>
      <trkpt lat="45.07476" lon="0.57334">
        <ele>187.80000305176</ele>
        <time>2020-09-22T08:17:50.000Z</time>
      </trkpt>
      <trkpt lat="45.07477" lon="0.5733">
        <ele>188</ele>
        <time>2020-09-22T08:17:51.000Z</time>
      </trkpt>
      <trkpt lat="45.07478" lon="0.57326">
        <ele>188</ele>
        <time>2020-09-22T08:17:52.000Z</time>
      </trkpt>
      <trkpt lat="45.07478" lon="0.57321">
        <ele>188.19999694824</ele>
        <time>2020-09-22T08:17:53.000Z</time>
      </trkpt>
      <trkpt lat="45.07479" lon="0.57317">
        <ele>188.19999694824</ele>
        <time>2020-09-22T08:17:54.000Z</time>
      </trkpt>
      <trkpt lat="45.07481" lon="0.57312">
        <ele>188</ele>
        <time>2020-09-22T08:17:55.000Z</time>
      </trkpt>
      <trkpt lat="45.07482" lon="0.57308">
        <ele>187.80000305176</ele>
        <time>2020-09-22T08:17:56.000Z</time>
      </trkpt>
      <trkpt lat="45.07483" lon="0.57305">
        <ele>187.80000305176</ele>
        <time>2020-09-22T08:17:57.000Z</time>
      </trkpt>
      <trkpt lat="45.07485" lon="0.57301">
        <ele>187.60000610352</ele>
        <time>2020-09-22T08:17:58.000Z</time>
      </trkpt>
      <trkpt lat="45.07486" lon="0.57298">
        <ele>187.39999389648</ele>
        <time>2020-09-22T08:17:59.000Z</time>
      </trkpt>
      <trkpt lat="45.07488" lon="0.57294">
        <ele>187.39999389648</ele>
        <time>2020-09-22T08:18:00.000Z</time>
      </trkpt>
      <trkpt lat="45.07489" lon="0.57291">
        <ele>187.19999694824</ele>
        <time>2020-09-22T08:18:01.000Z</time>
      </trkpt>
      <trkpt lat="45.07491" lon="0.57287">
        <ele>187.19999694824</ele>
        <time>2020-09-22T08:18:02.000Z</time>
      </trkpt>
      <trkpt lat="45.07493" lon="0.57284">
        <ele>187</ele>
        <time>2020-09-22T08:18:03.000Z</time>
      </trkpt>
      <trkpt lat="45.07494" lon="0.5728">
        <ele>187</ele>
        <time>2020-09-22T08:18:04.000Z</time>
      </trkpt>
      <trkpt lat="45.07496" lon="0.57277">
        <ele>186.80000305176</ele>
        <time>2020-09-22T08:18:05.000Z</time>
      </trkpt>
      <trkpt lat="45.07497" lon="0.57273">
        <ele>186.80000305176</ele>
        <time>2020-09-22T08:18:06.000Z</time>
      </trkpt>
      <trkpt lat="45.07498" lon="0.5727">
        <ele>186.60000610352</ele>
        <time>2020-09-22T08:18:07.000Z</time>
      </trkpt>
      <trkpt lat="45.075" lon="0.57267">
        <ele>186.60000610352</ele>
        <time>2020-09-22T08:18:08.000Z</time>
      </trkpt>
      <trkpt lat="45.07501" lon="0.57262">
        <ele>186.39999389648</ele>
        <time>2020-09-22T08:18:09.000Z</time>
      </trkpt>
      <trkpt lat="45.07503" lon="0.57258">
        <ele>186.39999389648</ele>
        <time>2020-09-22T08:18:10.000Z</time>
      </trkpt>
      <trkpt lat="45.07504" lon="0.57254">
        <ele>186.39999389648</ele>
        <time>2020-09-22T08:18:11.000Z</time>
      </trkpt>
      <trkpt lat="45.07505" lon="0.5725">
        <ele>186.39999389648</ele>
        <time>2020-09-22T08:18:12.000Z</time>
      </trkpt>
      <trkpt lat="45.07506" lon="0.57246">
        <ele>186.39999389648</ele>
        <time>2020-09-22T08:18:13.000Z</time>
      </trkpt>
      <trkpt lat="45.07507" lon="0.57242">
        <ele>186.39999389648</ele>
        <time>2020-09-22T08:18:14.000Z</time>
      </trkpt>
      <trkpt lat="45.07507" lon="0.57239">
        <ele>186.60000610352</ele>
        <time>2020-09-22T08:18:15.000Z</time>
      </trkpt>
      <trkpt lat="45.07508" lon="0.57235">
        <ele>186.60000610352</ele>
        <time>2020-09-22T08:18:16.000Z</time>
      </trkpt>
      <trkpt lat="45.07509" lon="0.57231">
        <ele>186.60000610352</ele>
        <time>2020-09-22T08:18:17.000Z</time>
      </trkpt>
      <trkpt lat="45.0751" lon="0.57228">
        <ele>186.60000610352</ele>
        <time>2020-09-22T08:18:18.000Z</time>
      </trkpt>
      <trkpt lat="45.07512" lon="0.57224">
        <ele>186.60000610352</ele>
        <time>2020-09-22T08:18:19.000Z</time>
      </trkpt>
      <trkpt lat="45.07513" lon="0.57219">
        <ele>186.39999389648</ele>
        <time>2020-09-22T08:18:20.000Z</time>
      </trkpt>
      <trkpt lat="45.07515" lon="0.57215">
        <ele>186.39999389648</ele>
        <time>2020-09-22T08:18:21.000Z</time>
      </trkpt>
      <trkpt lat="45.07517" lon="0.57211">
        <ele>186.19999694824</ele>
        <time>2020-09-22T08:18:22.000Z</time>
      </trkpt>
      <trkpt lat="45.07518" lon="0.57207">
        <ele>186</ele>
        <time>2020-09-22T08:18:23.000Z</time>
      </trkpt>
      <trkpt lat="45.07519" lon="0.57203">
        <ele>185.80000305176</ele>
        <time>2020-09-22T08:18:24.000Z</time>
      </trkpt>
      <trkpt lat="45.0752" lon="0.57199">
        <ele>185.60000610352</ele>
        <time>2020-09-22T08:18:25.000Z</time>
      </trkpt>
      <trkpt lat="45.07521" lon="0.57194">
        <ele>185.60000610352</ele>
        <time>2020-09-22T08:18:26.000Z</time>
      </trkpt>
      <trkpt lat="45.07522" lon="0.57185">
        <ele>185.80000305176</ele>
        <time>2020-09-22T08:18:27.000Z</time>
      </trkpt>
      <trkpt lat="45.07523" lon="0.57181">
        <ele>185.80000305176</ele>
        <time>2020-09-22T08:18:28.000Z</time>
      </trkpt>
      <trkpt lat="45.07523" lon="0.57181">
        <ele>185.80000305176</ele>
        <time>2020-09-22T08:18:29.000Z</time>
      </trkpt>
      <trkpt lat="45.07523" lon="0.57177">
        <ele>186</ele>
        <time>2020-09-22T08:18:30.000Z</time>
      </trkpt>
      <trkpt lat="45.07523" lon="0.57173">
        <ele>186</ele>
        <time>2020-09-22T08:18:31.000Z</time>
      </trkpt>
      <trkpt lat="45.07523" lon="0.57168">
        <ele>186.19999694824</ele>
        <time>2020-09-22T08:18:32.000Z</time>
      </trkpt>
      <trkpt lat="45.07524" lon="0.57164">
        <ele>186.19999694824</ele>
        <time>2020-09-22T08:18:33.000Z</time>
      </trkpt>
      <trkpt lat="45.07524" lon="0.5716">
        <ele>186.19999694824</ele>
        <time>2020-09-22T08:18:34.000Z</time>
      </trkpt>
      <trkpt lat="45.07525" lon="0.57156">
        <ele>186.39999389648</ele>
        <time>2020-09-22T08:18:35.000Z</time>
      </trkpt>
      <trkpt lat="45.07524" lon="0.57153">
        <ele>186.39999389648</ele>
        <time>2020-09-22T08:18:36.000Z</time>
      </trkpt>
      <trkpt lat="45.07523" lon="0.57149">
        <ele>186.60000610352</ele>
        <time>2020-09-22T08:18:37.000Z</time>
      </trkpt>
      <trkpt lat="45.07522" lon="0.57145">
        <ele>186.80000305176</ele>
        <time>2020-09-22T08:18:38.000Z</time>
      </trkpt>
      <trkpt lat="45.07521" lon="0.57141">
        <ele>187</ele>
        <time>2020-09-22T08:18:39.000Z</time>
      </trkpt>
      <trkpt lat="45.07521" lon="0.57136">
        <ele>187</ele>
        <time>2020-09-22T08:18:40.000Z</time>
      </trkpt>
      <trkpt lat="45.0752" lon="0.57132">
        <ele>187</ele>
        <time>2020-09-22T08:18:41.000Z</time>
      </trkpt>
      <trkpt lat="45.07519" lon="0.57128">
        <ele>187</ele>
        <time>2020-09-22T08:18:42.000Z</time>
      </trkpt>
      <trkpt lat="45.07519" lon="0.57124">
        <ele>187</ele>
        <time>2020-09-22T08:18:43.000Z</time>
      </trkpt>
      <trkpt lat="45.07518" lon="0.57118">
        <ele>187</ele>
        <time>2020-09-22T08:18:44.000Z</time>
      </trkpt>
      <trkpt lat="45.07518" lon="0.57114">
        <ele>187</ele>
        <time>2020-09-22T08:18:45.000Z</time>
      </trkpt>
      <trkpt lat="45.07518" lon="0.57109">
        <ele>186.80000305176</ele>
        <time>2020-09-22T08:18:46.000Z</time>
      </trkpt>
      <trkpt lat="45.07518" lon="0.57105">
        <ele>186.80000305176</ele>
        <time>2020-09-22T08:18:47.000Z</time>
      </trkpt>
      <trkpt lat="45.07519" lon="0.571">
        <ele>186.80000305176</ele>
        <time>2020-09-22T08:18:48.000Z</time>
      </trkpt>
      <trkpt lat="45.0752" lon="0.57096">
        <ele>186.80000305176</ele>
        <time>2020-09-22T08:18:49.000Z</time>
      </trkpt>
      <trkpt lat="45.07522" lon="0.57091">
        <ele>186.80000305176</ele>
        <time>2020-09-22T08:18:50.000Z</time>
      </trkpt>
      <trkpt lat="45.07523" lon="0.57087">
        <ele>186.80000305176</ele>
        <time>2020-09-22T08:18:51.000Z</time>
      </trkpt>
      <trkpt lat="45.07523" lon="0.57082">
        <ele>186.80000305176</ele>
        <time>2020-09-22T08:18:52.000Z</time>
      </trkpt>
      <trkpt lat="45.07524" lon="0.57077">
        <ele>186.60000610352</ele>
        <time>2020-09-22T08:18:53.000Z</time>
      </trkpt>
      <trkpt lat="45.07525" lon="0.57073">
        <ele>186.60000610352</ele>
        <time>2020-09-22T08:18:54.000Z</time>
      </trkpt>
      <trkpt lat="45.07525" lon="0.57068">
        <ele>186.60000610352</ele>
        <time>2020-09-22T08:18:55.000Z</time>
      </trkpt>
      <trkpt lat="45.07526" lon="0.57063">
        <ele>186.60000610352</ele>
        <time>2020-09-22T08:18:56.000Z</time>
      </trkpt>
      <trkpt lat="45.07526" lon="0.57058">
        <ele>186.60000610352</ele>
        <time>2020-09-22T08:18:57.000Z</time>
      </trkpt>
      <trkpt lat="45.07526" lon="0.57054">
        <ele>186.60000610352</ele>
        <time>2020-09-22T08:18:58.000Z</time>
      </trkpt>
      <trkpt lat="45.07526" lon="0.57049">
        <ele>186.60000610352</ele>
        <time>2020-09-22T08:18:59.000Z</time>
      </trkpt>
      <trkpt lat="45.07527" lon="0.57044">
        <ele>186.39999389648</ele>
        <time>2020-09-22T08:19:00.000Z</time>
      </trkpt>
      <trkpt lat="45.07527" lon="0.5704">
        <ele>186.39999389648</ele>
        <time>2020-09-22T08:19:01.000Z</time>
      </trkpt>
      <trkpt lat="45.07527" lon="0.57036">
        <ele>186.19999694824</ele>
        <time>2020-09-22T08:19:02.000Z</time>
      </trkpt>
      <trkpt lat="45.07527" lon="0.57032">
        <ele>186</ele>
        <time>2020-09-22T08:19:03.000Z</time>
      </trkpt>
      <trkpt lat="45.07527" lon="0.57027">
        <ele>185.80000305176</ele>
        <time>2020-09-22T08:19:04.000Z</time>
      </trkpt>
      <trkpt lat="45.07527" lon="0.57022">
        <ele>185.80000305176</ele>
        <time>2020-09-22T08:19:05.000Z</time>
      </trkpt>
      <trkpt lat="45.07527" lon="0.57018">
        <ele>185.60000610352</ele>
        <time>2020-09-22T08:19:06.000Z</time>
      </trkpt>
      <trkpt lat="45.07527" lon="0.57014">
        <ele>185.39999389648</ele>
        <time>2020-09-22T08:19:07.000Z</time>
      </trkpt>
      <trkpt lat="45.07527" lon="0.57009">
        <ele>185.19999694824</ele>
        <time>2020-09-22T08:19:08.000Z</time>
      </trkpt>
      <trkpt lat="45.07527" lon="0.57">
        <ele>185</ele>
        <time>2020-09-22T08:19:09.000Z</time>
      </trkpt>
      <trkpt lat="45.07527" lon="0.57">
        <ele>185</ele>
        <time>2020-09-22T08:19:10.000Z</time>
      </trkpt>
      <trkpt lat="45.07527" lon="0.56996">
        <ele>184.80000305176</ele>
        <time>2020-09-22T08:19:11.000Z</time>
      </trkpt>
      <trkpt lat="45.07527" lon="0.56992">
        <ele>184.60000610352</ele>
        <time>2020-09-22T08:19:12.000Z</time>
      </trkpt>
      <trkpt lat="45.07526" lon="0.56989">
        <ele>184.60000610352</ele>
        <time>2020-09-22T08:19:13.000Z</time>
      </trkpt>
      <trkpt lat="45.07524" lon="0.56986">
        <ele>184.60000610352</ele>
        <time>2020-09-22T08:19:14.000Z</time>
      </trkpt>
      <trkpt lat="45.07523" lon="0.56984">
        <ele>184.60000610352</ele>
        <time>2020-09-22T08:19:15.000Z</time>
      </trkpt>
      <trkpt lat="45.0752" lon="0.56982">
        <ele>184.60000610352</ele>
        <time>2020-09-22T08:19:16.000Z</time>
      </trkpt>
      <trkpt lat="45.07517" lon="0.5698">
        <ele>184.60000610352</ele>
        <time>2020-09-22T08:19:17.000Z</time>
      </trkpt>
      <trkpt lat="45.07514" lon="0.56979">
        <ele>184.80000305176</ele>
        <time>2020-09-22T08:19:18.000Z</time>
      </trkpt>
      <trkpt lat="45.07512" lon="0.56978">
        <ele>184.80000305176</ele>
        <time>2020-09-22T08:19:19.000Z</time>
      </trkpt>
      <trkpt lat="45.07509" lon="0.56976">
        <ele>185</ele>
        <time>2020-09-22T08:19:20.000Z</time>
      </trkpt>
      <trkpt lat="45.07507" lon="0.56973">
        <ele>185</ele>
        <time>2020-09-22T08:19:21.000Z</time>
      </trkpt>
      <trkpt lat="45.07504" lon="0.5697">
        <ele>185</ele>
        <time>2020-09-22T08:19:22.000Z</time>
      </trkpt>
      <trkpt lat="45.07501" lon="0.56967">
        <ele>185</ele>
        <time>2020-09-22T08:19:23.000Z</time>
      </trkpt>
      <trkpt lat="45.07499" lon="0.56964">
        <ele>184.80000305176</ele>
        <time>2020-09-22T08:19:24.000Z</time>
      </trkpt>
      <trkpt lat="45.07497" lon="0.5696">
        <ele>184.60000610352</ele>
        <time>2020-09-22T08:19:25.000Z</time>
      </trkpt>
      <trkpt lat="45.07494" lon="0.56957">
        <ele>184.60000610352</ele>
        <time>2020-09-22T08:19:26.000Z</time>
      </trkpt>
      <trkpt lat="45.07492" lon="0.56953">
        <ele>184.39999389648</ele>
        <time>2020-09-22T08:19:27.000Z</time>
      </trkpt>
      <trkpt lat="45.07489" lon="0.5695">
        <ele>184.19999694824</ele>
        <time>2020-09-22T08:19:28.000Z</time>
      </trkpt>
      <trkpt lat="45.07487" lon="0.56946">
        <ele>184.19999694824</ele>
        <time>2020-09-22T08:19:29.000Z</time>
      </trkpt>
      <trkpt lat="45.07484" lon="0.56943">
        <ele>184</ele>
        <time>2020-09-22T08:19:30.000Z</time>
      </trkpt>
      <trkpt lat="45.07481" lon="0.56941">
        <ele>184</ele>
        <time>2020-09-22T08:19:31.000Z</time>
      </trkpt>
      <trkpt lat="45.07479" lon="0.56938">
        <ele>184</ele>
        <time>2020-09-22T08:19:32.000Z</time>
      </trkpt>
      <trkpt lat="45.07476" lon="0.56935">
        <ele>183.80000305176</ele>
        <time>2020-09-22T08:19:33.000Z</time>
      </trkpt>
      <trkpt lat="45.07473" lon="0.56932">
        <ele>183.80000305176</ele>
        <time>2020-09-22T08:19:34.000Z</time>
      </trkpt>
      <trkpt lat="45.0747" lon="0.56929">
        <ele>183.60000610352</ele>
        <time>2020-09-22T08:19:35.000Z</time>
      </trkpt>
      <trkpt lat="45.07468" lon="0.56926">
        <ele>183.60000610352</ele>
        <time>2020-09-22T08:19:36.000Z</time>
      </trkpt>
      <trkpt lat="45.07466" lon="0.56922">
        <ele>183.39999389648</ele>
        <time>2020-09-22T08:19:37.000Z</time>
      </trkpt>
      <trkpt lat="45.07464" lon="0.56917">
        <ele>183.19999694824</ele>
        <time>2020-09-22T08:19:38.000Z</time>
      </trkpt>
      <trkpt lat="45.07463" lon="0.56912">
        <ele>182.80000305176</ele>
        <time>2020-09-22T08:19:39.000Z</time>
      </trkpt>
      <trkpt lat="45.07464" lon="0.56907">
        <ele>182.39999389648</ele>
        <time>2020-09-22T08:19:40.000Z</time>
      </trkpt>
      <trkpt lat="45.07464" lon="0.56902">
        <ele>182</ele>
        <time>2020-09-22T08:19:41.000Z</time>
      </trkpt>
      <trkpt lat="45.07466" lon="0.56897">
        <ele>181.60000610352</ele>
        <time>2020-09-22T08:19:42.000Z</time>
      </trkpt>
      <trkpt lat="45.07467" lon="0.56892">
        <ele>181.19999694824</ele>
        <time>2020-09-22T08:19:43.000Z</time>
      </trkpt>
      <trkpt lat="45.07468" lon="0.56887">
        <ele>181</ele>
        <time>2020-09-22T08:19:44.000Z</time>
      </trkpt>
      <trkpt lat="45.0747" lon="0.56882">
        <ele>180.80000305176</ele>
        <time>2020-09-22T08:19:45.000Z</time>
      </trkpt>
      <trkpt lat="45.07472" lon="0.56878">
        <ele>180.60000610352</ele>
        <time>2020-09-22T08:19:46.000Z</time>
      </trkpt>
      <trkpt lat="45.07473" lon="0.56873">
        <ele>180.39999389648</ele>
        <time>2020-09-22T08:19:47.000Z</time>
      </trkpt>
      <trkpt lat="45.07474" lon="0.56868">
        <ele>180.19999694824</ele>
        <time>2020-09-22T08:19:48.000Z</time>
      </trkpt>
      <trkpt lat="45.07476" lon="0.56864">
        <ele>180</ele>
        <time>2020-09-22T08:19:49.000Z</time>
      </trkpt>
      <trkpt lat="45.07477" lon="0.56859">
        <ele>179.80000305176</ele>
        <time>2020-09-22T08:19:50.000Z</time>
      </trkpt>
      <trkpt lat="45.07479" lon="0.56855">
        <ele>179.60000610352</ele>
        <time>2020-09-22T08:19:51.000Z</time>
      </trkpt>
      <trkpt lat="45.0748" lon="0.5685">
        <ele>179.39999389648</ele>
        <time>2020-09-22T08:19:52.000Z</time>
      </trkpt>
      <trkpt lat="45.07482" lon="0.56846">
        <ele>179.19999694824</ele>
        <time>2020-09-22T08:19:53.000Z</time>
      </trkpt>
      <trkpt lat="45.07483" lon="0.56841">
        <ele>179</ele>
        <time>2020-09-22T08:19:54.000Z</time>
      </trkpt>
      <trkpt lat="45.07485" lon="0.56837">
        <ele>178.80000305176</ele>
        <time>2020-09-22T08:19:55.000Z</time>
      </trkpt>
      <trkpt lat="45.07486" lon="0.56834">
        <ele>178.60000610352</ele>
        <time>2020-09-22T08:19:56.000Z</time>
      </trkpt>
      <trkpt lat="45.07487" lon="0.5683">
        <ele>178.39999389648</ele>
        <time>2020-09-22T08:19:57.000Z</time>
      </trkpt>
      <trkpt lat="45.07489" lon="0.56826">
        <ele>178.19999694824</ele>
        <time>2020-09-22T08:19:58.000Z</time>
      </trkpt>
      <trkpt lat="45.07491" lon="0.56822">
        <ele>177.80000305176</ele>
        <time>2020-09-22T08:19:59.000Z</time>
      </trkpt>
      <trkpt lat="45.07493" lon="0.56819">
        <ele>177.39999389648</ele>
        <time>2020-09-22T08:20:00.000Z</time>
      </trkpt>
      <trkpt lat="45.07495" lon="0.56815">
        <ele>177.19999694824</ele>
        <time>2020-09-22T08:20:01.000Z</time>
      </trkpt>
      <trkpt lat="45.07497" lon="0.56812">
        <ele>176.80000305176</ele>
        <time>2020-09-22T08:20:02.000Z</time>
      </trkpt>
      <trkpt lat="45.07499" lon="0.56808">
        <ele>176.60000610352</ele>
        <time>2020-09-22T08:20:03.000Z</time>
      </trkpt>
      <trkpt lat="45.07501" lon="0.56804">
        <ele>176.19999694824</ele>
        <time>2020-09-22T08:20:04.000Z</time>
      </trkpt>
      <trkpt lat="45.07503" lon="0.568">
        <ele>175.80000305176</ele>
        <time>2020-09-22T08:20:05.000Z</time>
      </trkpt>
      <trkpt lat="45.07505" lon="0.56796">
        <ele>175.60000610352</ele>
        <time>2020-09-22T08:20:06.000Z</time>
      </trkpt>
      <trkpt lat="45.07509" lon="0.56788">
        <ele>175.19999694824</ele>
        <time>2020-09-22T08:20:07.000Z</time>
      </trkpt>
      <trkpt lat="45.07511" lon="0.56784">
        <ele>175</ele>
        <time>2020-09-22T08:20:08.000Z</time>
      </trkpt>
      <trkpt lat="45.07511" lon="0.56784">
        <ele>175</ele>
        <time>2020-09-22T08:20:09.000Z</time>
      </trkpt>
      <trkpt lat="45.07513" lon="0.5678">
        <ele>174.80000305176</ele>
        <time>2020-09-22T08:20:10.000Z</time>
      </trkpt>
      <trkpt lat="45.07514" lon="0.56777">
        <ele>174.60000610352</ele>
        <time>2020-09-22T08:20:11.000Z</time>
      </trkpt>
      <trkpt lat="45.07516" lon="0.56773">
        <ele>174.39999389648</ele>
        <time>2020-09-22T08:20:12.000Z</time>
      </trkpt>
      <trkpt lat="45.07517" lon="0.56769">
        <ele>174.19999694824</ele>
        <time>2020-09-22T08:20:13.000Z</time>
      </trkpt>
      <trkpt lat="45.07517" lon="0.56765">
        <ele>174.19999694824</ele>
        <time>2020-09-22T08:20:14.000Z</time>
      </trkpt>
      <trkpt lat="45.07516" lon="0.56761">
        <ele>174</ele>
        <time>2020-09-22T08:20:15.000Z</time>
      </trkpt>
      <trkpt lat="45.07514" lon="0.56758">
        <ele>174</ele>
        <time>2020-09-22T08:20:16.000Z</time>
      </trkpt>
      <trkpt lat="45.07511" lon="0.56756">
        <ele>174</ele>
        <time>2020-09-22T08:20:17.000Z</time>
      </trkpt>
      <trkpt lat="45.07508" lon="0.56754">
        <ele>173.80000305176</ele>
        <time>2020-09-22T08:20:18.000Z</time>
      </trkpt>
      <trkpt lat="45.07504" lon="0.56752">
        <ele>173.80000305176</ele>
        <time>2020-09-22T08:20:19.000Z</time>
      </trkpt>
      <trkpt lat="45.07501" lon="0.5675">
        <ele>173.80000305176</ele>
        <time>2020-09-22T08:20:20.000Z</time>
      </trkpt>
      <trkpt lat="45.07498" lon="0.56748">
        <ele>173.80000305176</ele>
        <time>2020-09-22T08:20:21.000Z</time>
      </trkpt>
      <trkpt lat="45.07494" lon="0.56746">
        <ele>173.60000610352</ele>
        <time>2020-09-22T08:20:22.000Z</time>
      </trkpt>
      <trkpt lat="45.0749" lon="0.56745">
        <ele>173.60000610352</ele>
        <time>2020-09-22T08:20:23.000Z</time>
      </trkpt>
      <trkpt lat="45.07486" lon="0.56744">
        <ele>173.60000610352</ele>
        <time>2020-09-22T08:20:24.000Z</time>
      </trkpt>
      <trkpt lat="45.07482" lon="0.56744">
        <ele>173.60000610352</ele>
        <time>2020-09-22T08:20:25.000Z</time>
      </trkpt>
      <trkpt lat="45.07479" lon="0.56743">
        <ele>173.80000305176</ele>
        <time>2020-09-22T08:20:26.000Z</time>
      </trkpt>
      <trkpt lat="45.07476" lon="0.56742">
        <ele>173.80000305176</ele>
        <time>2020-09-22T08:20:27.000Z</time>
      </trkpt>
      <trkpt lat="45.07472" lon="0.56741">
        <ele>173.80000305176</ele>
        <time>2020-09-22T08:20:28.000Z</time>
      </trkpt>
      <trkpt lat="45.07468" lon="0.5674">
        <ele>173.80000305176</ele>
        <time>2020-09-22T08:20:29.000Z</time>
      </trkpt>
      <trkpt lat="45.07464" lon="0.5674">
        <ele>174</ele>
        <time>2020-09-22T08:20:30.000Z</time>
      </trkpt>
      <trkpt lat="45.07461" lon="0.5674">
        <ele>174</ele>
        <time>2020-09-22T08:20:31.000Z</time>
      </trkpt>
      <trkpt lat="45.07457" lon="0.5674">
        <ele>174</ele>
        <time>2020-09-22T08:20:32.000Z</time>
      </trkpt>
      <trkpt lat="45.07454" lon="0.5674">
        <ele>174</ele>
        <time>2020-09-22T08:20:33.000Z</time>
      </trkpt>
      <trkpt lat="45.07451" lon="0.56741">
        <ele>174</ele>
        <time>2020-09-22T08:20:34.000Z</time>
      </trkpt>
      <trkpt lat="45.07448" lon="0.5674">
        <ele>174</ele>
        <time>2020-09-22T08:20:35.000Z</time>
      </trkpt>
      <trkpt lat="45.07445" lon="0.56739">
        <ele>174</ele>
        <time>2020-09-22T08:20:36.000Z</time>
      </trkpt>
      <trkpt lat="45.07442" lon="0.56739">
        <ele>174</ele>
        <time>2020-09-22T08:20:37.000Z</time>
      </trkpt>
      <trkpt lat="45.0744" lon="0.56739">
        <ele>174</ele>
        <time>2020-09-22T08:20:38.000Z</time>
      </trkpt>
      <trkpt lat="45.07437" lon="0.56739">
        <ele>174</ele>
        <time>2020-09-22T08:20:39.000Z</time>
      </trkpt>
      <trkpt lat="45.07434" lon="0.56739">
        <ele>174</ele>
        <time>2020-09-22T08:20:40.000Z</time>
      </trkpt>
      <trkpt lat="45.07431" lon="0.56739">
        <ele>174</ele>
        <time>2020-09-22T08:20:41.000Z</time>
      </trkpt>
      <trkpt lat="45.07428" lon="0.56739">
        <ele>174</ele>
        <time>2020-09-22T08:20:42.000Z</time>
      </trkpt>
      <trkpt lat="45.07425" lon="0.56737">
        <ele>174</ele>
        <time>2020-09-22T08:20:43.000Z</time>
      </trkpt>
      <trkpt lat="45.07422" lon="0.56736">
        <ele>173.80000305176</ele>
        <time>2020-09-22T08:20:44.000Z</time>
      </trkpt>
      <trkpt lat="45.0742" lon="0.56734">
        <ele>173.80000305176</ele>
        <time>2020-09-22T08:20:45.000Z</time>
      </trkpt>
      <trkpt lat="45.07418" lon="0.56733">
        <ele>173.80000305176</ele>
        <time>2020-09-22T08:20:46.000Z</time>
      </trkpt>
      <trkpt lat="45.07416" lon="0.56732">
        <ele>173.60000610352</ele>
        <time>2020-09-22T08:20:47.000Z</time>
      </trkpt>
      <trkpt lat="45.07413" lon="0.5673">
        <ele>173.60000610352</ele>
        <time>2020-09-22T08:20:48.000Z</time>
      </trkpt>
      <trkpt lat="45.07411" lon="0.56729">
        <ele>173.60000610352</ele>
        <time>2020-09-22T08:20:49.000Z</time>
      </trkpt>
      <trkpt lat="45.07409" lon="0.56727">
        <ele>173.39999389648</ele>
        <time>2020-09-22T08:20:50.000Z</time>
      </trkpt>
      <trkpt lat="45.07407" lon="0.56725">
        <ele>173.39999389648</ele>
        <time>2020-09-22T08:20:51.000Z</time>
      </trkpt>
      <trkpt lat="45.07405" lon="0.56724">
        <ele>173.39999389648</ele>
        <time>2020-09-22T08:20:52.000Z</time>
      </trkpt>
      <trkpt lat="45.07404" lon="0.56725">
        <ele>173.39999389648</ele>
        <time>2020-09-22T08:20:53.000Z</time>
      </trkpt>
      <trkpt lat="45.07402" lon="0.56725">
        <ele>173.39999389648</ele>
        <time>2020-09-22T08:20:54.000Z</time>
      </trkpt>
      <trkpt lat="45.074" lon="0.56726">
        <ele>173.39999389648</ele>
        <time>2020-09-22T08:20:55.000Z</time>
      </trkpt>
      <trkpt lat="45.07397" lon="0.56726">
        <ele>173.39999389648</ele>
        <time>2020-09-22T08:20:56.000Z</time>
      </trkpt>
      <trkpt lat="45.07394" lon="0.56726">
        <ele>173.39999389648</ele>
        <time>2020-09-22T08:20:57.000Z</time>
      </trkpt>
      <trkpt lat="45.07391" lon="0.56726">
        <ele>173.39999389648</ele>
        <time>2020-09-22T08:20:58.000Z</time>
      </trkpt>
      <trkpt lat="45.07388" lon="0.56726">
        <ele>173.39999389648</ele>
        <time>2020-09-22T08:20:59.000Z</time>
      </trkpt>
      <trkpt lat="45.07385" lon="0.56725">
        <ele>173.39999389648</ele>
        <time>2020-09-22T08:21:00.000Z</time>
      </trkpt>
      <trkpt lat="45.07382" lon="0.56725">
        <ele>173.39999389648</ele>
        <time>2020-09-22T08:21:01.000Z</time>
      </trkpt>
      <trkpt lat="45.07378" lon="0.56724">
        <ele>173.39999389648</ele>
        <time>2020-09-22T08:21:02.000Z</time>
      </trkpt>
      <trkpt lat="45.07375" lon="0.56724">
        <ele>173.39999389648</ele>
        <time>2020-09-22T08:21:03.000Z</time>
      </trkpt>
      <trkpt lat="45.07372" lon="0.56723">
        <ele>173.39999389648</ele>
        <time>2020-09-22T08:21:04.000Z</time>
      </trkpt>
      <trkpt lat="45.0737" lon="0.56723">
        <ele>173.60000610352</ele>
        <time>2020-09-22T08:21:05.000Z</time>
      </trkpt>
      <trkpt lat="45.07368" lon="0.56721">
        <ele>173.60000610352</ele>
        <time>2020-09-22T08:21:06.000Z</time>
      </trkpt>
      <trkpt lat="45.07365" lon="0.5672">
        <ele>173.60000610352</ele>
        <time>2020-09-22T08:21:07.000Z</time>
      </trkpt>
      <trkpt lat="45.07362" lon="0.56719">
        <ele>173.80000305176</ele>
        <time>2020-09-22T08:21:08.000Z</time>
      </trkpt>
      <trkpt lat="45.0736" lon="0.56718">
        <ele>173.80000305176</ele>
        <time>2020-09-22T08:21:09.000Z</time>
      </trkpt>
      <trkpt lat="45.07357" lon="0.56716">
        <ele>174</ele>
        <time>2020-09-22T08:21:10.000Z</time>
      </trkpt>
      <trkpt lat="45.07353" lon="0.56717">
        <ele>174</ele>
        <time>2020-09-22T08:21:11.000Z</time>
      </trkpt>
      <trkpt lat="45.07351" lon="0.56717">
        <ele>174.19999694824</ele>
        <time>2020-09-22T08:21:12.000Z</time>
      </trkpt>
      <trkpt lat="45.07348" lon="0.56719">
        <ele>174.39999389648</ele>
        <time>2020-09-22T08:21:13.000Z</time>
      </trkpt>
      <trkpt lat="45.07345" lon="0.56721">
        <ele>174.60000610352</ele>
        <time>2020-09-22T08:21:14.000Z</time>
      </trkpt>
      <trkpt lat="45.07343" lon="0.56723">
        <ele>174.80000305176</ele>
        <time>2020-09-22T08:21:15.000Z</time>
      </trkpt>
      <trkpt lat="45.07341" lon="0.56724">
        <ele>175</ele>
        <time>2020-09-22T08:21:16.000Z</time>
      </trkpt>
      <trkpt lat="45.07339" lon="0.56727">
        <ele>175.19999694824</ele>
        <time>2020-09-22T08:21:17.000Z</time>
      </trkpt>
      <trkpt lat="45.07336" lon="0.56728">
        <ele>175.39999389648</ele>
        <time>2020-09-22T08:21:18.000Z</time>
      </trkpt>
      <trkpt lat="45.07333" lon="0.5673">
        <ele>175.60000610352</ele>
        <time>2020-09-22T08:21:19.000Z</time>
      </trkpt>
      <trkpt lat="45.07329" lon="0.56731">
        <ele>176</ele>
        <time>2020-09-22T08:21:20.000Z</time>
      </trkpt>
      <trkpt lat="45.07326" lon="0.56733">
        <ele>176.19999694824</ele>
        <time>2020-09-22T08:21:21.000Z</time>
      </trkpt>
      <trkpt lat="45.07323" lon="0.56735">
        <ele>176.39999389648</ele>
        <time>2020-09-22T08:21:22.000Z</time>
      </trkpt>
      <trkpt lat="45.0732" lon="0.56737">
        <ele>176.60000610352</ele>
        <time>2020-09-22T08:21:23.000Z</time>
      </trkpt>
      <trkpt lat="45.07317" lon="0.56738">
        <ele>176.80000305176</ele>
        <time>2020-09-22T08:21:24.000Z</time>
      </trkpt>
      <trkpt lat="45.07314" lon="0.56739">
        <ele>177</ele>
        <time>2020-09-22T08:21:25.000Z</time>
      </trkpt>
      <trkpt lat="45.07311" lon="0.5674">
        <ele>177</ele>
        <time>2020-09-22T08:21:26.000Z</time>
      </trkpt>
      <trkpt lat="45.07308" lon="0.56742">
        <ele>176.80000305176</ele>
        <time>2020-09-22T08:21:27.000Z</time>
      </trkpt>
      <trkpt lat="45.07305" lon="0.56745">
        <ele>176.80000305176</ele>
        <time>2020-09-22T08:21:28.000Z</time>
      </trkpt>
      <trkpt lat="45.07303" lon="0.56746">
        <ele>176.80000305176</ele>
        <time>2020-09-22T08:21:29.000Z</time>
      </trkpt>
      <trkpt lat="45.073" lon="0.56749">
        <ele>176.80000305176</ele>
        <time>2020-09-22T08:21:30.000Z</time>
      </trkpt>
      <trkpt lat="45.07297" lon="0.56751">
        <ele>176.60000610352</ele>
        <time>2020-09-22T08:21:31.000Z</time>
      </trkpt>
      <trkpt lat="45.07293" lon="0.56755">
        <ele>176.60000610352</ele>
        <time>2020-09-22T08:21:32.000Z</time>
      </trkpt>
      <trkpt lat="45.07291" lon="0.56756">
        <ele>176.39999389648</ele>
        <time>2020-09-22T08:21:33.000Z</time>
      </trkpt>
      <trkpt lat="45.07291" lon="0.56756">
        <ele>176.39999389648</ele>
        <time>2020-09-22T08:21:34.000Z</time>
      </trkpt>
      <trkpt lat="45.07288" lon="0.56757">
        <ele>176.39999389648</ele>
        <time>2020-09-22T08:21:35.000Z</time>
      </trkpt>
      <trkpt lat="45.07286" lon="0.56759">
        <ele>176.39999389648</ele>
        <time>2020-09-22T08:21:36.000Z</time>
      </trkpt>
      <trkpt lat="45.07283" lon="0.5676">
        <ele>176.19999694824</ele>
        <time>2020-09-22T08:21:37.000Z</time>
      </trkpt>
      <trkpt lat="45.0728" lon="0.56761">
        <ele>176.19999694824</ele>
        <time>2020-09-22T08:21:38.000Z</time>
      </trkpt>
      <trkpt lat="45.07278" lon="0.56763">
        <ele>176.19999694824</ele>
        <time>2020-09-22T08:21:39.000Z</time>
      </trkpt>
      <trkpt lat="45.07276" lon="0.56764">
        <ele>176</ele>
        <time>2020-09-22T08:21:40.000Z</time>
      </trkpt>
      <trkpt lat="45.07273" lon="0.56766">
        <ele>176</ele>
        <time>2020-09-22T08:21:41.000Z</time>
      </trkpt>
      <trkpt lat="45.0727" lon="0.56768">
        <ele>175.80000305176</ele>
        <time>2020-09-22T08:21:42.000Z</time>
      </trkpt>
      <trkpt lat="45.07268" lon="0.5677">
        <ele>175.80000305176</ele>
        <time>2020-09-22T08:21:43.000Z</time>
      </trkpt>
      <trkpt lat="45.07265" lon="0.56772">
        <ele>175.60000610352</ele>
        <time>2020-09-22T08:21:44.000Z</time>
      </trkpt>
      <trkpt lat="45.07262" lon="0.56774">
        <ele>175.60000610352</ele>
        <time>2020-09-22T08:21:45.000Z</time>
      </trkpt>
      <trkpt lat="45.0726" lon="0.56776">
        <ele>175.60000610352</ele>
        <time>2020-09-22T08:21:46.000Z</time>
      </trkpt>
      <trkpt lat="45.07257" lon="0.56778">
        <ele>175.39999389648</ele>
        <time>2020-09-22T08:21:47.000Z</time>
      </trkpt>
      <trkpt lat="45.07254" lon="0.5678">
        <ele>175.39999389648</ele>
        <time>2020-09-22T08:21:48.000Z</time>
      </trkpt>
      <trkpt lat="45.07252" lon="0.56782">
        <ele>175.19999694824</ele>
        <time>2020-09-22T08:21:49.000Z</time>
      </trkpt>
      <trkpt lat="45.07249" lon="0.56784">
        <ele>175.19999694824</ele>
        <time>2020-09-22T08:21:50.000Z</time>
      </trkpt>
      <trkpt lat="45.07246" lon="0.56785">
        <ele>175</ele>
        <time>2020-09-22T08:21:51.000Z</time>
      </trkpt>
      <trkpt lat="45.07243" lon="0.56786">
        <ele>175</ele>
        <time>2020-09-22T08:21:52.000Z</time>
      </trkpt>
      <trkpt lat="45.0724" lon="0.56788">
        <ele>174.80000305176</ele>
        <time>2020-09-22T08:21:53.000Z</time>
      </trkpt>
      <trkpt lat="45.07237" lon="0.56789">
        <ele>174.80000305176</ele>
        <time>2020-09-22T08:21:54.000Z</time>
      </trkpt>
      <trkpt lat="45.07234" lon="0.56791">
        <ele>174.80000305176</ele>
        <time>2020-09-22T08:21:55.000Z</time>
      </trkpt>
      <trkpt lat="45.07232" lon="0.56792">
        <ele>174.60000610352</ele>
        <time>2020-09-22T08:21:56.000Z</time>
      </trkpt>
      <trkpt lat="45.07228" lon="0.56794">
        <ele>174.60000610352</ele>
        <time>2020-09-22T08:21:57.000Z</time>
      </trkpt>
      <trkpt lat="45.07225" lon="0.56795">
        <ele>174.39999389648</ele>
        <time>2020-09-22T08:21:58.000Z</time>
      </trkpt>
      <trkpt lat="45.07222" lon="0.56797">
        <ele>174.39999389648</ele>
        <time>2020-09-22T08:21:59.000Z</time>
      </trkpt>
      <trkpt lat="45.07219" lon="0.56799">
        <ele>174.19999694824</ele>
        <time>2020-09-22T08:22:00.000Z</time>
      </trkpt>
      <trkpt lat="45.07216" lon="0.56801">
        <ele>174.19999694824</ele>
        <time>2020-09-22T08:22:01.000Z</time>
      </trkpt>
      <trkpt lat="45.07213" lon="0.56802">
        <ele>174</ele>
        <time>2020-09-22T08:22:02.000Z</time>
      </trkpt>
      <trkpt lat="45.0721" lon="0.56804">
        <ele>174</ele>
        <time>2020-09-22T08:22:03.000Z</time>
      </trkpt>
      <trkpt lat="45.07206" lon="0.56805">
        <ele>173.80000305176</ele>
        <time>2020-09-22T08:22:04.000Z</time>
      </trkpt>
      <trkpt lat="45.07203" lon="0.56806">
        <ele>173.80000305176</ele>
        <time>2020-09-22T08:22:05.000Z</time>
      </trkpt>
      <trkpt lat="45.072" lon="0.56807">
        <ele>173.80000305176</ele>
        <time>2020-09-22T08:22:06.000Z</time>
      </trkpt>
      <trkpt lat="45.07197" lon="0.56808">
        <ele>173.60000610352</ele>
        <time>2020-09-22T08:22:07.000Z</time>
      </trkpt>
      <trkpt lat="45.07194" lon="0.56809">
        <ele>173.60000610352</ele>
        <time>2020-09-22T08:22:08.000Z</time>
      </trkpt>
      <trkpt lat="45.07191" lon="0.56808">
        <ele>173.60000610352</ele>
        <time>2020-09-22T08:22:09.000Z</time>
      </trkpt>
      <trkpt lat="45.07188" lon="0.56808">
        <ele>173.60000610352</ele>
        <time>2020-09-22T08:22:10.000Z</time>
      </trkpt>
      <trkpt lat="45.07185" lon="0.56808">
        <ele>173.60000610352</ele>
        <time>2020-09-22T08:22:11.000Z</time>
      </trkpt>
      <trkpt lat="45.07183" lon="0.56807">
        <ele>173.60000610352</ele>
        <time>2020-09-22T08:22:12.000Z</time>
      </trkpt>
      <trkpt lat="45.0718" lon="0.56804">
        <ele>173.60000610352</ele>
        <time>2020-09-22T08:22:13.000Z</time>
      </trkpt>
      <trkpt lat="45.07179" lon="0.56802">
        <ele>173.60000610352</ele>
        <time>2020-09-22T08:22:14.000Z</time>
      </trkpt>
      <trkpt lat="45.07171" lon="0.56801">
        <ele>173.60000610352</ele>
        <time>2020-09-22T08:22:16.000Z</time>
      </trkpt>
      <trkpt lat="45.07171" lon="0.56801">
        <ele>173.60000610352</ele>
        <time>2020-09-22T08:22:17.000Z</time>
      </trkpt>
      <trkpt lat="45.07171" lon="0.56801">
        <ele>173.60000610352</ele>
        <time>2020-09-22T08:22:18.000Z</time>
      </trkpt>
      <trkpt lat="45.07168" lon="0.56804">
        <ele>173.39999389648</ele>
        <time>2020-09-22T08:22:19.000Z</time>
      </trkpt>
      <trkpt lat="45.07165" lon="0.56807">
        <ele>173.39999389648</ele>
        <time>2020-09-22T08:22:20.000Z</time>
      </trkpt>
      <trkpt lat="45.07161" lon="0.5681">
        <ele>173.19999694824</ele>
        <time>2020-09-22T08:22:21.000Z</time>
      </trkpt>
      <trkpt lat="45.07158" lon="0.56813">
        <ele>173</ele>
        <time>2020-09-22T08:22:22.000Z</time>
      </trkpt>
      <trkpt lat="45.07154" lon="0.56815">
        <ele>173</ele>
        <time>2020-09-22T08:22:23.000Z</time>
      </trkpt>
      <trkpt lat="45.07151" lon="0.56818">
        <ele>172.80000305176</ele>
        <time>2020-09-22T08:22:24.000Z</time>
      </trkpt>
      <trkpt lat="45.07147" lon="0.56821">
        <ele>172.80000305176</ele>
        <time>2020-09-22T08:22:25.000Z</time>
      </trkpt>
      <trkpt lat="45.07143" lon="0.56824">
        <ele>172.80000305176</ele>
        <time>2020-09-22T08:22:26.000Z</time>
      </trkpt>
      <trkpt lat="45.0714" lon="0.56828">
        <ele>172.60000610352</ele>
        <time>2020-09-22T08:22:27.000Z</time>
      </trkpt>
      <trkpt lat="45.07137" lon="0.56831">
        <ele>172.60000610352</ele>
        <time>2020-09-22T08:22:28.000Z</time>
      </trkpt>
      <trkpt lat="45.07134" lon="0.56834">
        <ele>172.60000610352</ele>
        <time>2020-09-22T08:22:29.000Z</time>
      </trkpt>
      <trkpt lat="45.07131" lon="0.56837">
        <ele>172.60000610352</ele>
        <time>2020-09-22T08:22:30.000Z</time>
      </trkpt>
      <trkpt lat="45.07128" lon="0.56841">
        <ele>172.60000610352</ele>
        <time>2020-09-22T08:22:31.000Z</time>
      </trkpt>
      <trkpt lat="45.07126" lon="0.56844">
        <ele>172.60000610352</ele>
        <time>2020-09-22T08:22:32.000Z</time>
      </trkpt>
      <trkpt lat="45.07123" lon="0.56847">
        <ele>172.60000610352</ele>
        <time>2020-09-22T08:22:33.000Z</time>
      </trkpt>
      <trkpt lat="45.07121" lon="0.5685">
        <ele>172.60000610352</ele>
        <time>2020-09-22T08:22:34.000Z</time>
      </trkpt>
      <trkpt lat="45.07117" lon="0.56852">
        <ele>172.80000305176</ele>
        <time>2020-09-22T08:22:35.000Z</time>
      </trkpt>
      <trkpt lat="45.07115" lon="0.56855">
        <ele>172.80000305176</ele>
        <time>2020-09-22T08:22:36.000Z</time>
      </trkpt>
      <trkpt lat="45.07113" lon="0.56858">
        <ele>172.80000305176</ele>
        <time>2020-09-22T08:22:37.000Z</time>
      </trkpt>
      <trkpt lat="45.07113" lon="0.5686">
        <ele>172.80000305176</ele>
        <time>2020-09-22T08:22:38.000Z</time>
      </trkpt>
      <trkpt lat="45.07112" lon="0.56862">
        <ele>172.80000305176</ele>
        <time>2020-09-22T08:22:39.000Z</time>
      </trkpt>
      <trkpt lat="45.07111" lon="0.56865">
        <ele>172.80000305176</ele>
        <time>2020-09-22T08:22:40.000Z</time>
      </trkpt>
      <trkpt lat="45.0711" lon="0.56868">
        <ele>172.80000305176</ele>
        <time>2020-09-22T08:22:41.000Z</time>
      </trkpt>
      <trkpt lat="45.07108" lon="0.56871">
        <ele>172.80000305176</ele>
        <time>2020-09-22T08:22:42.000Z</time>
      </trkpt>
      <trkpt lat="45.07107" lon="0.56875">
        <ele>172.80000305176</ele>
        <time>2020-09-22T08:22:43.000Z</time>
      </trkpt>
      <trkpt lat="45.07104" lon="0.56878">
        <ele>172.80000305176</ele>
        <time>2020-09-22T08:22:44.000Z</time>
      </trkpt>
      <trkpt lat="45.07102" lon="0.56882">
        <ele>172.80000305176</ele>
        <time>2020-09-22T08:22:45.000Z</time>
      </trkpt>
      <trkpt lat="45.07101" lon="0.56884">
        <ele>173</ele>
        <time>2020-09-22T08:22:46.000Z</time>
      </trkpt>
      <trkpt lat="45.07099" lon="0.56887">
        <ele>173</ele>
        <time>2020-09-22T08:22:47.000Z</time>
      </trkpt>
      <trkpt lat="45.07098" lon="0.5689">
        <ele>173</ele>
        <time>2020-09-22T08:22:48.000Z</time>
      </trkpt>
      <trkpt lat="45.07096" lon="0.56895">
        <ele>173</ele>
        <time>2020-09-22T08:22:49.000Z</time>
      </trkpt>
      <trkpt lat="45.07093" lon="0.56898">
        <ele>173.19999694824</ele>
        <time>2020-09-22T08:22:50.000Z</time>
      </trkpt>
      <trkpt lat="45.0709" lon="0.56901">
        <ele>173.19999694824</ele>
        <time>2020-09-22T08:22:51.000Z</time>
      </trkpt>
      <trkpt lat="45.07087" lon="0.56905">
        <ele>173.39999389648</ele>
        <time>2020-09-22T08:22:52.000Z</time>
      </trkpt>
      <trkpt lat="45.07085" lon="0.56907">
        <ele>173.39999389648</ele>
        <time>2020-09-22T08:22:53.000Z</time>
      </trkpt>
      <trkpt lat="45.07083" lon="0.56909">
        <ele>173.60000610352</ele>
        <time>2020-09-22T08:22:54.000Z</time>
      </trkpt>
      <trkpt lat="45.0708" lon="0.56912">
        <ele>173.60000610352</ele>
        <time>2020-09-22T08:22:55.000Z</time>
      </trkpt>
      <trkpt lat="45.07076" lon="0.56913">
        <ele>173.80000305176</ele>
        <time>2020-09-22T08:22:56.000Z</time>
      </trkpt>
      <trkpt lat="45.07073" lon="0.56915">
        <ele>174</ele>
        <time>2020-09-22T08:22:57.000Z</time>
      </trkpt>
      <trkpt lat="45.0707" lon="0.56917">
        <ele>174</ele>
        <time>2020-09-22T08:22:58.000Z</time>
      </trkpt>
      <trkpt lat="45.07066" lon="0.56918">
        <ele>174.19999694824</ele>
        <time>2020-09-22T08:22:59.000Z</time>
      </trkpt>
      <trkpt lat="45.07064" lon="0.5692">
        <ele>174.19999694824</ele>
        <time>2020-09-22T08:23:00.000Z</time>
      </trkpt>
      <trkpt lat="45.07061" lon="0.56922">
        <ele>174.39999389648</ele>
        <time>2020-09-22T08:23:01.000Z</time>
      </trkpt>
      <trkpt lat="45.07052" lon="0.56926">
        <ele>174.60000610352</ele>
        <time>2020-09-22T08:23:02.000Z</time>
      </trkpt>
      <trkpt lat="45.07052" lon="0.56926">
        <ele>174.60000610352</ele>
        <time>2020-09-22T08:23:03.000Z</time>
      </trkpt>
      <trkpt lat="45.07052" lon="0.56926">
        <ele>174.60000610352</ele>
        <time>2020-09-22T08:23:04.000Z</time>
      </trkpt>
      <trkpt lat="45.07049" lon="0.56928">
        <ele>174.80000305176</ele>
        <time>2020-09-22T08:23:05.000Z</time>
      </trkpt>
      <trkpt lat="45.07046" lon="0.56929">
        <ele>174.80000305176</ele>
        <time>2020-09-22T08:23:06.000Z</time>
      </trkpt>
      <trkpt lat="45.07043" lon="0.5693">
        <ele>175</ele>
        <time>2020-09-22T08:23:07.000Z</time>
      </trkpt>
      <trkpt lat="45.0704" lon="0.56932">
        <ele>175</ele>
        <time>2020-09-22T08:23:08.000Z</time>
      </trkpt>
      <trkpt lat="45.07038" lon="0.56933">
        <ele>174.80000305176</ele>
        <time>2020-09-22T08:23:09.000Z</time>
      </trkpt>
      <trkpt lat="45.07035" lon="0.56935">
        <ele>174.80000305176</ele>
        <time>2020-09-22T08:23:10.000Z</time>
      </trkpt>
      <trkpt lat="45.07031" lon="0.56937">
        <ele>174.80000305176</ele>
        <time>2020-09-22T08:23:11.000Z</time>
      </trkpt>
      <trkpt lat="45.07027" lon="0.56938">
        <ele>174.60000610352</ele>
        <time>2020-09-22T08:23:12.000Z</time>
      </trkpt>
      <trkpt lat="45.07024" lon="0.56939">
        <ele>174.60000610352</ele>
        <time>2020-09-22T08:23:13.000Z</time>
      </trkpt>
      <trkpt lat="45.0702" lon="0.5694">
        <ele>174.39999389648</ele>
        <time>2020-09-22T08:23:14.000Z</time>
      </trkpt>
      <trkpt lat="45.07017" lon="0.56942">
        <ele>174.39999389648</ele>
        <time>2020-09-22T08:23:15.000Z</time>
      </trkpt>
      <trkpt lat="45.07014" lon="0.56943">
        <ele>174.19999694824</ele>
        <time>2020-09-22T08:23:16.000Z</time>
      </trkpt>
      <trkpt lat="45.0701" lon="0.56945">
        <ele>174.19999694824</ele>
        <time>2020-09-22T08:23:17.000Z</time>
      </trkpt>
      <trkpt lat="45.07008" lon="0.56946">
        <ele>174</ele>
        <time>2020-09-22T08:23:18.000Z</time>
      </trkpt>
      <trkpt lat="45.07006" lon="0.56948">
        <ele>173.80000305176</ele>
        <time>2020-09-22T08:23:19.000Z</time>
      </trkpt>
      <trkpt lat="45.07003" lon="0.56949">
        <ele>173.80000305176</ele>
        <time>2020-09-22T08:23:20.000Z</time>
      </trkpt>
      <trkpt lat="45.06999" lon="0.56951">
        <ele>173.60000610352</ele>
        <time>2020-09-22T08:23:21.000Z</time>
      </trkpt>
      <trkpt lat="45.06995" lon="0.56953">
        <ele>173.39999389648</ele>
        <time>2020-09-22T08:23:22.000Z</time>
      </trkpt>
      <trkpt lat="45.06992" lon="0.56956">
        <ele>173.39999389648</ele>
        <time>2020-09-22T08:23:23.000Z</time>
      </trkpt>
      <trkpt lat="45.06989" lon="0.56959">
        <ele>173.19999694824</ele>
        <time>2020-09-22T08:23:24.000Z</time>
      </trkpt>
      <trkpt lat="45.06986" lon="0.56961">
        <ele>173</ele>
        <time>2020-09-22T08:23:25.000Z</time>
      </trkpt>
      <trkpt lat="45.06984" lon="0.56963">
        <ele>173</ele>
        <time>2020-09-22T08:23:26.000Z</time>
      </trkpt>
      <trkpt lat="45.0698" lon="0.56964">
        <ele>172.80000305176</ele>
        <time>2020-09-22T08:23:27.000Z</time>
      </trkpt>
      <trkpt lat="45.06976" lon="0.56965">
        <ele>172.60000610352</ele>
        <time>2020-09-22T08:23:28.000Z</time>
      </trkpt>
      <trkpt lat="45.06972" lon="0.56967">
        <ele>172.39999389648</ele>
        <time>2020-09-22T08:23:29.000Z</time>
      </trkpt>
      <trkpt lat="45.06969" lon="0.56969">
        <ele>172.39999389648</ele>
        <time>2020-09-22T08:23:30.000Z</time>
      </trkpt>
      <trkpt lat="45.06965" lon="0.56972">
        <ele>172.19999694824</ele>
        <time>2020-09-22T08:23:31.000Z</time>
      </trkpt>
      <trkpt lat="45.06962" lon="0.56975">
        <ele>172.19999694824</ele>
        <time>2020-09-22T08:23:32.000Z</time>
      </trkpt>
      <trkpt lat="45.0696" lon="0.56978">
        <ele>172.39999389648</ele>
        <time>2020-09-22T08:23:33.000Z</time>
      </trkpt>
      <trkpt lat="45.06957" lon="0.56981">
        <ele>172.39999389648</ele>
        <time>2020-09-22T08:23:34.000Z</time>
      </trkpt>
      <trkpt lat="45.06954" lon="0.56984">
        <ele>172.60000610352</ele>
        <time>2020-09-22T08:23:35.000Z</time>
      </trkpt>
      <trkpt lat="45.06952" lon="0.56987">
        <ele>172.80000305176</ele>
        <time>2020-09-22T08:23:36.000Z</time>
      </trkpt>
      <trkpt lat="45.06949" lon="0.5699">
        <ele>173</ele>
        <time>2020-09-22T08:23:37.000Z</time>
      </trkpt>
      <trkpt lat="45.06946" lon="0.56992">
        <ele>173</ele>
        <time>2020-09-22T08:23:38.000Z</time>
      </trkpt>
      <trkpt lat="45.06943" lon="0.56995">
        <ele>173.19999694824</ele>
        <time>2020-09-22T08:23:39.000Z</time>
      </trkpt>
      <trkpt lat="45.0694" lon="0.56998">
        <ele>173.39999389648</ele>
        <time>2020-09-22T08:23:40.000Z</time>
      </trkpt>
      <trkpt lat="45.06937" lon="0.57001">
        <ele>173.39999389648</ele>
        <time>2020-09-22T08:23:41.000Z</time>
      </trkpt>
      <trkpt lat="45.06934" lon="0.57004">
        <ele>173.60000610352</ele>
        <time>2020-09-22T08:23:42.000Z</time>
      </trkpt>
      <trkpt lat="45.06931" lon="0.57007">
        <ele>173.80000305176</ele>
        <time>2020-09-22T08:23:43.000Z</time>
      </trkpt>
      <trkpt lat="45.0693" lon="0.5701">
        <ele>173.80000305176</ele>
        <time>2020-09-22T08:23:44.000Z</time>
      </trkpt>
      <trkpt lat="45.06928" lon="0.57013">
        <ele>174</ele>
        <time>2020-09-22T08:23:45.000Z</time>
      </trkpt>
      <trkpt lat="45.06926" lon="0.57017">
        <ele>174.19999694824</ele>
        <time>2020-09-22T08:23:46.000Z</time>
      </trkpt>
      <trkpt lat="45.06924" lon="0.5702">
        <ele>173.80000305176</ele>
        <time>2020-09-22T08:23:47.000Z</time>
      </trkpt>
      <trkpt lat="45.06922" lon="0.57023">
        <ele>173.19999694824</ele>
        <time>2020-09-22T08:23:48.000Z</time>
      </trkpt>
      <trkpt lat="45.0692" lon="0.57025">
        <ele>172.80000305176</ele>
        <time>2020-09-22T08:23:49.000Z</time>
      </trkpt>
      <trkpt lat="45.06918" lon="0.57029">
        <ele>172.19999694824</ele>
        <time>2020-09-22T08:23:50.000Z</time>
      </trkpt>
      <trkpt lat="45.06917" lon="0.57032">
        <ele>171.60000610352</ele>
        <time>2020-09-22T08:23:51.000Z</time>
      </trkpt>
      <trkpt lat="45.06916" lon="0.57036">
        <ele>171.19999694824</ele>
        <time>2020-09-22T08:23:52.000Z</time>
      </trkpt>
      <trkpt lat="45.06915" lon="0.5704">
        <ele>170.80000305176</ele>
        <time>2020-09-22T08:23:53.000Z</time>
      </trkpt>
      <trkpt lat="45.06914" lon="0.57044">
        <ele>170.19999694824</ele>
        <time>2020-09-22T08:23:54.000Z</time>
      </trkpt>
      <trkpt lat="45.06913" lon="0.57047">
        <ele>169.80000305176</ele>
        <time>2020-09-22T08:23:55.000Z</time>
      </trkpt>
      <trkpt lat="45.06911" lon="0.57051">
        <ele>169.19999694824</ele>
        <time>2020-09-22T08:23:56.000Z</time>
      </trkpt>
      <trkpt lat="45.0691" lon="0.57055">
        <ele>169</ele>
        <time>2020-09-22T08:23:57.000Z</time>
      </trkpt>
      <trkpt lat="45.06908" lon="0.5706">
        <ele>168.60000610352</ele>
        <time>2020-09-22T08:23:58.000Z</time>
      </trkpt>
      <trkpt lat="45.06906" lon="0.57064">
        <ele>168.19999694824</ele>
        <time>2020-09-22T08:23:59.000Z</time>
      </trkpt>
      <trkpt lat="45.06904" lon="0.57068">
        <ele>168</ele>
        <time>2020-09-22T08:24:00.000Z</time>
      </trkpt>
      <trkpt lat="45.06902" lon="0.57072">
        <ele>167.60000610352</ele>
        <time>2020-09-22T08:24:01.000Z</time>
      </trkpt>
      <trkpt lat="45.069" lon="0.57075">
        <ele>167.19999694824</ele>
        <time>2020-09-22T08:24:02.000Z</time>
      </trkpt>
      <trkpt lat="45.06898" lon="0.57079">
        <ele>167</ele>
        <time>2020-09-22T08:24:03.000Z</time>
      </trkpt>
      <trkpt lat="45.06896" lon="0.57082">
        <ele>166.80000305176</ele>
        <time>2020-09-22T08:24:04.000Z</time>
      </trkpt>
      <trkpt lat="45.06893" lon="0.57085">
        <ele>166.39999389648</ele>
        <time>2020-09-22T08:24:05.000Z</time>
      </trkpt>
      <trkpt lat="45.06892" lon="0.57087">
        <ele>166.19999694824</ele>
        <time>2020-09-22T08:24:06.000Z</time>
      </trkpt>
      <trkpt lat="45.06891" lon="0.5709">
        <ele>166</ele>
        <time>2020-09-22T08:24:07.000Z</time>
      </trkpt>
      <trkpt lat="45.06888" lon="0.57094">
        <ele>165.80000305176</ele>
        <time>2020-09-22T08:24:08.000Z</time>
      </trkpt>
      <trkpt lat="45.06887" lon="0.57096">
        <ele>165.60000610352</ele>
        <time>2020-09-22T08:24:09.000Z</time>
      </trkpt>
      <trkpt lat="45.06885" lon="0.57099">
        <ele>165.39999389648</ele>
        <time>2020-09-22T08:24:10.000Z</time>
      </trkpt>
      <trkpt lat="45.06883" lon="0.57102">
        <ele>165.19999694824</ele>
        <time>2020-09-22T08:24:11.000Z</time>
      </trkpt>
      <trkpt lat="45.06881" lon="0.57105">
        <ele>165</ele>
        <time>2020-09-22T08:24:12.000Z</time>
      </trkpt>
      <trkpt lat="45.06879" lon="0.57109">
        <ele>164.60000610352</ele>
        <time>2020-09-22T08:24:13.000Z</time>
      </trkpt>
      <trkpt lat="45.06877" lon="0.57112">
        <ele>164.39999389648</ele>
        <time>2020-09-22T08:24:14.000Z</time>
      </trkpt>
      <trkpt lat="45.06875" lon="0.57116">
        <ele>164.19999694824</ele>
        <time>2020-09-22T08:24:15.000Z</time>
      </trkpt>
      <trkpt lat="45.06872" lon="0.5712">
        <ele>164.19999694824</ele>
        <time>2020-09-22T08:24:16.000Z</time>
      </trkpt>
      <trkpt lat="45.06868" lon="0.57123">
        <ele>164.19999694824</ele>
        <time>2020-09-22T08:24:17.000Z</time>
      </trkpt>
      <trkpt lat="45.06864" lon="0.57126">
        <ele>163.80000305176</ele>
        <time>2020-09-22T08:24:18.000Z</time>
      </trkpt>
      <trkpt lat="45.0686" lon="0.5713">
        <ele>162.80000305176</ele>
        <time>2020-09-22T08:24:19.000Z</time>
      </trkpt>
      <trkpt lat="45.06856" lon="0.57134">
        <ele>162</ele>
        <time>2020-09-22T08:24:20.000Z</time>
      </trkpt>
      <trkpt lat="45.06852" lon="0.57137">
        <ele>161.39999389648</ele>
        <time>2020-09-22T08:24:21.000Z</time>
      </trkpt>
      <trkpt lat="45.06849" lon="0.5714">
        <ele>161</ele>
        <time>2020-09-22T08:24:22.000Z</time>
      </trkpt>
      <trkpt lat="45.06846" lon="0.57143">
        <ele>160.60000610352</ele>
        <time>2020-09-22T08:24:23.000Z</time>
      </trkpt>
      <trkpt lat="45.06843" lon="0.57146">
        <ele>160.39999389648</ele>
        <time>2020-09-22T08:24:24.000Z</time>
      </trkpt>
      <trkpt lat="45.06838" lon="0.57156">
        <ele>159.60000610352</ele>
        <time>2020-09-22T08:24:25.000Z</time>
      </trkpt>
      <trkpt lat="45.06838" lon="0.57156">
        <ele>159.60000610352</ele>
        <time>2020-09-22T08:24:26.000Z</time>
      </trkpt>
      <trkpt lat="45.06836" lon="0.57161">
        <ele>159.19999694824</ele>
        <time>2020-09-22T08:24:27.000Z</time>
      </trkpt>
      <trkpt lat="45.06836" lon="0.57161">
        <ele>159.19999694824</ele>
        <time>2020-09-22T08:24:28.000Z</time>
      </trkpt>
      <trkpt lat="45.06833" lon="0.57166">
        <ele>159</ele>
        <time>2020-09-22T08:24:29.000Z</time>
      </trkpt>
      <trkpt lat="45.06832" lon="0.5717">
        <ele>158.80000305176</ele>
        <time>2020-09-22T08:24:30.000Z</time>
      </trkpt>
      <trkpt lat="45.0683" lon="0.57174">
        <ele>158.39999389648</ele>
        <time>2020-09-22T08:24:31.000Z</time>
      </trkpt>
      <trkpt lat="45.06829" lon="0.57179">
        <ele>158</ele>
        <time>2020-09-22T08:24:32.000Z</time>
      </trkpt>
      <trkpt lat="45.06827" lon="0.57183">
        <ele>157.60000610352</ele>
        <time>2020-09-22T08:24:33.000Z</time>
      </trkpt>
      <trkpt lat="45.06827" lon="0.57186">
        <ele>157.39999389648</ele>
        <time>2020-09-22T08:24:34.000Z</time>
      </trkpt>
      <trkpt lat="45.06826" lon="0.5719">
        <ele>157</ele>
        <time>2020-09-22T08:24:35.000Z</time>
      </trkpt>
      <trkpt lat="45.06824" lon="0.57194">
        <ele>156.60000610352</ele>
        <time>2020-09-22T08:24:36.000Z</time>
      </trkpt>
      <trkpt lat="45.06822" lon="0.57199">
        <ele>156.19999694824</ele>
        <time>2020-09-22T08:24:37.000Z</time>
      </trkpt>
      <trkpt lat="45.06821" lon="0.57203">
        <ele>155.80000305176</ele>
        <time>2020-09-22T08:24:38.000Z</time>
      </trkpt>
      <trkpt lat="45.0682" lon="0.57208">
        <ele>155.39999389648</ele>
        <time>2020-09-22T08:24:39.000Z</time>
      </trkpt>
      <trkpt lat="45.0682" lon="0.57212">
        <ele>155.19999694824</ele>
        <time>2020-09-22T08:24:40.000Z</time>
      </trkpt>
      <trkpt lat="45.06819" lon="0.57217">
        <ele>154.80000305176</ele>
        <time>2020-09-22T08:24:41.000Z</time>
      </trkpt>
      <trkpt lat="45.06818" lon="0.57222">
        <ele>154.39999389648</ele>
        <time>2020-09-22T08:24:42.000Z</time>
      </trkpt>
      <trkpt lat="45.06817" lon="0.57226">
        <ele>154</ele>
        <time>2020-09-22T08:24:43.000Z</time>
      </trkpt>
      <trkpt lat="45.06815" lon="0.57231">
        <ele>153.39999389648</ele>
        <time>2020-09-22T08:24:44.000Z</time>
      </trkpt>
      <trkpt lat="45.06814" lon="0.57235">
        <ele>153</ele>
        <time>2020-09-22T08:24:45.000Z</time>
      </trkpt>
      <trkpt lat="45.06814" lon="0.57238">
        <ele>152.80000305176</ele>
        <time>2020-09-22T08:24:46.000Z</time>
      </trkpt>
      <trkpt lat="45.06813" lon="0.57241">
        <ele>152.60000610352</ele>
        <time>2020-09-22T08:24:47.000Z</time>
      </trkpt>
      <trkpt lat="45.06813" lon="0.57243">
        <ele>152.39999389648</ele>
        <time>2020-09-22T08:24:48.000Z</time>
      </trkpt>
      <trkpt lat="45.06813" lon="0.57246">
        <ele>152.39999389648</ele>
        <time>2020-09-22T08:24:49.000Z</time>
      </trkpt>
      <trkpt lat="45.06812" lon="0.57249">
        <ele>152.19999694824</ele>
        <time>2020-09-22T08:24:50.000Z</time>
      </trkpt>
      <trkpt lat="45.06812" lon="0.57252">
        <ele>152</ele>
        <time>2020-09-22T08:24:51.000Z</time>
      </trkpt>
      <trkpt lat="45.06811" lon="0.57255">
        <ele>151.80000305176</ele>
        <time>2020-09-22T08:24:52.000Z</time>
      </trkpt>
      <trkpt lat="45.06811" lon="0.57259">
        <ele>151.60000610352</ele>
        <time>2020-09-22T08:24:53.000Z</time>
      </trkpt>
      <trkpt lat="45.06812" lon="0.57263">
        <ele>151.60000610352</ele>
        <time>2020-09-22T08:24:54.000Z</time>
      </trkpt>
      <trkpt lat="45.06813" lon="0.57267">
        <ele>151.60000610352</ele>
        <time>2020-09-22T08:24:55.000Z</time>
      </trkpt>
      <trkpt lat="45.06814" lon="0.57271">
        <ele>151.60000610352</ele>
        <time>2020-09-22T08:24:56.000Z</time>
      </trkpt>
      <trkpt lat="45.06815" lon="0.57275">
        <ele>151.60000610352</ele>
        <time>2020-09-22T08:24:57.000Z</time>
      </trkpt>
      <trkpt lat="45.06816" lon="0.57279">
        <ele>151.60000610352</ele>
        <time>2020-09-22T08:24:58.000Z</time>
      </trkpt>
      <trkpt lat="45.06817" lon="0.57282">
        <ele>151.60000610352</ele>
        <time>2020-09-22T08:24:59.000Z</time>
      </trkpt>
      <trkpt lat="45.06818" lon="0.57287">
        <ele>151.60000610352</ele>
        <time>2020-09-22T08:25:00.000Z</time>
      </trkpt>
      <trkpt lat="45.06819" lon="0.57291">
        <ele>151.60000610352</ele>
        <time>2020-09-22T08:25:01.000Z</time>
      </trkpt>
      <trkpt lat="45.0682" lon="0.57295">
        <ele>151.39999389648</ele>
        <time>2020-09-22T08:25:02.000Z</time>
      </trkpt>
      <trkpt lat="45.06822" lon="0.573">
        <ele>151.39999389648</ele>
        <time>2020-09-22T08:25:03.000Z</time>
      </trkpt>
      <trkpt lat="45.06823" lon="0.57305">
        <ele>151</ele>
        <time>2020-09-22T08:25:04.000Z</time>
      </trkpt>
      <trkpt lat="45.06823" lon="0.57309">
        <ele>150.60000610352</ele>
        <time>2020-09-22T08:25:05.000Z</time>
      </trkpt>
      <trkpt lat="45.06825" lon="0.57313">
        <ele>150.19999694824</ele>
        <time>2020-09-22T08:25:06.000Z</time>
      </trkpt>
      <trkpt lat="45.06829" lon="0.57319">
        <ele>149.80000305176</ele>
        <time>2020-09-22T08:25:07.000Z</time>
      </trkpt>
      <trkpt lat="45.06833" lon="0.57324">
        <ele>149.60000610352</ele>
        <time>2020-09-22T08:25:08.000Z</time>
      </trkpt>
      <trkpt lat="45.06835" lon="0.57328">
        <ele>149.19999694824</ele>
        <time>2020-09-22T08:25:09.000Z</time>
      </trkpt>
      <trkpt lat="45.06839" lon="0.57334">
        <ele>148.80000305176</ele>
        <time>2020-09-22T08:25:10.000Z</time>
      </trkpt>
      <trkpt lat="45.06842" lon="0.57339">
        <ele>148.39999389648</ele>
        <time>2020-09-22T08:25:11.000Z</time>
      </trkpt>
      <trkpt lat="45.06845" lon="0.57345">
        <ele>148</ele>
        <time>2020-09-22T08:25:12.000Z</time>
      </trkpt>
      <trkpt lat="45.06846" lon="0.57351">
        <ele>147.19999694824</ele>
        <time>2020-09-22T08:25:13.000Z</time>
      </trkpt>
      <trkpt lat="45.0685" lon="0.57356">
        <ele>147</ele>
        <time>2020-09-22T08:25:14.000Z</time>
      </trkpt>
      <trkpt lat="45.06852" lon="0.5736">
        <ele>146.80000305176</ele>
        <time>2020-09-22T08:25:15.000Z</time>
      </trkpt>
      <trkpt lat="45.06855" lon="0.57363">
        <ele>146.60000610352</ele>
        <time>2020-09-22T08:25:16.000Z</time>
      </trkpt>
      <trkpt lat="45.06857" lon="0.57367">
        <ele>146.39999389648</ele>
        <time>2020-09-22T08:25:17.000Z</time>
      </trkpt>
      <trkpt lat="45.06859" lon="0.57371">
        <ele>146.19999694824</ele>
        <time>2020-09-22T08:25:18.000Z</time>
      </trkpt>
      <trkpt lat="45.0686" lon="0.57376">
        <ele>146</ele>
        <time>2020-09-22T08:25:19.000Z</time>
      </trkpt>
      <trkpt lat="45.06862" lon="0.57379">
        <ele>145.80000305176</ele>
        <time>2020-09-22T08:25:20.000Z</time>
      </trkpt>
      <trkpt lat="45.06864" lon="0.57382">
        <ele>145.80000305176</ele>
        <time>2020-09-22T08:25:21.000Z</time>
      </trkpt>
      <trkpt lat="45.06867" lon="0.57385">
        <ele>145.60000610352</ele>
        <time>2020-09-22T08:25:22.000Z</time>
      </trkpt>
      <trkpt lat="45.0687" lon="0.57388">
        <ele>145.39999389648</ele>
        <time>2020-09-22T08:25:23.000Z</time>
      </trkpt>
      <trkpt lat="45.06871" lon="0.57391">
        <ele>145.19999694824</ele>
        <time>2020-09-22T08:25:24.000Z</time>
      </trkpt>
      <trkpt lat="45.06873" lon="0.57394">
        <ele>145</ele>
        <time>2020-09-22T08:25:25.000Z</time>
      </trkpt>
      <trkpt lat="45.06875" lon="0.57398">
        <ele>144.80000305176</ele>
        <time>2020-09-22T08:25:26.000Z</time>
      </trkpt>
      <trkpt lat="45.06877" lon="0.57402">
        <ele>144.60000610352</ele>
        <time>2020-09-22T08:25:27.000Z</time>
      </trkpt>
      <trkpt lat="45.0688" lon="0.57405">
        <ele>144.60000610352</ele>
        <time>2020-09-22T08:25:28.000Z</time>
      </trkpt>
      <trkpt lat="45.06882" lon="0.57408">
        <ele>144.60000610352</ele>
        <time>2020-09-22T08:25:29.000Z</time>
      </trkpt>
      <trkpt lat="45.06884" lon="0.57411">
        <ele>144.39999389648</ele>
        <time>2020-09-22T08:25:30.000Z</time>
      </trkpt>
      <trkpt lat="45.06886" lon="0.57414">
        <ele>144.39999389648</ele>
        <time>2020-09-22T08:25:31.000Z</time>
      </trkpt>
      <trkpt lat="45.06887" lon="0.57418">
        <ele>144.19999694824</ele>
        <time>2020-09-22T08:25:32.000Z</time>
      </trkpt>
      <trkpt lat="45.06889" lon="0.57421">
        <ele>144</ele>
        <time>2020-09-22T08:25:33.000Z</time>
      </trkpt>
      <trkpt lat="45.06891" lon="0.57424">
        <ele>144</ele>
        <time>2020-09-22T08:25:34.000Z</time>
      </trkpt>
      <trkpt lat="45.06893" lon="0.57428">
        <ele>143.80000305176</ele>
        <time>2020-09-22T08:25:35.000Z</time>
      </trkpt>
      <trkpt lat="45.06894" lon="0.57431">
        <ele>143.60000610352</ele>
        <time>2020-09-22T08:25:36.000Z</time>
      </trkpt>
      <trkpt lat="45.06896" lon="0.57434">
        <ele>143.60000610352</ele>
        <time>2020-09-22T08:25:37.000Z</time>
      </trkpt>
      <trkpt lat="45.06898" lon="0.57437">
        <ele>143.39999389648</ele>
        <time>2020-09-22T08:25:38.000Z</time>
      </trkpt>
      <trkpt lat="45.06902" lon="0.57443">
        <ele>143.19999694824</ele>
        <time>2020-09-22T08:25:39.000Z</time>
      </trkpt>
      <trkpt lat="45.06903" lon="0.57446">
        <ele>143</ele>
        <time>2020-09-22T08:25:40.000Z</time>
      </trkpt>
      <trkpt lat="45.06903" lon="0.57446">
        <ele>143</ele>
        <time>2020-09-22T08:25:41.000Z</time>
      </trkpt>
      <trkpt lat="45.06905" lon="0.57451">
        <ele>143</ele>
        <time>2020-09-22T08:25:42.000Z</time>
      </trkpt>
      <trkpt lat="45.06908" lon="0.57455">
        <ele>142.80000305176</ele>
        <time>2020-09-22T08:25:43.000Z</time>
      </trkpt>
      <trkpt lat="45.0691" lon="0.57458">
        <ele>142.60000610352</ele>
        <time>2020-09-22T08:25:44.000Z</time>
      </trkpt>
      <trkpt lat="45.06914" lon="0.57462">
        <ele>142.60000610352</ele>
        <time>2020-09-22T08:25:45.000Z</time>
      </trkpt>
      <trkpt lat="45.06916" lon="0.57465">
        <ele>142.60000610352</ele>
        <time>2020-09-22T08:25:46.000Z</time>
      </trkpt>
      <trkpt lat="45.06919" lon="0.57469">
        <ele>142.39999389648</ele>
        <time>2020-09-22T08:25:47.000Z</time>
      </trkpt>
      <trkpt lat="45.06922" lon="0.57472">
        <ele>142.39999389648</ele>
        <time>2020-09-22T08:25:48.000Z</time>
      </trkpt>
      <trkpt lat="45.06923" lon="0.57476">
        <ele>142.19999694824</ele>
        <time>2020-09-22T08:25:49.000Z</time>
      </trkpt>
      <trkpt lat="45.06925" lon="0.57479">
        <ele>142</ele>
        <time>2020-09-22T08:25:50.000Z</time>
      </trkpt>
      <trkpt lat="45.06928" lon="0.57484">
        <ele>141.60000610352</ele>
        <time>2020-09-22T08:25:51.000Z</time>
      </trkpt>
      <trkpt lat="45.06931" lon="0.57489">
        <ele>141.39999389648</ele>
        <time>2020-09-22T08:25:52.000Z</time>
      </trkpt>
      <trkpt lat="45.06934" lon="0.57494">
        <ele>141</ele>
        <time>2020-09-22T08:25:53.000Z</time>
      </trkpt>
      <trkpt lat="45.06936" lon="0.575">
        <ele>140.60000610352</ele>
        <time>2020-09-22T08:25:54.000Z</time>
      </trkpt>
      <trkpt lat="45.0694" lon="0.57505">
        <ele>140.19999694824</ele>
        <time>2020-09-22T08:25:55.000Z</time>
      </trkpt>
      <trkpt lat="45.06941" lon="0.57511">
        <ele>139.80000305176</ele>
        <time>2020-09-22T08:25:56.000Z</time>
      </trkpt>
      <trkpt lat="45.06943" lon="0.57515">
        <ele>139.39999389648</ele>
        <time>2020-09-22T08:25:57.000Z</time>
      </trkpt>
      <trkpt lat="45.06943" lon="0.5752">
        <ele>139</ele>
        <time>2020-09-22T08:25:58.000Z</time>
      </trkpt>
      <trkpt lat="45.06943" lon="0.57524">
        <ele>138.60000610352</ele>
        <time>2020-09-22T08:25:59.000Z</time>
      </trkpt>
      <trkpt lat="45.06942" lon="0.57528">
        <ele>138</ele>
        <time>2020-09-22T08:26:00.000Z</time>
      </trkpt>
      <trkpt lat="45.06941" lon="0.57532">
        <ele>137.60000610352</ele>
        <time>2020-09-22T08:26:01.000Z</time>
      </trkpt>
      <trkpt lat="45.0694" lon="0.57536">
        <ele>137</ele>
        <time>2020-09-22T08:26:02.000Z</time>
      </trkpt>
      <trkpt lat="45.06939" lon="0.57541">
        <ele>136.60000610352</ele>
        <time>2020-09-22T08:26:03.000Z</time>
      </trkpt>
      <trkpt lat="45.06936" lon="0.57547">
        <ele>135.80000305176</ele>
        <time>2020-09-22T08:26:04.000Z</time>
      </trkpt>
      <trkpt lat="45.06933" lon="0.57553">
        <ele>135.39999389648</ele>
        <time>2020-09-22T08:26:05.000Z</time>
      </trkpt>
      <trkpt lat="45.06932" lon="0.57558">
        <ele>135.19999694824</ele>
        <time>2020-09-22T08:26:06.000Z</time>
      </trkpt>
      <trkpt lat="45.06927" lon="0.57564">
        <ele>134.80000305176</ele>
        <time>2020-09-22T08:26:07.000Z</time>
      </trkpt>
      <trkpt lat="45.06924" lon="0.57569">
        <ele>134.39999389648</ele>
        <time>2020-09-22T08:26:08.000Z</time>
      </trkpt>
      <trkpt lat="45.06921" lon="0.57573">
        <ele>134.19999694824</ele>
        <time>2020-09-22T08:26:09.000Z</time>
      </trkpt>
      <trkpt lat="45.06917" lon="0.57577">
        <ele>133.80000305176</ele>
        <time>2020-09-22T08:26:10.000Z</time>
      </trkpt>
      <trkpt lat="45.06914" lon="0.57581">
        <ele>133.60000610352</ele>
        <time>2020-09-22T08:26:11.000Z</time>
      </trkpt>
      <trkpt lat="45.0691" lon="0.57584">
        <ele>133.19999694824</ele>
        <time>2020-09-22T08:26:12.000Z</time>
      </trkpt>
      <trkpt lat="45.06907" lon="0.57587">
        <ele>132.80000305176</ele>
        <time>2020-09-22T08:26:13.000Z</time>
      </trkpt>
      <trkpt lat="45.06903" lon="0.57589">
        <ele>132.39999389648</ele>
        <time>2020-09-22T08:26:14.000Z</time>
      </trkpt>
      <trkpt lat="45.069" lon="0.57591">
        <ele>132</ele>
        <time>2020-09-22T08:26:15.000Z</time>
      </trkpt>
      <trkpt lat="45.06897" lon="0.57592">
        <ele>131.60000610352</ele>
        <time>2020-09-22T08:26:16.000Z</time>
      </trkpt>
      <trkpt lat="45.06894" lon="0.57594">
        <ele>131</ele>
        <time>2020-09-22T08:26:17.000Z</time>
      </trkpt>
      <trkpt lat="45.06889" lon="0.57597">
        <ele>130.60000610352</ele>
        <time>2020-09-22T08:26:18.000Z</time>
      </trkpt>
      <trkpt lat="45.06885" lon="0.57599">
        <ele>130</ele>
        <time>2020-09-22T08:26:19.000Z</time>
      </trkpt>
      <trkpt lat="45.06881" lon="0.57601">
        <ele>129.60000610352</ele>
        <time>2020-09-22T08:26:20.000Z</time>
      </trkpt>
      <trkpt lat="45.06878" lon="0.57602">
        <ele>129</ele>
        <time>2020-09-22T08:26:21.000Z</time>
      </trkpt>
      <trkpt lat="45.06874" lon="0.57604">
        <ele>129</ele>
        <time>2020-09-22T08:26:22.000Z</time>
      </trkpt>
      <trkpt lat="45.06871" lon="0.57606">
        <ele>129</ele>
        <time>2020-09-22T08:26:23.000Z</time>
      </trkpt>
      <trkpt lat="45.06868" lon="0.57608">
        <ele>129</ele>
        <time>2020-09-22T08:26:24.000Z</time>
      </trkpt>
      <trkpt lat="45.06867" lon="0.57611">
        <ele>128.80000305176</ele>
        <time>2020-09-22T08:26:25.000Z</time>
      </trkpt>
      <trkpt lat="45.06866" lon="0.57617">
        <ele>128.60000610352</ele>
        <time>2020-09-22T08:26:26.000Z</time>
      </trkpt>
      <trkpt lat="45.06866" lon="0.57623">
        <ele>128.19999694824</ele>
        <time>2020-09-22T08:26:27.000Z</time>
      </trkpt>
      <trkpt lat="45.06866" lon="0.57629">
        <ele>128.19999694824</ele>
        <time>2020-09-22T08:26:28.000Z</time>
      </trkpt>
      <trkpt lat="45.06866" lon="0.57636">
        <ele>128.19999694824</ele>
        <time>2020-09-22T08:26:29.000Z</time>
      </trkpt>
      <trkpt lat="45.06867" lon="0.57642">
        <ele>127.80000305176</ele>
        <time>2020-09-22T08:26:30.000Z</time>
      </trkpt>
      <trkpt lat="45.06869" lon="0.57647">
        <ele>127.19999694824</ele>
        <time>2020-09-22T08:26:31.000Z</time>
      </trkpt>
      <trkpt lat="45.06871" lon="0.57651">
        <ele>126.80000305176</ele>
        <time>2020-09-22T08:26:32.000Z</time>
      </trkpt>
      <trkpt lat="45.06873" lon="0.57655">
        <ele>126.40000152588</ele>
        <time>2020-09-22T08:26:33.000Z</time>
      </trkpt>
      <trkpt lat="45.06874" lon="0.57658">
        <ele>126</ele>
        <time>2020-09-22T08:26:34.000Z</time>
      </trkpt>
      <trkpt lat="45.06877" lon="0.57661">
        <ele>125.80000305176</ele>
        <time>2020-09-22T08:26:35.000Z</time>
      </trkpt>
      <trkpt lat="45.06879" lon="0.57665">
        <ele>126</ele>
        <time>2020-09-22T08:26:36.000Z</time>
      </trkpt>
      <trkpt lat="45.06881" lon="0.57668">
        <ele>126.19999694824</ele>
        <time>2020-09-22T08:26:37.000Z</time>
      </trkpt>
      <trkpt lat="45.06882" lon="0.57671">
        <ele>126.40000152588</ele>
        <time>2020-09-22T08:26:38.000Z</time>
      </trkpt>
      <trkpt lat="45.06881" lon="0.57675">
        <ele>126</ele>
        <time>2020-09-22T08:26:39.000Z</time>
      </trkpt>
      <trkpt lat="45.06882" lon="0.57678">
        <ele>125.80000305176</ele>
        <time>2020-09-22T08:26:40.000Z</time>
      </trkpt>
      <trkpt lat="45.06883" lon="0.57682">
        <ele>126</ele>
        <time>2020-09-22T08:26:41.000Z</time>
      </trkpt>
      <trkpt lat="45.06885" lon="0.57689">
        <ele>126</ele>
        <time>2020-09-22T08:26:42.000Z</time>
      </trkpt>
      <trkpt lat="45.06886" lon="0.57692">
        <ele>126</ele>
        <time>2020-09-22T08:26:43.000Z</time>
      </trkpt>
      <trkpt lat="45.06886" lon="0.57692">
        <ele>126</ele>
        <time>2020-09-22T08:26:44.000Z</time>
      </trkpt>
      <trkpt lat="45.06888" lon="0.57696">
        <ele>126.19999694824</ele>
        <time>2020-09-22T08:26:45.000Z</time>
      </trkpt>
      <trkpt lat="45.06891" lon="0.57701">
        <ele>126.40000152588</ele>
        <time>2020-09-22T08:26:46.000Z</time>
      </trkpt>
      <trkpt lat="45.06893" lon="0.57705">
        <ele>126.59999847412</ele>
        <time>2020-09-22T08:26:47.000Z</time>
      </trkpt>
      <trkpt lat="45.06894" lon="0.5771">
        <ele>126.59999847412</ele>
        <time>2020-09-22T08:26:48.000Z</time>
      </trkpt>
      <trkpt lat="45.06893" lon="0.57715">
        <ele>126.19999694824</ele>
        <time>2020-09-22T08:26:49.000Z</time>
      </trkpt>
      <trkpt lat="45.06893" lon="0.57718">
        <ele>126</ele>
        <time>2020-09-22T08:26:50.000Z</time>
      </trkpt>
      <trkpt lat="45.06892" lon="0.57723">
        <ele>125.80000305176</ele>
        <time>2020-09-22T08:26:51.000Z</time>
      </trkpt>
      <trkpt lat="45.06891" lon="0.57726">
        <ele>125.40000152588</ele>
        <time>2020-09-22T08:26:52.000Z</time>
      </trkpt>
      <trkpt lat="45.06888" lon="0.57731">
        <ele>124.80000305176</ele>
        <time>2020-09-22T08:26:53.000Z</time>
      </trkpt>
      <trkpt lat="45.06885" lon="0.57735">
        <ele>124.19999694824</ele>
        <time>2020-09-22T08:26:54.000Z</time>
      </trkpt>
      <trkpt lat="45.06882" lon="0.57738">
        <ele>123.59999847412</ele>
        <time>2020-09-22T08:26:55.000Z</time>
      </trkpt>
      <trkpt lat="45.06879" lon="0.57742">
        <ele>122.80000305176</ele>
        <time>2020-09-22T08:26:56.000Z</time>
      </trkpt>
      <trkpt lat="45.06875" lon="0.57746">
        <ele>122.40000152588</ele>
        <time>2020-09-22T08:26:57.000Z</time>
      </trkpt>
      <trkpt lat="45.06872" lon="0.5775">
        <ele>122.59999847412</ele>
        <time>2020-09-22T08:26:58.000Z</time>
      </trkpt>
      <trkpt lat="45.06869" lon="0.57754">
        <ele>122.80000305176</ele>
        <time>2020-09-22T08:26:59.000Z</time>
      </trkpt>
      <trkpt lat="45.06867" lon="0.57758">
        <ele>123</ele>
        <time>2020-09-22T08:27:00.000Z</time>
      </trkpt>
      <trkpt lat="45.06865" lon="0.57762">
        <ele>123</ele>
        <time>2020-09-22T08:27:01.000Z</time>
      </trkpt>
      <trkpt lat="45.06863" lon="0.57767">
        <ele>123.19999694824</ele>
        <time>2020-09-22T08:27:02.000Z</time>
      </trkpt>
      <trkpt lat="45.06861" lon="0.57771">
        <ele>123.19999694824</ele>
        <time>2020-09-22T08:27:03.000Z</time>
      </trkpt>
      <trkpt lat="45.06859" lon="0.57776">
        <ele>123.19999694824</ele>
        <time>2020-09-22T08:27:04.000Z</time>
      </trkpt>
      <trkpt lat="45.06858" lon="0.5778">
        <ele>123.40000152588</ele>
        <time>2020-09-22T08:27:05.000Z</time>
      </trkpt>
      <trkpt lat="45.06857" lon="0.57785">
        <ele>123.19999694824</ele>
        <time>2020-09-22T08:27:06.000Z</time>
      </trkpt>
      <trkpt lat="45.06856" lon="0.57789">
        <ele>123.19999694824</ele>
        <time>2020-09-22T08:27:07.000Z</time>
      </trkpt>
      <trkpt lat="45.06855" lon="0.57793">
        <ele>123.19999694824</ele>
        <time>2020-09-22T08:27:08.000Z</time>
      </trkpt>
      <trkpt lat="45.06854" lon="0.57798">
        <ele>123.19999694824</ele>
        <time>2020-09-22T08:27:09.000Z</time>
      </trkpt>
      <trkpt lat="45.06853" lon="0.57803">
        <ele>123.19999694824</ele>
        <time>2020-09-22T08:27:10.000Z</time>
      </trkpt>
      <trkpt lat="45.06852" lon="0.57807">
        <ele>123.19999694824</ele>
        <time>2020-09-22T08:27:11.000Z</time>
      </trkpt>
      <trkpt lat="45.06851" lon="0.57811">
        <ele>123.19999694824</ele>
        <time>2020-09-22T08:27:12.000Z</time>
      </trkpt>
      <trkpt lat="45.06851" lon="0.57816">
        <ele>123.19999694824</ele>
        <time>2020-09-22T08:27:13.000Z</time>
      </trkpt>
      <trkpt lat="45.0685" lon="0.5782">
        <ele>123.19999694824</ele>
        <time>2020-09-22T08:27:14.000Z</time>
      </trkpt>
      <trkpt lat="45.0685" lon="0.57824">
        <ele>123.19999694824</ele>
        <time>2020-09-22T08:27:15.000Z</time>
      </trkpt>
      <trkpt lat="45.0685" lon="0.57828">
        <ele>123.19999694824</ele>
        <time>2020-09-22T08:27:16.000Z</time>
      </trkpt>
      <trkpt lat="45.0685" lon="0.57833">
        <ele>123.19999694824</ele>
        <time>2020-09-22T08:27:17.000Z</time>
      </trkpt>
      <trkpt lat="45.06849" lon="0.57836">
        <ele>123.19999694824</ele>
        <time>2020-09-22T08:27:18.000Z</time>
      </trkpt>
      <trkpt lat="45.06849" lon="0.5784">
        <ele>123.19999694824</ele>
        <time>2020-09-22T08:27:19.000Z</time>
      </trkpt>
      <trkpt lat="45.06849" lon="0.57844">
        <ele>123</ele>
        <time>2020-09-22T08:27:20.000Z</time>
      </trkpt>
      <trkpt lat="45.06849" lon="0.57849">
        <ele>123</ele>
        <time>2020-09-22T08:27:21.000Z</time>
      </trkpt>
      <trkpt lat="45.06848" lon="0.57853">
        <ele>123</ele>
        <time>2020-09-22T08:27:22.000Z</time>
      </trkpt>
      <trkpt lat="45.06848" lon="0.57857">
        <ele>123</ele>
        <time>2020-09-22T08:27:23.000Z</time>
      </trkpt>
      <trkpt lat="45.06848" lon="0.5786">
        <ele>123.19999694824</ele>
        <time>2020-09-22T08:27:24.000Z</time>
      </trkpt>
      <trkpt lat="45.06848" lon="0.57864">
        <ele>123.19999694824</ele>
        <time>2020-09-22T08:27:25.000Z</time>
      </trkpt>
      <trkpt lat="45.06848" lon="0.57868">
        <ele>123.19999694824</ele>
        <time>2020-09-22T08:27:26.000Z</time>
      </trkpt>
      <trkpt lat="45.06848" lon="0.57871">
        <ele>123.19999694824</ele>
        <time>2020-09-22T08:27:27.000Z</time>
      </trkpt>
      <trkpt lat="45.06848" lon="0.57875">
        <ele>123.19999694824</ele>
        <time>2020-09-22T08:27:28.000Z</time>
      </trkpt>
      <trkpt lat="45.06848" lon="0.57878">
        <ele>123.40000152588</ele>
        <time>2020-09-22T08:27:29.000Z</time>
      </trkpt>
      <trkpt lat="45.06848" lon="0.57882">
        <ele>123.40000152588</ele>
        <time>2020-09-22T08:27:30.000Z</time>
      </trkpt>
      <trkpt lat="45.06848" lon="0.57886">
        <ele>123.40000152588</ele>
        <time>2020-09-22T08:27:31.000Z</time>
      </trkpt>
      <trkpt lat="45.06848" lon="0.5789">
        <ele>123.19999694824</ele>
        <time>2020-09-22T08:27:32.000Z</time>
      </trkpt>
      <trkpt lat="45.06848" lon="0.57894">
        <ele>123.19999694824</ele>
        <time>2020-09-22T08:27:33.000Z</time>
      </trkpt>
      <trkpt lat="45.06847" lon="0.57898">
        <ele>123.19999694824</ele>
        <time>2020-09-22T08:27:34.000Z</time>
      </trkpt>
      <trkpt lat="45.06846" lon="0.57901">
        <ele>123.19999694824</ele>
        <time>2020-09-22T08:27:35.000Z</time>
      </trkpt>
      <trkpt lat="45.06845" lon="0.57905">
        <ele>123.19999694824</ele>
        <time>2020-09-22T08:27:36.000Z</time>
      </trkpt>
      <trkpt lat="45.06844" lon="0.57908">
        <ele>123.40000152588</ele>
        <time>2020-09-22T08:27:37.000Z</time>
      </trkpt>
      <trkpt lat="45.06843" lon="0.57911">
        <ele>123.40000152588</ele>
        <time>2020-09-22T08:27:38.000Z</time>
      </trkpt>
      <trkpt lat="45.06843" lon="0.57914">
        <ele>123.40000152588</ele>
        <time>2020-09-22T08:27:39.000Z</time>
      </trkpt>
      <trkpt lat="45.06842" lon="0.57917">
        <ele>123.40000152588</ele>
        <time>2020-09-22T08:27:40.000Z</time>
      </trkpt>
      <trkpt lat="45.06841" lon="0.5792">
        <ele>123.40000152588</ele>
        <time>2020-09-22T08:27:41.000Z</time>
      </trkpt>
      <trkpt lat="45.06841" lon="0.57924">
        <ele>123.40000152588</ele>
        <time>2020-09-22T08:27:42.000Z</time>
      </trkpt>
      <trkpt lat="45.0684" lon="0.57927">
        <ele>123.40000152588</ele>
        <time>2020-09-22T08:27:43.000Z</time>
      </trkpt>
      <trkpt lat="45.06838" lon="0.57931">
        <ele>123.40000152588</ele>
        <time>2020-09-22T08:27:44.000Z</time>
      </trkpt>
      <trkpt lat="45.06838" lon="0.57939">
        <ele>123.19999694824</ele>
        <time>2020-09-22T08:27:45.000Z</time>
      </trkpt>
      <trkpt lat="45.06839" lon="0.57943">
        <ele>123.19999694824</ele>
        <time>2020-09-22T08:27:46.000Z</time>
      </trkpt>
      <trkpt lat="45.06839" lon="0.57943">
        <ele>123.19999694824</ele>
        <time>2020-09-22T08:27:47.000Z</time>
      </trkpt>
      <trkpt lat="45.06839" lon="0.57947">
        <ele>123</ele>
        <time>2020-09-22T08:27:48.000Z</time>
      </trkpt>
      <trkpt lat="45.0684" lon="0.57951">
        <ele>122.59999847412</ele>
        <time>2020-09-22T08:27:49.000Z</time>
      </trkpt>
      <trkpt lat="45.06842" lon="0.57956">
        <ele>122.40000152588</ele>
        <time>2020-09-22T08:27:50.000Z</time>
      </trkpt>
      <trkpt lat="45.06843" lon="0.57961">
        <ele>122.19999694824</ele>
        <time>2020-09-22T08:27:51.000Z</time>
      </trkpt>
      <trkpt lat="45.06843" lon="0.57966">
        <ele>122</ele>
        <time>2020-09-22T08:27:52.000Z</time>
      </trkpt>
      <trkpt lat="45.06844" lon="0.5797">
        <ele>121.80000305176</ele>
        <time>2020-09-22T08:27:53.000Z</time>
      </trkpt>
      <trkpt lat="45.06844" lon="0.57975">
        <ele>121.59999847412</ele>
        <time>2020-09-22T08:27:54.000Z</time>
      </trkpt>
      <trkpt lat="45.06845" lon="0.57979">
        <ele>121.40000152588</ele>
        <time>2020-09-22T08:27:55.000Z</time>
      </trkpt>
      <trkpt lat="45.06846" lon="0.57984">
        <ele>121</ele>
        <time>2020-09-22T08:27:56.000Z</time>
      </trkpt>
      <trkpt lat="45.06847" lon="0.57988">
        <ele>120.80000305176</ele>
        <time>2020-09-22T08:27:57.000Z</time>
      </trkpt>
      <trkpt lat="45.06848" lon="0.57995">
        <ele>120.40000152588</ele>
        <time>2020-09-22T08:27:58.000Z</time>
      </trkpt>
      <trkpt lat="45.06849" lon="0.58">
        <ele>120.19999694824</ele>
        <time>2020-09-22T08:27:59.000Z</time>
      </trkpt>
      <trkpt lat="45.06849" lon="0.58004">
        <ele>120</ele>
        <time>2020-09-22T08:28:00.000Z</time>
      </trkpt>
      <trkpt lat="45.06849" lon="0.58009">
        <ele>119.80000305176</ele>
        <time>2020-09-22T08:28:01.000Z</time>
      </trkpt>
      <trkpt lat="45.0685" lon="0.58013">
        <ele>119.59999847412</ele>
        <time>2020-09-22T08:28:02.000Z</time>
      </trkpt>
      <trkpt lat="45.06851" lon="0.58018">
        <ele>119.19999694824</ele>
        <time>2020-09-22T08:28:03.000Z</time>
      </trkpt>
      <trkpt lat="45.06851" lon="0.58022">
        <ele>119</ele>
        <time>2020-09-22T08:28:04.000Z</time>
      </trkpt>
      <trkpt lat="45.06852" lon="0.58026">
        <ele>118.80000305176</ele>
        <time>2020-09-22T08:28:05.000Z</time>
      </trkpt>
      <trkpt lat="45.06852" lon="0.5803">
        <ele>118.80000305176</ele>
        <time>2020-09-22T08:28:06.000Z</time>
      </trkpt>
      <trkpt lat="45.06853" lon="0.58035">
        <ele>118.59999847412</ele>
        <time>2020-09-22T08:28:07.000Z</time>
      </trkpt>
      <trkpt lat="45.06854" lon="0.58039">
        <ele>118.40000152588</ele>
        <time>2020-09-22T08:28:08.000Z</time>
      </trkpt>
      <trkpt lat="45.06854" lon="0.58043">
        <ele>118.19999694824</ele>
        <time>2020-09-22T08:28:09.000Z</time>
      </trkpt>
      <trkpt lat="45.06856" lon="0.58047">
        <ele>118</ele>
        <time>2020-09-22T08:28:10.000Z</time>
      </trkpt>
      <trkpt lat="45.06857" lon="0.58051">
        <ele>117.80000305176</ele>
        <time>2020-09-22T08:28:11.000Z</time>
      </trkpt>
      <trkpt lat="45.06858" lon="0.58054">
        <ele>117.59999847412</ele>
        <time>2020-09-22T08:28:12.000Z</time>
      </trkpt>
      <trkpt lat="45.06859" lon="0.58059">
        <ele>117.40000152588</ele>
        <time>2020-09-22T08:28:13.000Z</time>
      </trkpt>
      <trkpt lat="45.06861" lon="0.58063">
        <ele>117.19999694824</ele>
        <time>2020-09-22T08:28:14.000Z</time>
      </trkpt>
      <trkpt lat="45.06862" lon="0.58068">
        <ele>117</ele>
        <time>2020-09-22T08:28:15.000Z</time>
      </trkpt>
      <trkpt lat="45.06863" lon="0.58072">
        <ele>116.80000305176</ele>
        <time>2020-09-22T08:28:16.000Z</time>
      </trkpt>
      <trkpt lat="45.06865" lon="0.58077">
        <ele>116.59999847412</ele>
        <time>2020-09-22T08:28:17.000Z</time>
      </trkpt>
      <trkpt lat="45.06866" lon="0.58082">
        <ele>116.40000152588</ele>
        <time>2020-09-22T08:28:18.000Z</time>
      </trkpt>
      <trkpt lat="45.06868" lon="0.58086">
        <ele>116.19999694824</ele>
        <time>2020-09-22T08:28:19.000Z</time>
      </trkpt>
      <trkpt lat="45.0687" lon="0.58091">
        <ele>115.80000305176</ele>
        <time>2020-09-22T08:28:20.000Z</time>
      </trkpt>
      <trkpt lat="45.06872" lon="0.58095">
        <ele>115.59999847412</ele>
        <time>2020-09-22T08:28:21.000Z</time>
      </trkpt>
      <trkpt lat="45.06873" lon="0.581">
        <ele>115.40000152588</ele>
        <time>2020-09-22T08:28:22.000Z</time>
      </trkpt>
      <trkpt lat="45.06875" lon="0.58104">
        <ele>115.19999694824</ele>
        <time>2020-09-22T08:28:23.000Z</time>
      </trkpt>
      <trkpt lat="45.06876" lon="0.58108">
        <ele>115</ele>
        <time>2020-09-22T08:28:24.000Z</time>
      </trkpt>
      <trkpt lat="45.06877" lon="0.58113">
        <ele>115.19999694824</ele>
        <time>2020-09-22T08:28:25.000Z</time>
      </trkpt>
      <trkpt lat="45.06878" lon="0.58117">
        <ele>115.19999694824</ele>
        <time>2020-09-22T08:28:26.000Z</time>
      </trkpt>
      <trkpt lat="45.06879" lon="0.5812">
        <ele>115.40000152588</ele>
        <time>2020-09-22T08:28:27.000Z</time>
      </trkpt>
      <trkpt lat="45.0688" lon="0.58123">
        <ele>115.59999847412</ele>
        <time>2020-09-22T08:28:28.000Z</time>
      </trkpt>
      <trkpt lat="45.0688" lon="0.58127">
        <ele>115.59999847412</ele>
        <time>2020-09-22T08:28:29.000Z</time>
      </trkpt>
      <trkpt lat="45.06881" lon="0.58131">
        <ele>115.59999847412</ele>
        <time>2020-09-22T08:28:30.000Z</time>
      </trkpt>
      <trkpt lat="45.0688" lon="0.58134">
        <ele>115.59999847412</ele>
        <time>2020-09-22T08:28:31.000Z</time>
      </trkpt>
      <trkpt lat="45.06881" lon="0.58138">
        <ele>115.59999847412</ele>
        <time>2020-09-22T08:28:32.000Z</time>
      </trkpt>
      <trkpt lat="45.06881" lon="0.58142">
        <ele>115.40000152588</ele>
        <time>2020-09-22T08:28:33.000Z</time>
      </trkpt>
      <trkpt lat="45.06881" lon="0.58147">
        <ele>115.40000152588</ele>
        <time>2020-09-22T08:28:34.000Z</time>
      </trkpt>
      <trkpt lat="45.06882" lon="0.58151">
        <ele>115.40000152588</ele>
        <time>2020-09-22T08:28:35.000Z</time>
      </trkpt>
      <trkpt lat="45.06883" lon="0.58155">
        <ele>115.40000152588</ele>
        <time>2020-09-22T08:28:36.000Z</time>
      </trkpt>
      <trkpt lat="45.06883" lon="0.5816">
        <ele>115.40000152588</ele>
        <time>2020-09-22T08:28:37.000Z</time>
      </trkpt>
      <trkpt lat="45.06883" lon="0.58165">
        <ele>115.19999694824</ele>
        <time>2020-09-22T08:28:38.000Z</time>
      </trkpt>
      <trkpt lat="45.06883" lon="0.58169">
        <ele>115.19999694824</ele>
        <time>2020-09-22T08:28:39.000Z</time>
      </trkpt>
      <trkpt lat="45.06884" lon="0.58174">
        <ele>115.19999694824</ele>
        <time>2020-09-22T08:28:40.000Z</time>
      </trkpt>
      <trkpt lat="45.06884" lon="0.58178">
        <ele>115</ele>
        <time>2020-09-22T08:28:41.000Z</time>
      </trkpt>
      <trkpt lat="45.06884" lon="0.58182">
        <ele>115</ele>
        <time>2020-09-22T08:28:42.000Z</time>
      </trkpt>
      <trkpt lat="45.06886" lon="0.58185">
        <ele>115.19999694824</ele>
        <time>2020-09-22T08:28:43.000Z</time>
      </trkpt>
      <trkpt lat="45.06887" lon="0.58189">
        <ele>115.19999694824</ele>
        <time>2020-09-22T08:28:44.000Z</time>
      </trkpt>
      <trkpt lat="45.06888" lon="0.58192">
        <ele>115.19999694824</ele>
        <time>2020-09-22T08:28:45.000Z</time>
      </trkpt>
      <trkpt lat="45.06888" lon="0.58196">
        <ele>115.19999694824</ele>
        <time>2020-09-22T08:28:46.000Z</time>
      </trkpt>
      <trkpt lat="45.06889" lon="0.58204">
        <ele>115.19999694824</ele>
        <time>2020-09-22T08:28:47.000Z</time>
      </trkpt>
      <trkpt lat="45.06889" lon="0.58204">
        <ele>115.19999694824</ele>
        <time>2020-09-22T08:28:48.000Z</time>
      </trkpt>
      <trkpt lat="45.06891" lon="0.58209">
        <ele>115.40000152588</ele>
        <time>2020-09-22T08:28:49.000Z</time>
      </trkpt>
      <trkpt lat="45.06893" lon="0.58214">
        <ele>115.59999847412</ele>
        <time>2020-09-22T08:28:50.000Z</time>
      </trkpt>
      <trkpt lat="45.06896" lon="0.58219">
        <ele>115.80000305176</ele>
        <time>2020-09-22T08:28:51.000Z</time>
      </trkpt>
      <trkpt lat="45.06898" lon="0.58224">
        <ele>115.59999847412</ele>
        <time>2020-09-22T08:28:52.000Z</time>
      </trkpt>
      <trkpt lat="45.069" lon="0.58229">
        <ele>115.40000152588</ele>
        <time>2020-09-22T08:28:53.000Z</time>
      </trkpt>
      <trkpt lat="45.06902" lon="0.58234">
        <ele>115.19999694824</ele>
        <time>2020-09-22T08:28:54.000Z</time>
      </trkpt>
      <trkpt lat="45.06904" lon="0.58239">
        <ele>115</ele>
        <time>2020-09-22T08:28:55.000Z</time>
      </trkpt>
      <trkpt lat="45.06906" lon="0.58244">
        <ele>114.80000305176</ele>
        <time>2020-09-22T08:28:56.000Z</time>
      </trkpt>
      <trkpt lat="45.06903" lon="0.58251">
        <ele>114.19999694824</ele>
        <time>2020-09-22T08:28:57.000Z</time>
      </trkpt>
      <trkpt lat="45.06903" lon="0.58257">
        <ele>114</ele>
        <time>2020-09-22T08:28:58.000Z</time>
      </trkpt>
      <trkpt lat="45.06903" lon="0.58263">
        <ele>113.80000305176</ele>
        <time>2020-09-22T08:28:59.000Z</time>
      </trkpt>
      <trkpt lat="45.06901" lon="0.58269">
        <ele>113.59999847412</ele>
        <time>2020-09-22T08:29:00.000Z</time>
      </trkpt>
      <trkpt lat="45.06901" lon="0.58275">
        <ele>113.40000152588</ele>
        <time>2020-09-22T08:29:01.000Z</time>
      </trkpt>
      <trkpt lat="45.06901" lon="0.5828">
        <ele>113.19999694824</ele>
        <time>2020-09-22T08:29:02.000Z</time>
      </trkpt>
      <trkpt lat="45.06902" lon="0.58285">
        <ele>113.19999694824</ele>
        <time>2020-09-22T08:29:03.000Z</time>
      </trkpt>
      <trkpt lat="45.06902" lon="0.58291">
        <ele>113.19999694824</ele>
        <time>2020-09-22T08:29:04.000Z</time>
      </trkpt>
      <trkpt lat="45.06902" lon="0.58296">
        <ele>113</ele>
        <time>2020-09-22T08:29:05.000Z</time>
      </trkpt>
      <trkpt lat="45.06902" lon="0.58301">
        <ele>112.80000305176</ele>
        <time>2020-09-22T08:29:06.000Z</time>
      </trkpt>
      <trkpt lat="45.06902" lon="0.58306">
        <ele>112.40000152588</ele>
        <time>2020-09-22T08:29:07.000Z</time>
      </trkpt>
      <trkpt lat="45.06903" lon="0.58311">
        <ele>111.80000305176</ele>
        <time>2020-09-22T08:29:08.000Z</time>
      </trkpt>
      <trkpt lat="45.06903" lon="0.58316">
        <ele>111.40000152588</ele>
        <time>2020-09-22T08:29:09.000Z</time>
      </trkpt>
      <trkpt lat="45.06903" lon="0.58322">
        <ele>110.80000305176</ele>
        <time>2020-09-22T08:29:10.000Z</time>
      </trkpt>
      <trkpt lat="45.06902" lon="0.58327">
        <ele>110.19999694824</ele>
        <time>2020-09-22T08:29:11.000Z</time>
      </trkpt>
      <trkpt lat="45.06901" lon="0.58333">
        <ele>110</ele>
        <time>2020-09-22T08:29:12.000Z</time>
      </trkpt>
      <trkpt lat="45.069" lon="0.58338">
        <ele>109.80000305176</ele>
        <time>2020-09-22T08:29:13.000Z</time>
      </trkpt>
      <trkpt lat="45.069" lon="0.58342">
        <ele>109.80000305176</ele>
        <time>2020-09-22T08:29:14.000Z</time>
      </trkpt>
      <trkpt lat="45.069" lon="0.58348">
        <ele>109.59999847412</ele>
        <time>2020-09-22T08:29:15.000Z</time>
      </trkpt>
      <trkpt lat="45.06899" lon="0.58352">
        <ele>109.59999847412</ele>
        <time>2020-09-22T08:29:16.000Z</time>
      </trkpt>
      <trkpt lat="45.06899" lon="0.58357">
        <ele>109.40000152588</ele>
        <time>2020-09-22T08:29:17.000Z</time>
      </trkpt>
      <trkpt lat="45.06899" lon="0.58362">
        <ele>109.19999694824</ele>
        <time>2020-09-22T08:29:18.000Z</time>
      </trkpt>
      <trkpt lat="45.06899" lon="0.58367">
        <ele>109.19999694824</ele>
        <time>2020-09-22T08:29:19.000Z</time>
      </trkpt>
      <trkpt lat="45.06899" lon="0.58371">
        <ele>109</ele>
        <time>2020-09-22T08:29:20.000Z</time>
      </trkpt>
      <trkpt lat="45.06899" lon="0.58376">
        <ele>109</ele>
        <time>2020-09-22T08:29:21.000Z</time>
      </trkpt>
      <trkpt lat="45.069" lon="0.5838">
        <ele>108.80000305176</ele>
        <time>2020-09-22T08:29:22.000Z</time>
      </trkpt>
      <trkpt lat="45.069" lon="0.58384">
        <ele>108.80000305176</ele>
        <time>2020-09-22T08:29:23.000Z</time>
      </trkpt>
      <trkpt lat="45.069" lon="0.58388">
        <ele>108.59999847412</ele>
        <time>2020-09-22T08:29:24.000Z</time>
      </trkpt>
      <trkpt lat="45.06901" lon="0.58393">
        <ele>108.59999847412</ele>
        <time>2020-09-22T08:29:25.000Z</time>
      </trkpt>
      <trkpt lat="45.06901" lon="0.58399">
        <ele>108.40000152588</ele>
        <time>2020-09-22T08:29:26.000Z</time>
      </trkpt>
      <trkpt lat="45.06901" lon="0.58404">
        <ele>108.19999694824</ele>
        <time>2020-09-22T08:29:27.000Z</time>
      </trkpt>
      <trkpt lat="45.06901" lon="0.58409">
        <ele>108.19999694824</ele>
        <time>2020-09-22T08:29:28.000Z</time>
      </trkpt>
      <trkpt lat="45.06901" lon="0.58414">
        <ele>108.19999694824</ele>
        <time>2020-09-22T08:29:29.000Z</time>
      </trkpt>
      <trkpt lat="45.06901" lon="0.58418">
        <ele>108.19999694824</ele>
        <time>2020-09-22T08:29:30.000Z</time>
      </trkpt>
      <trkpt lat="45.06901" lon="0.58423">
        <ele>108.19999694824</ele>
        <time>2020-09-22T08:29:31.000Z</time>
      </trkpt>
      <trkpt lat="45.06901" lon="0.58427">
        <ele>108.19999694824</ele>
        <time>2020-09-22T08:29:32.000Z</time>
      </trkpt>
      <trkpt lat="45.06901" lon="0.58431">
        <ele>108</ele>
        <time>2020-09-22T08:29:33.000Z</time>
      </trkpt>
      <trkpt lat="45.06902" lon="0.58435">
        <ele>108</ele>
        <time>2020-09-22T08:29:34.000Z</time>
      </trkpt>
      <trkpt lat="45.06901" lon="0.5844">
        <ele>108.19999694824</ele>
        <time>2020-09-22T08:29:35.000Z</time>
      </trkpt>
      <trkpt lat="45.069" lon="0.58444">
        <ele>108.19999694824</ele>
        <time>2020-09-22T08:29:36.000Z</time>
      </trkpt>
      <trkpt lat="45.06899" lon="0.58448">
        <ele>108.19999694824</ele>
        <time>2020-09-22T08:29:37.000Z</time>
      </trkpt>
      <trkpt lat="45.06898" lon="0.58452">
        <ele>108.19999694824</ele>
        <time>2020-09-22T08:29:38.000Z</time>
      </trkpt>
      <trkpt lat="45.06898" lon="0.58456">
        <ele>108.19999694824</ele>
        <time>2020-09-22T08:29:39.000Z</time>
      </trkpt>
      <trkpt lat="45.06898" lon="0.5846">
        <ele>108.19999694824</ele>
        <time>2020-09-22T08:29:40.000Z</time>
      </trkpt>
      <trkpt lat="45.06897" lon="0.58464">
        <ele>108.19999694824</ele>
        <time>2020-09-22T08:29:41.000Z</time>
      </trkpt>
      <trkpt lat="45.06897" lon="0.58468">
        <ele>108.19999694824</ele>
        <time>2020-09-22T08:29:42.000Z</time>
      </trkpt>
      <trkpt lat="45.06897" lon="0.58472">
        <ele>108.19999694824</ele>
        <time>2020-09-22T08:29:43.000Z</time>
      </trkpt>
      <trkpt lat="45.06898" lon="0.58476">
        <ele>108.19999694824</ele>
        <time>2020-09-22T08:29:44.000Z</time>
      </trkpt>
      <trkpt lat="45.06897" lon="0.5848">
        <ele>108.19999694824</ele>
        <time>2020-09-22T08:29:45.000Z</time>
      </trkpt>
      <trkpt lat="45.06896" lon="0.58484">
        <ele>108.40000152588</ele>
        <time>2020-09-22T08:29:46.000Z</time>
      </trkpt>
      <trkpt lat="45.06895" lon="0.58488">
        <ele>108.40000152588</ele>
        <time>2020-09-22T08:29:47.000Z</time>
      </trkpt>
      <trkpt lat="45.06892" lon="0.58492">
        <ele>108.59999847412</ele>
        <time>2020-09-22T08:29:48.000Z</time>
      </trkpt>
      <trkpt lat="45.06888" lon="0.58496">
        <ele>109</ele>
        <time>2020-09-22T08:29:49.000Z</time>
      </trkpt>
      <trkpt lat="45.06884" lon="0.58501">
        <ele>109.40000152588</ele>
        <time>2020-09-22T08:29:50.000Z</time>
      </trkpt>
      <trkpt lat="45.06878" lon="0.58507">
        <ele>109.80000305176</ele>
        <time>2020-09-22T08:29:51.000Z</time>
      </trkpt>
      <trkpt lat="45.06876" lon="0.5851">
        <ele>110</ele>
        <time>2020-09-22T08:29:52.000Z</time>
      </trkpt>
      <trkpt lat="45.06876" lon="0.5851">
        <ele>110</ele>
        <time>2020-09-22T08:29:53.000Z</time>
      </trkpt>
      <trkpt lat="45.06875" lon="0.58514">
        <ele>110.19999694824</ele>
        <time>2020-09-22T08:29:54.000Z</time>
      </trkpt>
      <trkpt lat="45.06873" lon="0.58518">
        <ele>110.40000152588</ele>
        <time>2020-09-22T08:29:55.000Z</time>
      </trkpt>
      <trkpt lat="45.06872" lon="0.58522">
        <ele>110.59999847412</ele>
        <time>2020-09-22T08:29:56.000Z</time>
      </trkpt>
      <trkpt lat="45.0687" lon="0.58525">
        <ele>110.80000305176</ele>
        <time>2020-09-22T08:29:57.000Z</time>
      </trkpt>
      <trkpt lat="45.06868" lon="0.58528">
        <ele>111</ele>
        <time>2020-09-22T08:29:58.000Z</time>
      </trkpt>
      <trkpt lat="45.06867" lon="0.58531">
        <ele>111.19999694824</ele>
        <time>2020-09-22T08:29:59.000Z</time>
      </trkpt>
      <trkpt lat="45.06865" lon="0.58535">
        <ele>111.40000152588</ele>
        <time>2020-09-22T08:30:00.000Z</time>
      </trkpt>
      <trkpt lat="45.06863" lon="0.58538">
        <ele>111.59999847412</ele>
        <time>2020-09-22T08:30:01.000Z</time>
      </trkpt>
      <trkpt lat="45.06862" lon="0.58542">
        <ele>111.80000305176</ele>
        <time>2020-09-22T08:30:02.000Z</time>
      </trkpt>
      <trkpt lat="45.0686" lon="0.58544">
        <ele>111.80000305176</ele>
        <time>2020-09-22T08:30:03.000Z</time>
      </trkpt>
      <trkpt lat="45.06858" lon="0.58548">
        <ele>111.80000305176</ele>
        <time>2020-09-22T08:30:04.000Z</time>
      </trkpt>
      <trkpt lat="45.06857" lon="0.58551">
        <ele>112</ele>
        <time>2020-09-22T08:30:05.000Z</time>
      </trkpt>
      <trkpt lat="45.06855" lon="0.58554">
        <ele>112</ele>
        <time>2020-09-22T08:30:06.000Z</time>
      </trkpt>
      <trkpt lat="45.06853" lon="0.58558">
        <ele>112.19999694824</ele>
        <time>2020-09-22T08:30:07.000Z</time>
      </trkpt>
      <trkpt lat="45.06851" lon="0.58561">
        <ele>112.19999694824</ele>
        <time>2020-09-22T08:30:08.000Z</time>
      </trkpt>
      <trkpt lat="45.0685" lon="0.58566">
        <ele>112.19999694824</ele>
        <time>2020-09-22T08:30:09.000Z</time>
      </trkpt>
      <trkpt lat="45.06848" lon="0.5857">
        <ele>112.40000152588</ele>
        <time>2020-09-22T08:30:10.000Z</time>
      </trkpt>
      <trkpt lat="45.06846" lon="0.58574">
        <ele>112.40000152588</ele>
        <time>2020-09-22T08:30:11.000Z</time>
      </trkpt>
      <trkpt lat="45.06843" lon="0.58577">
        <ele>112.59999847412</ele>
        <time>2020-09-22T08:30:12.000Z</time>
      </trkpt>
      <trkpt lat="45.0684" lon="0.58579">
        <ele>112.80000305176</ele>
        <time>2020-09-22T08:30:13.000Z</time>
      </trkpt>
      <trkpt lat="45.06837" lon="0.58581">
        <ele>112.80000305176</ele>
        <time>2020-09-22T08:30:14.000Z</time>
      </trkpt>
      <trkpt lat="45.06835" lon="0.58584">
        <ele>113</ele>
        <time>2020-09-22T08:30:15.000Z</time>
      </trkpt>
      <trkpt lat="45.06832" lon="0.58587">
        <ele>113.19999694824</ele>
        <time>2020-09-22T08:30:16.000Z</time>
      </trkpt>
      <trkpt lat="45.06829" lon="0.58591">
        <ele>113.19999694824</ele>
        <time>2020-09-22T08:30:17.000Z</time>
      </trkpt>
      <trkpt lat="45.06826" lon="0.58594">
        <ele>113</ele>
        <time>2020-09-22T08:30:18.000Z</time>
      </trkpt>
      <trkpt lat="45.06824" lon="0.58597">
        <ele>112.80000305176</ele>
        <time>2020-09-22T08:30:19.000Z</time>
      </trkpt>
      <trkpt lat="45.06821" lon="0.586">
        <ele>112.59999847412</ele>
        <time>2020-09-22T08:30:20.000Z</time>
      </trkpt>
      <trkpt lat="45.06819" lon="0.58603">
        <ele>112.59999847412</ele>
        <time>2020-09-22T08:30:21.000Z</time>
      </trkpt>
      <trkpt lat="45.06816" lon="0.58606">
        <ele>112.40000152588</ele>
        <time>2020-09-22T08:30:22.000Z</time>
      </trkpt>
      <trkpt lat="45.06814" lon="0.58609">
        <ele>112.19999694824</ele>
        <time>2020-09-22T08:30:23.000Z</time>
      </trkpt>
      <trkpt lat="45.06812" lon="0.58612">
        <ele>112</ele>
        <time>2020-09-22T08:30:24.000Z</time>
      </trkpt>
      <trkpt lat="45.06809" lon="0.58616">
        <ele>112</ele>
        <time>2020-09-22T08:30:25.000Z</time>
      </trkpt>
      <trkpt lat="45.06807" lon="0.58619">
        <ele>111.80000305176</ele>
        <time>2020-09-22T08:30:26.000Z</time>
      </trkpt>
      <trkpt lat="45.06805" lon="0.58621">
        <ele>111.59999847412</ele>
        <time>2020-09-22T08:30:27.000Z</time>
      </trkpt>
      <trkpt lat="45.06802" lon="0.58624">
        <ele>111.59999847412</ele>
        <time>2020-09-22T08:30:28.000Z</time>
      </trkpt>
      <trkpt lat="45.068" lon="0.58627">
        <ele>111.40000152588</ele>
        <time>2020-09-22T08:30:29.000Z</time>
      </trkpt>
      <trkpt lat="45.06798" lon="0.5863">
        <ele>111.19999694824</ele>
        <time>2020-09-22T08:30:30.000Z</time>
      </trkpt>
      <trkpt lat="45.06795" lon="0.58633">
        <ele>111.19999694824</ele>
        <time>2020-09-22T08:30:31.000Z</time>
      </trkpt>
      <trkpt lat="45.06793" lon="0.58635">
        <ele>111</ele>
        <time>2020-09-22T08:30:32.000Z</time>
      </trkpt>
      <trkpt lat="45.0679" lon="0.58638">
        <ele>110.80000305176</ele>
        <time>2020-09-22T08:30:33.000Z</time>
      </trkpt>
      <trkpt lat="45.06788" lon="0.5864">
        <ele>110.80000305176</ele>
        <time>2020-09-22T08:30:34.000Z</time>
      </trkpt>
      <trkpt lat="45.06785" lon="0.58643">
        <ele>110.80000305176</ele>
        <time>2020-09-22T08:30:35.000Z</time>
      </trkpt>
      <trkpt lat="45.06782" lon="0.58645">
        <ele>110.59999847412</ele>
        <time>2020-09-22T08:30:36.000Z</time>
      </trkpt>
      <trkpt lat="45.06779" lon="0.58648">
        <ele>110.59999847412</ele>
        <time>2020-09-22T08:30:37.000Z</time>
      </trkpt>
      <trkpt lat="45.06777" lon="0.5865">
        <ele>110.40000152588</ele>
        <time>2020-09-22T08:30:38.000Z</time>
      </trkpt>
      <trkpt lat="45.06774" lon="0.58653">
        <ele>110.40000152588</ele>
        <time>2020-09-22T08:30:39.000Z</time>
      </trkpt>
      <trkpt lat="45.06771" lon="0.58656">
        <ele>110.19999694824</ele>
        <time>2020-09-22T08:30:40.000Z</time>
      </trkpt>
      <trkpt lat="45.06768" lon="0.58659">
        <ele>110.19999694824</ele>
        <time>2020-09-22T08:30:41.000Z</time>
      </trkpt>
      <trkpt lat="45.06766" lon="0.58662">
        <ele>110</ele>
        <time>2020-09-22T08:30:42.000Z</time>
      </trkpt>
      <trkpt lat="45.06763" lon="0.58665">
        <ele>110</ele>
        <time>2020-09-22T08:30:43.000Z</time>
      </trkpt>
      <trkpt lat="45.06761" lon="0.58667">
        <ele>109.80000305176</ele>
        <time>2020-09-22T08:30:44.000Z</time>
      </trkpt>
      <trkpt lat="45.06758" lon="0.5867">
        <ele>109.80000305176</ele>
        <time>2020-09-22T08:30:45.000Z</time>
      </trkpt>
      <trkpt lat="45.06756" lon="0.58673">
        <ele>109.59999847412</ele>
        <time>2020-09-22T08:30:46.000Z</time>
      </trkpt>
      <trkpt lat="45.06753" lon="0.58676">
        <ele>109.40000152588</ele>
        <time>2020-09-22T08:30:47.000Z</time>
      </trkpt>
      <trkpt lat="45.06751" lon="0.58679">
        <ele>109.40000152588</ele>
        <time>2020-09-22T08:30:48.000Z</time>
      </trkpt>
      <trkpt lat="45.06748" lon="0.58682">
        <ele>109.40000152588</ele>
        <time>2020-09-22T08:30:49.000Z</time>
      </trkpt>
      <trkpt lat="45.06746" lon="0.58685">
        <ele>109.40000152588</ele>
        <time>2020-09-22T08:30:50.000Z</time>
      </trkpt>
      <trkpt lat="45.06741" lon="0.58692">
        <ele>109.19999694824</ele>
        <time>2020-09-22T08:30:51.000Z</time>
      </trkpt>
      <trkpt lat="45.06741" lon="0.58692">
        <ele>109.19999694824</ele>
        <time>2020-09-22T08:30:52.000Z</time>
      </trkpt>
      <trkpt lat="45.06738" lon="0.58695">
        <ele>109.19999694824</ele>
        <time>2020-09-22T08:30:53.000Z</time>
      </trkpt>
      <trkpt lat="45.06735" lon="0.58698">
        <ele>109.19999694824</ele>
        <time>2020-09-22T08:30:54.000Z</time>
      </trkpt>
      <trkpt lat="45.06733" lon="0.587">
        <ele>109</ele>
        <time>2020-09-22T08:30:55.000Z</time>
      </trkpt>
      <trkpt lat="45.0673" lon="0.58703">
        <ele>109</ele>
        <time>2020-09-22T08:30:56.000Z</time>
      </trkpt>
      <trkpt lat="45.06728" lon="0.58706">
        <ele>109</ele>
        <time>2020-09-22T08:30:57.000Z</time>
      </trkpt>
      <trkpt lat="45.06726" lon="0.58708">
        <ele>109</ele>
        <time>2020-09-22T08:30:58.000Z</time>
      </trkpt>
      <trkpt lat="45.06723" lon="0.58711">
        <ele>109</ele>
        <time>2020-09-22T08:30:59.000Z</time>
      </trkpt>
      <trkpt lat="45.06721" lon="0.58714">
        <ele>108.80000305176</ele>
        <time>2020-09-22T08:31:00.000Z</time>
      </trkpt>
      <trkpt lat="45.06719" lon="0.58717">
        <ele>108.80000305176</ele>
        <time>2020-09-22T08:31:01.000Z</time>
      </trkpt>
      <trkpt lat="45.06717" lon="0.58719">
        <ele>108.80000305176</ele>
        <time>2020-09-22T08:31:02.000Z</time>
      </trkpt>
      <trkpt lat="45.06714" lon="0.58722">
        <ele>108.80000305176</ele>
        <time>2020-09-22T08:31:03.000Z</time>
      </trkpt>
      <trkpt lat="45.06712" lon="0.58724">
        <ele>108.59999847412</ele>
        <time>2020-09-22T08:31:04.000Z</time>
      </trkpt>
      <trkpt lat="45.0671" lon="0.58728">
        <ele>108.59999847412</ele>
        <time>2020-09-22T08:31:05.000Z</time>
      </trkpt>
      <trkpt lat="45.06708" lon="0.58731">
        <ele>108.40000152588</ele>
        <time>2020-09-22T08:31:06.000Z</time>
      </trkpt>
      <trkpt lat="45.06706" lon="0.58734">
        <ele>108.40000152588</ele>
        <time>2020-09-22T08:31:07.000Z</time>
      </trkpt>
      <trkpt lat="45.06703" lon="0.58737">
        <ele>108.40000152588</ele>
        <time>2020-09-22T08:31:08.000Z</time>
      </trkpt>
      <trkpt lat="45.06701" lon="0.5874">
        <ele>108.40000152588</ele>
        <time>2020-09-22T08:31:09.000Z</time>
      </trkpt>
      <trkpt lat="45.06699" lon="0.58743">
        <ele>108.40000152588</ele>
        <time>2020-09-22T08:31:10.000Z</time>
      </trkpt>
      <trkpt lat="45.06696" lon="0.58746">
        <ele>108.40000152588</ele>
        <time>2020-09-22T08:31:11.000Z</time>
      </trkpt>
      <trkpt lat="45.06694" lon="0.58749">
        <ele>108.19999694824</ele>
        <time>2020-09-22T08:31:12.000Z</time>
      </trkpt>
      <trkpt lat="45.06691" lon="0.58752">
        <ele>108.19999694824</ele>
        <time>2020-09-22T08:31:13.000Z</time>
      </trkpt>
      <trkpt lat="45.06689" lon="0.58755">
        <ele>108.19999694824</ele>
        <time>2020-09-22T08:31:14.000Z</time>
      </trkpt>
      <trkpt lat="45.06686" lon="0.58757">
        <ele>108.19999694824</ele>
        <time>2020-09-22T08:31:15.000Z</time>
      </trkpt>
      <trkpt lat="45.06684" lon="0.5876">
        <ele>108.19999694824</ele>
        <time>2020-09-22T08:31:16.000Z</time>
      </trkpt>
      <trkpt lat="45.06682" lon="0.58763">
        <ele>108.19999694824</ele>
        <time>2020-09-22T08:31:17.000Z</time>
      </trkpt>
      <trkpt lat="45.06679" lon="0.58766">
        <ele>108.19999694824</ele>
        <time>2020-09-22T08:31:18.000Z</time>
      </trkpt>
      <trkpt lat="45.06677" lon="0.58769">
        <ele>108.19999694824</ele>
        <time>2020-09-22T08:31:19.000Z</time>
      </trkpt>
      <trkpt lat="45.06674" lon="0.58772">
        <ele>108</ele>
        <time>2020-09-22T08:31:20.000Z</time>
      </trkpt>
      <trkpt lat="45.06672" lon="0.58774">
        <ele>107.80000305176</ele>
        <time>2020-09-22T08:31:21.000Z</time>
      </trkpt>
      <trkpt lat="45.06669" lon="0.58777">
        <ele>107.80000305176</ele>
        <time>2020-09-22T08:31:22.000Z</time>
      </trkpt>
      <trkpt lat="45.06667" lon="0.58779">
        <ele>107.59999847412</ele>
        <time>2020-09-22T08:31:23.000Z</time>
      </trkpt>
      <trkpt lat="45.06664" lon="0.58781">
        <ele>107.59999847412</ele>
        <time>2020-09-22T08:31:24.000Z</time>
      </trkpt>
      <trkpt lat="45.06662" lon="0.58784">
        <ele>107.40000152588</ele>
        <time>2020-09-22T08:31:25.000Z</time>
      </trkpt>
      <trkpt lat="45.0666" lon="0.58787">
        <ele>107.19999694824</ele>
        <time>2020-09-22T08:31:26.000Z</time>
      </trkpt>
      <trkpt lat="45.06657" lon="0.5879">
        <ele>107</ele>
        <time>2020-09-22T08:31:27.000Z</time>
      </trkpt>
      <trkpt lat="45.06655" lon="0.58793">
        <ele>107</ele>
        <time>2020-09-22T08:31:28.000Z</time>
      </trkpt>
      <trkpt lat="45.06653" lon="0.58796">
        <ele>106.80000305176</ele>
        <time>2020-09-22T08:31:29.000Z</time>
      </trkpt>
      <trkpt lat="45.0665" lon="0.58799">
        <ele>106.59999847412</ele>
        <time>2020-09-22T08:31:30.000Z</time>
      </trkpt>
      <trkpt lat="45.06648" lon="0.58803">
        <ele>106.40000152588</ele>
        <time>2020-09-22T08:31:31.000Z</time>
      </trkpt>
      <trkpt lat="45.06646" lon="0.58806">
        <ele>106.59999847412</ele>
        <time>2020-09-22T08:31:32.000Z</time>
      </trkpt>
      <trkpt lat="45.06643" lon="0.58809">
        <ele>106.59999847412</ele>
        <time>2020-09-22T08:31:33.000Z</time>
      </trkpt>
      <trkpt lat="45.06641" lon="0.58812">
        <ele>106.59999847412</ele>
        <time>2020-09-22T08:31:34.000Z</time>
      </trkpt>
      <trkpt lat="45.06638" lon="0.58815">
        <ele>106.59999847412</ele>
        <time>2020-09-22T08:31:35.000Z</time>
      </trkpt>
      <trkpt lat="45.06636" lon="0.58818">
        <ele>106.59999847412</ele>
        <time>2020-09-22T08:31:36.000Z</time>
      </trkpt>
      <trkpt lat="45.06634" lon="0.58821">
        <ele>106.59999847412</ele>
        <time>2020-09-22T08:31:37.000Z</time>
      </trkpt>
      <trkpt lat="45.06632" lon="0.58824">
        <ele>106.59999847412</ele>
        <time>2020-09-22T08:31:38.000Z</time>
      </trkpt>
      <trkpt lat="45.0663" lon="0.58827">
        <ele>106.59999847412</ele>
        <time>2020-09-22T08:31:39.000Z</time>
      </trkpt>
      <trkpt lat="45.06628" lon="0.5883">
        <ele>106.59999847412</ele>
        <time>2020-09-22T08:31:40.000Z</time>
      </trkpt>
      <trkpt lat="45.06627" lon="0.58833">
        <ele>106.59999847412</ele>
        <time>2020-09-22T08:31:41.000Z</time>
      </trkpt>
      <trkpt lat="45.06625" lon="0.58837">
        <ele>106.59999847412</ele>
        <time>2020-09-22T08:31:42.000Z</time>
      </trkpt>
      <trkpt lat="45.06623" lon="0.5884">
        <ele>106.80000305176</ele>
        <time>2020-09-22T08:31:43.000Z</time>
      </trkpt>
      <trkpt lat="45.06622" lon="0.58844">
        <ele>106.80000305176</ele>
        <time>2020-09-22T08:31:44.000Z</time>
      </trkpt>
      <trkpt lat="45.0662" lon="0.58848">
        <ele>107</ele>
        <time>2020-09-22T08:31:45.000Z</time>
      </trkpt>
      <trkpt lat="45.06617" lon="0.58851">
        <ele>107.19999694824</ele>
        <time>2020-09-22T08:31:46.000Z</time>
      </trkpt>
      <trkpt lat="45.06615" lon="0.58855">
        <ele>107.19999694824</ele>
        <time>2020-09-22T08:31:47.000Z</time>
      </trkpt>
      <trkpt lat="45.06614" lon="0.58859">
        <ele>107.40000152588</ele>
        <time>2020-09-22T08:31:48.000Z</time>
      </trkpt>
      <trkpt lat="45.06612" lon="0.58862">
        <ele>107.40000152588</ele>
        <time>2020-09-22T08:31:49.000Z</time>
      </trkpt>
      <trkpt lat="45.0661" lon="0.58866">
        <ele>107.59999847412</ele>
        <time>2020-09-22T08:31:50.000Z</time>
      </trkpt>
      <trkpt lat="45.06608" lon="0.58869">
        <ele>107.59999847412</ele>
        <time>2020-09-22T08:31:51.000Z</time>
      </trkpt>
      <trkpt lat="45.06606" lon="0.58873">
        <ele>107.59999847412</ele>
        <time>2020-09-22T08:31:52.000Z</time>
      </trkpt>
      <trkpt lat="45.066" lon="0.58883">
        <ele>107.59999847412</ele>
        <time>2020-09-22T08:31:53.000Z</time>
      </trkpt>
      <trkpt lat="45.066" lon="0.58883">
        <ele>107.59999847412</ele>
        <time>2020-09-22T08:31:54.000Z</time>
      </trkpt>
      <trkpt lat="45.06598" lon="0.58886">
        <ele>107.59999847412</ele>
        <time>2020-09-22T08:31:55.000Z</time>
      </trkpt>
      <trkpt lat="45.06595" lon="0.58889">
        <ele>107.80000305176</ele>
        <time>2020-09-22T08:31:56.000Z</time>
      </trkpt>
      <trkpt lat="45.06593" lon="0.58892">
        <ele>107.80000305176</ele>
        <time>2020-09-22T08:31:57.000Z</time>
      </trkpt>
      <trkpt lat="45.06591" lon="0.58895">
        <ele>108</ele>
        <time>2020-09-22T08:31:58.000Z</time>
      </trkpt>
      <trkpt lat="45.06589" lon="0.58897">
        <ele>108</ele>
        <time>2020-09-22T08:31:59.000Z</time>
      </trkpt>
      <trkpt lat="45.06586" lon="0.589">
        <ele>108</ele>
        <time>2020-09-22T08:32:00.000Z</time>
      </trkpt>
      <trkpt lat="45.06584" lon="0.58902">
        <ele>108.19999694824</ele>
        <time>2020-09-22T08:32:01.000Z</time>
      </trkpt>
      <trkpt lat="45.06582" lon="0.58905">
        <ele>108.19999694824</ele>
        <time>2020-09-22T08:32:02.000Z</time>
      </trkpt>
      <trkpt lat="45.0658" lon="0.58908">
        <ele>108.19999694824</ele>
        <time>2020-09-22T08:32:03.000Z</time>
      </trkpt>
      <trkpt lat="45.06578" lon="0.58911">
        <ele>108.40000152588</ele>
        <time>2020-09-22T08:32:04.000Z</time>
      </trkpt>
      <trkpt lat="45.06575" lon="0.58914">
        <ele>108.40000152588</ele>
        <time>2020-09-22T08:32:05.000Z</time>
      </trkpt>
      <trkpt lat="45.06573" lon="0.58917">
        <ele>108.40000152588</ele>
        <time>2020-09-22T08:32:06.000Z</time>
      </trkpt>
      <trkpt lat="45.06571" lon="0.5892">
        <ele>108.40000152588</ele>
        <time>2020-09-22T08:32:07.000Z</time>
      </trkpt>
      <trkpt lat="45.06568" lon="0.58923">
        <ele>108.40000152588</ele>
        <time>2020-09-22T08:32:08.000Z</time>
      </trkpt>
      <trkpt lat="45.06566" lon="0.58926">
        <ele>108.40000152588</ele>
        <time>2020-09-22T08:32:09.000Z</time>
      </trkpt>
      <trkpt lat="45.06563" lon="0.58929">
        <ele>108.40000152588</ele>
        <time>2020-09-22T08:32:10.000Z</time>
      </trkpt>
      <trkpt lat="45.06561" lon="0.58933">
        <ele>108.40000152588</ele>
        <time>2020-09-22T08:32:11.000Z</time>
      </trkpt>
      <trkpt lat="45.06558" lon="0.58936">
        <ele>108.40000152588</ele>
        <time>2020-09-22T08:32:12.000Z</time>
      </trkpt>
      <trkpt lat="45.06556" lon="0.5894">
        <ele>108.40000152588</ele>
        <time>2020-09-22T08:32:13.000Z</time>
      </trkpt>
      <trkpt lat="45.06553" lon="0.58943">
        <ele>108.40000152588</ele>
        <time>2020-09-22T08:32:14.000Z</time>
      </trkpt>
      <trkpt lat="45.06551" lon="0.58946">
        <ele>108.40000152588</ele>
        <time>2020-09-22T08:32:15.000Z</time>
      </trkpt>
      <trkpt lat="45.06549" lon="0.58949">
        <ele>108.40000152588</ele>
        <time>2020-09-22T08:32:16.000Z</time>
      </trkpt>
      <trkpt lat="45.06547" lon="0.58952">
        <ele>108.40000152588</ele>
        <time>2020-09-22T08:32:17.000Z</time>
      </trkpt>
      <trkpt lat="45.06544" lon="0.58955">
        <ele>108.40000152588</ele>
        <time>2020-09-22T08:32:18.000Z</time>
      </trkpt>
      <trkpt lat="45.06542" lon="0.58959">
        <ele>108.40000152588</ele>
        <time>2020-09-22T08:32:19.000Z</time>
      </trkpt>
      <trkpt lat="45.0654" lon="0.58962">
        <ele>108.19999694824</ele>
        <time>2020-09-22T08:32:20.000Z</time>
      </trkpt>
      <trkpt lat="45.06538" lon="0.58965">
        <ele>108.19999694824</ele>
        <time>2020-09-22T08:32:21.000Z</time>
      </trkpt>
      <trkpt lat="45.06536" lon="0.58968">
        <ele>108.19999694824</ele>
        <time>2020-09-22T08:32:22.000Z</time>
      </trkpt>
      <trkpt lat="45.06533" lon="0.58972">
        <ele>108.19999694824</ele>
        <time>2020-09-22T08:32:23.000Z</time>
      </trkpt>
      <trkpt lat="45.06531" lon="0.58975">
        <ele>108.19999694824</ele>
        <time>2020-09-22T08:32:24.000Z</time>
      </trkpt>
      <trkpt lat="45.06529" lon="0.58978">
        <ele>108.19999694824</ele>
        <time>2020-09-22T08:32:25.000Z</time>
      </trkpt>
      <trkpt lat="45.06527" lon="0.58981">
        <ele>108.19999694824</ele>
        <time>2020-09-22T08:32:26.000Z</time>
      </trkpt>
      <trkpt lat="45.06525" lon="0.58984">
        <ele>108</ele>
        <time>2020-09-22T08:32:27.000Z</time>
      </trkpt>
      <trkpt lat="45.06523" lon="0.58987">
        <ele>108</ele>
        <time>2020-09-22T08:32:28.000Z</time>
      </trkpt>
      <trkpt lat="45.06522" lon="0.5899">
        <ele>108</ele>
        <time>2020-09-22T08:32:29.000Z</time>
      </trkpt>
      <trkpt lat="45.0652" lon="0.58994">
        <ele>108</ele>
        <time>2020-09-22T08:32:30.000Z</time>
      </trkpt>
      <trkpt lat="45.06518" lon="0.58997">
        <ele>107.80000305176</ele>
        <time>2020-09-22T08:32:31.000Z</time>
      </trkpt>
      <trkpt lat="45.06516" lon="0.59">
        <ele>107.80000305176</ele>
        <time>2020-09-22T08:32:32.000Z</time>
      </trkpt>
      <trkpt lat="45.06514" lon="0.59004">
        <ele>107.80000305176</ele>
        <time>2020-09-22T08:32:33.000Z</time>
      </trkpt>
      <trkpt lat="45.06513" lon="0.59007">
        <ele>107.59999847412</ele>
        <time>2020-09-22T08:32:34.000Z</time>
      </trkpt>
      <trkpt lat="45.06511" lon="0.59011">
        <ele>107.59999847412</ele>
        <time>2020-09-22T08:32:35.000Z</time>
      </trkpt>
      <trkpt lat="45.0651" lon="0.59015">
        <ele>107.40000152588</ele>
        <time>2020-09-22T08:32:36.000Z</time>
      </trkpt>
      <trkpt lat="45.06509" lon="0.59018">
        <ele>107.40000152588</ele>
        <time>2020-09-22T08:32:37.000Z</time>
      </trkpt>
      <trkpt lat="45.06508" lon="0.59022">
        <ele>107.59999847412</ele>
        <time>2020-09-22T08:32:38.000Z</time>
      </trkpt>
      <trkpt lat="45.06507" lon="0.59026">
        <ele>107.59999847412</ele>
        <time>2020-09-22T08:32:39.000Z</time>
      </trkpt>
      <trkpt lat="45.06507" lon="0.5903">
        <ele>107.80000305176</ele>
        <time>2020-09-22T08:32:40.000Z</time>
      </trkpt>
      <trkpt lat="45.06505" lon="0.59033">
        <ele>108</ele>
        <time>2020-09-22T08:32:41.000Z</time>
      </trkpt>
      <trkpt lat="45.06504" lon="0.59037">
        <ele>108</ele>
        <time>2020-09-22T08:32:42.000Z</time>
      </trkpt>
      <trkpt lat="45.06502" lon="0.5904">
        <ele>108.19999694824</ele>
        <time>2020-09-22T08:32:43.000Z</time>
      </trkpt>
      <trkpt lat="45.06501" lon="0.59043">
        <ele>108.40000152588</ele>
        <time>2020-09-22T08:32:44.000Z</time>
      </trkpt>
      <trkpt lat="45.065" lon="0.59047">
        <ele>108.40000152588</ele>
        <time>2020-09-22T08:32:45.000Z</time>
      </trkpt>
      <trkpt lat="45.065" lon="0.5905">
        <ele>108.59999847412</ele>
        <time>2020-09-22T08:32:46.000Z</time>
      </trkpt>
      <trkpt lat="45.06499" lon="0.59053">
        <ele>108.80000305176</ele>
        <time>2020-09-22T08:32:47.000Z</time>
      </trkpt>
      <trkpt lat="45.06498" lon="0.59057">
        <ele>108.80000305176</ele>
        <time>2020-09-22T08:32:48.000Z</time>
      </trkpt>
      <trkpt lat="45.06497" lon="0.59061">
        <ele>108.80000305176</ele>
        <time>2020-09-22T08:32:49.000Z</time>
      </trkpt>
      <trkpt lat="45.06496" lon="0.59065">
        <ele>109</ele>
        <time>2020-09-22T08:32:50.000Z</time>
      </trkpt>
      <trkpt lat="45.06496" lon="0.59069">
        <ele>109</ele>
        <time>2020-09-22T08:32:51.000Z</time>
      </trkpt>
      <trkpt lat="45.06495" lon="0.59073">
        <ele>109</ele>
        <time>2020-09-22T08:32:52.000Z</time>
      </trkpt>
      <trkpt lat="45.06494" lon="0.59083">
        <ele>109.19999694824</ele>
        <time>2020-09-22T08:32:53.000Z</time>
      </trkpt>
      <trkpt lat="45.06494" lon="0.59083">
        <ele>109.19999694824</ele>
        <time>2020-09-22T08:32:54.000Z</time>
      </trkpt>
      <trkpt lat="45.06493" lon="0.59087">
        <ele>109.19999694824</ele>
        <time>2020-09-22T08:32:55.000Z</time>
      </trkpt>
      <trkpt lat="45.06492" lon="0.59092">
        <ele>109</ele>
        <time>2020-09-22T08:32:56.000Z</time>
      </trkpt>
      <trkpt lat="45.06492" lon="0.59096">
        <ele>108.80000305176</ele>
        <time>2020-09-22T08:32:57.000Z</time>
      </trkpt>
      <trkpt lat="45.06491" lon="0.591">
        <ele>108.80000305176</ele>
        <time>2020-09-22T08:32:58.000Z</time>
      </trkpt>
      <trkpt lat="45.06491" lon="0.59104">
        <ele>108.59999847412</ele>
        <time>2020-09-22T08:32:59.000Z</time>
      </trkpt>
      <trkpt lat="45.0649" lon="0.59109">
        <ele>108.40000152588</ele>
        <time>2020-09-22T08:33:00.000Z</time>
      </trkpt>
      <trkpt lat="45.06489" lon="0.59114">
        <ele>108.40000152588</ele>
        <time>2020-09-22T08:33:01.000Z</time>
      </trkpt>
      <trkpt lat="45.06489" lon="0.59119">
        <ele>108.19999694824</ele>
        <time>2020-09-22T08:33:02.000Z</time>
      </trkpt>
      <trkpt lat="45.06488" lon="0.59123">
        <ele>108</ele>
        <time>2020-09-22T08:33:03.000Z</time>
      </trkpt>
      <trkpt lat="45.06488" lon="0.59127">
        <ele>108</ele>
        <time>2020-09-22T08:33:04.000Z</time>
      </trkpt>
      <trkpt lat="45.06487" lon="0.59132">
        <ele>107.80000305176</ele>
        <time>2020-09-22T08:33:05.000Z</time>
      </trkpt>
      <trkpt lat="45.06486" lon="0.59136">
        <ele>107.80000305176</ele>
        <time>2020-09-22T08:33:06.000Z</time>
      </trkpt>
      <trkpt lat="45.06485" lon="0.59141">
        <ele>107.80000305176</ele>
        <time>2020-09-22T08:33:07.000Z</time>
      </trkpt>
      <trkpt lat="45.06485" lon="0.59145">
        <ele>108</ele>
        <time>2020-09-22T08:33:08.000Z</time>
      </trkpt>
      <trkpt lat="45.06484" lon="0.5915">
        <ele>108</ele>
        <time>2020-09-22T08:33:09.000Z</time>
      </trkpt>
      <trkpt lat="45.06484" lon="0.59155">
        <ele>108</ele>
        <time>2020-09-22T08:33:10.000Z</time>
      </trkpt>
      <trkpt lat="45.06483" lon="0.59159">
        <ele>108.19999694824</ele>
        <time>2020-09-22T08:33:11.000Z</time>
      </trkpt>
      <trkpt lat="45.06482" lon="0.59163">
        <ele>108.40000152588</ele>
        <time>2020-09-22T08:33:12.000Z</time>
      </trkpt>
      <trkpt lat="45.06481" lon="0.59167">
        <ele>108.40000152588</ele>
        <time>2020-09-22T08:33:13.000Z</time>
      </trkpt>
      <trkpt lat="45.06481" lon="0.59172">
        <ele>108.59999847412</ele>
        <time>2020-09-22T08:33:14.000Z</time>
      </trkpt>
      <trkpt lat="45.0648" lon="0.59176">
        <ele>108.80000305176</ele>
        <time>2020-09-22T08:33:15.000Z</time>
      </trkpt>
      <trkpt lat="45.06479" lon="0.5918">
        <ele>108.80000305176</ele>
        <time>2020-09-22T08:33:16.000Z</time>
      </trkpt>
      <trkpt lat="45.06479" lon="0.59184">
        <ele>109</ele>
        <time>2020-09-22T08:33:17.000Z</time>
      </trkpt>
      <trkpt lat="45.06478" lon="0.59188">
        <ele>109.19999694824</ele>
        <time>2020-09-22T08:33:18.000Z</time>
      </trkpt>
      <trkpt lat="45.06477" lon="0.59192">
        <ele>109.19999694824</ele>
        <time>2020-09-22T08:33:19.000Z</time>
      </trkpt>
      <trkpt lat="45.06477" lon="0.59196">
        <ele>109.40000152588</ele>
        <time>2020-09-22T08:33:20.000Z</time>
      </trkpt>
      <trkpt lat="45.06477" lon="0.592">
        <ele>109.59999847412</ele>
        <time>2020-09-22T08:33:21.000Z</time>
      </trkpt>
      <trkpt lat="45.06476" lon="0.59204">
        <ele>109.59999847412</ele>
        <time>2020-09-22T08:33:22.000Z</time>
      </trkpt>
      <trkpt lat="45.06476" lon="0.59209">
        <ele>109.80000305176</ele>
        <time>2020-09-22T08:33:23.000Z</time>
      </trkpt>
      <trkpt lat="45.06476" lon="0.59213">
        <ele>110</ele>
        <time>2020-09-22T08:33:24.000Z</time>
      </trkpt>
      <trkpt lat="45.06474" lon="0.59217">
        <ele>110.19999694824</ele>
        <time>2020-09-22T08:33:25.000Z</time>
      </trkpt>
      <trkpt lat="45.06473" lon="0.59221">
        <ele>110.19999694824</ele>
        <time>2020-09-22T08:33:26.000Z</time>
      </trkpt>
      <trkpt lat="45.06473" lon="0.59224">
        <ele>110.40000152588</ele>
        <time>2020-09-22T08:33:27.000Z</time>
      </trkpt>
      <trkpt lat="45.06472" lon="0.59228">
        <ele>110.40000152588</ele>
        <time>2020-09-22T08:33:28.000Z</time>
      </trkpt>
      <trkpt lat="45.06472" lon="0.59232">
        <ele>110.40000152588</ele>
        <time>2020-09-22T08:33:29.000Z</time>
      </trkpt>
      <trkpt lat="45.06471" lon="0.59236">
        <ele>110.40000152588</ele>
        <time>2020-09-22T08:33:30.000Z</time>
      </trkpt>
      <trkpt lat="45.06471" lon="0.5924">
        <ele>110.19999694824</ele>
        <time>2020-09-22T08:33:31.000Z</time>
      </trkpt>
      <trkpt lat="45.06471" lon="0.59245">
        <ele>110</ele>
        <time>2020-09-22T08:33:32.000Z</time>
      </trkpt>
      <trkpt lat="45.06471" lon="0.59249">
        <ele>109.80000305176</ele>
        <time>2020-09-22T08:33:33.000Z</time>
      </trkpt>
      <trkpt lat="45.06471" lon="0.59254">
        <ele>109.80000305176</ele>
        <time>2020-09-22T08:33:34.000Z</time>
      </trkpt>
      <trkpt lat="45.0647" lon="0.59258">
        <ele>109.59999847412</ele>
        <time>2020-09-22T08:33:35.000Z</time>
      </trkpt>
      <trkpt lat="45.0647" lon="0.59263">
        <ele>109.40000152588</ele>
        <time>2020-09-22T08:33:36.000Z</time>
      </trkpt>
      <trkpt lat="45.06469" lon="0.59267">
        <ele>109.19999694824</ele>
        <time>2020-09-22T08:33:37.000Z</time>
      </trkpt>
      <trkpt lat="45.06468" lon="0.59272">
        <ele>109</ele>
        <time>2020-09-22T08:33:38.000Z</time>
      </trkpt>
      <trkpt lat="45.06467" lon="0.59277">
        <ele>108.80000305176</ele>
        <time>2020-09-22T08:33:39.000Z</time>
      </trkpt>
      <trkpt lat="45.06466" lon="0.59282">
        <ele>108.80000305176</ele>
        <time>2020-09-22T08:33:40.000Z</time>
      </trkpt>
      <trkpt lat="45.06465" lon="0.59286">
        <ele>108.59999847412</ele>
        <time>2020-09-22T08:33:41.000Z</time>
      </trkpt>
      <trkpt lat="45.06464" lon="0.59291">
        <ele>108.40000152588</ele>
        <time>2020-09-22T08:33:42.000Z</time>
      </trkpt>
      <trkpt lat="45.06463" lon="0.59296">
        <ele>108.19999694824</ele>
        <time>2020-09-22T08:33:43.000Z</time>
      </trkpt>
      <trkpt lat="45.06462" lon="0.593">
        <ele>108</ele>
        <time>2020-09-22T08:33:44.000Z</time>
      </trkpt>
      <trkpt lat="45.06461" lon="0.59304">
        <ele>108</ele>
        <time>2020-09-22T08:33:45.000Z</time>
      </trkpt>
      <trkpt lat="45.0646" lon="0.59308">
        <ele>108</ele>
        <time>2020-09-22T08:33:46.000Z</time>
      </trkpt>
      <trkpt lat="45.06459" lon="0.59312">
        <ele>108</ele>
        <time>2020-09-22T08:33:47.000Z</time>
      </trkpt>
      <trkpt lat="45.06458" lon="0.59316">
        <ele>108.19999694824</ele>
        <time>2020-09-22T08:33:48.000Z</time>
      </trkpt>
      <trkpt lat="45.06457" lon="0.5932">
        <ele>108.19999694824</ele>
        <time>2020-09-22T08:33:49.000Z</time>
      </trkpt>
      <trkpt lat="45.06456" lon="0.59324">
        <ele>108.40000152588</ele>
        <time>2020-09-22T08:33:50.000Z</time>
      </trkpt>
      <trkpt lat="45.06455" lon="0.59328">
        <ele>108.40000152588</ele>
        <time>2020-09-22T08:33:51.000Z</time>
      </trkpt>
      <trkpt lat="45.06453" lon="0.59332">
        <ele>108.59999847412</ele>
        <time>2020-09-22T08:33:52.000Z</time>
      </trkpt>
      <trkpt lat="45.06452" lon="0.59336">
        <ele>108.59999847412</ele>
        <time>2020-09-22T08:33:53.000Z</time>
      </trkpt>
      <trkpt lat="45.06452" lon="0.5934">
        <ele>108.80000305176</ele>
        <time>2020-09-22T08:33:54.000Z</time>
      </trkpt>
      <trkpt lat="45.06451" lon="0.59349">
        <ele>108.80000305176</ele>
        <time>2020-09-22T08:33:55.000Z</time>
      </trkpt>
      <trkpt lat="45.0645" lon="0.59353">
        <ele>109</ele>
        <time>2020-09-22T08:33:56.000Z</time>
      </trkpt>
      <trkpt lat="45.0645" lon="0.59353">
        <ele>109</ele>
        <time>2020-09-22T08:33:57.000Z</time>
      </trkpt>
      <trkpt lat="45.06448" lon="0.59357">
        <ele>109</ele>
        <time>2020-09-22T08:33:58.000Z</time>
      </trkpt>
      <trkpt lat="45.06447" lon="0.5936">
        <ele>109.19999694824</ele>
        <time>2020-09-22T08:33:59.000Z</time>
      </trkpt>
      <trkpt lat="45.06446" lon="0.59364">
        <ele>109.19999694824</ele>
        <time>2020-09-22T08:34:00.000Z</time>
      </trkpt>
      <trkpt lat="45.06445" lon="0.59368">
        <ele>109.40000152588</ele>
        <time>2020-09-22T08:34:01.000Z</time>
      </trkpt>
      <trkpt lat="45.06445" lon="0.59371">
        <ele>109.40000152588</ele>
        <time>2020-09-22T08:34:02.000Z</time>
      </trkpt>
      <trkpt lat="45.06444" lon="0.59375">
        <ele>109.40000152588</ele>
        <time>2020-09-22T08:34:03.000Z</time>
      </trkpt>
      <trkpt lat="45.06444" lon="0.59378">
        <ele>109.19999694824</ele>
        <time>2020-09-22T08:34:04.000Z</time>
      </trkpt>
      <trkpt lat="45.06444" lon="0.59383">
        <ele>109.19999694824</ele>
        <time>2020-09-22T08:34:05.000Z</time>
      </trkpt>
      <trkpt lat="45.06443" lon="0.59388">
        <ele>109.19999694824</ele>
        <time>2020-09-22T08:34:06.000Z</time>
      </trkpt>
      <trkpt lat="45.06441" lon="0.59392">
        <ele>109.40000152588</ele>
        <time>2020-09-22T08:34:07.000Z</time>
      </trkpt>
      <trkpt lat="45.06439" lon="0.59397">
        <ele>109.59999847412</ele>
        <time>2020-09-22T08:34:08.000Z</time>
      </trkpt>
      <trkpt lat="45.06437" lon="0.594">
        <ele>109.80000305176</ele>
        <time>2020-09-22T08:34:09.000Z</time>
      </trkpt>
      <trkpt lat="45.06435" lon="0.59404">
        <ele>110</ele>
        <time>2020-09-22T08:34:10.000Z</time>
      </trkpt>
      <trkpt lat="45.06432" lon="0.59407">
        <ele>110.19999694824</ele>
        <time>2020-09-22T08:34:11.000Z</time>
      </trkpt>
      <trkpt lat="45.06429" lon="0.5941">
        <ele>110.40000152588</ele>
        <time>2020-09-22T08:34:12.000Z</time>
      </trkpt>
      <trkpt lat="45.06427" lon="0.59413">
        <ele>110.59999847412</ele>
        <time>2020-09-22T08:34:13.000Z</time>
      </trkpt>
      <trkpt lat="45.06424" lon="0.59417">
        <ele>111</ele>
        <time>2020-09-22T08:34:14.000Z</time>
      </trkpt>
      <trkpt lat="45.06421" lon="0.5942">
        <ele>111.19999694824</ele>
        <time>2020-09-22T08:34:15.000Z</time>
      </trkpt>
      <trkpt lat="45.06419" lon="0.59423">
        <ele>111.40000152588</ele>
        <time>2020-09-22T08:34:16.000Z</time>
      </trkpt>
      <trkpt lat="45.06417" lon="0.59426">
        <ele>111.59999847412</ele>
        <time>2020-09-22T08:34:17.000Z</time>
      </trkpt>
      <trkpt lat="45.06415" lon="0.59429">
        <ele>111.80000305176</ele>
        <time>2020-09-22T08:34:18.000Z</time>
      </trkpt>
      <trkpt lat="45.06414" lon="0.59433">
        <ele>112</ele>
        <time>2020-09-22T08:34:19.000Z</time>
      </trkpt>
      <trkpt lat="45.06412" lon="0.59437">
        <ele>112.19999694824</ele>
        <time>2020-09-22T08:34:20.000Z</time>
      </trkpt>
      <trkpt lat="45.06411" lon="0.5944">
        <ele>112.40000152588</ele>
        <time>2020-09-22T08:34:21.000Z</time>
      </trkpt>
      <trkpt lat="45.0641" lon="0.59445">
        <ele>112.59999847412</ele>
        <time>2020-09-22T08:34:22.000Z</time>
      </trkpt>
      <trkpt lat="45.06409" lon="0.59449">
        <ele>112.80000305176</ele>
        <time>2020-09-22T08:34:23.000Z</time>
      </trkpt>
      <trkpt lat="45.06408" lon="0.59454">
        <ele>113</ele>
        <time>2020-09-22T08:34:24.000Z</time>
      </trkpt>
      <trkpt lat="45.06408" lon="0.59458">
        <ele>113</ele>
        <time>2020-09-22T08:34:25.000Z</time>
      </trkpt>
      <trkpt lat="45.06408" lon="0.59463">
        <ele>113.19999694824</ele>
        <time>2020-09-22T08:34:26.000Z</time>
      </trkpt>
      <trkpt lat="45.06408" lon="0.59468">
        <ele>113.19999694824</ele>
        <time>2020-09-22T08:34:27.000Z</time>
      </trkpt>
      <trkpt lat="45.06409" lon="0.59473">
        <ele>113.40000152588</ele>
        <time>2020-09-22T08:34:28.000Z</time>
      </trkpt>
      <trkpt lat="45.06409" lon="0.59478">
        <ele>113.40000152588</ele>
        <time>2020-09-22T08:34:29.000Z</time>
      </trkpt>
      <trkpt lat="45.06409" lon="0.59482">
        <ele>113.40000152588</ele>
        <time>2020-09-22T08:34:30.000Z</time>
      </trkpt>
      <trkpt lat="45.0641" lon="0.59487">
        <ele>113.40000152588</ele>
        <time>2020-09-22T08:34:31.000Z</time>
      </trkpt>
      <trkpt lat="45.06411" lon="0.59491">
        <ele>113.40000152588</ele>
        <time>2020-09-22T08:34:32.000Z</time>
      </trkpt>
      <trkpt lat="45.06412" lon="0.59495">
        <ele>113.19999694824</ele>
        <time>2020-09-22T08:34:33.000Z</time>
      </trkpt>
      <trkpt lat="45.06413" lon="0.595">
        <ele>113.40000152588</ele>
        <time>2020-09-22T08:34:34.000Z</time>
      </trkpt>
      <trkpt lat="45.06413" lon="0.59504">
        <ele>113.40000152588</ele>
        <time>2020-09-22T08:34:35.000Z</time>
      </trkpt>
      <trkpt lat="45.06413" lon="0.59508">
        <ele>113.40000152588</ele>
        <time>2020-09-22T08:34:36.000Z</time>
      </trkpt>
      <trkpt lat="45.06413" lon="0.59512">
        <ele>113.19999694824</ele>
        <time>2020-09-22T08:34:37.000Z</time>
      </trkpt>
      <trkpt lat="45.06414" lon="0.59517">
        <ele>113.19999694824</ele>
        <time>2020-09-22T08:34:38.000Z</time>
      </trkpt>
      <trkpt lat="45.06414" lon="0.59521">
        <ele>113</ele>
        <time>2020-09-22T08:34:39.000Z</time>
      </trkpt>
      <trkpt lat="45.06415" lon="0.59526">
        <ele>113</ele>
        <time>2020-09-22T08:34:40.000Z</time>
      </trkpt>
      <trkpt lat="45.06416" lon="0.5953">
        <ele>112.80000305176</ele>
        <time>2020-09-22T08:34:41.000Z</time>
      </trkpt>
      <trkpt lat="45.06417" lon="0.59534">
        <ele>112.80000305176</ele>
        <time>2020-09-22T08:34:42.000Z</time>
      </trkpt>
      <trkpt lat="45.06418" lon="0.59538">
        <ele>112.59999847412</ele>
        <time>2020-09-22T08:34:43.000Z</time>
      </trkpt>
      <trkpt lat="45.06419" lon="0.59543">
        <ele>112.59999847412</ele>
        <time>2020-09-22T08:34:44.000Z</time>
      </trkpt>
      <trkpt lat="45.0642" lon="0.59547">
        <ele>112.40000152588</ele>
        <time>2020-09-22T08:34:45.000Z</time>
      </trkpt>
      <trkpt lat="45.06421" lon="0.59551">
        <ele>112.40000152588</ele>
        <time>2020-09-22T08:34:46.000Z</time>
      </trkpt>
      <trkpt lat="45.06422" lon="0.59555">
        <ele>112.19999694824</ele>
        <time>2020-09-22T08:34:47.000Z</time>
      </trkpt>
      <trkpt lat="45.06423" lon="0.59559">
        <ele>112</ele>
        <time>2020-09-22T08:34:48.000Z</time>
      </trkpt>
      <trkpt lat="45.06424" lon="0.59563">
        <ele>112</ele>
        <time>2020-09-22T08:34:49.000Z</time>
      </trkpt>
      <trkpt lat="45.06425" lon="0.59568">
        <ele>112</ele>
        <time>2020-09-22T08:34:50.000Z</time>
      </trkpt>
      <trkpt lat="45.06425" lon="0.59572">
        <ele>111.80000305176</ele>
        <time>2020-09-22T08:34:51.000Z</time>
      </trkpt>
      <trkpt lat="45.06425" lon="0.59577">
        <ele>111.80000305176</ele>
        <time>2020-09-22T08:34:52.000Z</time>
      </trkpt>
      <trkpt lat="45.06425" lon="0.59582">
        <ele>111.80000305176</ele>
        <time>2020-09-22T08:34:53.000Z</time>
      </trkpt>
      <trkpt lat="45.06425" lon="0.59586">
        <ele>111.59999847412</ele>
        <time>2020-09-22T08:34:54.000Z</time>
      </trkpt>
      <trkpt lat="45.06425" lon="0.5959">
        <ele>111.59999847412</ele>
        <time>2020-09-22T08:34:55.000Z</time>
      </trkpt>
      <trkpt lat="45.06426" lon="0.59595">
        <ele>111.40000152588</ele>
        <time>2020-09-22T08:34:56.000Z</time>
      </trkpt>
      <trkpt lat="45.06426" lon="0.596">
        <ele>111.40000152588</ele>
        <time>2020-09-22T08:34:57.000Z</time>
      </trkpt>
      <trkpt lat="45.06426" lon="0.59604">
        <ele>111.40000152588</ele>
        <time>2020-09-22T08:34:58.000Z</time>
      </trkpt>
      <trkpt lat="45.06426" lon="0.59609">
        <ele>111.19999694824</ele>
        <time>2020-09-22T08:34:59.000Z</time>
      </trkpt>
      <trkpt lat="45.06425" lon="0.59623">
        <ele>111</ele>
        <time>2020-09-22T08:35:01.000Z</time>
      </trkpt>
      <trkpt lat="45.06425" lon="0.59623">
        <ele>111</ele>
        <time>2020-09-22T08:35:02.000Z</time>
      </trkpt>
      <trkpt lat="45.06425" lon="0.59627">
        <ele>110.80000305176</ele>
        <time>2020-09-22T08:35:03.000Z</time>
      </trkpt>
      <trkpt lat="45.06425" lon="0.59631">
        <ele>110.80000305176</ele>
        <time>2020-09-22T08:35:04.000Z</time>
      </trkpt>
      <trkpt lat="45.06425" lon="0.59636">
        <ele>110.59999847412</ele>
        <time>2020-09-22T08:35:05.000Z</time>
      </trkpt>
      <trkpt lat="45.06425" lon="0.59641">
        <ele>110.59999847412</ele>
        <time>2020-09-22T08:35:06.000Z</time>
      </trkpt>
      <trkpt lat="45.06425" lon="0.59645">
        <ele>110.59999847412</ele>
        <time>2020-09-22T08:35:07.000Z</time>
      </trkpt>
      <trkpt lat="45.06425" lon="0.5965">
        <ele>110.59999847412</ele>
        <time>2020-09-22T08:35:08.000Z</time>
      </trkpt>
      <trkpt lat="45.06426" lon="0.59654">
        <ele>110.59999847412</ele>
        <time>2020-09-22T08:35:09.000Z</time>
      </trkpt>
      <trkpt lat="45.06426" lon="0.59659">
        <ele>110.59999847412</ele>
        <time>2020-09-22T08:35:10.000Z</time>
      </trkpt>
      <trkpt lat="45.06427" lon="0.59664">
        <ele>110.59999847412</ele>
        <time>2020-09-22T08:35:11.000Z</time>
      </trkpt>
      <trkpt lat="45.06426" lon="0.59669">
        <ele>110.59999847412</ele>
        <time>2020-09-22T08:35:12.000Z</time>
      </trkpt>
      <trkpt lat="45.06426" lon="0.59674">
        <ele>110.59999847412</ele>
        <time>2020-09-22T08:35:13.000Z</time>
      </trkpt>
      <trkpt lat="45.06426" lon="0.59679">
        <ele>110.59999847412</ele>
        <time>2020-09-22T08:35:14.000Z</time>
      </trkpt>
      <trkpt lat="45.06425" lon="0.59684">
        <ele>110.59999847412</ele>
        <time>2020-09-22T08:35:15.000Z</time>
      </trkpt>
      <trkpt lat="45.06425" lon="0.59689">
        <ele>110.59999847412</ele>
        <time>2020-09-22T08:35:16.000Z</time>
      </trkpt>
      <trkpt lat="45.06425" lon="0.59694">
        <ele>110.80000305176</ele>
        <time>2020-09-22T08:35:17.000Z</time>
      </trkpt>
      <trkpt lat="45.06426" lon="0.59698">
        <ele>110.80000305176</ele>
        <time>2020-09-22T08:35:18.000Z</time>
      </trkpt>
      <trkpt lat="45.06426" lon="0.59703">
        <ele>110.80000305176</ele>
        <time>2020-09-22T08:35:19.000Z</time>
      </trkpt>
      <trkpt lat="45.06427" lon="0.59708">
        <ele>110.80000305176</ele>
        <time>2020-09-22T08:35:20.000Z</time>
      </trkpt>
      <trkpt lat="45.06428" lon="0.59713">
        <ele>110.80000305176</ele>
        <time>2020-09-22T08:35:21.000Z</time>
      </trkpt>
      <trkpt lat="45.06428" lon="0.59717">
        <ele>110.80000305176</ele>
        <time>2020-09-22T08:35:22.000Z</time>
      </trkpt>
      <trkpt lat="45.06428" lon="0.59722">
        <ele>111</ele>
        <time>2020-09-22T08:35:23.000Z</time>
      </trkpt>
      <trkpt lat="45.06428" lon="0.59727">
        <ele>111</ele>
        <time>2020-09-22T08:35:24.000Z</time>
      </trkpt>
      <trkpt lat="45.06429" lon="0.59732">
        <ele>111.19999694824</ele>
        <time>2020-09-22T08:35:25.000Z</time>
      </trkpt>
      <trkpt lat="45.06429" lon="0.59736">
        <ele>111.19999694824</ele>
        <time>2020-09-22T08:35:26.000Z</time>
      </trkpt>
      <trkpt lat="45.06429" lon="0.5974">
        <ele>111.40000152588</ele>
        <time>2020-09-22T08:35:27.000Z</time>
      </trkpt>
      <trkpt lat="45.06429" lon="0.59745">
        <ele>111.40000152588</ele>
        <time>2020-09-22T08:35:28.000Z</time>
      </trkpt>
      <trkpt lat="45.06428" lon="0.59749">
        <ele>111.59999847412</ele>
        <time>2020-09-22T08:35:29.000Z</time>
      </trkpt>
      <trkpt lat="45.06427" lon="0.59754">
        <ele>111.80000305176</ele>
        <time>2020-09-22T08:35:30.000Z</time>
      </trkpt>
      <trkpt lat="45.06427" lon="0.59758">
        <ele>112</ele>
        <time>2020-09-22T08:35:31.000Z</time>
      </trkpt>
      <trkpt lat="45.06427" lon="0.59763">
        <ele>112</ele>
        <time>2020-09-22T08:35:32.000Z</time>
      </trkpt>
      <trkpt lat="45.06428" lon="0.59768">
        <ele>112</ele>
        <time>2020-09-22T08:35:33.000Z</time>
      </trkpt>
      <trkpt lat="45.06428" lon="0.59772">
        <ele>112.19999694824</ele>
        <time>2020-09-22T08:35:34.000Z</time>
      </trkpt>
      <trkpt lat="45.06429" lon="0.59776">
        <ele>112</ele>
        <time>2020-09-22T08:35:35.000Z</time>
      </trkpt>
      <trkpt lat="45.06429" lon="0.5978">
        <ele>112</ele>
        <time>2020-09-22T08:35:36.000Z</time>
      </trkpt>
      <trkpt lat="45.06429" lon="0.59784">
        <ele>112</ele>
        <time>2020-09-22T08:35:37.000Z</time>
      </trkpt>
      <trkpt lat="45.0643" lon="0.59788">
        <ele>111.80000305176</ele>
        <time>2020-09-22T08:35:38.000Z</time>
      </trkpt>
      <trkpt lat="45.0643" lon="0.59793">
        <ele>111.80000305176</ele>
        <time>2020-09-22T08:35:39.000Z</time>
      </trkpt>
      <trkpt lat="45.0643" lon="0.59797">
        <ele>111.80000305176</ele>
        <time>2020-09-22T08:35:40.000Z</time>
      </trkpt>
      <trkpt lat="45.0643" lon="0.59801">
        <ele>111.80000305176</ele>
        <time>2020-09-22T08:35:41.000Z</time>
      </trkpt>
      <trkpt lat="45.0643" lon="0.59806">
        <ele>111.59999847412</ele>
        <time>2020-09-22T08:35:42.000Z</time>
      </trkpt>
      <trkpt lat="45.0643" lon="0.5981">
        <ele>111.59999847412</ele>
        <time>2020-09-22T08:35:43.000Z</time>
      </trkpt>
      <trkpt lat="45.0643" lon="0.59815">
        <ele>111.59999847412</ele>
        <time>2020-09-22T08:35:44.000Z</time>
      </trkpt>
      <trkpt lat="45.0643" lon="0.59819">
        <ele>111.40000152588</ele>
        <time>2020-09-22T08:35:45.000Z</time>
      </trkpt>
      <trkpt lat="45.0643" lon="0.59824">
        <ele>111.40000152588</ele>
        <time>2020-09-22T08:35:46.000Z</time>
      </trkpt>
      <trkpt lat="45.06431" lon="0.59828">
        <ele>111.40000152588</ele>
        <time>2020-09-22T08:35:47.000Z</time>
      </trkpt>
      <trkpt lat="45.06431" lon="0.59832">
        <ele>111.40000152588</ele>
        <time>2020-09-22T08:35:48.000Z</time>
      </trkpt>
      <trkpt lat="45.06431" lon="0.59837">
        <ele>111.19999694824</ele>
        <time>2020-09-22T08:35:49.000Z</time>
      </trkpt>
      <trkpt lat="45.06431" lon="0.59841">
        <ele>111.19999694824</ele>
        <time>2020-09-22T08:35:50.000Z</time>
      </trkpt>
      <trkpt lat="45.06432" lon="0.59845">
        <ele>111.19999694824</ele>
        <time>2020-09-22T08:35:51.000Z</time>
      </trkpt>
      <trkpt lat="45.06432" lon="0.5985">
        <ele>111</ele>
        <time>2020-09-22T08:35:52.000Z</time>
      </trkpt>
      <trkpt lat="45.06433" lon="0.59855">
        <ele>111</ele>
        <time>2020-09-22T08:35:53.000Z</time>
      </trkpt>
      <trkpt lat="45.06432" lon="0.59859">
        <ele>111</ele>
        <time>2020-09-22T08:35:54.000Z</time>
      </trkpt>
      <trkpt lat="45.06433" lon="0.59863">
        <ele>111</ele>
        <time>2020-09-22T08:35:55.000Z</time>
      </trkpt>
      <trkpt lat="45.06431" lon="0.59869">
        <ele>111.19999694824</ele>
        <time>2020-09-22T08:35:56.000Z</time>
      </trkpt>
      <trkpt lat="45.06431" lon="0.59873">
        <ele>111.40000152588</ele>
        <time>2020-09-22T08:35:57.000Z</time>
      </trkpt>
      <trkpt lat="45.06431" lon="0.59878">
        <ele>111.59999847412</ele>
        <time>2020-09-22T08:35:58.000Z</time>
      </trkpt>
      <trkpt lat="45.06431" lon="0.59882">
        <ele>111.59999847412</ele>
        <time>2020-09-22T08:35:59.000Z</time>
      </trkpt>
      <trkpt lat="45.06431" lon="0.59886">
        <ele>111.80000305176</ele>
        <time>2020-09-22T08:36:00.000Z</time>
      </trkpt>
      <trkpt lat="45.06431" lon="0.5989">
        <ele>111.80000305176</ele>
        <time>2020-09-22T08:36:01.000Z</time>
      </trkpt>
      <trkpt lat="45.06432" lon="0.59895">
        <ele>111.59999847412</ele>
        <time>2020-09-22T08:36:03.000Z</time>
      </trkpt>
      <trkpt lat="45.06433" lon="0.59897">
        <ele>111.59999847412</ele>
        <time>2020-09-22T08:36:04.000Z</time>
      </trkpt>
      <trkpt lat="45.06433" lon="0.59897">
        <ele>111.59999847412</ele>
        <time>2020-09-22T08:36:05.000Z</time>
      </trkpt>
      <trkpt lat="45.06436" lon="0.59899">
        <ele>111.40000152588</ele>
        <time>2020-09-22T08:36:06.000Z</time>
      </trkpt>
      <trkpt lat="45.06439" lon="0.599">
        <ele>111.19999694824</ele>
        <time>2020-09-22T08:36:07.000Z</time>
      </trkpt>
      <trkpt lat="45.06442" lon="0.599">
        <ele>111</ele>
        <time>2020-09-22T08:36:08.000Z</time>
      </trkpt>
      <trkpt lat="45.06444" lon="0.59899">
        <ele>111</ele>
        <time>2020-09-22T08:36:09.000Z</time>
      </trkpt>
      <trkpt lat="45.06447" lon="0.59898">
        <ele>110.80000305176</ele>
        <time>2020-09-22T08:36:10.000Z</time>
      </trkpt>
      <trkpt lat="45.0645" lon="0.59898">
        <ele>110.59999847412</ele>
        <time>2020-09-22T08:36:11.000Z</time>
      </trkpt>
      <trkpt lat="45.06453" lon="0.59897">
        <ele>110.40000152588</ele>
        <time>2020-09-22T08:36:12.000Z</time>
      </trkpt>
      <trkpt lat="45.06456" lon="0.59896">
        <ele>110.19999694824</ele>
        <time>2020-09-22T08:36:13.000Z</time>
      </trkpt>
      <trkpt lat="45.06459" lon="0.59896">
        <ele>110</ele>
        <time>2020-09-22T08:36:14.000Z</time>
      </trkpt>
      <trkpt lat="45.06463" lon="0.59897">
        <ele>110.40000152588</ele>
        <time>2020-09-22T08:36:15.000Z</time>
      </trkpt>
      <trkpt lat="45.06466" lon="0.59897">
        <ele>110.59999847412</ele>
        <time>2020-09-22T08:36:16.000Z</time>
      </trkpt>
      <trkpt lat="45.06469" lon="0.59897">
        <ele>111</ele>
        <time>2020-09-22T08:36:17.000Z</time>
      </trkpt>
      <trkpt lat="45.06473" lon="0.59897">
        <ele>111.19999694824</ele>
        <time>2020-09-22T08:36:18.000Z</time>
      </trkpt>
      <trkpt lat="45.06477" lon="0.59899">
        <ele>111.59999847412</ele>
        <time>2020-09-22T08:36:19.000Z</time>
      </trkpt>
      <trkpt lat="45.0648" lon="0.59901">
        <ele>112</ele>
        <time>2020-09-22T08:36:20.000Z</time>
      </trkpt>
      <trkpt lat="45.06483" lon="0.59903">
        <ele>112.19999694824</ele>
        <time>2020-09-22T08:36:21.000Z</time>
      </trkpt>
      <trkpt lat="45.06487" lon="0.59906">
        <ele>112.59999847412</ele>
        <time>2020-09-22T08:36:22.000Z</time>
      </trkpt>
      <trkpt lat="45.0649" lon="0.59908">
        <ele>112.80000305176</ele>
        <time>2020-09-22T08:36:23.000Z</time>
      </trkpt>
      <trkpt lat="45.06493" lon="0.59911">
        <ele>113.19999694824</ele>
        <time>2020-09-22T08:36:24.000Z</time>
      </trkpt>
      <trkpt lat="45.06496" lon="0.59913">
        <ele>113.40000152588</ele>
        <time>2020-09-22T08:36:25.000Z</time>
      </trkpt>
      <trkpt lat="45.06499" lon="0.59916">
        <ele>113.59999847412</ele>
        <time>2020-09-22T08:36:26.000Z</time>
      </trkpt>
      <trkpt lat="45.06502" lon="0.59918">
        <ele>114</ele>
        <time>2020-09-22T08:36:27.000Z</time>
      </trkpt>
      <trkpt lat="45.06505" lon="0.5992">
        <ele>114.19999694824</ele>
        <time>2020-09-22T08:36:28.000Z</time>
      </trkpt>
      <trkpt lat="45.06508" lon="0.59922">
        <ele>114.59999847412</ele>
        <time>2020-09-22T08:36:29.000Z</time>
      </trkpt>
      <trkpt lat="45.06511" lon="0.59924">
        <ele>114.80000305176</ele>
        <time>2020-09-22T08:36:30.000Z</time>
      </trkpt>
      <trkpt lat="45.06513" lon="0.59926">
        <ele>115</ele>
        <time>2020-09-22T08:36:31.000Z</time>
      </trkpt>
      <trkpt lat="45.06517" lon="0.59928">
        <ele>115.40000152588</ele>
        <time>2020-09-22T08:36:32.000Z</time>
      </trkpt>
      <trkpt lat="45.0652" lon="0.5993">
        <ele>115.59999847412</ele>
        <time>2020-09-22T08:36:33.000Z</time>
      </trkpt>
      <trkpt lat="45.06522" lon="0.59932">
        <ele>115.80000305176</ele>
        <time>2020-09-22T08:36:34.000Z</time>
      </trkpt>
      <trkpt lat="45.06525" lon="0.59934">
        <ele>116</ele>
        <time>2020-09-22T08:36:35.000Z</time>
      </trkpt>
      <trkpt lat="45.06527" lon="0.59936">
        <ele>116.19999694824</ele>
        <time>2020-09-22T08:36:36.000Z</time>
      </trkpt>
      <trkpt lat="45.06529" lon="0.59937">
        <ele>116.40000152588</ele>
        <time>2020-09-22T08:36:37.000Z</time>
      </trkpt>
      <trkpt lat="45.06532" lon="0.59938">
        <ele>116.59999847412</ele>
        <time>2020-09-22T08:36:38.000Z</time>
      </trkpt>
      <trkpt lat="45.06534" lon="0.59938">
        <ele>116.80000305176</ele>
        <time>2020-09-22T08:36:39.000Z</time>
      </trkpt>
      <trkpt lat="45.06536" lon="0.59938">
        <ele>117</ele>
        <time>2020-09-22T08:36:40.000Z</time>
      </trkpt>
      <trkpt lat="45.06538" lon="0.59939">
        <ele>117.19999694824</ele>
        <time>2020-09-22T08:36:41.000Z</time>
      </trkpt>
      <trkpt lat="45.0654" lon="0.59938">
        <ele>117.40000152588</ele>
        <time>2020-09-22T08:36:42.000Z</time>
      </trkpt>
      <trkpt lat="45.06543" lon="0.59937">
        <ele>117.59999847412</ele>
        <time>2020-09-22T08:36:43.000Z</time>
      </trkpt>
      <trkpt lat="45.06545" lon="0.59937">
        <ele>118.19999694824</ele>
        <time>2020-09-22T08:36:44.000Z</time>
      </trkpt>
      <trkpt lat="45.06547" lon="0.59937">
        <ele>118.80000305176</ele>
        <time>2020-09-22T08:36:45.000Z</time>
      </trkpt>
      <trkpt lat="45.0655" lon="0.59937">
        <ele>119.59999847412</ele>
        <time>2020-09-22T08:36:46.000Z</time>
      </trkpt>
      <trkpt lat="45.06552" lon="0.59937">
        <ele>120.19999694824</ele>
        <time>2020-09-22T08:36:47.000Z</time>
      </trkpt>
      <trkpt lat="45.06555" lon="0.59936">
        <ele>121</ele>
        <time>2020-09-22T08:36:48.000Z</time>
      </trkpt>
      <trkpt lat="45.06558" lon="0.59936">
        <ele>121.80000305176</ele>
        <time>2020-09-22T08:36:49.000Z</time>
      </trkpt>
      <trkpt lat="45.0656" lon="0.59936">
        <ele>122.40000152588</ele>
        <time>2020-09-22T08:36:50.000Z</time>
      </trkpt>
      <trkpt lat="45.06562" lon="0.59936">
        <ele>123</ele>
        <time>2020-09-22T08:36:51.000Z</time>
      </trkpt>
      <trkpt lat="45.06564" lon="0.59936">
        <ele>123.59999847412</ele>
        <time>2020-09-22T08:36:52.000Z</time>
      </trkpt>
      <trkpt lat="45.06567" lon="0.59935">
        <ele>124.19999694824</ele>
        <time>2020-09-22T08:36:53.000Z</time>
      </trkpt>
      <trkpt lat="45.06569" lon="0.59935">
        <ele>124.80000305176</ele>
        <time>2020-09-22T08:36:54.000Z</time>
      </trkpt>
      <trkpt lat="45.06571" lon="0.59935">
        <ele>125.40000152588</ele>
        <time>2020-09-22T08:36:55.000Z</time>
      </trkpt>
      <trkpt lat="45.06573" lon="0.59934">
        <ele>126</ele>
        <time>2020-09-22T08:36:56.000Z</time>
      </trkpt>
      <trkpt lat="45.06576" lon="0.59934">
        <ele>126.59999847412</ele>
        <time>2020-09-22T08:36:57.000Z</time>
      </trkpt>
      <trkpt lat="45.06578" lon="0.59933">
        <ele>127.19999694824</ele>
        <time>2020-09-22T08:36:58.000Z</time>
      </trkpt>
      <trkpt lat="45.0658" lon="0.59933">
        <ele>127.80000305176</ele>
        <time>2020-09-22T08:36:59.000Z</time>
      </trkpt>
      <trkpt lat="45.06582" lon="0.59932">
        <ele>128.39999389648</ele>
        <time>2020-09-22T08:37:00.000Z</time>
      </trkpt>
      <trkpt lat="45.06585" lon="0.59932">
        <ele>129</ele>
        <time>2020-09-22T08:37:01.000Z</time>
      </trkpt>
      <trkpt lat="45.06587" lon="0.59931">
        <ele>129.60000610352</ele>
        <time>2020-09-22T08:37:02.000Z</time>
      </trkpt>
      <trkpt lat="45.0659" lon="0.59929">
        <ele>130.80000305176</ele>
        <time>2020-09-22T08:37:03.000Z</time>
      </trkpt>
      <trkpt lat="45.06592" lon="0.59929">
        <ele>131.19999694824</ele>
        <time>2020-09-22T08:37:04.000Z</time>
      </trkpt>
      <trkpt lat="45.06592" lon="0.59929">
        <ele>131.19999694824</ele>
        <time>2020-09-22T08:37:05.000Z</time>
      </trkpt>
      <trkpt lat="45.06594" lon="0.59928">
        <ele>131.80000305176</ele>
        <time>2020-09-22T08:37:06.000Z</time>
      </trkpt>
      <trkpt lat="45.06595" lon="0.59928">
        <ele>132.19999694824</ele>
        <time>2020-09-22T08:37:07.000Z</time>
      </trkpt>
      <trkpt lat="45.06597" lon="0.59927">
        <ele>132.80000305176</ele>
        <time>2020-09-22T08:37:08.000Z</time>
      </trkpt>
      <trkpt lat="45.066" lon="0.59927">
        <ele>133.60000610352</ele>
        <time>2020-09-22T08:37:09.000Z</time>
      </trkpt>
      <trkpt lat="45.06602" lon="0.59926">
        <ele>134.19999694824</ele>
        <time>2020-09-22T08:37:10.000Z</time>
      </trkpt>
      <trkpt lat="45.06604" lon="0.59926">
        <ele>134.80000305176</ele>
        <time>2020-09-22T08:37:11.000Z</time>
      </trkpt>
      <trkpt lat="45.06606" lon="0.59925">
        <ele>135.39999389648</ele>
        <time>2020-09-22T08:37:12.000Z</time>
      </trkpt>
      <trkpt lat="45.06608" lon="0.59924">
        <ele>136.19999694824</ele>
        <time>2020-09-22T08:37:13.000Z</time>
      </trkpt>
      <trkpt lat="45.0661" lon="0.59924">
        <ele>136.80000305176</ele>
        <time>2020-09-22T08:37:14.000Z</time>
      </trkpt>
      <trkpt lat="45.06612" lon="0.59923">
        <ele>137.19999694824</ele>
        <time>2020-09-22T08:37:15.000Z</time>
      </trkpt>
      <trkpt lat="45.06614" lon="0.59924">
        <ele>137.80000305176</ele>
        <time>2020-09-22T08:37:16.000Z</time>
      </trkpt>
      <trkpt lat="45.06616" lon="0.59925">
        <ele>138.39999389648</ele>
        <time>2020-09-22T08:37:17.000Z</time>
      </trkpt>
      <trkpt lat="45.06617" lon="0.59926">
        <ele>138.80000305176</ele>
        <time>2020-09-22T08:37:18.000Z</time>
      </trkpt>
      <trkpt lat="45.06619" lon="0.59926">
        <ele>139.39999389648</ele>
        <time>2020-09-22T08:37:19.000Z</time>
      </trkpt>
      <trkpt lat="45.06621" lon="0.59926">
        <ele>140</ele>
        <time>2020-09-22T08:37:20.000Z</time>
      </trkpt>
      <trkpt lat="45.06624" lon="0.59926">
        <ele>140.80000305176</ele>
        <time>2020-09-22T08:37:21.000Z</time>
      </trkpt>
      <trkpt lat="45.06626" lon="0.59926">
        <ele>141.39999389648</ele>
        <time>2020-09-22T08:37:22.000Z</time>
      </trkpt>
      <trkpt lat="45.06629" lon="0.59926">
        <ele>142.39999389648</ele>
        <time>2020-09-22T08:37:23.000Z</time>
      </trkpt>
      <trkpt lat="45.06631" lon="0.59926">
        <ele>143.19999694824</ele>
        <time>2020-09-22T08:37:24.000Z</time>
      </trkpt>
      <trkpt lat="45.06634" lon="0.59926">
        <ele>144</ele>
        <time>2020-09-22T08:37:25.000Z</time>
      </trkpt>
      <trkpt lat="45.06636" lon="0.59926">
        <ele>145</ele>
        <time>2020-09-22T08:37:26.000Z</time>
      </trkpt>
      <trkpt lat="45.06639" lon="0.59926">
        <ele>145.60000610352</ele>
        <time>2020-09-22T08:37:27.000Z</time>
      </trkpt>
      <trkpt lat="45.06641" lon="0.59926">
        <ele>146.60000610352</ele>
        <time>2020-09-22T08:37:28.000Z</time>
      </trkpt>
      <trkpt lat="45.06644" lon="0.59926">
        <ele>147.39999389648</ele>
        <time>2020-09-22T08:37:29.000Z</time>
      </trkpt>
      <trkpt lat="45.06646" lon="0.59926">
        <ele>148.19999694824</ele>
        <time>2020-09-22T08:37:30.000Z</time>
      </trkpt>
      <trkpt lat="45.06648" lon="0.59926">
        <ele>148.80000305176</ele>
        <time>2020-09-22T08:37:31.000Z</time>
      </trkpt>
      <trkpt lat="45.06649" lon="0.59926">
        <ele>149.19999694824</ele>
        <time>2020-09-22T08:37:32.000Z</time>
      </trkpt>
      <trkpt lat="45.06651" lon="0.59926">
        <ele>149.80000305176</ele>
        <time>2020-09-22T08:37:33.000Z</time>
      </trkpt>
      <trkpt lat="45.06653" lon="0.59926">
        <ele>150.39999389648</ele>
        <time>2020-09-22T08:37:34.000Z</time>
      </trkpt>
      <trkpt lat="45.06655" lon="0.59926">
        <ele>151.19999694824</ele>
        <time>2020-09-22T08:37:35.000Z</time>
      </trkpt>
      <trkpt lat="45.06657" lon="0.59925">
        <ele>151.60000610352</ele>
        <time>2020-09-22T08:37:36.000Z</time>
      </trkpt>
      <trkpt lat="45.06658" lon="0.59925">
        <ele>152.19999694824</ele>
        <time>2020-09-22T08:37:37.000Z</time>
      </trkpt>
      <trkpt lat="45.0666" lon="0.59925">
        <ele>152.80000305176</ele>
        <time>2020-09-22T08:37:38.000Z</time>
      </trkpt>
      <trkpt lat="45.06661" lon="0.59924">
        <ele>153</ele>
        <time>2020-09-22T08:37:39.000Z</time>
      </trkpt>
      <trkpt lat="45.06662" lon="0.59924">
        <ele>153.60000610352</ele>
        <time>2020-09-22T08:37:40.000Z</time>
      </trkpt>
      <trkpt lat="45.06664" lon="0.59923">
        <ele>154</ele>
        <time>2020-09-22T08:37:41.000Z</time>
      </trkpt>
      <trkpt lat="45.06665" lon="0.59922">
        <ele>154.39999389648</ele>
        <time>2020-09-22T08:37:42.000Z</time>
      </trkpt>
      <trkpt lat="45.06666" lon="0.59922">
        <ele>154.60000610352</ele>
        <time>2020-09-22T08:37:43.000Z</time>
      </trkpt>
      <trkpt lat="45.06668" lon="0.59921">
        <ele>155.19999694824</ele>
        <time>2020-09-22T08:37:44.000Z</time>
      </trkpt>
      <trkpt lat="45.06671" lon="0.5992">
        <ele>155.80000305176</ele>
        <time>2020-09-22T08:37:45.000Z</time>
      </trkpt>
      <trkpt lat="45.06673" lon="0.59918">
        <ele>156.39999389648</ele>
        <time>2020-09-22T08:37:46.000Z</time>
      </trkpt>
      <trkpt lat="45.06675" lon="0.59916">
        <ele>156.80000305176</ele>
        <time>2020-09-22T08:37:47.000Z</time>
      </trkpt>
      <trkpt lat="45.06677" lon="0.59914">
        <ele>157</ele>
        <time>2020-09-22T08:37:48.000Z</time>
      </trkpt>
      <trkpt lat="45.06678" lon="0.59913">
        <ele>157.39999389648</ele>
        <time>2020-09-22T08:37:49.000Z</time>
      </trkpt>
      <trkpt lat="45.0668" lon="0.59912">
        <ele>157.80000305176</ele>
        <time>2020-09-22T08:37:50.000Z</time>
      </trkpt>
      <trkpt lat="45.06682" lon="0.59911">
        <ele>158.19999694824</ele>
        <time>2020-09-22T08:37:51.000Z</time>
      </trkpt>
      <trkpt lat="45.06682" lon="0.5991">
        <ele>158.19999694824</ele>
        <time>2020-09-22T08:37:52.000Z</time>
      </trkpt>
      <trkpt lat="45.06683" lon="0.59908">
        <ele>158.19999694824</ele>
        <time>2020-09-22T08:37:53.000Z</time>
      </trkpt>
      <trkpt lat="45.06684" lon="0.59906">
        <ele>158.60000610352</ele>
        <time>2020-09-22T08:37:54.000Z</time>
      </trkpt>
      <trkpt lat="45.06685" lon="0.59905">
        <ele>158.80000305176</ele>
        <time>2020-09-22T08:37:55.000Z</time>
      </trkpt>
      <trkpt lat="45.06687" lon="0.59904">
        <ele>159</ele>
        <time>2020-09-22T08:37:56.000Z</time>
      </trkpt>
      <trkpt lat="45.06687" lon="0.59902">
        <ele>159.19999694824</ele>
        <time>2020-09-22T08:37:57.000Z</time>
      </trkpt>
      <trkpt lat="45.0669" lon="0.59899">
        <ele>159.60000610352</ele>
        <time>2020-09-22T08:37:58.000Z</time>
      </trkpt>
      <trkpt lat="45.0669" lon="0.59898">
        <ele>159.60000610352</ele>
        <time>2020-09-22T08:37:59.000Z</time>
      </trkpt>
      <trkpt lat="45.06692" lon="0.59897">
        <ele>160.19999694824</ele>
        <time>2020-09-22T08:38:00.000Z</time>
      </trkpt>
      <trkpt lat="45.06694" lon="0.59894">
        <ele>160.60000610352</ele>
        <time>2020-09-22T08:38:01.000Z</time>
      </trkpt>
      <trkpt lat="45.06697" lon="0.59891">
        <ele>161</ele>
        <time>2020-09-22T08:38:02.000Z</time>
      </trkpt>
      <trkpt lat="45.06698" lon="0.5989">
        <ele>161.19999694824</ele>
        <time>2020-09-22T08:38:03.000Z</time>
      </trkpt>
      <trkpt lat="45.06698" lon="0.5989">
        <ele>161.19999694824</ele>
        <time>2020-09-22T08:38:04.000Z</time>
      </trkpt>
      <trkpt lat="45.06699" lon="0.59888">
        <ele>161.39999389648</ele>
        <time>2020-09-22T08:38:05.000Z</time>
      </trkpt>
      <trkpt lat="45.067" lon="0.59887">
        <ele>161.80000305176</ele>
        <time>2020-09-22T08:38:06.000Z</time>
      </trkpt>
      <trkpt lat="45.06703" lon="0.59885">
        <ele>162.39999389648</ele>
        <time>2020-09-22T08:38:07.000Z</time>
      </trkpt>
      <trkpt lat="45.06705" lon="0.59883">
        <ele>162.80000305176</ele>
        <time>2020-09-22T08:38:08.000Z</time>
      </trkpt>
      <trkpt lat="45.06706" lon="0.59883">
        <ele>163.39999389648</ele>
        <time>2020-09-22T08:38:09.000Z</time>
      </trkpt>
      <trkpt lat="45.06708" lon="0.59882">
        <ele>163.80000305176</ele>
        <time>2020-09-22T08:38:10.000Z</time>
      </trkpt>
      <trkpt lat="45.0671" lon="0.59881">
        <ele>164.39999389648</ele>
        <time>2020-09-22T08:38:11.000Z</time>
      </trkpt>
      <trkpt lat="45.06711" lon="0.59879">
        <ele>164.80000305176</ele>
        <time>2020-09-22T08:38:12.000Z</time>
      </trkpt>
      <trkpt lat="45.06713" lon="0.59879">
        <ele>165</ele>
        <time>2020-09-22T08:38:13.000Z</time>
      </trkpt>
      <trkpt lat="45.06714" lon="0.59879">
        <ele>165.19999694824</ele>
        <time>2020-09-22T08:38:14.000Z</time>
      </trkpt>
      <trkpt lat="45.06715" lon="0.59879">
        <ele>165.60000610352</ele>
        <time>2020-09-22T08:38:15.000Z</time>
      </trkpt>
      <trkpt lat="45.06716" lon="0.59879">
        <ele>165.80000305176</ele>
        <time>2020-09-22T08:38:16.000Z</time>
      </trkpt>
      <trkpt lat="45.06717" lon="0.59879">
        <ele>166.19999694824</ele>
        <time>2020-09-22T08:38:17.000Z</time>
      </trkpt>
      <trkpt lat="45.06719" lon="0.59879">
        <ele>166.39999389648</ele>
        <time>2020-09-22T08:38:18.000Z</time>
      </trkpt>
      <trkpt lat="45.0672" lon="0.59879">
        <ele>166.60000610352</ele>
        <time>2020-09-22T08:38:19.000Z</time>
      </trkpt>
      <trkpt lat="45.06721" lon="0.59879">
        <ele>167</ele>
        <time>2020-09-22T08:38:20.000Z</time>
      </trkpt>
      <trkpt lat="45.06722" lon="0.59877">
        <ele>167.39999389648</ele>
        <time>2020-09-22T08:38:21.000Z</time>
      </trkpt>
      <trkpt lat="45.06724" lon="0.59876">
        <ele>168</ele>
        <time>2020-09-22T08:38:22.000Z</time>
      </trkpt>
      <trkpt lat="45.06726" lon="0.59875">
        <ele>168.60000610352</ele>
        <time>2020-09-22T08:38:23.000Z</time>
      </trkpt>
      <trkpt lat="45.06729" lon="0.59874">
        <ele>169.19999694824</ele>
        <time>2020-09-22T08:38:24.000Z</time>
      </trkpt>
      <trkpt lat="45.06732" lon="0.59871">
        <ele>170</ele>
        <time>2020-09-22T08:38:25.000Z</time>
      </trkpt>
      <trkpt lat="45.06733" lon="0.59868">
        <ele>170.60000610352</ele>
        <time>2020-09-22T08:38:26.000Z</time>
      </trkpt>
      <trkpt lat="45.06735" lon="0.59866">
        <ele>171</ele>
        <time>2020-09-22T08:38:27.000Z</time>
      </trkpt>
      <trkpt lat="45.06735" lon="0.59863">
        <ele>171.19999694824</ele>
        <time>2020-09-22T08:38:28.000Z</time>
      </trkpt>
      <trkpt lat="45.06735" lon="0.59862">
        <ele>171.39999389648</ele>
        <time>2020-09-22T08:38:29.000Z</time>
      </trkpt>
      <trkpt lat="45.06736" lon="0.59861">
        <ele>171.39999389648</ele>
        <time>2020-09-22T08:38:30.000Z</time>
      </trkpt>
      <trkpt lat="45.06735" lon="0.5986">
        <ele>171.39999389648</ele>
        <time>2020-09-22T08:38:31.000Z</time>
      </trkpt>
      <trkpt lat="45.06735" lon="0.59859">
        <ele>171.39999389648</ele>
        <time>2020-09-22T08:38:32.000Z</time>
      </trkpt>
      <trkpt lat="45.06735" lon="0.59858">
        <ele>171.39999389648</ele>
        <time>2020-09-22T08:38:33.000Z</time>
      </trkpt>
      <trkpt lat="45.06735" lon="0.59856">
        <ele>171.39999389648</ele>
        <time>2020-09-22T08:38:34.000Z</time>
      </trkpt>
      <trkpt lat="45.06734" lon="0.59854">
        <ele>171.19999694824</ele>
        <time>2020-09-22T08:38:35.000Z</time>
      </trkpt>
      <trkpt lat="45.06733" lon="0.59853">
        <ele>171.19999694824</ele>
        <time>2020-09-22T08:38:36.000Z</time>
      </trkpt>
      <trkpt lat="45.06733" lon="0.59851">
        <ele>171.19999694824</ele>
        <time>2020-09-22T08:38:37.000Z</time>
      </trkpt>
      <trkpt lat="45.06732" lon="0.5985">
        <ele>171.19999694824</ele>
        <time>2020-09-22T08:38:38.000Z</time>
      </trkpt>
      <trkpt lat="45.06732" lon="0.59849">
        <ele>171</ele>
        <time>2020-09-22T08:38:39.000Z</time>
      </trkpt>
      <trkpt lat="45.06731" lon="0.59847">
        <ele>171</ele>
        <time>2020-09-22T08:38:40.000Z</time>
      </trkpt>
      <trkpt lat="45.06731" lon="0.59846">
        <ele>171</ele>
        <time>2020-09-22T08:38:41.000Z</time>
      </trkpt>
      <trkpt lat="45.06731" lon="0.59844">
        <ele>171.19999694824</ele>
        <time>2020-09-22T08:38:42.000Z</time>
      </trkpt>
      <trkpt lat="45.06732" lon="0.59842">
        <ele>171.39999389648</ele>
        <time>2020-09-22T08:38:43.000Z</time>
      </trkpt>
      <trkpt lat="45.06733" lon="0.59839">
        <ele>171.60000610352</ele>
        <time>2020-09-22T08:38:44.000Z</time>
      </trkpt>
      <trkpt lat="45.06734" lon="0.59838">
        <ele>172.19999694824</ele>
        <time>2020-09-22T08:38:45.000Z</time>
      </trkpt>
      <trkpt lat="45.06736" lon="0.59838">
        <ele>172.39999389648</ele>
        <time>2020-09-22T08:38:46.000Z</time>
      </trkpt>
      <trkpt lat="45.06737" lon="0.59838">
        <ele>172.80000305176</ele>
        <time>2020-09-22T08:38:47.000Z</time>
      </trkpt>
      <trkpt lat="45.06739" lon="0.59839">
        <ele>173.19999694824</ele>
        <time>2020-09-22T08:38:48.000Z</time>
      </trkpt>
      <trkpt lat="45.0674" lon="0.59839">
        <ele>173.60000610352</ele>
        <time>2020-09-22T08:38:49.000Z</time>
      </trkpt>
      <trkpt lat="45.06741" lon="0.59839">
        <ele>173.80000305176</ele>
        <time>2020-09-22T08:38:50.000Z</time>
      </trkpt>
      <trkpt lat="45.06744" lon="0.5984">
        <ele>174.39999389648</ele>
        <time>2020-09-22T08:38:51.000Z</time>
      </trkpt>
      <trkpt lat="45.06745" lon="0.5984">
        <ele>174.80000305176</ele>
        <time>2020-09-22T08:38:52.000Z</time>
      </trkpt>
      <trkpt lat="45.06746" lon="0.5984">
        <ele>175</ele>
        <time>2020-09-22T08:38:53.000Z</time>
      </trkpt>
      <trkpt lat="45.06748" lon="0.5984">
        <ele>175.19999694824</ele>
        <time>2020-09-22T08:38:54.000Z</time>
      </trkpt>
      <trkpt lat="45.06749" lon="0.5984">
        <ele>175.60000610352</ele>
        <time>2020-09-22T08:38:55.000Z</time>
      </trkpt>
      <trkpt lat="45.0675" lon="0.5984">
        <ele>175.80000305176</ele>
        <time>2020-09-22T08:38:56.000Z</time>
      </trkpt>
      <trkpt lat="45.06752" lon="0.59839">
        <ele>176.39999389648</ele>
        <time>2020-09-22T08:38:57.000Z</time>
      </trkpt>
      <trkpt lat="45.06754" lon="0.59838">
        <ele>176.80000305176</ele>
        <time>2020-09-22T08:38:58.000Z</time>
      </trkpt>
      <trkpt lat="45.06758" lon="0.59837">
        <ele>177.60000610352</ele>
        <time>2020-09-22T08:38:59.000Z</time>
      </trkpt>
      <trkpt lat="45.06759" lon="0.59837">
        <ele>177.80000305176</ele>
        <time>2020-09-22T08:39:00.000Z</time>
      </trkpt>
      <trkpt lat="45.06759" lon="0.59837">
        <ele>177.80000305176</ele>
        <time>2020-09-22T08:39:01.000Z</time>
      </trkpt>
      <trkpt lat="45.06761" lon="0.59837">
        <ele>178.19999694824</ele>
        <time>2020-09-22T08:39:02.000Z</time>
      </trkpt>
      <trkpt lat="45.06762" lon="0.59838">
        <ele>178.60000610352</ele>
        <time>2020-09-22T08:39:03.000Z</time>
      </trkpt>
      <trkpt lat="45.06764" lon="0.59838">
        <ele>178.80000305176</ele>
        <time>2020-09-22T08:39:04.000Z</time>
      </trkpt>
      <trkpt lat="45.06766" lon="0.59839">
        <ele>179.19999694824</ele>
        <time>2020-09-22T08:39:05.000Z</time>
      </trkpt>
      <trkpt lat="45.06767" lon="0.59839">
        <ele>179.60000610352</ele>
        <time>2020-09-22T08:39:06.000Z</time>
      </trkpt>
      <trkpt lat="45.06768" lon="0.59839">
        <ele>179.80000305176</ele>
        <time>2020-09-22T08:39:07.000Z</time>
      </trkpt>
      <trkpt lat="45.0677" lon="0.59839">
        <ele>180</ele>
        <time>2020-09-22T08:39:08.000Z</time>
      </trkpt>
      <trkpt lat="45.06772" lon="0.5984">
        <ele>180.39999389648</ele>
        <time>2020-09-22T08:39:09.000Z</time>
      </trkpt>
      <trkpt lat="45.06774" lon="0.5984">
        <ele>181</ele>
        <time>2020-09-22T08:39:10.000Z</time>
      </trkpt>
      <trkpt lat="45.06775" lon="0.59841">
        <ele>181.19999694824</ele>
        <time>2020-09-22T08:39:11.000Z</time>
      </trkpt>
      <trkpt lat="45.06777" lon="0.59842">
        <ele>181.60000610352</ele>
        <time>2020-09-22T08:39:12.000Z</time>
      </trkpt>
      <trkpt lat="45.06778" lon="0.59843">
        <ele>181.80000305176</ele>
        <time>2020-09-22T08:39:13.000Z</time>
      </trkpt>
      <trkpt lat="45.0678" lon="0.59844">
        <ele>182.19999694824</ele>
        <time>2020-09-22T08:39:14.000Z</time>
      </trkpt>
      <trkpt lat="45.06782" lon="0.59845">
        <ele>182.60000610352</ele>
        <time>2020-09-22T08:39:15.000Z</time>
      </trkpt>
      <trkpt lat="45.06784" lon="0.59846">
        <ele>183</ele>
        <time>2020-09-22T08:39:16.000Z</time>
      </trkpt>
      <trkpt lat="45.06786" lon="0.59847">
        <ele>183.39999389648</ele>
        <time>2020-09-22T08:39:17.000Z</time>
      </trkpt>
      <trkpt lat="45.06788" lon="0.59848">
        <ele>183.80000305176</ele>
        <time>2020-09-22T08:39:18.000Z</time>
      </trkpt>
      <trkpt lat="45.06791" lon="0.59849">
        <ele>184.39999389648</ele>
        <time>2020-09-22T08:39:19.000Z</time>
      </trkpt>
      <trkpt lat="45.06792" lon="0.5985">
        <ele>184.80000305176</ele>
        <time>2020-09-22T08:39:20.000Z</time>
      </trkpt>
      <trkpt lat="45.06794" lon="0.59851">
        <ele>185</ele>
        <time>2020-09-22T08:39:21.000Z</time>
      </trkpt>
      <trkpt lat="45.06796" lon="0.59853">
        <ele>185.60000610352</ele>
        <time>2020-09-22T08:39:22.000Z</time>
      </trkpt>
      <trkpt lat="45.06798" lon="0.59855">
        <ele>185.80000305176</ele>
        <time>2020-09-22T08:39:23.000Z</time>
      </trkpt>
      <trkpt lat="45.06798" lon="0.59858">
        <ele>185.80000305176</ele>
        <time>2020-09-22T08:39:24.000Z</time>
      </trkpt>
      <trkpt lat="45.06799" lon="0.5986">
        <ele>186</ele>
        <time>2020-09-22T08:39:25.000Z</time>
      </trkpt>
      <trkpt lat="45.068" lon="0.59862">
        <ele>186.19999694824</ele>
        <time>2020-09-22T08:39:26.000Z</time>
      </trkpt>
      <trkpt lat="45.06801" lon="0.59865">
        <ele>186.19999694824</ele>
        <time>2020-09-22T08:39:27.000Z</time>
      </trkpt>
      <trkpt lat="45.06801" lon="0.59867">
        <ele>186.19999694824</ele>
        <time>2020-09-22T08:39:28.000Z</time>
      </trkpt>
      <trkpt lat="45.06803" lon="0.59871">
        <ele>186.60000610352</ele>
        <time>2020-09-22T08:39:29.000Z</time>
      </trkpt>
      <trkpt lat="45.06804" lon="0.59873">
        <ele>186.60000610352</ele>
        <time>2020-09-22T08:39:30.000Z</time>
      </trkpt>
      <trkpt lat="45.06804" lon="0.59875">
        <ele>186.80000305176</ele>
        <time>2020-09-22T08:39:31.000Z</time>
      </trkpt>
      <trkpt lat="45.06805" lon="0.59878">
        <ele>186.80000305176</ele>
        <time>2020-09-22T08:39:32.000Z</time>
      </trkpt>
      <trkpt lat="45.06805" lon="0.5988">
        <ele>186.80000305176</ele>
        <time>2020-09-22T08:39:33.000Z</time>
      </trkpt>
      <trkpt lat="45.06805" lon="0.59882">
        <ele>186.80000305176</ele>
        <time>2020-09-22T08:39:34.000Z</time>
      </trkpt>
      <trkpt lat="45.06806" lon="0.59885">
        <ele>186.80000305176</ele>
        <time>2020-09-22T08:39:35.000Z</time>
      </trkpt>
      <trkpt lat="45.06806" lon="0.59887">
        <ele>187</ele>
        <time>2020-09-22T08:39:36.000Z</time>
      </trkpt>
      <trkpt lat="45.06807" lon="0.59888">
        <ele>187</ele>
        <time>2020-09-22T08:39:37.000Z</time>
      </trkpt>
      <trkpt lat="45.06807" lon="0.5989">
        <ele>187.19999694824</ele>
        <time>2020-09-22T08:39:38.000Z</time>
      </trkpt>
      <trkpt lat="45.06808" lon="0.59892">
        <ele>187.19999694824</ele>
        <time>2020-09-22T08:39:39.000Z</time>
      </trkpt>
      <trkpt lat="45.06809" lon="0.59894">
        <ele>187.60000610352</ele>
        <time>2020-09-22T08:39:40.000Z</time>
      </trkpt>
      <trkpt lat="45.06811" lon="0.59897">
        <ele>188.19999694824</ele>
        <time>2020-09-22T08:39:41.000Z</time>
      </trkpt>
      <trkpt lat="45.06812" lon="0.59899">
        <ele>188.39999389648</ele>
        <time>2020-09-22T08:39:42.000Z</time>
      </trkpt>
      <trkpt lat="45.06813" lon="0.59899">
        <ele>188.60000610352</ele>
        <time>2020-09-22T08:39:43.000Z</time>
      </trkpt>
      <trkpt lat="45.06815" lon="0.59901">
        <ele>188.80000305176</ele>
        <time>2020-09-22T08:39:44.000Z</time>
      </trkpt>
      <trkpt lat="45.06816" lon="0.59905">
        <ele>189.19999694824</ele>
        <time>2020-09-22T08:39:45.000Z</time>
      </trkpt>
      <trkpt lat="45.06818" lon="0.59908">
        <ele>189.60000610352</ele>
        <time>2020-09-22T08:39:46.000Z</time>
      </trkpt>
      <trkpt lat="45.06818" lon="0.59911">
        <ele>189.80000305176</ele>
        <time>2020-09-22T08:39:47.000Z</time>
      </trkpt>
      <trkpt lat="45.06818" lon="0.59914">
        <ele>190.19999694824</ele>
        <time>2020-09-22T08:39:48.000Z</time>
      </trkpt>
      <trkpt lat="45.0682" lon="0.59917">
        <ele>190.60000610352</ele>
        <time>2020-09-22T08:39:49.000Z</time>
      </trkpt>
      <trkpt lat="45.0682" lon="0.59921">
        <ele>191</ele>
        <time>2020-09-22T08:39:50.000Z</time>
      </trkpt>
      <trkpt lat="45.0682" lon="0.59924">
        <ele>191.19999694824</ele>
        <time>2020-09-22T08:39:51.000Z</time>
      </trkpt>
      <trkpt lat="45.0682" lon="0.59926">
        <ele>191.39999389648</ele>
        <time>2020-09-22T08:39:52.000Z</time>
      </trkpt>
      <trkpt lat="45.0682" lon="0.59929">
        <ele>191.60000610352</ele>
        <time>2020-09-22T08:39:53.000Z</time>
      </trkpt>
      <trkpt lat="45.06819" lon="0.59932">
        <ele>191.80000305176</ele>
        <time>2020-09-22T08:39:54.000Z</time>
      </trkpt>
      <trkpt lat="45.06819" lon="0.59936">
        <ele>192</ele>
        <time>2020-09-22T08:39:55.000Z</time>
      </trkpt>
      <trkpt lat="45.06818" lon="0.59939">
        <ele>192.19999694824</ele>
        <time>2020-09-22T08:39:56.000Z</time>
      </trkpt>
      <trkpt lat="45.06819" lon="0.59942">
        <ele>192.60000610352</ele>
        <time>2020-09-22T08:39:57.000Z</time>
      </trkpt>
      <trkpt lat="45.06818" lon="0.59946">
        <ele>192.80000305176</ele>
        <time>2020-09-22T08:39:58.000Z</time>
      </trkpt>
      <trkpt lat="45.06818" lon="0.59951">
        <ele>193.19999694824</ele>
        <time>2020-09-22T08:39:59.000Z</time>
      </trkpt>
      <trkpt lat="45.06817" lon="0.59954">
        <ele>193.19999694824</ele>
        <time>2020-09-22T08:40:00.000Z</time>
      </trkpt>
      <trkpt lat="45.06817" lon="0.59954">
        <ele>193.19999694824</ele>
        <time>2020-09-22T08:40:01.000Z</time>
      </trkpt>
      <trkpt lat="45.06816" lon="0.59957">
        <ele>193.39999389648</ele>
        <time>2020-09-22T08:40:02.000Z</time>
      </trkpt>
      <trkpt lat="45.06815" lon="0.59959">
        <ele>193.39999389648</ele>
        <time>2020-09-22T08:40:03.000Z</time>
      </trkpt>
      <trkpt lat="45.06815" lon="0.59961">
        <ele>193.60000610352</ele>
        <time>2020-09-22T08:40:04.000Z</time>
      </trkpt>
      <trkpt lat="45.06815" lon="0.59964">
        <ele>193.80000305176</ele>
        <time>2020-09-22T08:40:05.000Z</time>
      </trkpt>
      <trkpt lat="45.06815" lon="0.59966">
        <ele>194</ele>
        <time>2020-09-22T08:40:06.000Z</time>
      </trkpt>
      <trkpt lat="45.06815" lon="0.59969">
        <ele>194.19999694824</ele>
        <time>2020-09-22T08:40:07.000Z</time>
      </trkpt>
      <trkpt lat="45.06813" lon="0.5997">
        <ele>194</ele>
        <time>2020-09-22T08:40:08.000Z</time>
      </trkpt>
      <trkpt lat="45.06814" lon="0.59971">
        <ele>194</ele>
        <time>2020-09-22T08:40:09.000Z</time>
      </trkpt>
      <trkpt lat="45.06814" lon="0.59972">
        <ele>194.19999694824</ele>
        <time>2020-09-22T08:40:10.000Z</time>
      </trkpt>
      <trkpt lat="45.06816" lon="0.59972">
        <ele>194.19999694824</ele>
        <time>2020-09-22T08:40:11.000Z</time>
      </trkpt>
      <trkpt lat="45.06817" lon="0.59972">
        <ele>194.39999389648</ele>
        <time>2020-09-22T08:40:12.000Z</time>
      </trkpt>
      <trkpt lat="45.06818" lon="0.59971">
        <ele>194.60000610352</ele>
        <time>2020-09-22T08:40:13.000Z</time>
      </trkpt>
      <trkpt lat="45.06819" lon="0.5997">
        <ele>194.80000305176</ele>
        <time>2020-09-22T08:40:14.000Z</time>
      </trkpt>
      <trkpt lat="45.0682" lon="0.59969">
        <ele>195</ele>
        <time>2020-09-22T08:40:15.000Z</time>
      </trkpt>
      <trkpt lat="45.06821" lon="0.59968">
        <ele>195</ele>
        <time>2020-09-22T08:40:16.000Z</time>
      </trkpt>
      <trkpt lat="45.06823" lon="0.59966">
        <ele>195.19999694824</ele>
        <time>2020-09-22T08:40:17.000Z</time>
      </trkpt>
      <trkpt lat="45.06824" lon="0.59965">
        <ele>195.19999694824</ele>
        <time>2020-09-22T08:40:18.000Z</time>
      </trkpt>
      <trkpt lat="45.06826" lon="0.59964">
        <ele>195.39999389648</ele>
        <time>2020-09-22T08:40:19.000Z</time>
      </trkpt>
      <trkpt lat="45.06828" lon="0.59963">
        <ele>195.60000610352</ele>
        <time>2020-09-22T08:40:20.000Z</time>
      </trkpt>
      <trkpt lat="45.06829" lon="0.59962">
        <ele>195.60000610352</ele>
        <time>2020-09-22T08:40:21.000Z</time>
      </trkpt>
      <trkpt lat="45.06831" lon="0.59961">
        <ele>195.80000305176</ele>
        <time>2020-09-22T08:40:22.000Z</time>
      </trkpt>
      <trkpt lat="45.06832" lon="0.5996">
        <ele>196</ele>
        <time>2020-09-22T08:40:23.000Z</time>
      </trkpt>
      <trkpt lat="45.06834" lon="0.59958">
        <ele>196</ele>
        <time>2020-09-22T08:40:24.000Z</time>
      </trkpt>
      <trkpt lat="45.06836" lon="0.59956">
        <ele>196.19999694824</ele>
        <time>2020-09-22T08:40:25.000Z</time>
      </trkpt>
      <trkpt lat="45.06838" lon="0.59955">
        <ele>196.39999389648</ele>
        <time>2020-09-22T08:40:26.000Z</time>
      </trkpt>
      <trkpt lat="45.06839" lon="0.59955">
        <ele>196.60000610352</ele>
        <time>2020-09-22T08:40:27.000Z</time>
      </trkpt>
      <trkpt lat="45.06841" lon="0.59954">
        <ele>196.80000305176</ele>
        <time>2020-09-22T08:40:28.000Z</time>
      </trkpt>
      <trkpt lat="45.06843" lon="0.59955">
        <ele>197</ele>
        <time>2020-09-22T08:40:29.000Z</time>
      </trkpt>
      <trkpt lat="45.06845" lon="0.59956">
        <ele>197.39999389648</ele>
        <time>2020-09-22T08:40:30.000Z</time>
      </trkpt>
      <trkpt lat="45.06846" lon="0.59958">
        <ele>197.80000305176</ele>
        <time>2020-09-22T08:40:31.000Z</time>
      </trkpt>
      <trkpt lat="45.06847" lon="0.5996">
        <ele>198.19999694824</ele>
        <time>2020-09-22T08:40:32.000Z</time>
      </trkpt>
      <trkpt lat="45.06848" lon="0.59962">
        <ele>198.39999389648</ele>
        <time>2020-09-22T08:40:33.000Z</time>
      </trkpt>
      <trkpt lat="45.06848" lon="0.59965">
        <ele>198.60000610352</ele>
        <time>2020-09-22T08:40:34.000Z</time>
      </trkpt>
      <trkpt lat="45.06848" lon="0.59967">
        <ele>198.80000305176</ele>
        <time>2020-09-22T08:40:35.000Z</time>
      </trkpt>
      <trkpt lat="45.06849" lon="0.5997">
        <ele>199.19999694824</ele>
        <time>2020-09-22T08:40:36.000Z</time>
      </trkpt>
      <trkpt lat="45.0685" lon="0.59972">
        <ele>199.19999694824</ele>
        <time>2020-09-22T08:40:37.000Z</time>
      </trkpt>
      <trkpt lat="45.06851" lon="0.59975">
        <ele>199.39999389648</ele>
        <time>2020-09-22T08:40:38.000Z</time>
      </trkpt>
      <trkpt lat="45.06853" lon="0.59978">
        <ele>199.60000610352</ele>
        <time>2020-09-22T08:40:39.000Z</time>
      </trkpt>
      <trkpt lat="45.06854" lon="0.5998">
        <ele>199.80000305176</ele>
        <time>2020-09-22T08:40:40.000Z</time>
      </trkpt>
      <trkpt lat="45.06855" lon="0.59982">
        <ele>199.80000305176</ele>
        <time>2020-09-22T08:40:41.000Z</time>
      </trkpt>
      <trkpt lat="45.06858" lon="0.59984">
        <ele>200.39999389648</ele>
        <time>2020-09-22T08:40:42.000Z</time>
      </trkpt>
      <trkpt lat="45.06859" lon="0.59986">
        <ele>200.60000610352</ele>
        <time>2020-09-22T08:40:43.000Z</time>
      </trkpt>
      <trkpt lat="45.06862" lon="0.59989">
        <ele>201</ele>
        <time>2020-09-22T08:40:44.000Z</time>
      </trkpt>
      <trkpt lat="45.06864" lon="0.59991">
        <ele>201.19999694824</ele>
        <time>2020-09-22T08:40:45.000Z</time>
      </trkpt>
      <trkpt lat="45.06866" lon="0.59993">
        <ele>201.60000610352</ele>
        <time>2020-09-22T08:40:46.000Z</time>
      </trkpt>
      <trkpt lat="45.06868" lon="0.59995">
        <ele>201.80000305176</ele>
        <time>2020-09-22T08:40:47.000Z</time>
      </trkpt>
      <trkpt lat="45.06869" lon="0.59997">
        <ele>202</ele>
        <time>2020-09-22T08:40:48.000Z</time>
      </trkpt>
      <trkpt lat="45.0687" lon="0.59999">
        <ele>202.19999694824</ele>
        <time>2020-09-22T08:40:49.000Z</time>
      </trkpt>
      <trkpt lat="45.06872" lon="0.6">
        <ele>202.39999389648</ele>
        <time>2020-09-22T08:40:50.000Z</time>
      </trkpt>
      <trkpt lat="45.06874" lon="0.60003">
        <ele>202.60000610352</ele>
        <time>2020-09-22T08:40:51.000Z</time>
      </trkpt>
      <trkpt lat="45.06876" lon="0.60005">
        <ele>203</ele>
        <time>2020-09-22T08:40:52.000Z</time>
      </trkpt>
      <trkpt lat="45.06878" lon="0.60005">
        <ele>203</ele>
        <time>2020-09-22T08:40:53.000Z</time>
      </trkpt>
      <trkpt lat="45.0688" lon="0.60006">
        <ele>203</ele>
        <time>2020-09-22T08:40:54.000Z</time>
      </trkpt>
      <trkpt lat="45.06882" lon="0.60006">
        <ele>203</ele>
        <time>2020-09-22T08:40:55.000Z</time>
      </trkpt>
      <trkpt lat="45.06884" lon="0.60006">
        <ele>203</ele>
        <time>2020-09-22T08:40:56.000Z</time>
      </trkpt>
      <trkpt lat="45.06886" lon="0.60007">
        <ele>202.80000305176</ele>
        <time>2020-09-22T08:40:57.000Z</time>
      </trkpt>
      <trkpt lat="45.06889" lon="0.60008">
        <ele>202.80000305176</ele>
        <time>2020-09-22T08:40:58.000Z</time>
      </trkpt>
      <trkpt lat="45.06891" lon="0.60007">
        <ele>202.80000305176</ele>
        <time>2020-09-22T08:40:59.000Z</time>
      </trkpt>
      <trkpt lat="45.06891" lon="0.60007">
        <ele>202.80000305176</ele>
        <time>2020-09-22T08:41:00.000Z</time>
      </trkpt>
      <trkpt lat="45.06893" lon="0.60006">
        <ele>202.80000305176</ele>
        <time>2020-09-22T08:41:01.000Z</time>
      </trkpt>
      <trkpt lat="45.06894" lon="0.60007">
        <ele>202.80000305176</ele>
        <time>2020-09-22T08:41:02.000Z</time>
      </trkpt>
      <trkpt lat="45.06896" lon="0.60008">
        <ele>202.80000305176</ele>
        <time>2020-09-22T08:41:03.000Z</time>
      </trkpt>
      <trkpt lat="45.06898" lon="0.60008">
        <ele>202.80000305176</ele>
        <time>2020-09-22T08:41:04.000Z</time>
      </trkpt>
      <trkpt lat="45.06899" lon="0.60008">
        <ele>202.80000305176</ele>
        <time>2020-09-22T08:41:05.000Z</time>
      </trkpt>
      <trkpt lat="45.06901" lon="0.6001">
        <ele>202.80000305176</ele>
        <time>2020-09-22T08:41:06.000Z</time>
      </trkpt>
      <trkpt lat="45.06903" lon="0.60012">
        <ele>202.60000610352</ele>
        <time>2020-09-22T08:41:07.000Z</time>
      </trkpt>
      <trkpt lat="45.06906" lon="0.60013">
        <ele>202.60000610352</ele>
        <time>2020-09-22T08:41:08.000Z</time>
      </trkpt>
      <trkpt lat="45.06908" lon="0.60015">
        <ele>202.60000610352</ele>
        <time>2020-09-22T08:41:09.000Z</time>
      </trkpt>
      <trkpt lat="45.0691" lon="0.60017">
        <ele>202.60000610352</ele>
        <time>2020-09-22T08:41:10.000Z</time>
      </trkpt>
      <trkpt lat="45.06912" lon="0.60017">
        <ele>202.60000610352</ele>
        <time>2020-09-22T08:41:11.000Z</time>
      </trkpt>
      <trkpt lat="45.06915" lon="0.60017">
        <ele>202.60000610352</ele>
        <time>2020-09-22T08:41:12.000Z</time>
      </trkpt>
      <trkpt lat="45.06917" lon="0.60017">
        <ele>202.60000610352</ele>
        <time>2020-09-22T08:41:13.000Z</time>
      </trkpt>
      <trkpt lat="45.06919" lon="0.60018">
        <ele>202.39999389648</ele>
        <time>2020-09-22T08:41:14.000Z</time>
      </trkpt>
      <trkpt lat="45.06922" lon="0.60018">
        <ele>202.39999389648</ele>
        <time>2020-09-22T08:41:15.000Z</time>
      </trkpt>
      <trkpt lat="45.06924" lon="0.6002">
        <ele>202.39999389648</ele>
        <time>2020-09-22T08:41:16.000Z</time>
      </trkpt>
      <trkpt lat="45.06926" lon="0.60021">
        <ele>202.39999389648</ele>
        <time>2020-09-22T08:41:17.000Z</time>
      </trkpt>
      <trkpt lat="45.06928" lon="0.60021">
        <ele>202.39999389648</ele>
        <time>2020-09-22T08:41:18.000Z</time>
      </trkpt>
      <trkpt lat="45.0693" lon="0.60023">
        <ele>202.39999389648</ele>
        <time>2020-09-22T08:41:19.000Z</time>
      </trkpt>
      <trkpt lat="45.06931" lon="0.60024">
        <ele>202.39999389648</ele>
        <time>2020-09-22T08:41:20.000Z</time>
      </trkpt>
      <trkpt lat="45.06934" lon="0.60026">
        <ele>202.39999389648</ele>
        <time>2020-09-22T08:41:21.000Z</time>
      </trkpt>
      <trkpt lat="45.06935" lon="0.60028">
        <ele>202.19999694824</ele>
        <time>2020-09-22T08:41:22.000Z</time>
      </trkpt>
      <trkpt lat="45.06937" lon="0.6003">
        <ele>202.19999694824</ele>
        <time>2020-09-22T08:41:23.000Z</time>
      </trkpt>
      <trkpt lat="45.0694" lon="0.60032">
        <ele>202.19999694824</ele>
        <time>2020-09-22T08:41:24.000Z</time>
      </trkpt>
      <trkpt lat="45.06943" lon="0.60034">
        <ele>202.19999694824</ele>
        <time>2020-09-22T08:41:25.000Z</time>
      </trkpt>
      <trkpt lat="45.06946" lon="0.60036">
        <ele>202.19999694824</ele>
        <time>2020-09-22T08:41:26.000Z</time>
      </trkpt>
      <trkpt lat="45.06948" lon="0.60037">
        <ele>202.19999694824</ele>
        <time>2020-09-22T08:41:27.000Z</time>
      </trkpt>
      <trkpt lat="45.06952" lon="0.60037">
        <ele>202.39999389648</ele>
        <time>2020-09-22T08:41:28.000Z</time>
      </trkpt>
      <trkpt lat="45.06954" lon="0.60037">
        <ele>202.60000610352</ele>
        <time>2020-09-22T08:41:29.000Z</time>
      </trkpt>
      <trkpt lat="45.06957" lon="0.60036">
        <ele>202.60000610352</ele>
        <time>2020-09-22T08:41:30.000Z</time>
      </trkpt>
      <trkpt lat="45.0696" lon="0.60034">
        <ele>202.80000305176</ele>
        <time>2020-09-22T08:41:31.000Z</time>
      </trkpt>
      <trkpt lat="45.06962" lon="0.60032">
        <ele>202.60000610352</ele>
        <time>2020-09-22T08:41:32.000Z</time>
      </trkpt>
      <trkpt lat="45.06964" lon="0.6003">
        <ele>202.60000610352</ele>
        <time>2020-09-22T08:41:33.000Z</time>
      </trkpt>
      <trkpt lat="45.06966" lon="0.60029">
        <ele>202.39999389648</ele>
        <time>2020-09-22T08:41:34.000Z</time>
      </trkpt>
      <trkpt lat="45.06968" lon="0.60027">
        <ele>202.19999694824</ele>
        <time>2020-09-22T08:41:35.000Z</time>
      </trkpt>
      <trkpt lat="45.06969" lon="0.60025">
        <ele>202.19999694824</ele>
        <time>2020-09-22T08:41:36.000Z</time>
      </trkpt>
      <trkpt lat="45.06971" lon="0.60023">
        <ele>202</ele>
        <time>2020-09-22T08:41:37.000Z</time>
      </trkpt>
      <trkpt lat="45.06973" lon="0.60021">
        <ele>201.80000305176</ele>
        <time>2020-09-22T08:41:38.000Z</time>
      </trkpt>
      <trkpt lat="45.06976" lon="0.60019">
        <ele>201.60000610352</ele>
        <time>2020-09-22T08:41:39.000Z</time>
      </trkpt>
      <trkpt lat="45.06977" lon="0.60017">
        <ele>201.60000610352</ele>
        <time>2020-09-22T08:41:40.000Z</time>
      </trkpt>
      <trkpt lat="45.06979" lon="0.60015">
        <ele>201.39999389648</ele>
        <time>2020-09-22T08:41:41.000Z</time>
      </trkpt>
      <trkpt lat="45.06981" lon="0.60012">
        <ele>201.39999389648</ele>
        <time>2020-09-22T08:41:42.000Z</time>
      </trkpt>
      <trkpt lat="45.06983" lon="0.60008">
        <ele>201.19999694824</ele>
        <time>2020-09-22T08:41:43.000Z</time>
      </trkpt>
      <trkpt lat="45.06985" lon="0.60005">
        <ele>201.19999694824</ele>
        <time>2020-09-22T08:41:44.000Z</time>
      </trkpt>
      <trkpt lat="45.06987" lon="0.60001">
        <ele>201</ele>
        <time>2020-09-22T08:41:45.000Z</time>
      </trkpt>
      <trkpt lat="45.0699" lon="0.59999">
        <ele>201</ele>
        <time>2020-09-22T08:41:46.000Z</time>
      </trkpt>
      <trkpt lat="45.06992" lon="0.59997">
        <ele>201</ele>
        <time>2020-09-22T08:41:47.000Z</time>
      </trkpt>
      <trkpt lat="45.06994" lon="0.59995">
        <ele>201</ele>
        <time>2020-09-22T08:41:48.000Z</time>
      </trkpt>
      <trkpt lat="45.06995" lon="0.59993">
        <ele>201</ele>
        <time>2020-09-22T08:41:49.000Z</time>
      </trkpt>
      <trkpt lat="45.06997" lon="0.5999">
        <ele>201</ele>
        <time>2020-09-22T08:41:50.000Z</time>
      </trkpt>
      <trkpt lat="45.06998" lon="0.59987">
        <ele>201.19999694824</ele>
        <time>2020-09-22T08:41:51.000Z</time>
      </trkpt>
      <trkpt lat="45.07001" lon="0.59983">
        <ele>201.39999389648</ele>
        <time>2020-09-22T08:41:52.000Z</time>
      </trkpt>
      <trkpt lat="45.07002" lon="0.5998">
        <ele>201.39999389648</ele>
        <time>2020-09-22T08:41:53.000Z</time>
      </trkpt>
      <trkpt lat="45.07003" lon="0.59977">
        <ele>201.60000610352</ele>
        <time>2020-09-22T08:41:54.000Z</time>
      </trkpt>
      <trkpt lat="45.07004" lon="0.59975">
        <ele>201.60000610352</ele>
        <time>2020-09-22T08:41:55.000Z</time>
      </trkpt>
      <trkpt lat="45.07005" lon="0.59972">
        <ele>201.80000305176</ele>
        <time>2020-09-22T08:41:56.000Z</time>
      </trkpt>
      <trkpt lat="45.07006" lon="0.59969">
        <ele>202</ele>
        <time>2020-09-22T08:41:57.000Z</time>
      </trkpt>
      <trkpt lat="45.07008" lon="0.59965">
        <ele>202</ele>
        <time>2020-09-22T08:41:58.000Z</time>
      </trkpt>
      <trkpt lat="45.07009" lon="0.59962">
        <ele>201.80000305176</ele>
        <time>2020-09-22T08:41:59.000Z</time>
      </trkpt>
      <trkpt lat="45.07011" lon="0.59954">
        <ele>201.80000305176</ele>
        <time>2020-09-22T08:42:00.000Z</time>
      </trkpt>
      <trkpt lat="45.0701" lon="0.5995">
        <ele>201.80000305176</ele>
        <time>2020-09-22T08:42:01.000Z</time>
      </trkpt>
      <trkpt lat="45.0701" lon="0.5995">
        <ele>201.80000305176</ele>
        <time>2020-09-22T08:42:02.000Z</time>
      </trkpt>
      <trkpt lat="45.0701" lon="0.59946">
        <ele>201.80000305176</ele>
        <time>2020-09-22T08:42:03.000Z</time>
      </trkpt>
      <trkpt lat="45.07009" lon="0.59943">
        <ele>201.80000305176</ele>
        <time>2020-09-22T08:42:04.000Z</time>
      </trkpt>
      <trkpt lat="45.07009" lon="0.5994">
        <ele>201.80000305176</ele>
        <time>2020-09-22T08:42:05.000Z</time>
      </trkpt>
      <trkpt lat="45.07008" lon="0.59936">
        <ele>202</ele>
        <time>2020-09-22T08:42:06.000Z</time>
      </trkpt>
      <trkpt lat="45.07008" lon="0.59933">
        <ele>202</ele>
        <time>2020-09-22T08:42:07.000Z</time>
      </trkpt>
      <trkpt lat="45.07008" lon="0.59929">
        <ele>202</ele>
        <time>2020-09-22T08:42:08.000Z</time>
      </trkpt>
      <trkpt lat="45.07008" lon="0.59925">
        <ele>202</ele>
        <time>2020-09-22T08:42:09.000Z</time>
      </trkpt>
      <trkpt lat="45.07008" lon="0.59921">
        <ele>202</ele>
        <time>2020-09-22T08:42:10.000Z</time>
      </trkpt>
      <trkpt lat="45.07008" lon="0.59917">
        <ele>202.19999694824</ele>
        <time>2020-09-22T08:42:11.000Z</time>
      </trkpt>
      <trkpt lat="45.07008" lon="0.59913">
        <ele>202.19999694824</ele>
        <time>2020-09-22T08:42:12.000Z</time>
      </trkpt>
      <trkpt lat="45.07007" lon="0.59909">
        <ele>202.19999694824</ele>
        <time>2020-09-22T08:42:13.000Z</time>
      </trkpt>
      <trkpt lat="45.07007" lon="0.59905">
        <ele>202.39999389648</ele>
        <time>2020-09-22T08:42:14.000Z</time>
      </trkpt>
      <trkpt lat="45.07007" lon="0.59902">
        <ele>202.39999389648</ele>
        <time>2020-09-22T08:42:15.000Z</time>
      </trkpt>
      <trkpt lat="45.07007" lon="0.59898">
        <ele>202.39999389648</ele>
        <time>2020-09-22T08:42:16.000Z</time>
      </trkpt>
      <trkpt lat="45.07007" lon="0.59895">
        <ele>202.39999389648</ele>
        <time>2020-09-22T08:42:17.000Z</time>
      </trkpt>
      <trkpt lat="45.07006" lon="0.59891">
        <ele>202.60000610352</ele>
        <time>2020-09-22T08:42:18.000Z</time>
      </trkpt>
      <trkpt lat="45.07005" lon="0.59888">
        <ele>202.80000305176</ele>
        <time>2020-09-22T08:42:19.000Z</time>
      </trkpt>
      <trkpt lat="45.07003" lon="0.59885">
        <ele>202.80000305176</ele>
        <time>2020-09-22T08:42:20.000Z</time>
      </trkpt>
      <trkpt lat="45.07002" lon="0.59881">
        <ele>203</ele>
        <time>2020-09-22T08:42:21.000Z</time>
      </trkpt>
      <trkpt lat="45.07" lon="0.59877">
        <ele>203</ele>
        <time>2020-09-22T08:42:22.000Z</time>
      </trkpt>
      <trkpt lat="45.06998" lon="0.59874">
        <ele>203.19999694824</ele>
        <time>2020-09-22T08:42:23.000Z</time>
      </trkpt>
      <trkpt lat="45.06997" lon="0.5987">
        <ele>203.39999389648</ele>
        <time>2020-09-22T08:42:24.000Z</time>
      </trkpt>
      <trkpt lat="45.06995" lon="0.59867">
        <ele>203.39999389648</ele>
        <time>2020-09-22T08:42:25.000Z</time>
      </trkpt>
      <trkpt lat="45.06993" lon="0.59863">
        <ele>203.60000610352</ele>
        <time>2020-09-22T08:42:26.000Z</time>
      </trkpt>
      <trkpt lat="45.06992" lon="0.5986">
        <ele>203.60000610352</ele>
        <time>2020-09-22T08:42:27.000Z</time>
      </trkpt>
      <trkpt lat="45.06992" lon="0.59856">
        <ele>203.60000610352</ele>
        <time>2020-09-22T08:42:28.000Z</time>
      </trkpt>
      <trkpt lat="45.06991" lon="0.59853">
        <ele>203.80000305176</ele>
        <time>2020-09-22T08:42:29.000Z</time>
      </trkpt>
      <trkpt lat="45.0699" lon="0.5985">
        <ele>203.80000305176</ele>
        <time>2020-09-22T08:42:30.000Z</time>
      </trkpt>
      <trkpt lat="45.06989" lon="0.59846">
        <ele>203.80000305176</ele>
        <time>2020-09-22T08:42:31.000Z</time>
      </trkpt>
      <trkpt lat="45.06988" lon="0.59842">
        <ele>204</ele>
        <time>2020-09-22T08:42:32.000Z</time>
      </trkpt>
      <trkpt lat="45.06987" lon="0.59839">
        <ele>204</ele>
        <time>2020-09-22T08:42:33.000Z</time>
      </trkpt>
      <trkpt lat="45.06986" lon="0.59835">
        <ele>204</ele>
        <time>2020-09-22T08:42:34.000Z</time>
      </trkpt>
      <trkpt lat="45.06985" lon="0.59832">
        <ele>204.19999694824</ele>
        <time>2020-09-22T08:42:35.000Z</time>
      </trkpt>
      <trkpt lat="45.06985" lon="0.59826">
        <ele>204.19999694824</ele>
        <time>2020-09-22T08:42:36.000Z</time>
      </trkpt>
      <trkpt lat="45.06984" lon="0.59822">
        <ele>204</ele>
        <time>2020-09-22T08:42:37.000Z</time>
      </trkpt>
      <trkpt lat="45.06984" lon="0.59817">
        <ele>203.80000305176</ele>
        <time>2020-09-22T08:42:38.000Z</time>
      </trkpt>
      <trkpt lat="45.06983" lon="0.59813">
        <ele>203.80000305176</ele>
        <time>2020-09-22T08:42:39.000Z</time>
      </trkpt>
      <trkpt lat="45.06983" lon="0.59809">
        <ele>203.60000610352</ele>
        <time>2020-09-22T08:42:40.000Z</time>
      </trkpt>
      <trkpt lat="45.06983" lon="0.59806">
        <ele>203.39999389648</ele>
        <time>2020-09-22T08:42:41.000Z</time>
      </trkpt>
      <trkpt lat="45.06983" lon="0.59802">
        <ele>203.19999694824</ele>
        <time>2020-09-22T08:42:42.000Z</time>
      </trkpt>
      <trkpt lat="45.06983" lon="0.59799">
        <ele>203.19999694824</ele>
        <time>2020-09-22T08:42:43.000Z</time>
      </trkpt>
      <trkpt lat="45.06982" lon="0.59795">
        <ele>203.39999389648</ele>
        <time>2020-09-22T08:42:44.000Z</time>
      </trkpt>
      <trkpt lat="45.06982" lon="0.59791">
        <ele>203.19999694824</ele>
        <time>2020-09-22T08:42:45.000Z</time>
      </trkpt>
      <trkpt lat="45.06982" lon="0.59787">
        <ele>203.39999389648</ele>
        <time>2020-09-22T08:42:46.000Z</time>
      </trkpt>
      <trkpt lat="45.06982" lon="0.59782">
        <ele>203.39999389648</ele>
        <time>2020-09-22T08:42:47.000Z</time>
      </trkpt>
      <trkpt lat="45.06983" lon="0.59777">
        <ele>203.19999694824</ele>
        <time>2020-09-22T08:42:48.000Z</time>
      </trkpt>
      <trkpt lat="45.06982" lon="0.59772">
        <ele>203.39999389648</ele>
        <time>2020-09-22T08:42:49.000Z</time>
      </trkpt>
      <trkpt lat="45.06982" lon="0.59767">
        <ele>203.39999389648</ele>
        <time>2020-09-22T08:42:50.000Z</time>
      </trkpt>
      <trkpt lat="45.06982" lon="0.59763">
        <ele>203.19999694824</ele>
        <time>2020-09-22T08:42:51.000Z</time>
      </trkpt>
      <trkpt lat="45.06984" lon="0.5975">
        <ele>203</ele>
        <time>2020-09-22T08:42:53.000Z</time>
      </trkpt>
      <trkpt lat="45.06984" lon="0.5975">
        <ele>203</ele>
        <time>2020-09-22T08:42:54.000Z</time>
      </trkpt>
      <trkpt lat="45.06984" lon="0.5975">
        <ele>203</ele>
        <time>2020-09-22T08:42:55.000Z</time>
      </trkpt>
      <trkpt lat="45.06984" lon="0.59745">
        <ele>203</ele>
        <time>2020-09-22T08:42:56.000Z</time>
      </trkpt>
      <trkpt lat="45.06985" lon="0.59739">
        <ele>202.60000610352</ele>
        <time>2020-09-22T08:42:57.000Z</time>
      </trkpt>
      <trkpt lat="45.06984" lon="0.59735">
        <ele>202.60000610352</ele>
        <time>2020-09-22T08:42:58.000Z</time>
      </trkpt>
      <trkpt lat="45.06984" lon="0.59731">
        <ele>202.19999694824</ele>
        <time>2020-09-22T08:42:59.000Z</time>
      </trkpt>
      <trkpt lat="45.06983" lon="0.59726">
        <ele>202</ele>
        <time>2020-09-22T08:43:00.000Z</time>
      </trkpt>
      <trkpt lat="45.06984" lon="0.59722">
        <ele>201.60000610352</ele>
        <time>2020-09-22T08:43:01.000Z</time>
      </trkpt>
      <trkpt lat="45.06985" lon="0.59719">
        <ele>201.19999694824</ele>
        <time>2020-09-22T08:43:02.000Z</time>
      </trkpt>
      <trkpt lat="45.06985" lon="0.59716">
        <ele>201</ele>
        <time>2020-09-22T08:43:03.000Z</time>
      </trkpt>
      <trkpt lat="45.06987" lon="0.5971">
        <ele>200.60000610352</ele>
        <time>2020-09-22T08:43:04.000Z</time>
      </trkpt>
      <trkpt lat="45.06987" lon="0.59707">
        <ele>200.39999389648</ele>
        <time>2020-09-22T08:43:05.000Z</time>
      </trkpt>
      <trkpt lat="45.06987" lon="0.59707">
        <ele>200.39999389648</ele>
        <time>2020-09-22T08:43:06.000Z</time>
      </trkpt>
      <trkpt lat="45.06988" lon="0.59703">
        <ele>200.19999694824</ele>
        <time>2020-09-22T08:43:07.000Z</time>
      </trkpt>
      <trkpt lat="45.06989" lon="0.59699">
        <ele>200</ele>
        <time>2020-09-22T08:43:08.000Z</time>
      </trkpt>
      <trkpt lat="45.06989" lon="0.59695">
        <ele>199.80000305176</ele>
        <time>2020-09-22T08:43:09.000Z</time>
      </trkpt>
      <trkpt lat="45.06989" lon="0.5969">
        <ele>199.60000610352</ele>
        <time>2020-09-22T08:43:10.000Z</time>
      </trkpt>
      <trkpt lat="45.0699" lon="0.59686">
        <ele>199.39999389648</ele>
        <time>2020-09-22T08:43:11.000Z</time>
      </trkpt>
      <trkpt lat="45.0699" lon="0.59679">
        <ele>199.19999694824</ele>
        <time>2020-09-22T08:43:12.000Z</time>
      </trkpt>
      <trkpt lat="45.06991" lon="0.59674">
        <ele>198.80000305176</ele>
        <time>2020-09-22T08:43:13.000Z</time>
      </trkpt>
      <trkpt lat="45.06992" lon="0.59668">
        <ele>198.60000610352</ele>
        <time>2020-09-22T08:43:14.000Z</time>
      </trkpt>
      <trkpt lat="45.06993" lon="0.59664">
        <ele>198.19999694824</ele>
        <time>2020-09-22T08:43:15.000Z</time>
      </trkpt>
      <trkpt lat="45.06995" lon="0.5966">
        <ele>197.80000305176</ele>
        <time>2020-09-22T08:43:16.000Z</time>
      </trkpt>
      <trkpt lat="45.06996" lon="0.59656">
        <ele>197.39999389648</ele>
        <time>2020-09-22T08:43:17.000Z</time>
      </trkpt>
      <trkpt lat="45.06997" lon="0.59652">
        <ele>197</ele>
        <time>2020-09-22T08:43:18.000Z</time>
      </trkpt>
      <trkpt lat="45.06999" lon="0.59649">
        <ele>196.60000610352</ele>
        <time>2020-09-22T08:43:19.000Z</time>
      </trkpt>
      <trkpt lat="45.07" lon="0.59646">
        <ele>196.19999694824</ele>
        <time>2020-09-22T08:43:20.000Z</time>
      </trkpt>
      <trkpt lat="45.07002" lon="0.59642">
        <ele>195.60000610352</ele>
        <time>2020-09-22T08:43:21.000Z</time>
      </trkpt>
      <trkpt lat="45.07004" lon="0.59639">
        <ele>195.19999694824</ele>
        <time>2020-09-22T08:43:22.000Z</time>
      </trkpt>
      <trkpt lat="45.07005" lon="0.59636">
        <ele>194.80000305176</ele>
        <time>2020-09-22T08:43:23.000Z</time>
      </trkpt>
      <trkpt lat="45.07006" lon="0.59632">
        <ele>194.60000610352</ele>
        <time>2020-09-22T08:43:24.000Z</time>
      </trkpt>
      <trkpt lat="45.07008" lon="0.59628">
        <ele>194.39999389648</ele>
        <time>2020-09-22T08:43:25.000Z</time>
      </trkpt>
      <trkpt lat="45.0701" lon="0.59624">
        <ele>194</ele>
        <time>2020-09-22T08:43:26.000Z</time>
      </trkpt>
      <trkpt lat="45.07012" lon="0.59621">
        <ele>193.60000610352</ele>
        <time>2020-09-22T08:43:27.000Z</time>
      </trkpt>
      <trkpt lat="45.07014" lon="0.59618">
        <ele>193.19999694824</ele>
        <time>2020-09-22T08:43:28.000Z</time>
      </trkpt>
      <trkpt lat="45.07015" lon="0.59616">
        <ele>193</ele>
        <time>2020-09-22T08:43:29.000Z</time>
      </trkpt>
      <trkpt lat="45.07017" lon="0.59614">
        <ele>192.60000610352</ele>
        <time>2020-09-22T08:43:30.000Z</time>
      </trkpt>
      <trkpt lat="45.07019" lon="0.59611">
        <ele>192.19999694824</ele>
        <time>2020-09-22T08:43:31.000Z</time>
      </trkpt>
      <trkpt lat="45.07021" lon="0.59608">
        <ele>192.19999694824</ele>
        <time>2020-09-22T08:43:32.000Z</time>
      </trkpt>
      <trkpt lat="45.07023" lon="0.59605">
        <ele>192.19999694824</ele>
        <time>2020-09-22T08:43:33.000Z</time>
      </trkpt>
      <trkpt lat="45.07026" lon="0.59601">
        <ele>192.39999389648</ele>
        <time>2020-09-22T08:43:34.000Z</time>
      </trkpt>
      <trkpt lat="45.07028" lon="0.59599">
        <ele>192.19999694824</ele>
        <time>2020-09-22T08:43:35.000Z</time>
      </trkpt>
      <trkpt lat="45.0703" lon="0.59596">
        <ele>192.19999694824</ele>
        <time>2020-09-22T08:43:36.000Z</time>
      </trkpt>
      <trkpt lat="45.07033" lon="0.59593">
        <ele>192.19999694824</ele>
        <time>2020-09-22T08:43:37.000Z</time>
      </trkpt>
      <trkpt lat="45.07035" lon="0.5959">
        <ele>192.19999694824</ele>
        <time>2020-09-22T08:43:38.000Z</time>
      </trkpt>
      <trkpt lat="45.07037" lon="0.59587">
        <ele>192.39999389648</ele>
        <time>2020-09-22T08:43:39.000Z</time>
      </trkpt>
      <trkpt lat="45.07038" lon="0.59583">
        <ele>192.60000610352</ele>
        <time>2020-09-22T08:43:40.000Z</time>
      </trkpt>
      <trkpt lat="45.07041" lon="0.59579">
        <ele>192.60000610352</ele>
        <time>2020-09-22T08:43:41.000Z</time>
      </trkpt>
      <trkpt lat="45.07042" lon="0.59575">
        <ele>192.80000305176</ele>
        <time>2020-09-22T08:43:42.000Z</time>
      </trkpt>
      <trkpt lat="45.07044" lon="0.59572">
        <ele>193</ele>
        <time>2020-09-22T08:43:43.000Z</time>
      </trkpt>
      <trkpt lat="45.07046" lon="0.59568">
        <ele>192.80000305176</ele>
        <time>2020-09-22T08:43:44.000Z</time>
      </trkpt>
      <trkpt lat="45.07047" lon="0.59565">
        <ele>192.80000305176</ele>
        <time>2020-09-22T08:43:45.000Z</time>
      </trkpt>
      <trkpt lat="45.0705" lon="0.59561">
        <ele>192.60000610352</ele>
        <time>2020-09-22T08:43:46.000Z</time>
      </trkpt>
      <trkpt lat="45.07052" lon="0.59557">
        <ele>192.80000305176</ele>
        <time>2020-09-22T08:43:47.000Z</time>
      </trkpt>
      <trkpt lat="45.07053" lon="0.59554">
        <ele>193</ele>
        <time>2020-09-22T08:43:48.000Z</time>
      </trkpt>
      <trkpt lat="45.07054" lon="0.5955">
        <ele>193.19999694824</ele>
        <time>2020-09-22T08:43:49.000Z</time>
      </trkpt>
      <trkpt lat="45.07056" lon="0.59547">
        <ele>193.19999694824</ele>
        <time>2020-09-22T08:43:50.000Z</time>
      </trkpt>
      <trkpt lat="45.07057" lon="0.59543">
        <ele>193.19999694824</ele>
        <time>2020-09-22T08:43:51.000Z</time>
      </trkpt>
      <trkpt lat="45.07058" lon="0.5954">
        <ele>193</ele>
        <time>2020-09-22T08:43:52.000Z</time>
      </trkpt>
      <trkpt lat="45.0706" lon="0.59535">
        <ele>193</ele>
        <time>2020-09-22T08:43:53.000Z</time>
      </trkpt>
      <trkpt lat="45.07061" lon="0.59531">
        <ele>193</ele>
        <time>2020-09-22T08:43:54.000Z</time>
      </trkpt>
      <trkpt lat="45.07061" lon="0.59527">
        <ele>193</ele>
        <time>2020-09-22T08:43:55.000Z</time>
      </trkpt>
      <trkpt lat="45.07062" lon="0.59523">
        <ele>193.19999694824</ele>
        <time>2020-09-22T08:43:56.000Z</time>
      </trkpt>
      <trkpt lat="45.07062" lon="0.59519">
        <ele>193.19999694824</ele>
        <time>2020-09-22T08:43:57.000Z</time>
      </trkpt>
      <trkpt lat="45.07062" lon="0.59514">
        <ele>193.39999389648</ele>
        <time>2020-09-22T08:43:58.000Z</time>
      </trkpt>
      <trkpt lat="45.07062" lon="0.5951">
        <ele>193.39999389648</ele>
        <time>2020-09-22T08:43:59.000Z</time>
      </trkpt>
      <trkpt lat="45.07062" lon="0.59506">
        <ele>193.60000610352</ele>
        <time>2020-09-22T08:44:00.000Z</time>
      </trkpt>
      <trkpt lat="45.07061" lon="0.59502">
        <ele>194</ele>
        <time>2020-09-22T08:44:01.000Z</time>
      </trkpt>
      <trkpt lat="45.07061" lon="0.59498">
        <ele>194.19999694824</ele>
        <time>2020-09-22T08:44:02.000Z</time>
      </trkpt>
      <trkpt lat="45.07061" lon="0.59493">
        <ele>194.19999694824</ele>
        <time>2020-09-22T08:44:03.000Z</time>
      </trkpt>
      <trkpt lat="45.07061" lon="0.59488">
        <ele>194.39999389648</ele>
        <time>2020-09-22T08:44:04.000Z</time>
      </trkpt>
      <trkpt lat="45.07062" lon="0.59484">
        <ele>194.60000610352</ele>
        <time>2020-09-22T08:44:05.000Z</time>
      </trkpt>
      <trkpt lat="45.07062" lon="0.59476">
        <ele>195.19999694824</ele>
        <time>2020-09-22T08:44:06.000Z</time>
      </trkpt>
      <trkpt lat="45.07062" lon="0.59473">
        <ele>195.39999389648</ele>
        <time>2020-09-22T08:44:07.000Z</time>
      </trkpt>
      <trkpt lat="45.07062" lon="0.59473">
        <ele>195.39999389648</ele>
        <time>2020-09-22T08:44:08.000Z</time>
      </trkpt>
      <trkpt lat="45.07062" lon="0.59468">
        <ele>195.60000610352</ele>
        <time>2020-09-22T08:44:09.000Z</time>
      </trkpt>
      <trkpt lat="45.07063" lon="0.59463">
        <ele>195.39999389648</ele>
        <time>2020-09-22T08:44:10.000Z</time>
      </trkpt>
      <trkpt lat="45.07065" lon="0.59458">
        <ele>195</ele>
        <time>2020-09-22T08:44:11.000Z</time>
      </trkpt>
      <trkpt lat="45.07067" lon="0.59454">
        <ele>194.80000305176</ele>
        <time>2020-09-22T08:44:12.000Z</time>
      </trkpt>
      <trkpt lat="45.07068" lon="0.59451">
        <ele>194.60000610352</ele>
        <time>2020-09-22T08:44:13.000Z</time>
      </trkpt>
      <trkpt lat="45.07071" lon="0.59447">
        <ele>194.19999694824</ele>
        <time>2020-09-22T08:44:14.000Z</time>
      </trkpt>
      <trkpt lat="45.07074" lon="0.59444">
        <ele>193.80000305176</ele>
        <time>2020-09-22T08:44:15.000Z</time>
      </trkpt>
      <trkpt lat="45.07077" lon="0.59441">
        <ele>193.39999389648</ele>
        <time>2020-09-22T08:44:16.000Z</time>
      </trkpt>
      <trkpt lat="45.0708" lon="0.59439">
        <ele>193</ele>
        <time>2020-09-22T08:44:17.000Z</time>
      </trkpt>
      <trkpt lat="45.07082" lon="0.59437">
        <ele>192.60000610352</ele>
        <time>2020-09-22T08:44:18.000Z</time>
      </trkpt>
      <trkpt lat="45.07085" lon="0.59435">
        <ele>192.19999694824</ele>
        <time>2020-09-22T08:44:19.000Z</time>
      </trkpt>
      <trkpt lat="45.07088" lon="0.59433">
        <ele>191.80000305176</ele>
        <time>2020-09-22T08:44:20.000Z</time>
      </trkpt>
      <trkpt lat="45.0709" lon="0.59431">
        <ele>191.60000610352</ele>
        <time>2020-09-22T08:44:21.000Z</time>
      </trkpt>
      <trkpt lat="45.07092" lon="0.5943">
        <ele>191.39999389648</ele>
        <time>2020-09-22T08:44:22.000Z</time>
      </trkpt>
      <trkpt lat="45.07094" lon="0.59429">
        <ele>191.19999694824</ele>
        <time>2020-09-22T08:44:23.000Z</time>
      </trkpt>
      <trkpt lat="45.07096" lon="0.59428">
        <ele>191.19999694824</ele>
        <time>2020-09-22T08:44:24.000Z</time>
      </trkpt>
      <trkpt lat="45.07097" lon="0.59427">
        <ele>191</ele>
        <time>2020-09-22T08:44:25.000Z</time>
      </trkpt>
      <trkpt lat="45.07099" lon="0.59425">
        <ele>191</ele>
        <time>2020-09-22T08:44:26.000Z</time>
      </trkpt>
      <trkpt lat="45.07101" lon="0.59423">
        <ele>190.80000305176</ele>
        <time>2020-09-22T08:44:27.000Z</time>
      </trkpt>
      <trkpt lat="45.07103" lon="0.59421">
        <ele>190.80000305176</ele>
        <time>2020-09-22T08:44:28.000Z</time>
      </trkpt>
      <trkpt lat="45.07106" lon="0.59418">
        <ele>190.60000610352</ele>
        <time>2020-09-22T08:44:29.000Z</time>
      </trkpt>
      <trkpt lat="45.07108" lon="0.59415">
        <ele>190.60000610352</ele>
        <time>2020-09-22T08:44:30.000Z</time>
      </trkpt>
      <trkpt lat="45.0711" lon="0.59413">
        <ele>190.60000610352</ele>
        <time>2020-09-22T08:44:31.000Z</time>
      </trkpt>
      <trkpt lat="45.07113" lon="0.5941">
        <ele>190.39999389648</ele>
        <time>2020-09-22T08:44:32.000Z</time>
      </trkpt>
      <trkpt lat="45.07116" lon="0.59407">
        <ele>190.19999694824</ele>
        <time>2020-09-22T08:44:33.000Z</time>
      </trkpt>
      <trkpt lat="45.07119" lon="0.59404">
        <ele>190</ele>
        <time>2020-09-22T08:44:34.000Z</time>
      </trkpt>
      <trkpt lat="45.07123" lon="0.594">
        <ele>190</ele>
        <time>2020-09-22T08:44:35.000Z</time>
      </trkpt>
      <trkpt lat="45.07126" lon="0.59397">
        <ele>189.80000305176</ele>
        <time>2020-09-22T08:44:36.000Z</time>
      </trkpt>
      <trkpt lat="45.07128" lon="0.59394">
        <ele>189.39999389648</ele>
        <time>2020-09-22T08:44:37.000Z</time>
      </trkpt>
      <trkpt lat="45.07131" lon="0.59391">
        <ele>189</ele>
        <time>2020-09-22T08:44:38.000Z</time>
      </trkpt>
      <trkpt lat="45.07133" lon="0.59388">
        <ele>188.60000610352</ele>
        <time>2020-09-22T08:44:39.000Z</time>
      </trkpt>
      <trkpt lat="45.07135" lon="0.59385">
        <ele>188.60000610352</ele>
        <time>2020-09-22T08:44:40.000Z</time>
      </trkpt>
      <trkpt lat="45.07137" lon="0.59382">
        <ele>188</ele>
        <time>2020-09-22T08:44:41.000Z</time>
      </trkpt>
      <trkpt lat="45.07139" lon="0.59378">
        <ele>187.39999389648</ele>
        <time>2020-09-22T08:44:42.000Z</time>
      </trkpt>
      <trkpt lat="45.07142" lon="0.59375">
        <ele>186.80000305176</ele>
        <time>2020-09-22T08:44:43.000Z</time>
      </trkpt>
      <trkpt lat="45.07144" lon="0.59371">
        <ele>186.39999389648</ele>
        <time>2020-09-22T08:44:44.000Z</time>
      </trkpt>
      <trkpt lat="45.07146" lon="0.59367">
        <ele>185.80000305176</ele>
        <time>2020-09-22T08:44:45.000Z</time>
      </trkpt>
      <trkpt lat="45.07148" lon="0.59364">
        <ele>185.19999694824</ele>
        <time>2020-09-22T08:44:46.000Z</time>
      </trkpt>
      <trkpt lat="45.07151" lon="0.5936">
        <ele>184.60000610352</ele>
        <time>2020-09-22T08:44:47.000Z</time>
      </trkpt>
      <trkpt lat="45.07154" lon="0.59358">
        <ele>184.19999694824</ele>
        <time>2020-09-22T08:44:48.000Z</time>
      </trkpt>
      <trkpt lat="45.07157" lon="0.59354">
        <ele>183.39999389648</ele>
        <time>2020-09-22T08:44:49.000Z</time>
      </trkpt>
      <trkpt lat="45.0716" lon="0.59352">
        <ele>182.80000305176</ele>
        <time>2020-09-22T08:44:50.000Z</time>
      </trkpt>
      <trkpt lat="45.07163" lon="0.59351">
        <ele>182.19999694824</ele>
        <time>2020-09-22T08:44:51.000Z</time>
      </trkpt>
      <trkpt lat="45.07167" lon="0.59349">
        <ele>181.60000610352</ele>
        <time>2020-09-22T08:44:52.000Z</time>
      </trkpt>
      <trkpt lat="45.0717" lon="0.59349">
        <ele>181</ele>
        <time>2020-09-22T08:44:53.000Z</time>
      </trkpt>
      <trkpt lat="45.07172" lon="0.59348">
        <ele>180.60000610352</ele>
        <time>2020-09-22T08:44:54.000Z</time>
      </trkpt>
      <trkpt lat="45.07175" lon="0.59348">
        <ele>180.19999694824</ele>
        <time>2020-09-22T08:44:55.000Z</time>
      </trkpt>
      <trkpt lat="45.07177" lon="0.59347">
        <ele>179.80000305176</ele>
        <time>2020-09-22T08:44:56.000Z</time>
      </trkpt>
      <trkpt lat="45.0718" lon="0.59345">
        <ele>179.60000610352</ele>
        <time>2020-09-22T08:44:57.000Z</time>
      </trkpt>
      <trkpt lat="45.07183" lon="0.59344">
        <ele>179.19999694824</ele>
        <time>2020-09-22T08:44:58.000Z</time>
      </trkpt>
      <trkpt lat="45.07186" lon="0.59342">
        <ele>178.80000305176</ele>
        <time>2020-09-22T08:44:59.000Z</time>
      </trkpt>
      <trkpt lat="45.07189" lon="0.5934">
        <ele>178.60000610352</ele>
        <time>2020-09-22T08:45:00.000Z</time>
      </trkpt>
      <trkpt lat="45.07192" lon="0.59337">
        <ele>178.19999694824</ele>
        <time>2020-09-22T08:45:01.000Z</time>
      </trkpt>
      <trkpt lat="45.07196" lon="0.59335">
        <ele>177.60000610352</ele>
        <time>2020-09-22T08:45:02.000Z</time>
      </trkpt>
      <trkpt lat="45.07199" lon="0.59334">
        <ele>177.39999389648</ele>
        <time>2020-09-22T08:45:03.000Z</time>
      </trkpt>
      <trkpt lat="45.07202" lon="0.59332">
        <ele>177</ele>
        <time>2020-09-22T08:45:04.000Z</time>
      </trkpt>
      <trkpt lat="45.07205" lon="0.59331">
        <ele>176.60000610352</ele>
        <time>2020-09-22T08:45:05.000Z</time>
      </trkpt>
      <trkpt lat="45.07212" lon="0.5933">
        <ele>175.60000610352</ele>
        <time>2020-09-22T08:45:06.000Z</time>
      </trkpt>
      <trkpt lat="45.07215" lon="0.59329">
        <ele>175</ele>
        <time>2020-09-22T08:45:07.000Z</time>
      </trkpt>
      <trkpt lat="45.07215" lon="0.59329">
        <ele>175</ele>
        <time>2020-09-22T08:45:08.000Z</time>
      </trkpt>
      <trkpt lat="45.07219" lon="0.59327">
        <ele>174.39999389648</ele>
        <time>2020-09-22T08:45:09.000Z</time>
      </trkpt>
      <trkpt lat="45.07222" lon="0.59325">
        <ele>173.80000305176</ele>
        <time>2020-09-22T08:45:10.000Z</time>
      </trkpt>
      <trkpt lat="45.07225" lon="0.59323">
        <ele>173.19999694824</ele>
        <time>2020-09-22T08:45:11.000Z</time>
      </trkpt>
      <trkpt lat="45.07229" lon="0.59321">
        <ele>172.60000610352</ele>
        <time>2020-09-22T08:45:12.000Z</time>
      </trkpt>
      <trkpt lat="45.07233" lon="0.59319">
        <ele>172</ele>
        <time>2020-09-22T08:45:13.000Z</time>
      </trkpt>
      <trkpt lat="45.07236" lon="0.59316">
        <ele>171.39999389648</ele>
        <time>2020-09-22T08:45:14.000Z</time>
      </trkpt>
      <trkpt lat="45.07239" lon="0.59313">
        <ele>170.80000305176</ele>
        <time>2020-09-22T08:45:15.000Z</time>
      </trkpt>
      <trkpt lat="45.07242" lon="0.59311">
        <ele>170.39999389648</ele>
        <time>2020-09-22T08:45:16.000Z</time>
      </trkpt>
      <trkpt lat="45.07245" lon="0.59309">
        <ele>170</ele>
        <time>2020-09-22T08:45:17.000Z</time>
      </trkpt>
      <trkpt lat="45.07248" lon="0.59307">
        <ele>169.60000610352</ele>
        <time>2020-09-22T08:45:18.000Z</time>
      </trkpt>
      <trkpt lat="45.07251" lon="0.59305">
        <ele>169</ele>
        <time>2020-09-22T08:45:19.000Z</time>
      </trkpt>
      <trkpt lat="45.07254" lon="0.59303">
        <ele>168.60000610352</ele>
        <time>2020-09-22T08:45:20.000Z</time>
      </trkpt>
      <trkpt lat="45.07257" lon="0.59301">
        <ele>167.80000305176</ele>
        <time>2020-09-22T08:45:21.000Z</time>
      </trkpt>
      <trkpt lat="45.0726" lon="0.59298">
        <ele>166.80000305176</ele>
        <time>2020-09-22T08:45:22.000Z</time>
      </trkpt>
      <trkpt lat="45.07262" lon="0.59296">
        <ele>165.80000305176</ele>
        <time>2020-09-22T08:45:23.000Z</time>
      </trkpt>
      <trkpt lat="45.07265" lon="0.59293">
        <ele>165</ele>
        <time>2020-09-22T08:45:24.000Z</time>
      </trkpt>
      <trkpt lat="45.07268" lon="0.59292">
        <ele>164.19999694824</ele>
        <time>2020-09-22T08:45:25.000Z</time>
      </trkpt>
      <trkpt lat="45.07271" lon="0.5929">
        <ele>163.19999694824</ele>
        <time>2020-09-22T08:45:26.000Z</time>
      </trkpt>
      <trkpt lat="45.07273" lon="0.59288">
        <ele>162.60000610352</ele>
        <time>2020-09-22T08:45:27.000Z</time>
      </trkpt>
      <trkpt lat="45.07276" lon="0.59287">
        <ele>161.80000305176</ele>
        <time>2020-09-22T08:45:28.000Z</time>
      </trkpt>
      <trkpt lat="45.07279" lon="0.59285">
        <ele>161.19999694824</ele>
        <time>2020-09-22T08:45:29.000Z</time>
      </trkpt>
      <trkpt lat="45.07281" lon="0.59284">
        <ele>161</ele>
        <time>2020-09-22T08:45:30.000Z</time>
      </trkpt>
      <trkpt lat="45.07284" lon="0.59284">
        <ele>160.80000305176</ele>
        <time>2020-09-22T08:45:31.000Z</time>
      </trkpt>
      <trkpt lat="45.07287" lon="0.59283">
        <ele>160.39999389648</ele>
        <time>2020-09-22T08:45:32.000Z</time>
      </trkpt>
      <trkpt lat="45.0729" lon="0.59282">
        <ele>160</ele>
        <time>2020-09-22T08:45:33.000Z</time>
      </trkpt>
      <trkpt lat="45.07297" lon="0.59281">
        <ele>159.19999694824</ele>
        <time>2020-09-22T08:45:34.000Z</time>
      </trkpt>
      <trkpt lat="45.07299" lon="0.59281">
        <ele>158.80000305176</ele>
        <time>2020-09-22T08:45:35.000Z</time>
      </trkpt>
      <trkpt lat="45.07299" lon="0.59281">
        <ele>158.80000305176</ele>
        <time>2020-09-22T08:45:36.000Z</time>
      </trkpt>
      <trkpt lat="45.07302" lon="0.59281">
        <ele>158.39999389648</ele>
        <time>2020-09-22T08:45:37.000Z</time>
      </trkpt>
      <trkpt lat="45.07305" lon="0.59281">
        <ele>157.80000305176</ele>
        <time>2020-09-22T08:45:38.000Z</time>
      </trkpt>
      <trkpt lat="45.07309" lon="0.59281">
        <ele>157.19999694824</ele>
        <time>2020-09-22T08:45:39.000Z</time>
      </trkpt>
      <trkpt lat="45.07311" lon="0.59281">
        <ele>156.60000610352</ele>
        <time>2020-09-22T08:45:40.000Z</time>
      </trkpt>
      <trkpt lat="45.07315" lon="0.59281">
        <ele>156</ele>
        <time>2020-09-22T08:45:41.000Z</time>
      </trkpt>
      <trkpt lat="45.07318" lon="0.59282">
        <ele>155.60000610352</ele>
        <time>2020-09-22T08:45:42.000Z</time>
      </trkpt>
      <trkpt lat="45.07322" lon="0.59282">
        <ele>155</ele>
        <time>2020-09-22T08:45:43.000Z</time>
      </trkpt>
      <trkpt lat="45.07325" lon="0.59282">
        <ele>154.60000610352</ele>
        <time>2020-09-22T08:45:44.000Z</time>
      </trkpt>
      <trkpt lat="45.07328" lon="0.59283">
        <ele>154.19999694824</ele>
        <time>2020-09-22T08:45:45.000Z</time>
      </trkpt>
      <trkpt lat="45.07331" lon="0.59285">
        <ele>153.80000305176</ele>
        <time>2020-09-22T08:45:46.000Z</time>
      </trkpt>
      <trkpt lat="45.07335" lon="0.59286">
        <ele>153.39999389648</ele>
        <time>2020-09-22T08:45:47.000Z</time>
      </trkpt>
      <trkpt lat="45.07338" lon="0.59286">
        <ele>152.80000305176</ele>
        <time>2020-09-22T08:45:48.000Z</time>
      </trkpt>
      <trkpt lat="45.07341" lon="0.59286">
        <ele>152.19999694824</ele>
        <time>2020-09-22T08:45:49.000Z</time>
      </trkpt>
      <trkpt lat="45.07344" lon="0.59285">
        <ele>151.60000610352</ele>
        <time>2020-09-22T08:45:50.000Z</time>
      </trkpt>
      <trkpt lat="45.07348" lon="0.59284">
        <ele>150.80000305176</ele>
        <time>2020-09-22T08:45:51.000Z</time>
      </trkpt>
      <trkpt lat="45.07354" lon="0.59283">
        <ele>149.80000305176</ele>
        <time>2020-09-22T08:45:52.000Z</time>
      </trkpt>
      <trkpt lat="45.07359" lon="0.59281">
        <ele>148.80000305176</ele>
        <time>2020-09-22T08:45:53.000Z</time>
      </trkpt>
      <trkpt lat="45.07364" lon="0.59278">
        <ele>148.19999694824</ele>
        <time>2020-09-22T08:45:54.000Z</time>
      </trkpt>
      <trkpt lat="45.07369" lon="0.59276">
        <ele>147.60000610352</ele>
        <time>2020-09-22T08:45:55.000Z</time>
      </trkpt>
      <trkpt lat="45.07374" lon="0.59274">
        <ele>147</ele>
        <time>2020-09-22T08:45:56.000Z</time>
      </trkpt>
      <trkpt lat="45.07378" lon="0.59272">
        <ele>146.39999389648</ele>
        <time>2020-09-22T08:45:57.000Z</time>
      </trkpt>
      <trkpt lat="45.07382" lon="0.59271">
        <ele>145.60000610352</ele>
        <time>2020-09-22T08:45:58.000Z</time>
      </trkpt>
      <trkpt lat="45.07386" lon="0.5927">
        <ele>144.80000305176</ele>
        <time>2020-09-22T08:45:59.000Z</time>
      </trkpt>
      <trkpt lat="45.0739" lon="0.59268">
        <ele>144.19999694824</ele>
        <time>2020-09-22T08:46:00.000Z</time>
      </trkpt>
      <trkpt lat="45.07393" lon="0.59266">
        <ele>143.39999389648</ele>
        <time>2020-09-22T08:46:01.000Z</time>
      </trkpt>
      <trkpt lat="45.07397" lon="0.59263">
        <ele>142.60000610352</ele>
        <time>2020-09-22T08:46:02.000Z</time>
      </trkpt>
      <trkpt lat="45.07401" lon="0.59262">
        <ele>142</ele>
        <time>2020-09-22T08:46:03.000Z</time>
      </trkpt>
      <trkpt lat="45.07405" lon="0.5926">
        <ele>141.19999694824</ele>
        <time>2020-09-22T08:46:04.000Z</time>
      </trkpt>
      <trkpt lat="45.07408" lon="0.59258">
        <ele>140.60000610352</ele>
        <time>2020-09-22T08:46:05.000Z</time>
      </trkpt>
      <trkpt lat="45.07412" lon="0.59256">
        <ele>139.80000305176</ele>
        <time>2020-09-22T08:46:06.000Z</time>
      </trkpt>
      <trkpt lat="45.07416" lon="0.59255">
        <ele>139.39999389648</ele>
        <time>2020-09-22T08:46:07.000Z</time>
      </trkpt>
      <trkpt lat="45.07419" lon="0.59254">
        <ele>139.19999694824</ele>
        <time>2020-09-22T08:46:08.000Z</time>
      </trkpt>
      <trkpt lat="45.07423" lon="0.59253">
        <ele>139</ele>
        <time>2020-09-22T08:46:09.000Z</time>
      </trkpt>
      <trkpt lat="45.07425" lon="0.59253">
        <ele>138.80000305176</ele>
        <time>2020-09-22T08:46:10.000Z</time>
      </trkpt>
      <trkpt lat="45.07429" lon="0.59253">
        <ele>138.60000610352</ele>
        <time>2020-09-22T08:46:11.000Z</time>
      </trkpt>
      <trkpt lat="45.07433" lon="0.59252">
        <ele>138.39999389648</ele>
        <time>2020-09-22T08:46:12.000Z</time>
      </trkpt>
      <trkpt lat="45.07436" lon="0.59251">
        <ele>138.19999694824</ele>
        <time>2020-09-22T08:46:13.000Z</time>
      </trkpt>
      <trkpt lat="45.0744" lon="0.59249">
        <ele>138</ele>
        <time>2020-09-22T08:46:14.000Z</time>
      </trkpt>
      <trkpt lat="45.07444" lon="0.59247">
        <ele>137.80000305176</ele>
        <time>2020-09-22T08:46:15.000Z</time>
      </trkpt>
      <trkpt lat="45.07448" lon="0.59244">
        <ele>137.60000610352</ele>
        <time>2020-09-22T08:46:16.000Z</time>
      </trkpt>
      <trkpt lat="45.07451" lon="0.59241">
        <ele>137.60000610352</ele>
        <time>2020-09-22T08:46:17.000Z</time>
      </trkpt>
      <trkpt lat="45.07453" lon="0.59237">
        <ele>137.60000610352</ele>
        <time>2020-09-22T08:46:18.000Z</time>
      </trkpt>
      <trkpt lat="45.07456" lon="0.59234">
        <ele>137.39999389648</ele>
        <time>2020-09-22T08:46:19.000Z</time>
      </trkpt>
      <trkpt lat="45.07457" lon="0.5923">
        <ele>137.60000610352</ele>
        <time>2020-09-22T08:46:20.000Z</time>
      </trkpt>
      <trkpt lat="45.07459" lon="0.59226">
        <ele>137.60000610352</ele>
        <time>2020-09-22T08:46:21.000Z</time>
      </trkpt>
      <trkpt lat="45.0746" lon="0.59222">
        <ele>137.80000305176</ele>
        <time>2020-09-22T08:46:22.000Z</time>
      </trkpt>
      <trkpt lat="45.07462" lon="0.59217">
        <ele>137.80000305176</ele>
        <time>2020-09-22T08:46:23.000Z</time>
      </trkpt>
      <trkpt lat="45.07463" lon="0.59212">
        <ele>137.39999389648</ele>
        <time>2020-09-22T08:46:24.000Z</time>
      </trkpt>
      <trkpt lat="45.07465" lon="0.59207">
        <ele>137</ele>
        <time>2020-09-22T08:46:25.000Z</time>
      </trkpt>
      <trkpt lat="45.07466" lon="0.59203">
        <ele>136.60000610352</ele>
        <time>2020-09-22T08:46:26.000Z</time>
      </trkpt>
      <trkpt lat="45.07467" lon="0.59198">
        <ele>136.39999389648</ele>
        <time>2020-09-22T08:46:27.000Z</time>
      </trkpt>
      <trkpt lat="45.07469" lon="0.59193">
        <ele>136</ele>
        <time>2020-09-22T08:46:28.000Z</time>
      </trkpt>
      <trkpt lat="45.07469" lon="0.59188">
        <ele>135.80000305176</ele>
        <time>2020-09-22T08:46:29.000Z</time>
      </trkpt>
      <trkpt lat="45.0747" lon="0.59183">
        <ele>135.39999389648</ele>
        <time>2020-09-22T08:46:30.000Z</time>
      </trkpt>
      <trkpt lat="45.07471" lon="0.59179">
        <ele>135.19999694824</ele>
        <time>2020-09-22T08:46:31.000Z</time>
      </trkpt>
      <trkpt lat="45.07472" lon="0.59174">
        <ele>135</ele>
        <time>2020-09-22T08:46:32.000Z</time>
      </trkpt>
      <trkpt lat="45.07473" lon="0.5917">
        <ele>134.60000610352</ele>
        <time>2020-09-22T08:46:33.000Z</time>
      </trkpt>
      <trkpt lat="45.07474" lon="0.59166">
        <ele>134.39999389648</ele>
        <time>2020-09-22T08:46:34.000Z</time>
      </trkpt>
      <trkpt lat="45.07475" lon="0.59161">
        <ele>134</ele>
        <time>2020-09-22T08:46:35.000Z</time>
      </trkpt>
      <trkpt lat="45.07476" lon="0.59157">
        <ele>133.80000305176</ele>
        <time>2020-09-22T08:46:36.000Z</time>
      </trkpt>
      <trkpt lat="45.07478" lon="0.59148">
        <ele>133.60000610352</ele>
        <time>2020-09-22T08:46:37.000Z</time>
      </trkpt>
      <trkpt lat="45.07478" lon="0.59148">
        <ele>133.60000610352</ele>
        <time>2020-09-22T08:46:38.000Z</time>
      </trkpt>
      <trkpt lat="45.07477" lon="0.59144">
        <ele>134</ele>
        <time>2020-09-22T08:46:39.000Z</time>
      </trkpt>
      <trkpt lat="45.07475" lon="0.59139">
        <ele>134.19999694824</ele>
        <time>2020-09-22T08:46:40.000Z</time>
      </trkpt>
      <trkpt lat="45.07473" lon="0.59136">
        <ele>134.39999389648</ele>
        <time>2020-09-22T08:46:41.000Z</time>
      </trkpt>
      <trkpt lat="45.0747" lon="0.59132">
        <ele>134.39999389648</ele>
        <time>2020-09-22T08:46:42.000Z</time>
      </trkpt>
      <trkpt lat="45.07467" lon="0.59129">
        <ele>134.19999694824</ele>
        <time>2020-09-22T08:46:43.000Z</time>
      </trkpt>
      <trkpt lat="45.07465" lon="0.59126">
        <ele>134.19999694824</ele>
        <time>2020-09-22T08:46:44.000Z</time>
      </trkpt>
      <trkpt lat="45.07462" lon="0.59124">
        <ele>134</ele>
        <time>2020-09-22T08:46:45.000Z</time>
      </trkpt>
      <trkpt lat="45.07458" lon="0.59121">
        <ele>133.80000305176</ele>
        <time>2020-09-22T08:46:46.000Z</time>
      </trkpt>
      <trkpt lat="45.07455" lon="0.59119">
        <ele>133.39999389648</ele>
        <time>2020-09-22T08:46:47.000Z</time>
      </trkpt>
      <trkpt lat="45.07452" lon="0.59117">
        <ele>133.19999694824</ele>
        <time>2020-09-22T08:46:48.000Z</time>
      </trkpt>
      <trkpt lat="45.07449" lon="0.59115">
        <ele>132.80000305176</ele>
        <time>2020-09-22T08:46:49.000Z</time>
      </trkpt>
      <trkpt lat="45.07446" lon="0.59113">
        <ele>132.60000610352</ele>
        <time>2020-09-22T08:46:50.000Z</time>
      </trkpt>
      <trkpt lat="45.07443" lon="0.59112">
        <ele>132.39999389648</ele>
        <time>2020-09-22T08:46:51.000Z</time>
      </trkpt>
      <trkpt lat="45.0744" lon="0.59112">
        <ele>132.19999694824</ele>
        <time>2020-09-22T08:46:52.000Z</time>
      </trkpt>
      <trkpt lat="45.07437" lon="0.59111">
        <ele>132</ele>
        <time>2020-09-22T08:46:53.000Z</time>
      </trkpt>
      <trkpt lat="45.07434" lon="0.59111">
        <ele>131.80000305176</ele>
        <time>2020-09-22T08:46:54.000Z</time>
      </trkpt>
      <trkpt lat="45.0743" lon="0.5911">
        <ele>131.60000610352</ele>
        <time>2020-09-22T08:46:55.000Z</time>
      </trkpt>
      <trkpt lat="45.07427" lon="0.59109">
        <ele>131.39999389648</ele>
        <time>2020-09-22T08:46:56.000Z</time>
      </trkpt>
      <trkpt lat="45.07424" lon="0.59108">
        <ele>131.19999694824</ele>
        <time>2020-09-22T08:46:57.000Z</time>
      </trkpt>
      <trkpt lat="45.07421" lon="0.59107">
        <ele>131</ele>
        <time>2020-09-22T08:46:58.000Z</time>
      </trkpt>
      <trkpt lat="45.07417" lon="0.59106">
        <ele>130.80000305176</ele>
        <time>2020-09-22T08:46:59.000Z</time>
      </trkpt>
      <trkpt lat="45.07414" lon="0.59105">
        <ele>130.60000610352</ele>
        <time>2020-09-22T08:47:00.000Z</time>
      </trkpt>
      <trkpt lat="45.07411" lon="0.59104">
        <ele>130.39999389648</ele>
        <time>2020-09-22T08:47:01.000Z</time>
      </trkpt>
      <trkpt lat="45.07407" lon="0.59102">
        <ele>130.19999694824</ele>
        <time>2020-09-22T08:47:02.000Z</time>
      </trkpt>
      <trkpt lat="45.07403" lon="0.59101">
        <ele>130</ele>
        <time>2020-09-22T08:47:03.000Z</time>
      </trkpt>
      <trkpt lat="45.074" lon="0.591">
        <ele>129.80000305176</ele>
        <time>2020-09-22T08:47:04.000Z</time>
      </trkpt>
      <trkpt lat="45.07396" lon="0.59098">
        <ele>129.60000610352</ele>
        <time>2020-09-22T08:47:05.000Z</time>
      </trkpt>
      <trkpt lat="45.07392" lon="0.59097">
        <ele>129.19999694824</ele>
        <time>2020-09-22T08:47:06.000Z</time>
      </trkpt>
      <trkpt lat="45.07389" lon="0.59095">
        <ele>129</ele>
        <time>2020-09-22T08:47:07.000Z</time>
      </trkpt>
      <trkpt lat="45.07386" lon="0.59092">
        <ele>128.60000610352</ele>
        <time>2020-09-22T08:47:08.000Z</time>
      </trkpt>
      <trkpt lat="45.07383" lon="0.59089">
        <ele>128.19999694824</ele>
        <time>2020-09-22T08:47:09.000Z</time>
      </trkpt>
      <trkpt lat="45.0738" lon="0.59086">
        <ele>127.80000305176</ele>
        <time>2020-09-22T08:47:10.000Z</time>
      </trkpt>
      <trkpt lat="45.07377" lon="0.59084">
        <ele>127.40000152588</ele>
        <time>2020-09-22T08:47:11.000Z</time>
      </trkpt>
      <trkpt lat="45.07374" lon="0.5908">
        <ele>126.80000305176</ele>
        <time>2020-09-22T08:47:12.000Z</time>
      </trkpt>
      <trkpt lat="45.07372" lon="0.59075">
        <ele>126.19999694824</ele>
        <time>2020-09-22T08:47:13.000Z</time>
      </trkpt>
      <trkpt lat="45.0737" lon="0.5907">
        <ele>125.59999847412</ele>
        <time>2020-09-22T08:47:14.000Z</time>
      </trkpt>
      <trkpt lat="45.07368" lon="0.59065">
        <ele>125</ele>
        <time>2020-09-22T08:47:15.000Z</time>
      </trkpt>
      <trkpt lat="45.07367" lon="0.5906">
        <ele>124.40000152588</ele>
        <time>2020-09-22T08:47:16.000Z</time>
      </trkpt>
      <trkpt lat="45.07365" lon="0.59055">
        <ele>123.59999847412</ele>
        <time>2020-09-22T08:47:17.000Z</time>
      </trkpt>
      <trkpt lat="45.07364" lon="0.5905">
        <ele>123</ele>
        <time>2020-09-22T08:47:18.000Z</time>
      </trkpt>
      <trkpt lat="45.07362" lon="0.59045">
        <ele>122.40000152588</ele>
        <time>2020-09-22T08:47:19.000Z</time>
      </trkpt>
      <trkpt lat="45.07361" lon="0.5904">
        <ele>121.59999847412</ele>
        <time>2020-09-22T08:47:20.000Z</time>
      </trkpt>
      <trkpt lat="45.07359" lon="0.59035">
        <ele>121</ele>
        <time>2020-09-22T08:47:21.000Z</time>
      </trkpt>
      <trkpt lat="45.07358" lon="0.59031">
        <ele>120.40000152588</ele>
        <time>2020-09-22T08:47:22.000Z</time>
      </trkpt>
      <trkpt lat="45.07357" lon="0.59026">
        <ele>119.80000305176</ele>
        <time>2020-09-22T08:47:23.000Z</time>
      </trkpt>
      <trkpt lat="45.07355" lon="0.59021">
        <ele>119.19999694824</ele>
        <time>2020-09-22T08:47:24.000Z</time>
      </trkpt>
      <trkpt lat="45.07354" lon="0.59016">
        <ele>118.59999847412</ele>
        <time>2020-09-22T08:47:25.000Z</time>
      </trkpt>
      <trkpt lat="45.07352" lon="0.59011">
        <ele>118</ele>
        <time>2020-09-22T08:47:26.000Z</time>
      </trkpt>
      <trkpt lat="45.07351" lon="0.59006">
        <ele>117.19999694824</ele>
        <time>2020-09-22T08:47:27.000Z</time>
      </trkpt>
      <trkpt lat="45.07349" lon="0.59001">
        <ele>116.59999847412</ele>
        <time>2020-09-22T08:47:28.000Z</time>
      </trkpt>
      <trkpt lat="45.07347" lon="0.58996">
        <ele>116</ele>
        <time>2020-09-22T08:47:29.000Z</time>
      </trkpt>
      <trkpt lat="45.07345" lon="0.58991">
        <ele>115.19999694824</ele>
        <time>2020-09-22T08:47:30.000Z</time>
      </trkpt>
      <trkpt lat="45.07344" lon="0.58986">
        <ele>114.59999847412</ele>
        <time>2020-09-22T08:47:31.000Z</time>
      </trkpt>
      <trkpt lat="45.07343" lon="0.58981">
        <ele>114</ele>
        <time>2020-09-22T08:47:32.000Z</time>
      </trkpt>
      <trkpt lat="45.07342" lon="0.58976">
        <ele>113.40000152588</ele>
        <time>2020-09-22T08:47:33.000Z</time>
      </trkpt>
      <trkpt lat="45.0734" lon="0.58971">
        <ele>112.59999847412</ele>
        <time>2020-09-22T08:47:34.000Z</time>
      </trkpt>
      <trkpt lat="45.07339" lon="0.58966">
        <ele>112</ele>
        <time>2020-09-22T08:47:35.000Z</time>
      </trkpt>
      <trkpt lat="45.07338" lon="0.5896">
        <ele>111.40000152588</ele>
        <time>2020-09-22T08:47:36.000Z</time>
      </trkpt>
      <trkpt lat="45.07337" lon="0.58955">
        <ele>111</ele>
        <time>2020-09-22T08:47:37.000Z</time>
      </trkpt>
      <trkpt lat="45.07336" lon="0.5895">
        <ele>110.40000152588</ele>
        <time>2020-09-22T08:47:38.000Z</time>
      </trkpt>
      <trkpt lat="45.07335" lon="0.58946">
        <ele>109.80000305176</ele>
        <time>2020-09-22T08:47:39.000Z</time>
      </trkpt>
      <trkpt lat="45.07333" lon="0.58935">
        <ele>108.80000305176</ele>
        <time>2020-09-22T08:47:40.000Z</time>
      </trkpt>
      <trkpt lat="45.07332" lon="0.5893">
        <ele>108.19999694824</ele>
        <time>2020-09-22T08:47:41.000Z</time>
      </trkpt>
      <trkpt lat="45.07332" lon="0.5893">
        <ele>108.19999694824</ele>
        <time>2020-09-22T08:47:42.000Z</time>
      </trkpt>
      <trkpt lat="45.07331" lon="0.58925">
        <ele>107.59999847412</ele>
        <time>2020-09-22T08:47:43.000Z</time>
      </trkpt>
      <trkpt lat="45.0733" lon="0.5892">
        <ele>107</ele>
        <time>2020-09-22T08:47:44.000Z</time>
      </trkpt>
      <trkpt lat="45.07328" lon="0.58915">
        <ele>106.19999694824</ele>
        <time>2020-09-22T08:47:45.000Z</time>
      </trkpt>
      <trkpt lat="45.07327" lon="0.58909">
        <ele>105.59999847412</ele>
        <time>2020-09-22T08:47:46.000Z</time>
      </trkpt>
      <trkpt lat="45.07325" lon="0.58905">
        <ele>105</ele>
        <time>2020-09-22T08:47:47.000Z</time>
      </trkpt>
      <trkpt lat="45.07323" lon="0.589">
        <ele>104.19999694824</ele>
        <time>2020-09-22T08:47:48.000Z</time>
      </trkpt>
      <trkpt lat="45.07322" lon="0.58895">
        <ele>103.59999847412</ele>
        <time>2020-09-22T08:47:49.000Z</time>
      </trkpt>
      <trkpt lat="45.0732" lon="0.5889">
        <ele>102.80000305176</ele>
        <time>2020-09-22T08:47:50.000Z</time>
      </trkpt>
      <trkpt lat="45.07319" lon="0.58885">
        <ele>102.19999694824</ele>
        <time>2020-09-22T08:47:51.000Z</time>
      </trkpt>
      <trkpt lat="45.07317" lon="0.5888">
        <ele>101.80000305176</ele>
        <time>2020-09-22T08:47:52.000Z</time>
      </trkpt>
      <trkpt lat="45.07316" lon="0.58875">
        <ele>101.59999847412</ele>
        <time>2020-09-22T08:47:53.000Z</time>
      </trkpt>
      <trkpt lat="45.07315" lon="0.5887">
        <ele>101.19999694824</ele>
        <time>2020-09-22T08:47:54.000Z</time>
      </trkpt>
      <trkpt lat="45.07314" lon="0.58865">
        <ele>100.80000305176</ele>
        <time>2020-09-22T08:47:55.000Z</time>
      </trkpt>
      <trkpt lat="45.07312" lon="0.58861">
        <ele>100.40000152588</ele>
        <time>2020-09-22T08:47:56.000Z</time>
      </trkpt>
      <trkpt lat="45.07311" lon="0.58856">
        <ele>100</ele>
        <time>2020-09-22T08:47:57.000Z</time>
      </trkpt>
      <trkpt lat="45.07309" lon="0.58851">
        <ele>99.800003051758</ele>
        <time>2020-09-22T08:47:58.000Z</time>
      </trkpt>
      <trkpt lat="45.07307" lon="0.58847">
        <ele>99.400001525879</ele>
        <time>2020-09-22T08:47:59.000Z</time>
      </trkpt>
      <trkpt lat="45.07306" lon="0.58842">
        <ele>99</ele>
        <time>2020-09-22T08:48:00.000Z</time>
      </trkpt>
      <trkpt lat="45.07304" lon="0.58838">
        <ele>98.800003051758</ele>
        <time>2020-09-22T08:48:01.000Z</time>
      </trkpt>
      <trkpt lat="45.07302" lon="0.58834">
        <ele>98.400001525879</ele>
        <time>2020-09-22T08:48:02.000Z</time>
      </trkpt>
      <trkpt lat="45.07301" lon="0.5883">
        <ele>98</ele>
        <time>2020-09-22T08:48:03.000Z</time>
      </trkpt>
      <trkpt lat="45.07299" lon="0.58825">
        <ele>97.800003051758</ele>
        <time>2020-09-22T08:48:04.000Z</time>
      </trkpt>
      <trkpt lat="45.07297" lon="0.58821">
        <ele>97.400001525879</ele>
        <time>2020-09-22T08:48:05.000Z</time>
      </trkpt>
      <trkpt lat="45.07296" lon="0.58816">
        <ele>97</ele>
        <time>2020-09-22T08:48:06.000Z</time>
      </trkpt>
      <trkpt lat="45.07295" lon="0.58811">
        <ele>96.599998474121</ele>
        <time>2020-09-22T08:48:07.000Z</time>
      </trkpt>
      <trkpt lat="45.07293" lon="0.58807">
        <ele>96.400001525879</ele>
        <time>2020-09-22T08:48:08.000Z</time>
      </trkpt>
      <trkpt lat="45.07292" lon="0.58802">
        <ele>96</ele>
        <time>2020-09-22T08:48:09.000Z</time>
      </trkpt>
      <trkpt lat="45.07292" lon="0.58797">
        <ele>96</ele>
        <time>2020-09-22T08:48:10.000Z</time>
      </trkpt>
      <trkpt lat="45.07291" lon="0.58793">
        <ele>96.199996948242</ele>
        <time>2020-09-22T08:48:11.000Z</time>
      </trkpt>
      <trkpt lat="45.07289" lon="0.58789">
        <ele>96.199996948242</ele>
        <time>2020-09-22T08:48:12.000Z</time>
      </trkpt>
      <trkpt lat="45.07289" lon="0.58784">
        <ele>96.199996948242</ele>
        <time>2020-09-22T08:48:13.000Z</time>
      </trkpt>
      <trkpt lat="45.07288" lon="0.58779">
        <ele>96.400001525879</ele>
        <time>2020-09-22T08:48:14.000Z</time>
      </trkpt>
      <trkpt lat="45.07287" lon="0.58775">
        <ele>96.400001525879</ele>
        <time>2020-09-22T08:48:15.000Z</time>
      </trkpt>
      <trkpt lat="45.07286" lon="0.58771">
        <ele>96.400001525879</ele>
        <time>2020-09-22T08:48:16.000Z</time>
      </trkpt>
      <trkpt lat="45.07286" lon="0.58766">
        <ele>96.400001525879</ele>
        <time>2020-09-22T08:48:17.000Z</time>
      </trkpt>
      <trkpt lat="45.07286" lon="0.58762">
        <ele>96.400001525879</ele>
        <time>2020-09-22T08:48:18.000Z</time>
      </trkpt>
      <trkpt lat="45.07285" lon="0.58758">
        <ele>96.400001525879</ele>
        <time>2020-09-22T08:48:19.000Z</time>
      </trkpt>
      <trkpt lat="45.07285" lon="0.58754">
        <ele>96.400001525879</ele>
        <time>2020-09-22T08:48:20.000Z</time>
      </trkpt>
      <trkpt lat="45.07285" lon="0.58751">
        <ele>96.400001525879</ele>
        <time>2020-09-22T08:48:21.000Z</time>
      </trkpt>
      <trkpt lat="45.07285" lon="0.58747">
        <ele>96.599998474121</ele>
        <time>2020-09-22T08:48:22.000Z</time>
      </trkpt>
      <trkpt lat="45.07284" lon="0.58743">
        <ele>96.599998474121</ele>
        <time>2020-09-22T08:48:23.000Z</time>
      </trkpt>
      <trkpt lat="45.07284" lon="0.58739">
        <ele>96.599998474121</ele>
        <time>2020-09-22T08:48:24.000Z</time>
      </trkpt>
      <trkpt lat="45.07283" lon="0.58735">
        <ele>96.599998474121</ele>
        <time>2020-09-22T08:48:25.000Z</time>
      </trkpt>
      <trkpt lat="45.07283" lon="0.58732">
        <ele>96.599998474121</ele>
        <time>2020-09-22T08:48:26.000Z</time>
      </trkpt>
      <trkpt lat="45.07282" lon="0.58728">
        <ele>96.599998474121</ele>
        <time>2020-09-22T08:48:27.000Z</time>
      </trkpt>
      <trkpt lat="45.07282" lon="0.58724">
        <ele>96.599998474121</ele>
        <time>2020-09-22T08:48:28.000Z</time>
      </trkpt>
      <trkpt lat="45.07281" lon="0.58719">
        <ele>96.599998474121</ele>
        <time>2020-09-22T08:48:29.000Z</time>
      </trkpt>
      <trkpt lat="45.07281" lon="0.58715">
        <ele>96.800003051758</ele>
        <time>2020-09-22T08:48:30.000Z</time>
      </trkpt>
      <trkpt lat="45.0728" lon="0.58711">
        <ele>97</ele>
        <time>2020-09-22T08:48:31.000Z</time>
      </trkpt>
      <trkpt lat="45.0728" lon="0.58707">
        <ele>97.400001525879</ele>
        <time>2020-09-22T08:48:32.000Z</time>
      </trkpt>
      <trkpt lat="45.07279" lon="0.58703">
        <ele>97.599998474121</ele>
        <time>2020-09-22T08:48:33.000Z</time>
      </trkpt>
      <trkpt lat="45.07278" lon="0.587">
        <ele>98</ele>
        <time>2020-09-22T08:48:34.000Z</time>
      </trkpt>
      <trkpt lat="45.07278" lon="0.58696">
        <ele>98.199996948242</ele>
        <time>2020-09-22T08:48:35.000Z</time>
      </trkpt>
      <trkpt lat="45.07277" lon="0.58693">
        <ele>98.599998474121</ele>
        <time>2020-09-22T08:48:36.000Z</time>
      </trkpt>
      <trkpt lat="45.07276" lon="0.58689">
        <ele>98.800003051758</ele>
        <time>2020-09-22T08:48:37.000Z</time>
      </trkpt>
      <trkpt lat="45.07275" lon="0.58686">
        <ele>99.199996948242</ele>
        <time>2020-09-22T08:48:38.000Z</time>
      </trkpt>
      <trkpt lat="45.07274" lon="0.58682">
        <ele>99.599998474121</ele>
        <time>2020-09-22T08:48:39.000Z</time>
      </trkpt>
      <trkpt lat="45.07272" lon="0.58678">
        <ele>99.800003051758</ele>
        <time>2020-09-22T08:48:40.000Z</time>
      </trkpt>
      <trkpt lat="45.0727" lon="0.58675">
        <ele>100.19999694824</ele>
        <time>2020-09-22T08:48:41.000Z</time>
      </trkpt>
      <trkpt lat="45.07267" lon="0.58673">
        <ele>100.40000152588</ele>
        <time>2020-09-22T08:48:42.000Z</time>
      </trkpt>
      <trkpt lat="45.07262" lon="0.5867">
        <ele>100.80000305176</ele>
        <time>2020-09-22T08:48:43.000Z</time>
      </trkpt>
      <trkpt lat="45.0726" lon="0.58671">
        <ele>100.80000305176</ele>
        <time>2020-09-22T08:48:44.000Z</time>
      </trkpt>
      <trkpt lat="45.0726" lon="0.58671">
        <ele>100.80000305176</ele>
        <time>2020-09-22T08:48:45.000Z</time>
      </trkpt>
      <trkpt lat="45.07257" lon="0.58671">
        <ele>100.80000305176</ele>
        <time>2020-09-22T08:48:46.000Z</time>
      </trkpt>
      <trkpt lat="45.07254" lon="0.5867">
        <ele>101</ele>
        <time>2020-09-22T08:48:47.000Z</time>
      </trkpt>
      <trkpt lat="45.07251" lon="0.58669">
        <ele>101.19999694824</ele>
        <time>2020-09-22T08:48:48.000Z</time>
      </trkpt>
      <trkpt lat="45.07249" lon="0.58666">
        <ele>101.40000152588</ele>
        <time>2020-09-22T08:48:49.000Z</time>
      </trkpt>
      <trkpt lat="45.07248" lon="0.58663">
        <ele>101.80000305176</ele>
        <time>2020-09-22T08:48:50.000Z</time>
      </trkpt>
      <trkpt lat="45.07247" lon="0.5866">
        <ele>102</ele>
        <time>2020-09-22T08:48:51.000Z</time>
      </trkpt>
      <trkpt lat="45.07246" lon="0.58656">
        <ele>102.40000152588</ele>
        <time>2020-09-22T08:48:52.000Z</time>
      </trkpt>
      <trkpt lat="45.07245" lon="0.58653">
        <ele>102.59999847412</ele>
        <time>2020-09-22T08:48:53.000Z</time>
      </trkpt>
      <trkpt lat="45.07245" lon="0.58649">
        <ele>103</ele>
        <time>2020-09-22T08:48:54.000Z</time>
      </trkpt>
      <trkpt lat="45.07245" lon="0.58645">
        <ele>103.19999694824</ele>
        <time>2020-09-22T08:48:55.000Z</time>
      </trkpt>
      <trkpt lat="45.07244" lon="0.58642">
        <ele>103.59999847412</ele>
        <time>2020-09-22T08:48:56.000Z</time>
      </trkpt>
      <trkpt lat="45.07244" lon="0.58638">
        <ele>103.80000305176</ele>
        <time>2020-09-22T08:48:57.000Z</time>
      </trkpt>
      <trkpt lat="45.07244" lon="0.58635">
        <ele>104.19999694824</ele>
        <time>2020-09-22T08:48:58.000Z</time>
      </trkpt>
      <trkpt lat="45.07244" lon="0.58631">
        <ele>104.59999847412</ele>
        <time>2020-09-22T08:48:59.000Z</time>
      </trkpt>
      <trkpt lat="45.07244" lon="0.58628">
        <ele>104.80000305176</ele>
        <time>2020-09-22T08:49:00.000Z</time>
      </trkpt>
      <trkpt lat="45.07244" lon="0.58624">
        <ele>105.19999694824</ele>
        <time>2020-09-22T08:49:01.000Z</time>
      </trkpt>
      <trkpt lat="45.07244" lon="0.58621">
        <ele>105.59999847412</ele>
        <time>2020-09-22T08:49:02.000Z</time>
      </trkpt>
      <trkpt lat="45.07244" lon="0.58617">
        <ele>105.80000305176</ele>
        <time>2020-09-22T08:49:03.000Z</time>
      </trkpt>
      <trkpt lat="45.07245" lon="0.58613">
        <ele>106.19999694824</ele>
        <time>2020-09-22T08:49:04.000Z</time>
      </trkpt>
      <trkpt lat="45.07246" lon="0.5861">
        <ele>106.59999847412</ele>
        <time>2020-09-22T08:49:05.000Z</time>
      </trkpt>
      <trkpt lat="45.07247" lon="0.58606">
        <ele>106.80000305176</ele>
        <time>2020-09-22T08:49:06.000Z</time>
      </trkpt>
      <trkpt lat="45.07248" lon="0.58602">
        <ele>107.19999694824</ele>
        <time>2020-09-22T08:49:07.000Z</time>
      </trkpt>
      <trkpt lat="45.07249" lon="0.58599">
        <ele>107.59999847412</ele>
        <time>2020-09-22T08:49:08.000Z</time>
      </trkpt>
      <trkpt lat="45.07249" lon="0.58595">
        <ele>107.80000305176</ele>
        <time>2020-09-22T08:49:09.000Z</time>
      </trkpt>
      <trkpt lat="45.0725" lon="0.58591">
        <ele>108.19999694824</ele>
        <time>2020-09-22T08:49:10.000Z</time>
      </trkpt>
      <trkpt lat="45.07251" lon="0.58588">
        <ele>108.80000305176</ele>
        <time>2020-09-22T08:49:11.000Z</time>
      </trkpt>
      <trkpt lat="45.07252" lon="0.58584">
        <ele>109.19999694824</ele>
        <time>2020-09-22T08:49:12.000Z</time>
      </trkpt>
      <trkpt lat="45.07253" lon="0.58581">
        <ele>109.59999847412</ele>
        <time>2020-09-22T08:49:13.000Z</time>
      </trkpt>
      <trkpt lat="45.07254" lon="0.58577">
        <ele>110.19999694824</ele>
        <time>2020-09-22T08:49:14.000Z</time>
      </trkpt>
      <trkpt lat="45.07255" lon="0.58574">
        <ele>110.59999847412</ele>
        <time>2020-09-22T08:49:15.000Z</time>
      </trkpt>
      <trkpt lat="45.07257" lon="0.58571">
        <ele>111</ele>
        <time>2020-09-22T08:49:16.000Z</time>
      </trkpt>
      <trkpt lat="45.07258" lon="0.58568">
        <ele>111.40000152588</ele>
        <time>2020-09-22T08:49:17.000Z</time>
      </trkpt>
      <trkpt lat="45.07258" lon="0.58565">
        <ele>111.80000305176</ele>
        <time>2020-09-22T08:49:18.000Z</time>
      </trkpt>
      <trkpt lat="45.07259" lon="0.58562">
        <ele>112.19999694824</ele>
        <time>2020-09-22T08:49:19.000Z</time>
      </trkpt>
      <trkpt lat="45.07259" lon="0.58558">
        <ele>112.59999847412</ele>
        <time>2020-09-22T08:49:20.000Z</time>
      </trkpt>
      <trkpt lat="45.0726" lon="0.58555">
        <ele>113.19999694824</ele>
        <time>2020-09-22T08:49:21.000Z</time>
      </trkpt>
      <trkpt lat="45.0726" lon="0.58552">
        <ele>113.59999847412</ele>
        <time>2020-09-22T08:49:22.000Z</time>
      </trkpt>
      <trkpt lat="45.07261" lon="0.58548">
        <ele>114.19999694824</ele>
        <time>2020-09-22T08:49:23.000Z</time>
      </trkpt>
      <trkpt lat="45.07262" lon="0.58545">
        <ele>114.59999847412</ele>
        <time>2020-09-22T08:49:24.000Z</time>
      </trkpt>
      <trkpt lat="45.07264" lon="0.58542">
        <ele>115.19999694824</ele>
        <time>2020-09-22T08:49:25.000Z</time>
      </trkpt>
      <trkpt lat="45.07265" lon="0.58539">
        <ele>115.80000305176</ele>
        <time>2020-09-22T08:49:26.000Z</time>
      </trkpt>
      <trkpt lat="45.07267" lon="0.58536">
        <ele>116.40000152588</ele>
        <time>2020-09-22T08:49:27.000Z</time>
      </trkpt>
      <trkpt lat="45.07269" lon="0.58533">
        <ele>116.80000305176</ele>
        <time>2020-09-22T08:49:28.000Z</time>
      </trkpt>
      <trkpt lat="45.0727" lon="0.58531">
        <ele>117.19999694824</ele>
        <time>2020-09-22T08:49:29.000Z</time>
      </trkpt>
      <trkpt lat="45.07272" lon="0.58528">
        <ele>117.59999847412</ele>
        <time>2020-09-22T08:49:30.000Z</time>
      </trkpt>
      <trkpt lat="45.07273" lon="0.58525">
        <ele>118.19999694824</ele>
        <time>2020-09-22T08:49:31.000Z</time>
      </trkpt>
      <trkpt lat="45.07274" lon="0.58523">
        <ele>118.59999847412</ele>
        <time>2020-09-22T08:49:32.000Z</time>
      </trkpt>
      <trkpt lat="45.07275" lon="0.58521">
        <ele>119</ele>
        <time>2020-09-22T08:49:33.000Z</time>
      </trkpt>
      <trkpt lat="45.07276" lon="0.58519">
        <ele>119.19999694824</ele>
        <time>2020-09-22T08:49:34.000Z</time>
      </trkpt>
      <trkpt lat="45.07278" lon="0.58517">
        <ele>119.59999847412</ele>
        <time>2020-09-22T08:49:35.000Z</time>
      </trkpt>
      <trkpt lat="45.0728" lon="0.58516">
        <ele>119.80000305176</ele>
        <time>2020-09-22T08:49:36.000Z</time>
      </trkpt>
      <trkpt lat="45.07281" lon="0.58515">
        <ele>120</ele>
        <time>2020-09-22T08:49:37.000Z</time>
      </trkpt>
      <trkpt lat="45.07282" lon="0.58514">
        <ele>120.19999694824</ele>
        <time>2020-09-22T08:49:38.000Z</time>
      </trkpt>
      <trkpt lat="45.07283" lon="0.58513">
        <ele>120.40000152588</ele>
        <time>2020-09-22T08:49:39.000Z</time>
      </trkpt>
      <trkpt lat="45.07285" lon="0.58512">
        <ele>120.40000152588</ele>
        <time>2020-09-22T08:49:40.000Z</time>
      </trkpt>
      <trkpt lat="45.07286" lon="0.58512">
        <ele>120.59999847412</ele>
        <time>2020-09-22T08:49:41.000Z</time>
      </trkpt>
      <trkpt lat="45.07286" lon="0.58511">
        <ele>120.80000305176</ele>
        <time>2020-09-22T08:49:42.000Z</time>
      </trkpt>
      <trkpt lat="45.07287" lon="0.5851">
        <ele>121</ele>
        <time>2020-09-22T08:49:43.000Z</time>
      </trkpt>
      <trkpt lat="45.07289" lon="0.58509">
        <ele>121.19999694824</ele>
        <time>2020-09-22T08:49:44.000Z</time>
      </trkpt>
      <trkpt lat="45.0729" lon="0.58507">
        <ele>121.40000152588</ele>
        <time>2020-09-22T08:49:45.000Z</time>
      </trkpt>
      <trkpt lat="45.07293" lon="0.58504">
        <ele>122</ele>
        <time>2020-09-22T08:49:46.000Z</time>
      </trkpt>
      <trkpt lat="45.07294" lon="0.58503">
        <ele>122</ele>
        <time>2020-09-22T08:49:47.000Z</time>
      </trkpt>
      <trkpt lat="45.07294" lon="0.58503">
        <ele>122</ele>
        <time>2020-09-22T08:49:48.000Z</time>
      </trkpt>
      <trkpt lat="45.07297" lon="0.58502">
        <ele>122.19999694824</ele>
        <time>2020-09-22T08:49:49.000Z</time>
      </trkpt>
      <trkpt lat="45.07299" lon="0.58501">
        <ele>122.19999694824</ele>
        <time>2020-09-22T08:49:50.000Z</time>
      </trkpt>
      <trkpt lat="45.07302" lon="0.585">
        <ele>122.40000152588</ele>
        <time>2020-09-22T08:49:51.000Z</time>
      </trkpt>
      <trkpt lat="45.07303" lon="0.58499">
        <ele>122.59999847412</ele>
        <time>2020-09-22T08:49:52.000Z</time>
      </trkpt>
      <trkpt lat="45.07305" lon="0.58498">
        <ele>122.59999847412</ele>
        <time>2020-09-22T08:49:53.000Z</time>
      </trkpt>
      <trkpt lat="45.07307" lon="0.58498">
        <ele>122.59999847412</ele>
        <time>2020-09-22T08:49:54.000Z</time>
      </trkpt>
      <trkpt lat="45.07308" lon="0.58498">
        <ele>122.59999847412</ele>
        <time>2020-09-22T08:49:55.000Z</time>
      </trkpt>
      <trkpt lat="45.0731" lon="0.58497">
        <ele>122.80000305176</ele>
        <time>2020-09-22T08:49:56.000Z</time>
      </trkpt>
      <trkpt lat="45.07312" lon="0.58497">
        <ele>122.59999847412</ele>
        <time>2020-09-22T08:49:57.000Z</time>
      </trkpt>
      <trkpt lat="45.07313" lon="0.58496">
        <ele>122.80000305176</ele>
        <time>2020-09-22T08:49:58.000Z</time>
      </trkpt>
      <trkpt lat="45.07314" lon="0.58495">
        <ele>123</ele>
        <time>2020-09-22T08:49:59.000Z</time>
      </trkpt>
      <trkpt lat="45.07315" lon="0.58494">
        <ele>123.19999694824</ele>
        <time>2020-09-22T08:50:00.000Z</time>
      </trkpt>
      <trkpt lat="45.07316" lon="0.58492">
        <ele>123.40000152588</ele>
        <time>2020-09-22T08:50:01.000Z</time>
      </trkpt>
      <trkpt lat="45.07318" lon="0.5849">
        <ele>123.59999847412</ele>
        <time>2020-09-22T08:50:02.000Z</time>
      </trkpt>
      <trkpt lat="45.07319" lon="0.58487">
        <ele>123.80000305176</ele>
        <time>2020-09-22T08:50:03.000Z</time>
      </trkpt>
      <trkpt lat="45.0732" lon="0.58484">
        <ele>124</ele>
        <time>2020-09-22T08:50:04.000Z</time>
      </trkpt>
      <trkpt lat="45.07321" lon="0.58481">
        <ele>124.19999694824</ele>
        <time>2020-09-22T08:50:05.000Z</time>
      </trkpt>
      <trkpt lat="45.07322" lon="0.58478">
        <ele>124.59999847412</ele>
        <time>2020-09-22T08:50:06.000Z</time>
      </trkpt>
      <trkpt lat="45.07323" lon="0.58475">
        <ele>124.80000305176</ele>
        <time>2020-09-22T08:50:07.000Z</time>
      </trkpt>
      <trkpt lat="45.07323" lon="0.58472">
        <ele>125</ele>
        <time>2020-09-22T08:50:08.000Z</time>
      </trkpt>
      <trkpt lat="45.07322" lon="0.58469">
        <ele>125.40000152588</ele>
        <time>2020-09-22T08:50:09.000Z</time>
      </trkpt>
      <trkpt lat="45.07322" lon="0.58466">
        <ele>125.59999847412</ele>
        <time>2020-09-22T08:50:10.000Z</time>
      </trkpt>
      <trkpt lat="45.07323" lon="0.58464">
        <ele>125.80000305176</ele>
        <time>2020-09-22T08:50:11.000Z</time>
      </trkpt>
      <trkpt lat="45.07324" lon="0.58461">
        <ele>126</ele>
        <time>2020-09-22T08:50:12.000Z</time>
      </trkpt>
      <trkpt lat="45.07324" lon="0.58459">
        <ele>126.19999694824</ele>
        <time>2020-09-22T08:50:13.000Z</time>
      </trkpt>
      <trkpt lat="45.07325" lon="0.58456">
        <ele>126.19999694824</ele>
        <time>2020-09-22T08:50:14.000Z</time>
      </trkpt>
      <trkpt lat="45.07325" lon="0.58455">
        <ele>126.40000152588</ele>
        <time>2020-09-22T08:50:15.000Z</time>
      </trkpt>
      <trkpt lat="45.07326" lon="0.58452">
        <ele>126.59999847412</ele>
        <time>2020-09-22T08:50:16.000Z</time>
      </trkpt>
      <trkpt lat="45.07326" lon="0.58449">
        <ele>126.80000305176</ele>
        <time>2020-09-22T08:50:17.000Z</time>
      </trkpt>
      <trkpt lat="45.07327" lon="0.58447">
        <ele>127</ele>
        <time>2020-09-22T08:50:18.000Z</time>
      </trkpt>
      <trkpt lat="45.07327" lon="0.58444">
        <ele>127.19999694824</ele>
        <time>2020-09-22T08:50:19.000Z</time>
      </trkpt>
      <trkpt lat="45.07327" lon="0.58441">
        <ele>127.40000152588</ele>
        <time>2020-09-22T08:50:20.000Z</time>
      </trkpt>
      <trkpt lat="45.07329" lon="0.58438">
        <ele>127.59999847412</ele>
        <time>2020-09-22T08:50:21.000Z</time>
      </trkpt>
      <trkpt lat="45.07329" lon="0.58435">
        <ele>127.80000305176</ele>
        <time>2020-09-22T08:50:22.000Z</time>
      </trkpt>
      <trkpt lat="45.0733" lon="0.58432">
        <ele>128</ele>
        <time>2020-09-22T08:50:23.000Z</time>
      </trkpt>
      <trkpt lat="45.0733" lon="0.58429">
        <ele>128.19999694824</ele>
        <time>2020-09-22T08:50:24.000Z</time>
      </trkpt>
      <trkpt lat="45.0733" lon="0.58427">
        <ele>128.39999389648</ele>
        <time>2020-09-22T08:50:25.000Z</time>
      </trkpt>
      <trkpt lat="45.0733" lon="0.58424">
        <ele>128.60000610352</ele>
        <time>2020-09-22T08:50:26.000Z</time>
      </trkpt>
      <trkpt lat="45.07329" lon="0.58421">
        <ele>129</ele>
        <time>2020-09-22T08:50:27.000Z</time>
      </trkpt>
      <trkpt lat="45.07329" lon="0.58419">
        <ele>129.19999694824</ele>
        <time>2020-09-22T08:50:28.000Z</time>
      </trkpt>
      <trkpt lat="45.07328" lon="0.58416">
        <ele>129.39999389648</ele>
        <time>2020-09-22T08:50:29.000Z</time>
      </trkpt>
      <trkpt lat="45.07326" lon="0.58413">
        <ele>129.80000305176</ele>
        <time>2020-09-22T08:50:30.000Z</time>
      </trkpt>
      <trkpt lat="45.07325" lon="0.58411">
        <ele>130.19999694824</ele>
        <time>2020-09-22T08:50:31.000Z</time>
      </trkpt>
      <trkpt lat="45.07323" lon="0.58409">
        <ele>130.60000610352</ele>
        <time>2020-09-22T08:50:32.000Z</time>
      </trkpt>
      <trkpt lat="45.07321" lon="0.58407">
        <ele>130.80000305176</ele>
        <time>2020-09-22T08:50:33.000Z</time>
      </trkpt>
      <trkpt lat="45.07319" lon="0.58406">
        <ele>131</ele>
        <time>2020-09-22T08:50:34.000Z</time>
      </trkpt>
      <trkpt lat="45.07318" lon="0.58405">
        <ele>131.19999694824</ele>
        <time>2020-09-22T08:50:35.000Z</time>
      </trkpt>
      <trkpt lat="45.07316" lon="0.58404">
        <ele>131.60000610352</ele>
        <time>2020-09-22T08:50:36.000Z</time>
      </trkpt>
      <trkpt lat="45.07315" lon="0.58402">
        <ele>131.80000305176</ele>
        <time>2020-09-22T08:50:37.000Z</time>
      </trkpt>
      <trkpt lat="45.07312" lon="0.58401">
        <ele>132</ele>
        <time>2020-09-22T08:50:38.000Z</time>
      </trkpt>
      <trkpt lat="45.07311" lon="0.58399">
        <ele>132.39999389648</ele>
        <time>2020-09-22T08:50:39.000Z</time>
      </trkpt>
      <trkpt lat="45.07309" lon="0.58397">
        <ele>132.60000610352</ele>
        <time>2020-09-22T08:50:40.000Z</time>
      </trkpt>
      <trkpt lat="45.07308" lon="0.58395">
        <ele>133</ele>
        <time>2020-09-22T08:50:41.000Z</time>
      </trkpt>
      <trkpt lat="45.07307" lon="0.58392">
        <ele>133.19999694824</ele>
        <time>2020-09-22T08:50:42.000Z</time>
      </trkpt>
      <trkpt lat="45.07305" lon="0.5839">
        <ele>133.60000610352</ele>
        <time>2020-09-22T08:50:43.000Z</time>
      </trkpt>
      <trkpt lat="45.07304" lon="0.58387">
        <ele>134</ele>
        <time>2020-09-22T08:50:44.000Z</time>
      </trkpt>
      <trkpt lat="45.07304" lon="0.58385">
        <ele>134.19999694824</ele>
        <time>2020-09-22T08:50:45.000Z</time>
      </trkpt>
      <trkpt lat="45.07304" lon="0.58382">
        <ele>134.39999389648</ele>
        <time>2020-09-22T08:50:46.000Z</time>
      </trkpt>
      <trkpt lat="45.07305" lon="0.5838">
        <ele>134.60000610352</ele>
        <time>2020-09-22T08:50:47.000Z</time>
      </trkpt>
      <trkpt lat="45.07305" lon="0.58377">
        <ele>134.60000610352</ele>
        <time>2020-09-22T08:50:48.000Z</time>
      </trkpt>
      <trkpt lat="45.07305" lon="0.58374">
        <ele>134.80000305176</ele>
        <time>2020-09-22T08:50:49.000Z</time>
      </trkpt>
      <trkpt lat="45.07305" lon="0.58372">
        <ele>135</ele>
        <time>2020-09-22T08:50:50.000Z</time>
      </trkpt>
      <trkpt lat="45.07306" lon="0.58369">
        <ele>135.19999694824</ele>
        <time>2020-09-22T08:50:51.000Z</time>
      </trkpt>
      <trkpt lat="45.07307" lon="0.58366">
        <ele>135.39999389648</ele>
        <time>2020-09-22T08:50:52.000Z</time>
      </trkpt>
      <trkpt lat="45.07308" lon="0.58362">
        <ele>135.39999389648</ele>
        <time>2020-09-22T08:50:53.000Z</time>
      </trkpt>
      <trkpt lat="45.07309" lon="0.5836">
        <ele>135.60000610352</ele>
        <time>2020-09-22T08:50:54.000Z</time>
      </trkpt>
      <trkpt lat="45.0731" lon="0.58354">
        <ele>136</ele>
        <time>2020-09-22T08:50:55.000Z</time>
      </trkpt>
      <trkpt lat="45.07311" lon="0.58351">
        <ele>136.19999694824</ele>
        <time>2020-09-22T08:50:56.000Z</time>
      </trkpt>
      <trkpt lat="45.07311" lon="0.58351">
        <ele>136.19999694824</ele>
        <time>2020-09-22T08:50:57.000Z</time>
      </trkpt>
      <trkpt lat="45.07313" lon="0.58349">
        <ele>136.19999694824</ele>
        <time>2020-09-22T08:50:58.000Z</time>
      </trkpt>
      <trkpt lat="45.07314" lon="0.58347">
        <ele>136.19999694824</ele>
        <time>2020-09-22T08:50:59.000Z</time>
      </trkpt>
      <trkpt lat="45.07315" lon="0.58345">
        <ele>136.19999694824</ele>
        <time>2020-09-22T08:51:00.000Z</time>
      </trkpt>
      <trkpt lat="45.07316" lon="0.58342">
        <ele>136.39999389648</ele>
        <time>2020-09-22T08:51:01.000Z</time>
      </trkpt>
      <trkpt lat="45.07318" lon="0.5834">
        <ele>136.39999389648</ele>
        <time>2020-09-22T08:51:02.000Z</time>
      </trkpt>
      <trkpt lat="45.07319" lon="0.58339">
        <ele>136.39999389648</ele>
        <time>2020-09-22T08:51:03.000Z</time>
      </trkpt>
      <trkpt lat="45.07321" lon="0.58339">
        <ele>136.39999389648</ele>
        <time>2020-09-22T08:51:04.000Z</time>
      </trkpt>
      <trkpt lat="45.07323" lon="0.58337">
        <ele>136.19999694824</ele>
        <time>2020-09-22T08:51:05.000Z</time>
      </trkpt>
      <trkpt lat="45.07325" lon="0.58335">
        <ele>136.19999694824</ele>
        <time>2020-09-22T08:51:06.000Z</time>
      </trkpt>
      <trkpt lat="45.07328" lon="0.58333">
        <ele>136.19999694824</ele>
        <time>2020-09-22T08:51:07.000Z</time>
      </trkpt>
      <trkpt lat="45.0733" lon="0.5833">
        <ele>136.19999694824</ele>
        <time>2020-09-22T08:51:08.000Z</time>
      </trkpt>
      <trkpt lat="45.07333" lon="0.58328">
        <ele>136.19999694824</ele>
        <time>2020-09-22T08:51:09.000Z</time>
      </trkpt>
      <trkpt lat="45.07336" lon="0.58327">
        <ele>136</ele>
        <time>2020-09-22T08:51:10.000Z</time>
      </trkpt>
      <trkpt lat="45.07339" lon="0.58325">
        <ele>136</ele>
        <time>2020-09-22T08:51:11.000Z</time>
      </trkpt>
      <trkpt lat="45.07343" lon="0.58323">
        <ele>135.80000305176</ele>
        <time>2020-09-22T08:51:12.000Z</time>
      </trkpt>
      <trkpt lat="45.07346" lon="0.58322">
        <ele>135.80000305176</ele>
        <time>2020-09-22T08:51:13.000Z</time>
      </trkpt>
      <trkpt lat="45.07349" lon="0.5832">
        <ele>135.60000610352</ele>
        <time>2020-09-22T08:51:14.000Z</time>
      </trkpt>
      <trkpt lat="45.07351" lon="0.58319">
        <ele>135.60000610352</ele>
        <time>2020-09-22T08:51:15.000Z</time>
      </trkpt>
      <trkpt lat="45.07354" lon="0.58317">
        <ele>135.39999389648</ele>
        <time>2020-09-22T08:51:16.000Z</time>
      </trkpt>
      <trkpt lat="45.07357" lon="0.58316">
        <ele>135.39999389648</ele>
        <time>2020-09-22T08:51:17.000Z</time>
      </trkpt>
      <trkpt lat="45.0736" lon="0.58314">
        <ele>135.19999694824</ele>
        <time>2020-09-22T08:51:18.000Z</time>
      </trkpt>
      <trkpt lat="45.07363" lon="0.58313">
        <ele>135.19999694824</ele>
        <time>2020-09-22T08:51:19.000Z</time>
      </trkpt>
      <trkpt lat="45.07366" lon="0.58311">
        <ele>135</ele>
        <time>2020-09-22T08:51:20.000Z</time>
      </trkpt>
      <trkpt lat="45.07369" lon="0.5831">
        <ele>135</ele>
        <time>2020-09-22T08:51:21.000Z</time>
      </trkpt>
      <trkpt lat="45.07372" lon="0.58309">
        <ele>134.80000305176</ele>
        <time>2020-09-22T08:51:22.000Z</time>
      </trkpt>
      <trkpt lat="45.07375" lon="0.58307">
        <ele>134.80000305176</ele>
        <time>2020-09-22T08:51:23.000Z</time>
      </trkpt>
      <trkpt lat="45.07378" lon="0.58306">
        <ele>134.60000610352</ele>
        <time>2020-09-22T08:51:24.000Z</time>
      </trkpt>
      <trkpt lat="45.07381" lon="0.58304">
        <ele>134.39999389648</ele>
        <time>2020-09-22T08:51:25.000Z</time>
      </trkpt>
      <trkpt lat="45.07383" lon="0.58302">
        <ele>134.19999694824</ele>
        <time>2020-09-22T08:51:26.000Z</time>
      </trkpt>
      <trkpt lat="45.07386" lon="0.58301">
        <ele>134</ele>
        <time>2020-09-22T08:51:27.000Z</time>
      </trkpt>
      <trkpt lat="45.0739" lon="0.58301">
        <ele>133.60000610352</ele>
        <time>2020-09-22T08:51:28.000Z</time>
      </trkpt>
      <trkpt lat="45.07393" lon="0.583">
        <ele>133.39999389648</ele>
        <time>2020-09-22T08:51:29.000Z</time>
      </trkpt>
      <trkpt lat="45.07397" lon="0.58299">
        <ele>133</ele>
        <time>2020-09-22T08:51:30.000Z</time>
      </trkpt>
      <trkpt lat="45.07399" lon="0.58298">
        <ele>133</ele>
        <time>2020-09-22T08:51:31.000Z</time>
      </trkpt>
      <trkpt lat="45.07402" lon="0.58297">
        <ele>132.80000305176</ele>
        <time>2020-09-22T08:51:32.000Z</time>
      </trkpt>
      <trkpt lat="45.07405" lon="0.58295">
        <ele>132.80000305176</ele>
        <time>2020-09-22T08:51:33.000Z</time>
      </trkpt>
      <trkpt lat="45.07408" lon="0.58294">
        <ele>132.60000610352</ele>
        <time>2020-09-22T08:51:34.000Z</time>
      </trkpt>
      <trkpt lat="45.0741" lon="0.58292">
        <ele>132.60000610352</ele>
        <time>2020-09-22T08:51:35.000Z</time>
      </trkpt>
      <trkpt lat="45.07413" lon="0.5829">
        <ele>132.39999389648</ele>
        <time>2020-09-22T08:51:36.000Z</time>
      </trkpt>
      <trkpt lat="45.07416" lon="0.58289">
        <ele>132.39999389648</ele>
        <time>2020-09-22T08:51:37.000Z</time>
      </trkpt>
      <trkpt lat="45.07419" lon="0.58287">
        <ele>132.19999694824</ele>
        <time>2020-09-22T08:51:38.000Z</time>
      </trkpt>
      <trkpt lat="45.07421" lon="0.58286">
        <ele>132.19999694824</ele>
        <time>2020-09-22T08:51:39.000Z</time>
      </trkpt>
      <trkpt lat="45.07424" lon="0.58286">
        <ele>131.80000305176</ele>
        <time>2020-09-22T08:51:40.000Z</time>
      </trkpt>
      <trkpt lat="45.07428" lon="0.58286">
        <ele>131.60000610352</ele>
        <time>2020-09-22T08:51:41.000Z</time>
      </trkpt>
      <trkpt lat="45.07431" lon="0.58285">
        <ele>131.39999389648</ele>
        <time>2020-09-22T08:51:42.000Z</time>
      </trkpt>
      <trkpt lat="45.07433" lon="0.58284">
        <ele>131.19999694824</ele>
        <time>2020-09-22T08:51:43.000Z</time>
      </trkpt>
      <trkpt lat="45.07436" lon="0.58283">
        <ele>131</ele>
        <time>2020-09-22T08:51:44.000Z</time>
      </trkpt>
      <trkpt lat="45.07438" lon="0.58282">
        <ele>130.80000305176</ele>
        <time>2020-09-22T08:51:45.000Z</time>
      </trkpt>
      <trkpt lat="45.07441" lon="0.58282">
        <ele>130.60000610352</ele>
        <time>2020-09-22T08:51:46.000Z</time>
      </trkpt>
      <trkpt lat="45.07444" lon="0.58281">
        <ele>130.19999694824</ele>
        <time>2020-09-22T08:51:47.000Z</time>
      </trkpt>
      <trkpt lat="45.07447" lon="0.5828">
        <ele>130</ele>
        <time>2020-09-22T08:51:48.000Z</time>
      </trkpt>
      <trkpt lat="45.0745" lon="0.5828">
        <ele>129.60000610352</ele>
        <time>2020-09-22T08:51:49.000Z</time>
      </trkpt>
      <trkpt lat="45.07453" lon="0.5828">
        <ele>129.19999694824</ele>
        <time>2020-09-22T08:51:50.000Z</time>
      </trkpt>
      <trkpt lat="45.07456" lon="0.5828">
        <ele>128.80000305176</ele>
        <time>2020-09-22T08:51:51.000Z</time>
      </trkpt>
      <trkpt lat="45.07459" lon="0.58279">
        <ele>128.39999389648</ele>
        <time>2020-09-22T08:51:52.000Z</time>
      </trkpt>
      <trkpt lat="45.07462" lon="0.58278">
        <ele>128.19999694824</ele>
        <time>2020-09-22T08:51:53.000Z</time>
      </trkpt>
      <trkpt lat="45.07465" lon="0.58277">
        <ele>128</ele>
        <time>2020-09-22T08:51:54.000Z</time>
      </trkpt>
      <trkpt lat="45.07467" lon="0.58276">
        <ele>127.80000305176</ele>
        <time>2020-09-22T08:51:55.000Z</time>
      </trkpt>
      <trkpt lat="45.0747" lon="0.58275">
        <ele>127.59999847412</ele>
        <time>2020-09-22T08:51:56.000Z</time>
      </trkpt>
      <trkpt lat="45.07473" lon="0.58274">
        <ele>127.40000152588</ele>
        <time>2020-09-22T08:51:57.000Z</time>
      </trkpt>
      <trkpt lat="45.07476" lon="0.58273">
        <ele>127.19999694824</ele>
        <time>2020-09-22T08:51:58.000Z</time>
      </trkpt>
      <trkpt lat="45.07479" lon="0.58272">
        <ele>127.19999694824</ele>
        <time>2020-09-22T08:51:59.000Z</time>
      </trkpt>
      <trkpt lat="45.07481" lon="0.5827">
        <ele>127</ele>
        <time>2020-09-22T08:52:00.000Z</time>
      </trkpt>
      <trkpt lat="45.07484" lon="0.58269">
        <ele>126.80000305176</ele>
        <time>2020-09-22T08:52:01.000Z</time>
      </trkpt>
      <trkpt lat="45.07487" lon="0.58267">
        <ele>126.80000305176</ele>
        <time>2020-09-22T08:52:02.000Z</time>
      </trkpt>
      <trkpt lat="45.07489" lon="0.58265">
        <ele>126.59999847412</ele>
        <time>2020-09-22T08:52:03.000Z</time>
      </trkpt>
      <trkpt lat="45.07492" lon="0.58264">
        <ele>126.59999847412</ele>
        <time>2020-09-22T08:52:04.000Z</time>
      </trkpt>
      <trkpt lat="45.07495" lon="0.58262">
        <ele>126.40000152588</ele>
        <time>2020-09-22T08:52:05.000Z</time>
      </trkpt>
      <trkpt lat="45.07497" lon="0.58261">
        <ele>126.40000152588</ele>
        <time>2020-09-22T08:52:06.000Z</time>
      </trkpt>
      <trkpt lat="45.07501" lon="0.58259">
        <ele>126.19999694824</ele>
        <time>2020-09-22T08:52:07.000Z</time>
      </trkpt>
      <trkpt lat="45.07503" lon="0.58258">
        <ele>125.80000305176</ele>
        <time>2020-09-22T08:52:08.000Z</time>
      </trkpt>
      <trkpt lat="45.07506" lon="0.58256">
        <ele>125.59999847412</ele>
        <time>2020-09-22T08:52:09.000Z</time>
      </trkpt>
      <trkpt lat="45.07509" lon="0.58255">
        <ele>125.19999694824</ele>
        <time>2020-09-22T08:52:10.000Z</time>
      </trkpt>
      <trkpt lat="45.07512" lon="0.58255">
        <ele>124.80000305176</ele>
        <time>2020-09-22T08:52:11.000Z</time>
      </trkpt>
      <trkpt lat="45.07515" lon="0.58253">
        <ele>124.40000152588</ele>
        <time>2020-09-22T08:52:12.000Z</time>
      </trkpt>
      <trkpt lat="45.07518" lon="0.58252">
        <ele>124.19999694824</ele>
        <time>2020-09-22T08:52:13.000Z</time>
      </trkpt>
      <trkpt lat="45.07521" lon="0.58251">
        <ele>123.80000305176</ele>
        <time>2020-09-22T08:52:14.000Z</time>
      </trkpt>
      <trkpt lat="45.07524" lon="0.58251">
        <ele>123.40000152588</ele>
        <time>2020-09-22T08:52:15.000Z</time>
      </trkpt>
      <trkpt lat="45.07527" lon="0.5825">
        <ele>123</ele>
        <time>2020-09-22T08:52:16.000Z</time>
      </trkpt>
      <trkpt lat="45.07531" lon="0.58249">
        <ele>122.59999847412</ele>
        <time>2020-09-22T08:52:17.000Z</time>
      </trkpt>
      <trkpt lat="45.07534" lon="0.58249">
        <ele>122.19999694824</ele>
        <time>2020-09-22T08:52:18.000Z</time>
      </trkpt>
      <trkpt lat="45.07537" lon="0.58249">
        <ele>121.59999847412</ele>
        <time>2020-09-22T08:52:19.000Z</time>
      </trkpt>
      <trkpt lat="45.0754" lon="0.58248">
        <ele>121.19999694824</ele>
        <time>2020-09-22T08:52:20.000Z</time>
      </trkpt>
      <trkpt lat="45.07543" lon="0.58248">
        <ele>120.80000305176</ele>
        <time>2020-09-22T08:52:21.000Z</time>
      </trkpt>
      <trkpt lat="45.07547" lon="0.58248">
        <ele>120.59999847412</ele>
        <time>2020-09-22T08:52:22.000Z</time>
      </trkpt>
      <trkpt lat="45.0755" lon="0.58248">
        <ele>120.59999847412</ele>
        <time>2020-09-22T08:52:23.000Z</time>
      </trkpt>
      <trkpt lat="45.07553" lon="0.58248">
        <ele>120.40000152588</ele>
        <time>2020-09-22T08:52:24.000Z</time>
      </trkpt>
      <trkpt lat="45.07556" lon="0.58248">
        <ele>120.19999694824</ele>
        <time>2020-09-22T08:52:25.000Z</time>
      </trkpt>
      <trkpt lat="45.07559" lon="0.58247">
        <ele>120.19999694824</ele>
        <time>2020-09-22T08:52:26.000Z</time>
      </trkpt>
      <trkpt lat="45.07562" lon="0.58247">
        <ele>120</ele>
        <time>2020-09-22T08:52:27.000Z</time>
      </trkpt>
      <trkpt lat="45.07565" lon="0.58247">
        <ele>119.80000305176</ele>
        <time>2020-09-22T08:52:28.000Z</time>
      </trkpt>
      <trkpt lat="45.07568" lon="0.58247">
        <ele>119.80000305176</ele>
        <time>2020-09-22T08:52:29.000Z</time>
      </trkpt>
      <trkpt lat="45.07571" lon="0.58247">
        <ele>119.59999847412</ele>
        <time>2020-09-22T08:52:30.000Z</time>
      </trkpt>
      <trkpt lat="45.07574" lon="0.58246">
        <ele>119.40000152588</ele>
        <time>2020-09-22T08:52:31.000Z</time>
      </trkpt>
      <trkpt lat="45.07577" lon="0.58246">
        <ele>119</ele>
        <time>2020-09-22T08:52:32.000Z</time>
      </trkpt>
      <trkpt lat="45.07586" lon="0.58247">
        <ele>118.19999694824</ele>
        <time>2020-09-22T08:52:33.000Z</time>
      </trkpt>
      <trkpt lat="45.07586" lon="0.58247">
        <ele>118.19999694824</ele>
        <time>2020-09-22T08:52:34.000Z</time>
      </trkpt>
      <trkpt lat="45.07586" lon="0.58247">
        <ele>118.19999694824</ele>
        <time>2020-09-22T08:52:35.000Z</time>
      </trkpt>
      <trkpt lat="45.07589" lon="0.58246">
        <ele>117.80000305176</ele>
        <time>2020-09-22T08:52:36.000Z</time>
      </trkpt>
      <trkpt lat="45.07592" lon="0.58246">
        <ele>117.59999847412</ele>
        <time>2020-09-22T08:52:37.000Z</time>
      </trkpt>
      <trkpt lat="45.07595" lon="0.58246">
        <ele>117.40000152588</ele>
        <time>2020-09-22T08:52:38.000Z</time>
      </trkpt>
      <trkpt lat="45.07598" lon="0.58245">
        <ele>117</ele>
        <time>2020-09-22T08:52:39.000Z</time>
      </trkpt>
      <trkpt lat="45.07601" lon="0.58244">
        <ele>116.80000305176</ele>
        <time>2020-09-22T08:52:40.000Z</time>
      </trkpt>
      <trkpt lat="45.07603" lon="0.58242">
        <ele>116.59999847412</ele>
        <time>2020-09-22T08:52:41.000Z</time>
      </trkpt>
      <trkpt lat="45.07605" lon="0.58238">
        <ele>116.59999847412</ele>
        <time>2020-09-22T08:52:42.000Z</time>
      </trkpt>
      <trkpt lat="45.07605" lon="0.58234">
        <ele>116.59999847412</ele>
        <time>2020-09-22T08:52:43.000Z</time>
      </trkpt>
      <trkpt lat="45.07604" lon="0.5823">
        <ele>116.80000305176</ele>
        <time>2020-09-22T08:52:44.000Z</time>
      </trkpt>
      <trkpt lat="45.07603" lon="0.58226">
        <ele>117</ele>
        <time>2020-09-22T08:52:45.000Z</time>
      </trkpt>
      <trkpt lat="45.07601" lon="0.58222">
        <ele>117.19999694824</ele>
        <time>2020-09-22T08:52:46.000Z</time>
      </trkpt>
      <trkpt lat="45.076" lon="0.58218">
        <ele>117.59999847412</ele>
        <time>2020-09-22T08:52:47.000Z</time>
      </trkpt>
      <trkpt lat="45.07599" lon="0.58214">
        <ele>118.19999694824</ele>
        <time>2020-09-22T08:52:48.000Z</time>
      </trkpt>
      <trkpt lat="45.07598" lon="0.5821">
        <ele>118.59999847412</ele>
        <time>2020-09-22T08:52:49.000Z</time>
      </trkpt>
      <trkpt lat="45.07597" lon="0.58206">
        <ele>119.19999694824</ele>
        <time>2020-09-22T08:52:50.000Z</time>
      </trkpt>
      <trkpt lat="45.07597" lon="0.58203">
        <ele>119.59999847412</ele>
        <time>2020-09-22T08:52:51.000Z</time>
      </trkpt>
      <trkpt lat="45.07596" lon="0.58199">
        <ele>120.19999694824</ele>
        <time>2020-09-22T08:52:52.000Z</time>
      </trkpt>
      <trkpt lat="45.07596" lon="0.58196">
        <ele>120.59999847412</ele>
        <time>2020-09-22T08:52:53.000Z</time>
      </trkpt>
      <trkpt lat="45.07595" lon="0.58192">
        <ele>121</ele>
        <time>2020-09-22T08:52:54.000Z</time>
      </trkpt>
      <trkpt lat="45.07595" lon="0.58189">
        <ele>121.59999847412</ele>
        <time>2020-09-22T08:52:55.000Z</time>
      </trkpt>
      <trkpt lat="45.07594" lon="0.58185">
        <ele>122</ele>
        <time>2020-09-22T08:52:56.000Z</time>
      </trkpt>
      <trkpt lat="45.07594" lon="0.58182">
        <ele>122</ele>
        <time>2020-09-22T08:52:57.000Z</time>
      </trkpt>
      <trkpt lat="45.07594" lon="0.58178">
        <ele>122.19999694824</ele>
        <time>2020-09-22T08:52:58.000Z</time>
      </trkpt>
      <trkpt lat="45.07594" lon="0.58174">
        <ele>122.19999694824</ele>
        <time>2020-09-22T08:52:59.000Z</time>
      </trkpt>
      <trkpt lat="45.07594" lon="0.58171">
        <ele>122.40000152588</ele>
        <time>2020-09-22T08:53:00.000Z</time>
      </trkpt>
      <trkpt lat="45.07593" lon="0.58168">
        <ele>122.59999847412</ele>
        <time>2020-09-22T08:53:01.000Z</time>
      </trkpt>
      <trkpt lat="45.07593" lon="0.58165">
        <ele>122.80000305176</ele>
        <time>2020-09-22T08:53:02.000Z</time>
      </trkpt>
      <trkpt lat="45.07592" lon="0.58162">
        <ele>122.80000305176</ele>
        <time>2020-09-22T08:53:03.000Z</time>
      </trkpt>
      <trkpt lat="45.07592" lon="0.58159">
        <ele>123</ele>
        <time>2020-09-22T08:53:04.000Z</time>
      </trkpt>
      <trkpt lat="45.07592" lon="0.58155">
        <ele>123.19999694824</ele>
        <time>2020-09-22T08:53:05.000Z</time>
      </trkpt>
      <trkpt lat="45.07591" lon="0.58152">
        <ele>123.40000152588</ele>
        <time>2020-09-22T08:53:06.000Z</time>
      </trkpt>
      <trkpt lat="45.0759" lon="0.58149">
        <ele>123.80000305176</ele>
        <time>2020-09-22T08:53:07.000Z</time>
      </trkpt>
      <trkpt lat="45.07588" lon="0.58145">
        <ele>124.19999694824</ele>
        <time>2020-09-22T08:53:08.000Z</time>
      </trkpt>
      <trkpt lat="45.07586" lon="0.58142">
        <ele>124.59999847412</ele>
        <time>2020-09-22T08:53:09.000Z</time>
      </trkpt>
      <trkpt lat="45.07585" lon="0.58139">
        <ele>124.80000305176</ele>
        <time>2020-09-22T08:53:10.000Z</time>
      </trkpt>
      <trkpt lat="45.07584" lon="0.58135">
        <ele>125.19999694824</ele>
        <time>2020-09-22T08:53:11.000Z</time>
      </trkpt>
      <trkpt lat="45.07583" lon="0.58132">
        <ele>125.40000152588</ele>
        <time>2020-09-22T08:53:12.000Z</time>
      </trkpt>
      <trkpt lat="45.07581" lon="0.58128">
        <ele>125.80000305176</ele>
        <time>2020-09-22T08:53:13.000Z</time>
      </trkpt>
      <trkpt lat="45.0758" lon="0.58125">
        <ele>126</ele>
        <time>2020-09-22T08:53:14.000Z</time>
      </trkpt>
      <trkpt lat="45.07579" lon="0.58121">
        <ele>126</ele>
        <time>2020-09-22T08:53:15.000Z</time>
      </trkpt>
      <trkpt lat="45.07579" lon="0.58117">
        <ele>126.19999694824</ele>
        <time>2020-09-22T08:53:16.000Z</time>
      </trkpt>
      <trkpt lat="45.07579" lon="0.58113">
        <ele>126.19999694824</ele>
        <time>2020-09-22T08:53:17.000Z</time>
      </trkpt>
      <trkpt lat="45.07579" lon="0.58109">
        <ele>126.19999694824</ele>
        <time>2020-09-22T08:53:18.000Z</time>
      </trkpt>
      <trkpt lat="45.07578" lon="0.58106">
        <ele>126.19999694824</ele>
        <time>2020-09-22T08:53:19.000Z</time>
      </trkpt>
      <trkpt lat="45.07578" lon="0.58102">
        <ele>126.40000152588</ele>
        <time>2020-09-22T08:53:20.000Z</time>
      </trkpt>
      <trkpt lat="45.07577" lon="0.58097">
        <ele>126.40000152588</ele>
        <time>2020-09-22T08:53:21.000Z</time>
      </trkpt>
      <trkpt lat="45.07576" lon="0.58093">
        <ele>126.59999847412</ele>
        <time>2020-09-22T08:53:22.000Z</time>
      </trkpt>
      <trkpt lat="45.07575" lon="0.58088">
        <ele>127</ele>
        <time>2020-09-22T08:53:23.000Z</time>
      </trkpt>
      <trkpt lat="45.07574" lon="0.58084">
        <ele>127</ele>
        <time>2020-09-22T08:53:24.000Z</time>
      </trkpt>
      <trkpt lat="45.07574" lon="0.5808">
        <ele>127.19999694824</ele>
        <time>2020-09-22T08:53:25.000Z</time>
      </trkpt>
      <trkpt lat="45.07575" lon="0.58078">
        <ele>127.19999694824</ele>
        <time>2020-09-22T08:53:26.000Z</time>
      </trkpt>
      <trkpt lat="45.07577" lon="0.58078">
        <ele>126.59999847412</ele>
        <time>2020-09-22T08:53:27.000Z</time>
      </trkpt>
      <trkpt lat="45.07581" lon="0.58081">
        <ele>126</ele>
        <time>2020-09-22T08:53:28.000Z</time>
      </trkpt>
      <trkpt lat="45.07584" lon="0.58084">
        <ele>125.40000152588</ele>
        <time>2020-09-22T08:53:29.000Z</time>
      </trkpt>
      <trkpt lat="45.07587" lon="0.58088">
        <ele>124.80000305176</ele>
        <time>2020-09-22T08:53:30.000Z</time>
      </trkpt>
      <trkpt lat="45.0759" lon="0.58091">
        <ele>124.19999694824</ele>
        <time>2020-09-22T08:53:31.000Z</time>
      </trkpt>
      <trkpt lat="45.07593" lon="0.58095">
        <ele>123.59999847412</ele>
        <time>2020-09-22T08:53:32.000Z</time>
      </trkpt>
      <trkpt lat="45.07596" lon="0.58099">
        <ele>123</ele>
        <time>2020-09-22T08:53:33.000Z</time>
      </trkpt>
      <trkpt lat="45.07599" lon="0.58103">
        <ele>122.40000152588</ele>
        <time>2020-09-22T08:53:34.000Z</time>
      </trkpt>
      <trkpt lat="45.07602" lon="0.58106">
        <ele>121.80000305176</ele>
        <time>2020-09-22T08:53:35.000Z</time>
      </trkpt>
      <trkpt lat="45.07605" lon="0.5811">
        <ele>121.19999694824</ele>
        <time>2020-09-22T08:53:36.000Z</time>
      </trkpt>
      <trkpt lat="45.07608" lon="0.58114">
        <ele>120.59999847412</ele>
        <time>2020-09-22T08:53:37.000Z</time>
      </trkpt>
      <trkpt lat="45.07612" lon="0.58117">
        <ele>119.80000305176</ele>
        <time>2020-09-22T08:53:38.000Z</time>
      </trkpt>
      <trkpt lat="45.07616" lon="0.58119">
        <ele>119.19999694824</ele>
        <time>2020-09-22T08:53:39.000Z</time>
      </trkpt>
      <trkpt lat="45.07619" lon="0.58122">
        <ele>118.59999847412</ele>
        <time>2020-09-22T08:53:40.000Z</time>
      </trkpt>
      <trkpt lat="45.07624" lon="0.58123">
        <ele>117.80000305176</ele>
        <time>2020-09-22T08:53:41.000Z</time>
      </trkpt>
      <trkpt lat="45.07628" lon="0.58125">
        <ele>117.19999694824</ele>
        <time>2020-09-22T08:53:42.000Z</time>
      </trkpt>
      <trkpt lat="45.07632" lon="0.58127">
        <ele>116.80000305176</ele>
        <time>2020-09-22T08:53:43.000Z</time>
      </trkpt>
      <trkpt lat="45.07636" lon="0.58129">
        <ele>116.40000152588</ele>
        <time>2020-09-22T08:53:44.000Z</time>
      </trkpt>
      <trkpt lat="45.07639" lon="0.58131">
        <ele>116</ele>
        <time>2020-09-22T08:53:45.000Z</time>
      </trkpt>
      <trkpt lat="45.07642" lon="0.58133">
        <ele>115.59999847412</ele>
        <time>2020-09-22T08:53:46.000Z</time>
      </trkpt>
      <trkpt lat="45.07646" lon="0.58135">
        <ele>115.19999694824</ele>
        <time>2020-09-22T08:53:47.000Z</time>
      </trkpt>
      <trkpt lat="45.07649" lon="0.58137">
        <ele>114.80000305176</ele>
        <time>2020-09-22T08:53:48.000Z</time>
      </trkpt>
      <trkpt lat="45.07652" lon="0.58139">
        <ele>114.40000152588</ele>
        <time>2020-09-22T08:53:49.000Z</time>
      </trkpt>
      <trkpt lat="45.07656" lon="0.58142">
        <ele>114</ele>
        <time>2020-09-22T08:53:50.000Z</time>
      </trkpt>
      <trkpt lat="45.07659" lon="0.58144">
        <ele>113.80000305176</ele>
        <time>2020-09-22T08:53:51.000Z</time>
      </trkpt>
      <trkpt lat="45.07663" lon="0.58147">
        <ele>113.40000152588</ele>
        <time>2020-09-22T08:53:52.000Z</time>
      </trkpt>
      <trkpt lat="45.07666" lon="0.58149">
        <ele>113</ele>
        <time>2020-09-22T08:53:53.000Z</time>
      </trkpt>
      <trkpt lat="45.07669" lon="0.58151">
        <ele>112.80000305176</ele>
        <time>2020-09-22T08:53:54.000Z</time>
      </trkpt>
      <trkpt lat="45.07672" lon="0.58154">
        <ele>112.40000152588</ele>
        <time>2020-09-22T08:53:55.000Z</time>
      </trkpt>
      <trkpt lat="45.07675" lon="0.58156">
        <ele>112</ele>
        <time>2020-09-22T08:53:56.000Z</time>
      </trkpt>
      <trkpt lat="45.07678" lon="0.58158">
        <ele>111.80000305176</ele>
        <time>2020-09-22T08:53:57.000Z</time>
      </trkpt>
      <trkpt lat="45.07682" lon="0.58161">
        <ele>111.40000152588</ele>
        <time>2020-09-22T08:53:58.000Z</time>
      </trkpt>
      <trkpt lat="45.07685" lon="0.58163">
        <ele>111</ele>
        <time>2020-09-22T08:53:59.000Z</time>
      </trkpt>
      <trkpt lat="45.07689" lon="0.58165">
        <ele>110.59999847412</ele>
        <time>2020-09-22T08:54:00.000Z</time>
      </trkpt>
      <trkpt lat="45.07692" lon="0.58167">
        <ele>110.40000152588</ele>
        <time>2020-09-22T08:54:01.000Z</time>
      </trkpt>
      <trkpt lat="45.07696" lon="0.5817">
        <ele>110</ele>
        <time>2020-09-22T08:54:02.000Z</time>
      </trkpt>
      <trkpt lat="45.07699" lon="0.58172">
        <ele>109.59999847412</ele>
        <time>2020-09-22T08:54:03.000Z</time>
      </trkpt>
      <trkpt lat="45.07703" lon="0.58174">
        <ele>109.19999694824</ele>
        <time>2020-09-22T08:54:04.000Z</time>
      </trkpt>
      <trkpt lat="45.07706" lon="0.58176">
        <ele>108.80000305176</ele>
        <time>2020-09-22T08:54:05.000Z</time>
      </trkpt>
      <trkpt lat="45.07709" lon="0.58178">
        <ele>108.59999847412</ele>
        <time>2020-09-22T08:54:06.000Z</time>
      </trkpt>
      <trkpt lat="45.07716" lon="0.58182">
        <ele>107.80000305176</ele>
        <time>2020-09-22T08:54:07.000Z</time>
      </trkpt>
      <trkpt lat="45.07719" lon="0.58184">
        <ele>107.59999847412</ele>
        <time>2020-09-22T08:54:08.000Z</time>
      </trkpt>
      <trkpt lat="45.07719" lon="0.58184">
        <ele>107.59999847412</ele>
        <time>2020-09-22T08:54:09.000Z</time>
      </trkpt>
      <trkpt lat="45.07722" lon="0.58186">
        <ele>107.19999694824</ele>
        <time>2020-09-22T08:54:10.000Z</time>
      </trkpt>
      <trkpt lat="45.07725" lon="0.58189">
        <ele>106.80000305176</ele>
        <time>2020-09-22T08:54:11.000Z</time>
      </trkpt>
      <trkpt lat="45.07728" lon="0.58191">
        <ele>106.59999847412</ele>
        <time>2020-09-22T08:54:12.000Z</time>
      </trkpt>
      <trkpt lat="45.07731" lon="0.58194">
        <ele>106.19999694824</ele>
        <time>2020-09-22T08:54:13.000Z</time>
      </trkpt>
      <trkpt lat="45.07734" lon="0.58197">
        <ele>106</ele>
        <time>2020-09-22T08:54:14.000Z</time>
      </trkpt>
      <trkpt lat="45.07737" lon="0.582">
        <ele>105.59999847412</ele>
        <time>2020-09-22T08:54:15.000Z</time>
      </trkpt>
      <trkpt lat="45.0774" lon="0.58202">
        <ele>105.19999694824</ele>
        <time>2020-09-22T08:54:16.000Z</time>
      </trkpt>
      <trkpt lat="45.07743" lon="0.58205">
        <ele>105</ele>
        <time>2020-09-22T08:54:17.000Z</time>
      </trkpt>
      <trkpt lat="45.07746" lon="0.58208">
        <ele>104.59999847412</ele>
        <time>2020-09-22T08:54:18.000Z</time>
      </trkpt>
      <trkpt lat="45.07749" lon="0.58211">
        <ele>104.40000152588</ele>
        <time>2020-09-22T08:54:19.000Z</time>
      </trkpt>
      <trkpt lat="45.07751" lon="0.58214">
        <ele>104</ele>
        <time>2020-09-22T08:54:20.000Z</time>
      </trkpt>
      <trkpt lat="45.07754" lon="0.58216">
        <ele>103.80000305176</ele>
        <time>2020-09-22T08:54:21.000Z</time>
      </trkpt>
      <trkpt lat="45.07757" lon="0.58218">
        <ele>103.59999847412</ele>
        <time>2020-09-22T08:54:22.000Z</time>
      </trkpt>
      <trkpt lat="45.07759" lon="0.5822">
        <ele>103.40000152588</ele>
        <time>2020-09-22T08:54:23.000Z</time>
      </trkpt>
      <trkpt lat="45.07762" lon="0.58222">
        <ele>103.19999694824</ele>
        <time>2020-09-22T08:54:24.000Z</time>
      </trkpt>
      <trkpt lat="45.07765" lon="0.58222">
        <ele>102.80000305176</ele>
        <time>2020-09-22T08:54:25.000Z</time>
      </trkpt>
      <trkpt lat="45.07768" lon="0.58223">
        <ele>102.59999847412</ele>
        <time>2020-09-22T08:54:26.000Z</time>
      </trkpt>
      <trkpt lat="45.07771" lon="0.58224">
        <ele>102.40000152588</ele>
        <time>2020-09-22T08:54:27.000Z</time>
      </trkpt>
      <trkpt lat="45.07773" lon="0.58225">
        <ele>102.19999694824</ele>
        <time>2020-09-22T08:54:28.000Z</time>
      </trkpt>
      <trkpt lat="45.07775" lon="0.58225">
        <ele>102</ele>
        <time>2020-09-22T08:54:29.000Z</time>
      </trkpt>
      <trkpt lat="45.07779" lon="0.58226">
        <ele>101.59999847412</ele>
        <time>2020-09-22T08:54:30.000Z</time>
      </trkpt>
      <trkpt lat="45.07782" lon="0.58228">
        <ele>101.40000152588</ele>
        <time>2020-09-22T08:54:31.000Z</time>
      </trkpt>
      <trkpt lat="45.07785" lon="0.5823">
        <ele>101.19999694824</ele>
        <time>2020-09-22T08:54:32.000Z</time>
      </trkpt>
      <trkpt lat="45.07788" lon="0.58231">
        <ele>101</ele>
        <time>2020-09-22T08:54:33.000Z</time>
      </trkpt>
      <trkpt lat="45.07791" lon="0.58232">
        <ele>100.59999847412</ele>
        <time>2020-09-22T08:54:34.000Z</time>
      </trkpt>
      <trkpt lat="45.07795" lon="0.58233">
        <ele>100.40000152588</ele>
        <time>2020-09-22T08:54:35.000Z</time>
      </trkpt>
      <trkpt lat="45.07798" lon="0.58235">
        <ele>100</ele>
        <time>2020-09-22T08:54:36.000Z</time>
      </trkpt>
      <trkpt lat="45.07801" lon="0.58237">
        <ele>99.599998474121</ele>
        <time>2020-09-22T08:54:37.000Z</time>
      </trkpt>
      <trkpt lat="45.07805" lon="0.58238">
        <ele>99.199996948242</ele>
        <time>2020-09-22T08:54:38.000Z</time>
      </trkpt>
      <trkpt lat="45.07808" lon="0.58239">
        <ele>98.800003051758</ele>
        <time>2020-09-22T08:54:39.000Z</time>
      </trkpt>
      <trkpt lat="45.07812" lon="0.5824">
        <ele>98.400001525879</ele>
        <time>2020-09-22T08:54:40.000Z</time>
      </trkpt>
      <trkpt lat="45.07815" lon="0.58241">
        <ele>97.800003051758</ele>
        <time>2020-09-22T08:54:41.000Z</time>
      </trkpt>
      <trkpt lat="45.07819" lon="0.58243">
        <ele>97.400001525879</ele>
        <time>2020-09-22T08:54:42.000Z</time>
      </trkpt>
      <trkpt lat="45.07822" lon="0.58244">
        <ele>97.199996948242</ele>
        <time>2020-09-22T08:54:43.000Z</time>
      </trkpt>
      <trkpt lat="45.07825" lon="0.58246">
        <ele>96.800003051758</ele>
        <time>2020-09-22T08:54:44.000Z</time>
      </trkpt>
      <trkpt lat="45.07829" lon="0.58249">
        <ele>96.400001525879</ele>
        <time>2020-09-22T08:54:45.000Z</time>
      </trkpt>
      <trkpt lat="45.07833" lon="0.58251">
        <ele>96</ele>
        <time>2020-09-22T08:54:46.000Z</time>
      </trkpt>
      <trkpt lat="45.07836" lon="0.58254">
        <ele>95.800003051758</ele>
        <time>2020-09-22T08:54:47.000Z</time>
      </trkpt>
      <trkpt lat="45.07839" lon="0.58256">
        <ele>95.400001525879</ele>
        <time>2020-09-22T08:54:48.000Z</time>
      </trkpt>
      <trkpt lat="45.07842" lon="0.58259">
        <ele>95</ele>
        <time>2020-09-22T08:54:49.000Z</time>
      </trkpt>
      <trkpt lat="45.07845" lon="0.58262">
        <ele>94.800003051758</ele>
        <time>2020-09-22T08:54:50.000Z</time>
      </trkpt>
      <trkpt lat="45.07849" lon="0.58266">
        <ele>94.400001525879</ele>
        <time>2020-09-22T08:54:51.000Z</time>
      </trkpt>
      <trkpt lat="45.07852" lon="0.5827">
        <ele>94.199996948242</ele>
        <time>2020-09-22T08:54:52.000Z</time>
      </trkpt>
      <trkpt lat="45.07855" lon="0.58273">
        <ele>93.800003051758</ele>
        <time>2020-09-22T08:54:53.000Z</time>
      </trkpt>
      <trkpt lat="45.07858" lon="0.58276">
        <ele>93.599998474121</ele>
        <time>2020-09-22T08:54:54.000Z</time>
      </trkpt>
      <trkpt lat="45.07861" lon="0.58278">
        <ele>93.199996948242</ele>
        <time>2020-09-22T08:54:55.000Z</time>
      </trkpt>
      <trkpt lat="45.07864" lon="0.58281">
        <ele>93</ele>
        <time>2020-09-22T08:54:56.000Z</time>
      </trkpt>
      <trkpt lat="45.07867" lon="0.58284">
        <ele>92.599998474121</ele>
        <time>2020-09-22T08:54:57.000Z</time>
      </trkpt>
      <trkpt lat="45.07871" lon="0.58287">
        <ele>92.400001525879</ele>
        <time>2020-09-22T08:54:58.000Z</time>
      </trkpt>
      <trkpt lat="45.07874" lon="0.5829">
        <ele>92</ele>
        <time>2020-09-22T08:54:59.000Z</time>
      </trkpt>
      <trkpt lat="45.07877" lon="0.58293">
        <ele>91.800003051758</ele>
        <time>2020-09-22T08:55:00.000Z</time>
      </trkpt>
      <trkpt lat="45.07881" lon="0.58296">
        <ele>91.800003051758</ele>
        <time>2020-09-22T08:55:01.000Z</time>
      </trkpt>
      <trkpt lat="45.07884" lon="0.58299">
        <ele>91.599998474121</ele>
        <time>2020-09-22T08:55:02.000Z</time>
      </trkpt>
      <trkpt lat="45.07887" lon="0.58302">
        <ele>91.599998474121</ele>
        <time>2020-09-22T08:55:03.000Z</time>
      </trkpt>
      <trkpt lat="45.0789" lon="0.58305">
        <ele>91.599998474121</ele>
        <time>2020-09-22T08:55:04.000Z</time>
      </trkpt>
      <trkpt lat="45.07893" lon="0.58307">
        <ele>91.400001525879</ele>
        <time>2020-09-22T08:55:05.000Z</time>
      </trkpt>
      <trkpt lat="45.07896" lon="0.58309">
        <ele>91.199996948242</ele>
        <time>2020-09-22T08:55:06.000Z</time>
      </trkpt>
      <trkpt lat="45.07899" lon="0.58311">
        <ele>91.199996948242</ele>
        <time>2020-09-22T08:55:07.000Z</time>
      </trkpt>
      <trkpt lat="45.07903" lon="0.58314">
        <ele>91</ele>
        <time>2020-09-22T08:55:08.000Z</time>
      </trkpt>
      <trkpt lat="45.07906" lon="0.58317">
        <ele>91</ele>
        <time>2020-09-22T08:55:09.000Z</time>
      </trkpt>
      <trkpt lat="45.07909" lon="0.5832">
        <ele>90.800003051758</ele>
        <time>2020-09-22T08:55:10.000Z</time>
      </trkpt>
      <trkpt lat="45.07912" lon="0.58323">
        <ele>90.800003051758</ele>
        <time>2020-09-22T08:55:11.000Z</time>
      </trkpt>
      <trkpt lat="45.07915" lon="0.58325">
        <ele>90.599998474121</ele>
        <time>2020-09-22T08:55:12.000Z</time>
      </trkpt>
      <trkpt lat="45.07918" lon="0.58328">
        <ele>90.400001525879</ele>
        <time>2020-09-22T08:55:13.000Z</time>
      </trkpt>
      <trkpt lat="45.07924" lon="0.58332">
        <ele>90.199996948242</ele>
        <time>2020-09-22T08:55:14.000Z</time>
      </trkpt>
      <trkpt lat="45.07924" lon="0.58332">
        <ele>90.199996948242</ele>
        <time>2020-09-22T08:55:15.000Z</time>
      </trkpt>
      <trkpt lat="45.07927" lon="0.58334">
        <ele>90.199996948242</ele>
        <time>2020-09-22T08:55:16.000Z</time>
      </trkpt>
      <trkpt lat="45.0793" lon="0.58336">
        <ele>90</ele>
        <time>2020-09-22T08:55:17.000Z</time>
      </trkpt>
      <trkpt lat="45.07933" lon="0.58339">
        <ele>90</ele>
        <time>2020-09-22T08:55:18.000Z</time>
      </trkpt>
      <trkpt lat="45.07936" lon="0.58341">
        <ele>89.800003051758</ele>
        <time>2020-09-22T08:55:19.000Z</time>
      </trkpt>
      <trkpt lat="45.07939" lon="0.58343">
        <ele>89.800003051758</ele>
        <time>2020-09-22T08:55:20.000Z</time>
      </trkpt>
      <trkpt lat="45.07943" lon="0.58345">
        <ele>89.599998474121</ele>
        <time>2020-09-22T08:55:21.000Z</time>
      </trkpt>
      <trkpt lat="45.07946" lon="0.58347">
        <ele>89.400001525879</ele>
        <time>2020-09-22T08:55:22.000Z</time>
      </trkpt>
      <trkpt lat="45.07949" lon="0.58348">
        <ele>89.400001525879</ele>
        <time>2020-09-22T08:55:23.000Z</time>
      </trkpt>
      <trkpt lat="45.07953" lon="0.5835">
        <ele>89.199996948242</ele>
        <time>2020-09-22T08:55:24.000Z</time>
      </trkpt>
      <trkpt lat="45.07956" lon="0.58352">
        <ele>89.199996948242</ele>
        <time>2020-09-22T08:55:25.000Z</time>
      </trkpt>
      <trkpt lat="45.07959" lon="0.58354">
        <ele>89</ele>
        <time>2020-09-22T08:55:26.000Z</time>
      </trkpt>
      <trkpt lat="45.07962" lon="0.58357">
        <ele>89</ele>
        <time>2020-09-22T08:55:27.000Z</time>
      </trkpt>
      <trkpt lat="45.07965" lon="0.58359">
        <ele>89</ele>
        <time>2020-09-22T08:55:28.000Z</time>
      </trkpt>
      <trkpt lat="45.07968" lon="0.58361">
        <ele>89</ele>
        <time>2020-09-22T08:55:29.000Z</time>
      </trkpt>
      <trkpt lat="45.0797" lon="0.58364">
        <ele>88.800003051758</ele>
        <time>2020-09-22T08:55:30.000Z</time>
      </trkpt>
      <trkpt lat="45.07973" lon="0.58366">
        <ele>88.800003051758</ele>
        <time>2020-09-22T08:55:31.000Z</time>
      </trkpt>
      <trkpt lat="45.07976" lon="0.58368">
        <ele>88.800003051758</ele>
        <time>2020-09-22T08:55:32.000Z</time>
      </trkpt>
      <trkpt lat="45.07979" lon="0.58371">
        <ele>88.800003051758</ele>
        <time>2020-09-22T08:55:33.000Z</time>
      </trkpt>
      <trkpt lat="45.07982" lon="0.58373">
        <ele>88.800003051758</ele>
        <time>2020-09-22T08:55:34.000Z</time>
      </trkpt>
      <trkpt lat="45.07985" lon="0.58375">
        <ele>88.599998474121</ele>
        <time>2020-09-22T08:55:35.000Z</time>
      </trkpt>
      <trkpt lat="45.07988" lon="0.58376">
        <ele>88.599998474121</ele>
        <time>2020-09-22T08:55:36.000Z</time>
      </trkpt>
      <trkpt lat="45.07991" lon="0.58378">
        <ele>88.599998474121</ele>
        <time>2020-09-22T08:55:37.000Z</time>
      </trkpt>
      <trkpt lat="45.07994" lon="0.58381">
        <ele>88.599998474121</ele>
        <time>2020-09-22T08:55:38.000Z</time>
      </trkpt>
      <trkpt lat="45.07997" lon="0.58383">
        <ele>88.599998474121</ele>
        <time>2020-09-22T08:55:39.000Z</time>
      </trkpt>
      <trkpt lat="45.08" lon="0.58385">
        <ele>88.599998474121</ele>
        <time>2020-09-22T08:55:40.000Z</time>
      </trkpt>
      <trkpt lat="45.08003" lon="0.58388">
        <ele>88.599998474121</ele>
        <time>2020-09-22T08:55:41.000Z</time>
      </trkpt>
      <trkpt lat="45.08005" lon="0.5839">
        <ele>88.599998474121</ele>
        <time>2020-09-22T08:55:42.000Z</time>
      </trkpt>
      <trkpt lat="45.08008" lon="0.58392">
        <ele>88.599998474121</ele>
        <time>2020-09-22T08:55:43.000Z</time>
      </trkpt>
      <trkpt lat="45.0801" lon="0.58395">
        <ele>88.599998474121</ele>
        <time>2020-09-22T08:55:44.000Z</time>
      </trkpt>
      <trkpt lat="45.08013" lon="0.58396">
        <ele>88.599998474121</ele>
        <time>2020-09-22T08:55:45.000Z</time>
      </trkpt>
      <trkpt lat="45.08016" lon="0.58396">
        <ele>88.599998474121</ele>
        <time>2020-09-22T08:55:46.000Z</time>
      </trkpt>
      <trkpt lat="45.08018" lon="0.58395">
        <ele>88.599998474121</ele>
        <time>2020-09-22T08:55:47.000Z</time>
      </trkpt>
      <trkpt lat="45.08021" lon="0.58394">
        <ele>88.400001525879</ele>
        <time>2020-09-22T08:55:48.000Z</time>
      </trkpt>
      <trkpt lat="45.08024" lon="0.58392">
        <ele>88.400001525879</ele>
        <time>2020-09-22T08:55:49.000Z</time>
      </trkpt>
      <trkpt lat="45.08027" lon="0.58391">
        <ele>88.400001525879</ele>
        <time>2020-09-22T08:55:50.000Z</time>
      </trkpt>
      <trkpt lat="45.0803" lon="0.58389">
        <ele>88.199996948242</ele>
        <time>2020-09-22T08:55:51.000Z</time>
      </trkpt>
      <trkpt lat="45.08033" lon="0.58386">
        <ele>88.199996948242</ele>
        <time>2020-09-22T08:55:52.000Z</time>
      </trkpt>
      <trkpt lat="45.08036" lon="0.58385">
        <ele>88</ele>
        <time>2020-09-22T08:55:53.000Z</time>
      </trkpt>
      <trkpt lat="45.08039" lon="0.58383">
        <ele>88</ele>
        <time>2020-09-22T08:55:54.000Z</time>
      </trkpt>
      <trkpt lat="45.08042" lon="0.58381">
        <ele>88</ele>
        <time>2020-09-22T08:55:55.000Z</time>
      </trkpt>
      <trkpt lat="45.08045" lon="0.58379">
        <ele>88</ele>
        <time>2020-09-22T08:55:56.000Z</time>
      </trkpt>
      <trkpt lat="45.08048" lon="0.58377">
        <ele>88</ele>
        <time>2020-09-22T08:55:57.000Z</time>
      </trkpt>
      <trkpt lat="45.08051" lon="0.58375">
        <ele>88</ele>
        <time>2020-09-22T08:55:58.000Z</time>
      </trkpt>
      <trkpt lat="45.08054" lon="0.58374">
        <ele>88</ele>
        <time>2020-09-22T08:55:59.000Z</time>
      </trkpt>
      <trkpt lat="45.08057" lon="0.58371">
        <ele>88</ele>
        <time>2020-09-22T08:56:00.000Z</time>
      </trkpt>
      <trkpt lat="45.08061" lon="0.5837">
        <ele>88</ele>
        <time>2020-09-22T08:56:01.000Z</time>
      </trkpt>
      <trkpt lat="45.08064" lon="0.58369">
        <ele>88</ele>
        <time>2020-09-22T08:56:02.000Z</time>
      </trkpt>
      <trkpt lat="45.08067" lon="0.58368">
        <ele>88</ele>
        <time>2020-09-22T08:56:03.000Z</time>
      </trkpt>
      <trkpt lat="45.0807" lon="0.58366">
        <ele>88</ele>
        <time>2020-09-22T08:56:04.000Z</time>
      </trkpt>
      <trkpt lat="45.08073" lon="0.58365">
        <ele>88</ele>
        <time>2020-09-22T08:56:05.000Z</time>
      </trkpt>
      <trkpt lat="45.08076" lon="0.58363">
        <ele>88</ele>
        <time>2020-09-22T08:56:06.000Z</time>
      </trkpt>
      <trkpt lat="45.08079" lon="0.58361">
        <ele>88</ele>
        <time>2020-09-22T08:56:07.000Z</time>
      </trkpt>
      <trkpt lat="45.08082" lon="0.58359">
        <ele>88</ele>
        <time>2020-09-22T08:56:08.000Z</time>
      </trkpt>
      <trkpt lat="45.08085" lon="0.58357">
        <ele>88</ele>
        <time>2020-09-22T08:56:09.000Z</time>
      </trkpt>
      <trkpt lat="45.08088" lon="0.58356">
        <ele>88</ele>
        <time>2020-09-22T08:56:10.000Z</time>
      </trkpt>
      <trkpt lat="45.08091" lon="0.58355">
        <ele>88</ele>
        <time>2020-09-22T08:56:11.000Z</time>
      </trkpt>
      <trkpt lat="45.08093" lon="0.58352">
        <ele>88</ele>
        <time>2020-09-22T08:56:12.000Z</time>
      </trkpt>
      <trkpt lat="45.08096" lon="0.5835">
        <ele>88</ele>
        <time>2020-09-22T08:56:13.000Z</time>
      </trkpt>
      <trkpt lat="45.08099" lon="0.58348">
        <ele>88</ele>
        <time>2020-09-22T08:56:14.000Z</time>
      </trkpt>
      <trkpt lat="45.08102" lon="0.58347">
        <ele>88</ele>
        <time>2020-09-22T08:56:15.000Z</time>
      </trkpt>
      <trkpt lat="45.08106" lon="0.58345">
        <ele>88</ele>
        <time>2020-09-22T08:56:16.000Z</time>
      </trkpt>
      <trkpt lat="45.08109" lon="0.58343">
        <ele>88</ele>
        <time>2020-09-22T08:56:17.000Z</time>
      </trkpt>
      <trkpt lat="45.08114" lon="0.5834">
        <ele>88</ele>
        <time>2020-09-22T08:56:18.000Z</time>
      </trkpt>
      <trkpt lat="45.08117" lon="0.58339">
        <ele>88</ele>
        <time>2020-09-22T08:56:19.000Z</time>
      </trkpt>
      <trkpt lat="45.08117" lon="0.58339">
        <ele>88</ele>
        <time>2020-09-22T08:56:20.000Z</time>
      </trkpt>
      <trkpt lat="45.0812" lon="0.58337">
        <ele>88</ele>
        <time>2020-09-22T08:56:21.000Z</time>
      </trkpt>
      <trkpt lat="45.08122" lon="0.58337">
        <ele>88</ele>
        <time>2020-09-22T08:56:22.000Z</time>
      </trkpt>
      <trkpt lat="45.08125" lon="0.58335">
        <ele>88</ele>
        <time>2020-09-22T08:56:23.000Z</time>
      </trkpt>
      <trkpt lat="45.08128" lon="0.58333">
        <ele>88</ele>
        <time>2020-09-22T08:56:24.000Z</time>
      </trkpt>
      <trkpt lat="45.08131" lon="0.58331">
        <ele>88</ele>
        <time>2020-09-22T08:56:25.000Z</time>
      </trkpt>
      <trkpt lat="45.08133" lon="0.58329">
        <ele>88</ele>
        <time>2020-09-22T08:56:26.000Z</time>
      </trkpt>
      <trkpt lat="45.08136" lon="0.58327">
        <ele>88.199996948242</ele>
        <time>2020-09-22T08:56:27.000Z</time>
      </trkpt>
      <trkpt lat="45.0814" lon="0.58325">
        <ele>88.199996948242</ele>
        <time>2020-09-22T08:56:28.000Z</time>
      </trkpt>
      <trkpt lat="45.08143" lon="0.58322">
        <ele>88.199996948242</ele>
        <time>2020-09-22T08:56:29.000Z</time>
      </trkpt>
      <trkpt lat="45.08146" lon="0.58321">
        <ele>88.199996948242</ele>
        <time>2020-09-22T08:56:30.000Z</time>
      </trkpt>
      <trkpt lat="45.0815" lon="0.58319">
        <ele>88.199996948242</ele>
        <time>2020-09-22T08:56:31.000Z</time>
      </trkpt>
      <trkpt lat="45.08154" lon="0.58318">
        <ele>88.199996948242</ele>
        <time>2020-09-22T08:56:32.000Z</time>
      </trkpt>
      <trkpt lat="45.08157" lon="0.58317">
        <ele>88.199996948242</ele>
        <time>2020-09-22T08:56:33.000Z</time>
      </trkpt>
      <trkpt lat="45.0816" lon="0.58315">
        <ele>88.199996948242</ele>
        <time>2020-09-22T08:56:34.000Z</time>
      </trkpt>
      <trkpt lat="45.08164" lon="0.58314">
        <ele>88.199996948242</ele>
        <time>2020-09-22T08:56:35.000Z</time>
      </trkpt>
      <trkpt lat="45.08167" lon="0.58312">
        <ele>88.199996948242</ele>
        <time>2020-09-22T08:56:36.000Z</time>
      </trkpt>
      <trkpt lat="45.08171" lon="0.5831">
        <ele>88.199996948242</ele>
        <time>2020-09-22T08:56:37.000Z</time>
      </trkpt>
      <trkpt lat="45.08175" lon="0.58308">
        <ele>88</ele>
        <time>2020-09-22T08:56:38.000Z</time>
      </trkpt>
      <trkpt lat="45.08178" lon="0.58306">
        <ele>88</ele>
        <time>2020-09-22T08:56:39.000Z</time>
      </trkpt>
      <trkpt lat="45.08182" lon="0.58304">
        <ele>88</ele>
        <time>2020-09-22T08:56:40.000Z</time>
      </trkpt>
      <trkpt lat="45.08186" lon="0.58302">
        <ele>88</ele>
        <time>2020-09-22T08:56:41.000Z</time>
      </trkpt>
      <trkpt lat="45.0819" lon="0.58301">
        <ele>88</ele>
        <time>2020-09-22T08:56:42.000Z</time>
      </trkpt>
      <trkpt lat="45.08193" lon="0.58299">
        <ele>88</ele>
        <time>2020-09-22T08:56:43.000Z</time>
      </trkpt>
      <trkpt lat="45.08196" lon="0.58298">
        <ele>88</ele>
        <time>2020-09-22T08:56:44.000Z</time>
      </trkpt>
      <trkpt lat="45.082" lon="0.58297">
        <ele>88</ele>
        <time>2020-09-22T08:56:45.000Z</time>
      </trkpt>
      <trkpt lat="45.08203" lon="0.58294">
        <ele>88</ele>
        <time>2020-09-22T08:56:46.000Z</time>
      </trkpt>
      <trkpt lat="45.08207" lon="0.58293">
        <ele>88</ele>
        <time>2020-09-22T08:56:47.000Z</time>
      </trkpt>
      <trkpt lat="45.08211" lon="0.58292">
        <ele>88.199996948242</ele>
        <time>2020-09-22T08:56:48.000Z</time>
      </trkpt>
      <trkpt lat="45.08214" lon="0.58291">
        <ele>88.400001525879</ele>
        <time>2020-09-22T08:56:49.000Z</time>
      </trkpt>
      <trkpt lat="45.08217" lon="0.5829">
        <ele>88.400001525879</ele>
        <time>2020-09-22T08:56:50.000Z</time>
      </trkpt>
      <trkpt lat="45.0822" lon="0.58288">
        <ele>88.599998474121</ele>
        <time>2020-09-22T08:56:51.000Z</time>
      </trkpt>
      <trkpt lat="45.08224" lon="0.58287">
        <ele>88.800003051758</ele>
        <time>2020-09-22T08:56:52.000Z</time>
      </trkpt>
      <trkpt lat="45.08227" lon="0.58286">
        <ele>89</ele>
        <time>2020-09-22T08:56:53.000Z</time>
      </trkpt>
      <trkpt lat="45.0823" lon="0.58284">
        <ele>89.199996948242</ele>
        <time>2020-09-22T08:56:54.000Z</time>
      </trkpt>
      <trkpt lat="45.08234" lon="0.58281">
        <ele>89.400001525879</ele>
        <time>2020-09-22T08:56:55.000Z</time>
      </trkpt>
      <trkpt lat="45.08237" lon="0.5828">
        <ele>89.599998474121</ele>
        <time>2020-09-22T08:56:56.000Z</time>
      </trkpt>
      <trkpt lat="45.0824" lon="0.58278">
        <ele>89.800003051758</ele>
        <time>2020-09-22T08:56:57.000Z</time>
      </trkpt>
      <trkpt lat="45.08243" lon="0.58277">
        <ele>89.800003051758</ele>
        <time>2020-09-22T08:56:58.000Z</time>
      </trkpt>
      <trkpt lat="45.08246" lon="0.58275">
        <ele>90</ele>
        <time>2020-09-22T08:56:59.000Z</time>
      </trkpt>
      <trkpt lat="45.08249" lon="0.58273">
        <ele>90.199996948242</ele>
        <time>2020-09-22T08:57:00.000Z</time>
      </trkpt>
      <trkpt lat="45.08252" lon="0.58271">
        <ele>90.400001525879</ele>
        <time>2020-09-22T08:57:01.000Z</time>
      </trkpt>
      <trkpt lat="45.08255" lon="0.58269">
        <ele>90.599998474121</ele>
        <time>2020-09-22T08:57:02.000Z</time>
      </trkpt>
      <trkpt lat="45.08258" lon="0.58267">
        <ele>90.800003051758</ele>
        <time>2020-09-22T08:57:03.000Z</time>
      </trkpt>
      <trkpt lat="45.08261" lon="0.58267">
        <ele>90.800003051758</ele>
        <time>2020-09-22T08:57:04.000Z</time>
      </trkpt>
      <trkpt lat="45.08264" lon="0.5827">
        <ele>91</ele>
        <time>2020-09-22T08:57:05.000Z</time>
      </trkpt>
      <trkpt lat="45.08266" lon="0.58273">
        <ele>91</ele>
        <time>2020-09-22T08:57:06.000Z</time>
      </trkpt>
      <trkpt lat="45.08269" lon="0.58277">
        <ele>91.199996948242</ele>
        <time>2020-09-22T08:57:07.000Z</time>
      </trkpt>
      <trkpt lat="45.08271" lon="0.5828">
        <ele>91.199996948242</ele>
        <time>2020-09-22T08:57:08.000Z</time>
      </trkpt>
      <trkpt lat="45.08273" lon="0.58283">
        <ele>91.199996948242</ele>
        <time>2020-09-22T08:57:09.000Z</time>
      </trkpt>
      <trkpt lat="45.08275" lon="0.58287">
        <ele>91.400001525879</ele>
        <time>2020-09-22T08:57:10.000Z</time>
      </trkpt>
      <trkpt lat="45.08277" lon="0.58292">
        <ele>91.400001525879</ele>
        <time>2020-09-22T08:57:11.000Z</time>
      </trkpt>
      <trkpt lat="45.08279" lon="0.58296">
        <ele>91.400001525879</ele>
        <time>2020-09-22T08:57:12.000Z</time>
      </trkpt>
      <trkpt lat="45.08281" lon="0.583">
        <ele>91.400001525879</ele>
        <time>2020-09-22T08:57:13.000Z</time>
      </trkpt>
      <trkpt lat="45.08283" lon="0.58304">
        <ele>91.400001525879</ele>
        <time>2020-09-22T08:57:14.000Z</time>
      </trkpt>
      <trkpt lat="45.08286" lon="0.58309">
        <ele>91.599998474121</ele>
        <time>2020-09-22T08:57:15.000Z</time>
      </trkpt>
      <trkpt lat="45.08288" lon="0.58313">
        <ele>91.599998474121</ele>
        <time>2020-09-22T08:57:16.000Z</time>
      </trkpt>
      <trkpt lat="45.0829" lon="0.58316">
        <ele>91.599998474121</ele>
        <time>2020-09-22T08:57:17.000Z</time>
      </trkpt>
      <trkpt lat="45.08292" lon="0.5832">
        <ele>91.800003051758</ele>
        <time>2020-09-22T08:57:18.000Z</time>
      </trkpt>
      <trkpt lat="45.08294" lon="0.58324">
        <ele>91.800003051758</ele>
        <time>2020-09-22T08:57:19.000Z</time>
      </trkpt>
      <trkpt lat="45.08296" lon="0.58328">
        <ele>91.800003051758</ele>
        <time>2020-09-22T08:57:20.000Z</time>
      </trkpt>
      <trkpt lat="45.083" lon="0.58335">
        <ele>91.800003051758</ele>
        <time>2020-09-22T08:57:21.000Z</time>
      </trkpt>
      <trkpt lat="45.08301" lon="0.58338">
        <ele>91.800003051758</ele>
        <time>2020-09-22T08:57:22.000Z</time>
      </trkpt>
      <trkpt lat="45.08301" lon="0.58338">
        <ele>91.800003051758</ele>
        <time>2020-09-22T08:57:23.000Z</time>
      </trkpt>
      <trkpt lat="45.08303" lon="0.58341">
        <ele>91.800003051758</ele>
        <time>2020-09-22T08:57:24.000Z</time>
      </trkpt>
      <trkpt lat="45.08305" lon="0.58344">
        <ele>92</ele>
        <time>2020-09-22T08:57:25.000Z</time>
      </trkpt>
      <trkpt lat="45.08307" lon="0.58347">
        <ele>92</ele>
        <time>2020-09-22T08:57:26.000Z</time>
      </trkpt>
      <trkpt lat="45.08308" lon="0.5835">
        <ele>92</ele>
        <time>2020-09-22T08:57:27.000Z</time>
      </trkpt>
      <trkpt lat="45.0831" lon="0.58354">
        <ele>92</ele>
        <time>2020-09-22T08:57:28.000Z</time>
      </trkpt>
      <trkpt lat="45.08312" lon="0.58358">
        <ele>92</ele>
        <time>2020-09-22T08:57:29.000Z</time>
      </trkpt>
      <trkpt lat="45.08314" lon="0.58361">
        <ele>92</ele>
        <time>2020-09-22T08:57:30.000Z</time>
      </trkpt>
      <trkpt lat="45.08315" lon="0.58365">
        <ele>92</ele>
        <time>2020-09-22T08:57:31.000Z</time>
      </trkpt>
      <trkpt lat="45.08317" lon="0.58368">
        <ele>92</ele>
        <time>2020-09-22T08:57:32.000Z</time>
      </trkpt>
      <trkpt lat="45.08318" lon="0.58372">
        <ele>92</ele>
        <time>2020-09-22T08:57:33.000Z</time>
      </trkpt>
      <trkpt lat="45.0832" lon="0.58376">
        <ele>92</ele>
        <time>2020-09-22T08:57:34.000Z</time>
      </trkpt>
      <trkpt lat="45.08323" lon="0.5838">
        <ele>92.199996948242</ele>
        <time>2020-09-22T08:57:35.000Z</time>
      </trkpt>
      <trkpt lat="45.08325" lon="0.58384">
        <ele>92.199996948242</ele>
        <time>2020-09-22T08:57:36.000Z</time>
      </trkpt>
      <trkpt lat="45.08326" lon="0.58388">
        <ele>92.199996948242</ele>
        <time>2020-09-22T08:57:37.000Z</time>
      </trkpt>
      <trkpt lat="45.08327" lon="0.58391">
        <ele>92.400001525879</ele>
        <time>2020-09-22T08:57:38.000Z</time>
      </trkpt>
      <trkpt lat="45.08329" lon="0.58395">
        <ele>92.400001525879</ele>
        <time>2020-09-22T08:57:39.000Z</time>
      </trkpt>
      <trkpt lat="45.0833" lon="0.58399">
        <ele>92.599998474121</ele>
        <time>2020-09-22T08:57:40.000Z</time>
      </trkpt>
      <trkpt lat="45.08332" lon="0.58402">
        <ele>92.599998474121</ele>
        <time>2020-09-22T08:57:41.000Z</time>
      </trkpt>
      <trkpt lat="45.08334" lon="0.58406">
        <ele>92.800003051758</ele>
        <time>2020-09-22T08:57:42.000Z</time>
      </trkpt>
      <trkpt lat="45.08336" lon="0.5841">
        <ele>92.800003051758</ele>
        <time>2020-09-22T08:57:43.000Z</time>
      </trkpt>
      <trkpt lat="45.08338" lon="0.58414">
        <ele>93</ele>
        <time>2020-09-22T08:57:44.000Z</time>
      </trkpt>
      <trkpt lat="45.0834" lon="0.58419">
        <ele>93.199996948242</ele>
        <time>2020-09-22T08:57:45.000Z</time>
      </trkpt>
      <trkpt lat="45.08343" lon="0.58423">
        <ele>93.199996948242</ele>
        <time>2020-09-22T08:57:46.000Z</time>
      </trkpt>
      <trkpt lat="45.08344" lon="0.58427">
        <ele>93.400001525879</ele>
        <time>2020-09-22T08:57:47.000Z</time>
      </trkpt>
      <trkpt lat="45.08346" lon="0.58431">
        <ele>93.400001525879</ele>
        <time>2020-09-22T08:57:48.000Z</time>
      </trkpt>
      <trkpt lat="45.08348" lon="0.58435">
        <ele>93.599998474121</ele>
        <time>2020-09-22T08:57:49.000Z</time>
      </trkpt>
      <trkpt lat="45.0835" lon="0.58438">
        <ele>93.599998474121</ele>
        <time>2020-09-22T08:57:50.000Z</time>
      </trkpt>
      <trkpt lat="45.08352" lon="0.58442">
        <ele>93.800003051758</ele>
        <time>2020-09-22T08:57:51.000Z</time>
      </trkpt>
      <trkpt lat="45.08353" lon="0.58446">
        <ele>93.800003051758</ele>
        <time>2020-09-22T08:57:52.000Z</time>
      </trkpt>
      <trkpt lat="45.08355" lon="0.58449">
        <ele>94</ele>
        <time>2020-09-22T08:57:53.000Z</time>
      </trkpt>
      <trkpt lat="45.08356" lon="0.58452">
        <ele>94</ele>
        <time>2020-09-22T08:57:54.000Z</time>
      </trkpt>
      <trkpt lat="45.08358" lon="0.58456">
        <ele>94.199996948242</ele>
        <time>2020-09-22T08:57:55.000Z</time>
      </trkpt>
      <trkpt lat="45.0836" lon="0.58459">
        <ele>94.199996948242</ele>
        <time>2020-09-22T08:57:56.000Z</time>
      </trkpt>
      <trkpt lat="45.08363" lon="0.58462">
        <ele>94.400001525879</ele>
        <time>2020-09-22T08:57:57.000Z</time>
      </trkpt>
      <trkpt lat="45.08365" lon="0.58465">
        <ele>94.400001525879</ele>
        <time>2020-09-22T08:57:58.000Z</time>
      </trkpt>
      <trkpt lat="45.08368" lon="0.58468">
        <ele>94.599998474121</ele>
        <time>2020-09-22T08:57:59.000Z</time>
      </trkpt>
      <trkpt lat="45.0837" lon="0.5847">
        <ele>94.599998474121</ele>
        <time>2020-09-22T08:58:00.000Z</time>
      </trkpt>
      <trkpt lat="45.08373" lon="0.58472">
        <ele>94.800003051758</ele>
        <time>2020-09-22T08:58:01.000Z</time>
      </trkpt>
      <trkpt lat="45.08376" lon="0.58474">
        <ele>94.800003051758</ele>
        <time>2020-09-22T08:58:02.000Z</time>
      </trkpt>
      <trkpt lat="45.08378" lon="0.58477">
        <ele>95</ele>
        <time>2020-09-22T08:58:03.000Z</time>
      </trkpt>
      <trkpt lat="45.08381" lon="0.58479">
        <ele>95.199996948242</ele>
        <time>2020-09-22T08:58:04.000Z</time>
      </trkpt>
      <trkpt lat="45.08384" lon="0.58481">
        <ele>95.400001525879</ele>
        <time>2020-09-22T08:58:05.000Z</time>
      </trkpt>
      <trkpt lat="45.08387" lon="0.58483">
        <ele>95.400001525879</ele>
        <time>2020-09-22T08:58:06.000Z</time>
      </trkpt>
      <trkpt lat="45.08389" lon="0.58485">
        <ele>95.599998474121</ele>
        <time>2020-09-22T08:58:07.000Z</time>
      </trkpt>
      <trkpt lat="45.08392" lon="0.58486">
        <ele>95.800003051758</ele>
        <time>2020-09-22T08:58:08.000Z</time>
      </trkpt>
      <trkpt lat="45.08395" lon="0.58488">
        <ele>95.800003051758</ele>
        <time>2020-09-22T08:58:09.000Z</time>
      </trkpt>
      <trkpt lat="45.08398" lon="0.5849">
        <ele>96</ele>
        <time>2020-09-22T08:58:10.000Z</time>
      </trkpt>
      <trkpt lat="45.084" lon="0.58491">
        <ele>96.199996948242</ele>
        <time>2020-09-22T08:58:11.000Z</time>
      </trkpt>
      <trkpt lat="45.08404" lon="0.58494">
        <ele>96.199996948242</ele>
        <time>2020-09-22T08:58:12.000Z</time>
      </trkpt>
      <trkpt lat="45.08407" lon="0.58495">
        <ele>96.400001525879</ele>
        <time>2020-09-22T08:58:13.000Z</time>
      </trkpt>
      <trkpt lat="45.08409" lon="0.58497">
        <ele>96.599998474121</ele>
        <time>2020-09-22T08:58:14.000Z</time>
      </trkpt>
      <trkpt lat="45.08412" lon="0.58497">
        <ele>96.599998474121</ele>
        <time>2020-09-22T08:58:15.000Z</time>
      </trkpt>
      <trkpt lat="45.08415" lon="0.58499">
        <ele>96.800003051758</ele>
        <time>2020-09-22T08:58:16.000Z</time>
      </trkpt>
      <trkpt lat="45.08418" lon="0.58499">
        <ele>96.800003051758</ele>
        <time>2020-09-22T08:58:17.000Z</time>
      </trkpt>
      <trkpt lat="45.08422" lon="0.58499">
        <ele>97</ele>
        <time>2020-09-22T08:58:18.000Z</time>
      </trkpt>
      <trkpt lat="45.08425" lon="0.58499">
        <ele>97.199996948242</ele>
        <time>2020-09-22T08:58:19.000Z</time>
      </trkpt>
      <trkpt lat="45.08428" lon="0.58499">
        <ele>97.199996948242</ele>
        <time>2020-09-22T08:58:20.000Z</time>
      </trkpt>
      <trkpt lat="45.08431" lon="0.58499">
        <ele>97.400001525879</ele>
        <time>2020-09-22T08:58:21.000Z</time>
      </trkpt>
      <trkpt lat="45.08437" lon="0.58499">
        <ele>97.599998474121</ele>
        <time>2020-09-22T08:58:22.000Z</time>
      </trkpt>
      <trkpt lat="45.08439" lon="0.58499">
        <ele>97.599998474121</ele>
        <time>2020-09-22T08:58:23.000Z</time>
      </trkpt>
      <trkpt lat="45.08439" lon="0.58499">
        <ele>97.599998474121</ele>
        <time>2020-09-22T08:58:24.000Z</time>
      </trkpt>
      <trkpt lat="45.08442" lon="0.58499">
        <ele>97.800003051758</ele>
        <time>2020-09-22T08:58:25.000Z</time>
      </trkpt>
      <trkpt lat="45.08445" lon="0.58499">
        <ele>97.800003051758</ele>
        <time>2020-09-22T08:58:26.000Z</time>
      </trkpt>
      <trkpt lat="45.08447" lon="0.58499">
        <ele>98</ele>
        <time>2020-09-22T08:58:27.000Z</time>
      </trkpt>
      <trkpt lat="45.0845" lon="0.58502">
        <ele>98</ele>
        <time>2020-09-22T08:58:28.000Z</time>
      </trkpt>
      <trkpt lat="45.08453" lon="0.58507">
        <ele>98.199996948242</ele>
        <time>2020-09-22T08:58:29.000Z</time>
      </trkpt>
      <trkpt lat="45.08455" lon="0.58512">
        <ele>98.400001525879</ele>
        <time>2020-09-22T08:58:30.000Z</time>
      </trkpt>
      <trkpt lat="45.08457" lon="0.58517">
        <ele>98.400001525879</ele>
        <time>2020-09-22T08:58:31.000Z</time>
      </trkpt>
      <trkpt lat="45.08459" lon="0.58521">
        <ele>98.599998474121</ele>
        <time>2020-09-22T08:58:32.000Z</time>
      </trkpt>
      <trkpt lat="45.0846" lon="0.58525">
        <ele>98.599998474121</ele>
        <time>2020-09-22T08:58:33.000Z</time>
      </trkpt>
      <trkpt lat="45.08462" lon="0.58527">
        <ele>98.800003051758</ele>
        <time>2020-09-22T08:58:34.000Z</time>
      </trkpt>
      <trkpt lat="45.08465" lon="0.5853">
        <ele>98.800003051758</ele>
        <time>2020-09-22T08:58:35.000Z</time>
      </trkpt>
      <trkpt lat="45.08468" lon="0.58534">
        <ele>99</ele>
        <time>2020-09-22T08:58:36.000Z</time>
      </trkpt>
      <trkpt lat="45.08471" lon="0.58538">
        <ele>99.199996948242</ele>
        <time>2020-09-22T08:58:37.000Z</time>
      </trkpt>
      <trkpt lat="45.08473" lon="0.58542">
        <ele>99.199996948242</ele>
        <time>2020-09-22T08:58:38.000Z</time>
      </trkpt>
      <trkpt lat="45.08475" lon="0.58546">
        <ele>99.400001525879</ele>
        <time>2020-09-22T08:58:39.000Z</time>
      </trkpt>
      <trkpt lat="45.08477" lon="0.58551">
        <ele>99.400001525879</ele>
        <time>2020-09-22T08:58:40.000Z</time>
      </trkpt>
      <trkpt lat="45.08479" lon="0.58555">
        <ele>99.599998474121</ele>
        <time>2020-09-22T08:58:41.000Z</time>
      </trkpt>
      <trkpt lat="45.08481" lon="0.58559">
        <ele>99.800003051758</ele>
        <time>2020-09-22T08:58:42.000Z</time>
      </trkpt>
      <trkpt lat="45.08481" lon="0.58564">
        <ele>100.19999694824</ele>
        <time>2020-09-22T08:58:43.000Z</time>
      </trkpt>
      <trkpt lat="45.08482" lon="0.58569">
        <ele>100.40000152588</ele>
        <time>2020-09-22T08:58:44.000Z</time>
      </trkpt>
      <trkpt lat="45.08483" lon="0.58574">
        <ele>100.59999847412</ele>
        <time>2020-09-22T08:58:45.000Z</time>
      </trkpt>
      <trkpt lat="45.08484" lon="0.5858">
        <ele>100.80000305176</ele>
        <time>2020-09-22T08:58:46.000Z</time>
      </trkpt>
      <trkpt lat="45.08485" lon="0.58585">
        <ele>100.80000305176</ele>
        <time>2020-09-22T08:58:47.000Z</time>
      </trkpt>
      <trkpt lat="45.08487" lon="0.5859">
        <ele>100.80000305176</ele>
        <time>2020-09-22T08:58:48.000Z</time>
      </trkpt>
      <trkpt lat="45.08488" lon="0.58595">
        <ele>100.80000305176</ele>
        <time>2020-09-22T08:58:49.000Z</time>
      </trkpt>
      <trkpt lat="45.08488" lon="0.58601">
        <ele>100.80000305176</ele>
        <time>2020-09-22T08:58:50.000Z</time>
      </trkpt>
      <trkpt lat="45.08489" lon="0.58606">
        <ele>100.80000305176</ele>
        <time>2020-09-22T08:58:51.000Z</time>
      </trkpt>
      <trkpt lat="45.08489" lon="0.58611">
        <ele>100.80000305176</ele>
        <time>2020-09-22T08:58:52.000Z</time>
      </trkpt>
      <trkpt lat="45.0849" lon="0.58616">
        <ele>100.80000305176</ele>
        <time>2020-09-22T08:58:53.000Z</time>
      </trkpt>
      <trkpt lat="45.0849" lon="0.58622">
        <ele>100.80000305176</ele>
        <time>2020-09-22T08:58:54.000Z</time>
      </trkpt>
      <trkpt lat="45.0849" lon="0.58627">
        <ele>100.59999847412</ele>
        <time>2020-09-22T08:58:55.000Z</time>
      </trkpt>
      <trkpt lat="45.08491" lon="0.58632">
        <ele>100.59999847412</ele>
        <time>2020-09-22T08:58:56.000Z</time>
      </trkpt>
      <trkpt lat="45.08491" lon="0.58638">
        <ele>100.80000305176</ele>
        <time>2020-09-22T08:58:57.000Z</time>
      </trkpt>
      <trkpt lat="45.08491" lon="0.58642">
        <ele>101.19999694824</ele>
        <time>2020-09-22T08:58:58.000Z</time>
      </trkpt>
      <trkpt lat="45.08492" lon="0.58645">
        <ele>101.59999847412</ele>
        <time>2020-09-22T08:58:59.000Z</time>
      </trkpt>
      <trkpt lat="45.08493" lon="0.58647">
        <ele>101.80000305176</ele>
        <time>2020-09-22T08:59:00.000Z</time>
      </trkpt>
      <trkpt lat="45.08495" lon="0.58649">
        <ele>102.19999694824</ele>
        <time>2020-09-22T08:59:01.000Z</time>
      </trkpt>
      <trkpt lat="45.08497" lon="0.5865">
        <ele>102.40000152588</ele>
        <time>2020-09-22T08:59:02.000Z</time>
      </trkpt>
      <trkpt lat="45.08499" lon="0.58651">
        <ele>102.59999847412</ele>
        <time>2020-09-22T08:59:03.000Z</time>
      </trkpt>
      <trkpt lat="45.08501" lon="0.58651">
        <ele>102.80000305176</ele>
        <time>2020-09-22T08:59:04.000Z</time>
      </trkpt>
      <trkpt lat="45.08504" lon="0.58651">
        <ele>103</ele>
        <time>2020-09-22T08:59:05.000Z</time>
      </trkpt>
      <trkpt lat="45.08506" lon="0.58651">
        <ele>103.19999694824</ele>
        <time>2020-09-22T08:59:06.000Z</time>
      </trkpt>
      <trkpt lat="45.08509" lon="0.58651">
        <ele>103.40000152588</ele>
        <time>2020-09-22T08:59:07.000Z</time>
      </trkpt>
      <trkpt lat="45.08511" lon="0.5865">
        <ele>103.59999847412</ele>
        <time>2020-09-22T08:59:08.000Z</time>
      </trkpt>
      <trkpt lat="45.08514" lon="0.5865">
        <ele>103.80000305176</ele>
        <time>2020-09-22T08:59:09.000Z</time>
      </trkpt>
      <trkpt lat="45.08517" lon="0.58649">
        <ele>104</ele>
        <time>2020-09-22T08:59:10.000Z</time>
      </trkpt>
      <trkpt lat="45.0852" lon="0.58649">
        <ele>104.19999694824</ele>
        <time>2020-09-22T08:59:11.000Z</time>
      </trkpt>
      <trkpt lat="45.08523" lon="0.58649">
        <ele>104.40000152588</ele>
        <time>2020-09-22T08:59:12.000Z</time>
      </trkpt>
      <trkpt lat="45.08526" lon="0.58649">
        <ele>104.80000305176</ele>
        <time>2020-09-22T08:59:13.000Z</time>
      </trkpt>
      <trkpt lat="45.0853" lon="0.58649">
        <ele>105</ele>
        <time>2020-09-22T08:59:14.000Z</time>
      </trkpt>
      <trkpt lat="45.08533" lon="0.5865">
        <ele>105.40000152588</ele>
        <time>2020-09-22T08:59:15.000Z</time>
      </trkpt>
      <trkpt lat="45.08536" lon="0.58649">
        <ele>105.59999847412</ele>
        <time>2020-09-22T08:59:16.000Z</time>
      </trkpt>
      <trkpt lat="45.08539" lon="0.58649">
        <ele>105.80000305176</ele>
        <time>2020-09-22T08:59:17.000Z</time>
      </trkpt>
      <trkpt lat="45.08543" lon="0.58649">
        <ele>106.19999694824</ele>
        <time>2020-09-22T08:59:18.000Z</time>
      </trkpt>
      <trkpt lat="45.08547" lon="0.58649">
        <ele>106</ele>
        <time>2020-09-22T08:59:19.000Z</time>
      </trkpt>
      <trkpt lat="45.0855" lon="0.58649">
        <ele>106</ele>
        <time>2020-09-22T08:59:20.000Z</time>
      </trkpt>
      <trkpt lat="45.08553" lon="0.58649">
        <ele>106</ele>
        <time>2020-09-22T08:59:21.000Z</time>
      </trkpt>
      <trkpt lat="45.08556" lon="0.58649">
        <ele>105.80000305176</ele>
        <time>2020-09-22T08:59:22.000Z</time>
      </trkpt>
      <trkpt lat="45.08559" lon="0.58649">
        <ele>105.80000305176</ele>
        <time>2020-09-22T08:59:23.000Z</time>
      </trkpt>
      <trkpt lat="45.08566" lon="0.58649">
        <ele>105.40000152588</ele>
        <time>2020-09-22T08:59:24.000Z</time>
      </trkpt>
      <trkpt lat="45.08569" lon="0.5865">
        <ele>105.40000152588</ele>
        <time>2020-09-22T08:59:25.000Z</time>
      </trkpt>
      <trkpt lat="45.08569" lon="0.5865">
        <ele>105.40000152588</ele>
        <time>2020-09-22T08:59:26.000Z</time>
      </trkpt>
      <trkpt lat="45.08571" lon="0.5865">
        <ele>105.19999694824</ele>
        <time>2020-09-22T08:59:27.000Z</time>
      </trkpt>
      <trkpt lat="45.08574" lon="0.5865">
        <ele>105.19999694824</ele>
        <time>2020-09-22T08:59:28.000Z</time>
      </trkpt>
      <trkpt lat="45.08578" lon="0.5865">
        <ele>105</ele>
        <time>2020-09-22T08:59:29.000Z</time>
      </trkpt>
      <trkpt lat="45.08581" lon="0.5865">
        <ele>104.80000305176</ele>
        <time>2020-09-22T08:59:30.000Z</time>
      </trkpt>
      <trkpt lat="45.08583" lon="0.5865">
        <ele>104.80000305176</ele>
        <time>2020-09-22T08:59:31.000Z</time>
      </trkpt>
      <trkpt lat="45.08586" lon="0.5865">
        <ele>104.59999847412</ele>
        <time>2020-09-22T08:59:32.000Z</time>
      </trkpt>
      <trkpt lat="45.0859" lon="0.5865">
        <ele>104.40000152588</ele>
        <time>2020-09-22T08:59:33.000Z</time>
      </trkpt>
      <trkpt lat="45.08593" lon="0.5865">
        <ele>104.19999694824</ele>
        <time>2020-09-22T08:59:34.000Z</time>
      </trkpt>
      <trkpt lat="45.08597" lon="0.5865">
        <ele>104.19999694824</ele>
        <time>2020-09-22T08:59:35.000Z</time>
      </trkpt>
      <trkpt lat="45.086" lon="0.5865">
        <ele>104</ele>
        <time>2020-09-22T08:59:36.000Z</time>
      </trkpt>
      <trkpt lat="45.08605" lon="0.58651">
        <ele>103.80000305176</ele>
        <time>2020-09-22T08:59:37.000Z</time>
      </trkpt>
      <trkpt lat="45.08609" lon="0.58652">
        <ele>103.59999847412</ele>
        <time>2020-09-22T08:59:38.000Z</time>
      </trkpt>
      <trkpt lat="45.08614" lon="0.58652">
        <ele>103.59999847412</ele>
        <time>2020-09-22T08:59:39.000Z</time>
      </trkpt>
      <trkpt lat="45.08618" lon="0.58653">
        <ele>103.40000152588</ele>
        <time>2020-09-22T08:59:40.000Z</time>
      </trkpt>
      <trkpt lat="45.08624" lon="0.58655">
        <ele>103.19999694824</ele>
        <time>2020-09-22T08:59:41.000Z</time>
      </trkpt>
      <trkpt lat="45.08628" lon="0.58656">
        <ele>103.19999694824</ele>
        <time>2020-09-22T08:59:42.000Z</time>
      </trkpt>
      <trkpt lat="45.08632" lon="0.58657">
        <ele>103.40000152588</ele>
        <time>2020-09-22T08:59:43.000Z</time>
      </trkpt>
      <trkpt lat="45.08635" lon="0.58658">
        <ele>103.40000152588</ele>
        <time>2020-09-22T08:59:44.000Z</time>
      </trkpt>
      <trkpt lat="45.08638" lon="0.58658">
        <ele>103.40000152588</ele>
        <time>2020-09-22T08:59:45.000Z</time>
      </trkpt>
      <trkpt lat="45.08642" lon="0.58659">
        <ele>103.40000152588</ele>
        <time>2020-09-22T08:59:46.000Z</time>
      </trkpt>
      <trkpt lat="45.08644" lon="0.5866">
        <ele>103.59999847412</ele>
        <time>2020-09-22T08:59:47.000Z</time>
      </trkpt>
      <trkpt lat="45.08648" lon="0.58661">
        <ele>103.59999847412</ele>
        <time>2020-09-22T08:59:48.000Z</time>
      </trkpt>
      <trkpt lat="45.0865" lon="0.58659">
        <ele>103.40000152588</ele>
        <time>2020-09-22T08:59:49.000Z</time>
      </trkpt>
      <trkpt lat="45.08654" lon="0.58659">
        <ele>103.40000152588</ele>
        <time>2020-09-22T08:59:50.000Z</time>
      </trkpt>
      <trkpt lat="45.08657" lon="0.58659">
        <ele>103.40000152588</ele>
        <time>2020-09-22T08:59:51.000Z</time>
      </trkpt>
      <trkpt lat="45.08659" lon="0.58658">
        <ele>103.40000152588</ele>
        <time>2020-09-22T08:59:52.000Z</time>
      </trkpt>
      <trkpt lat="45.08662" lon="0.58658">
        <ele>103.59999847412</ele>
        <time>2020-09-22T08:59:53.000Z</time>
      </trkpt>
      <trkpt lat="45.08665" lon="0.58657">
        <ele>103.59999847412</ele>
        <time>2020-09-22T08:59:54.000Z</time>
      </trkpt>
      <trkpt lat="45.08669" lon="0.58658">
        <ele>103.59999847412</ele>
        <time>2020-09-22T08:59:55.000Z</time>
      </trkpt>
      <trkpt lat="45.08672" lon="0.58658">
        <ele>103.80000305176</ele>
        <time>2020-09-22T08:59:56.000Z</time>
      </trkpt>
      <trkpt lat="45.08676" lon="0.58658">
        <ele>103.80000305176</ele>
        <time>2020-09-22T08:59:57.000Z</time>
      </trkpt>
      <trkpt lat="45.08678" lon="0.58657">
        <ele>103.80000305176</ele>
        <time>2020-09-22T08:59:58.000Z</time>
      </trkpt>
      <trkpt lat="45.0868" lon="0.58656">
        <ele>103.80000305176</ele>
        <time>2020-09-22T08:59:59.000Z</time>
      </trkpt>
      <trkpt lat="45.08684" lon="0.58656">
        <ele>103.80000305176</ele>
        <time>2020-09-22T09:00:00.000Z</time>
      </trkpt>
      <trkpt lat="45.08686" lon="0.58657">
        <ele>104</ele>
        <time>2020-09-22T09:00:01.000Z</time>
      </trkpt>
      <trkpt lat="45.08689" lon="0.58659">
        <ele>104.19999694824</ele>
        <time>2020-09-22T09:00:02.000Z</time>
      </trkpt>
      <trkpt lat="45.08692" lon="0.5866">
        <ele>104.40000152588</ele>
        <time>2020-09-22T09:00:03.000Z</time>
      </trkpt>
      <trkpt lat="45.08694" lon="0.58661">
        <ele>104.59999847412</ele>
        <time>2020-09-22T09:00:04.000Z</time>
      </trkpt>
      <trkpt lat="45.08697" lon="0.58662">
        <ele>104.59999847412</ele>
        <time>2020-09-22T09:00:05.000Z</time>
      </trkpt>
      <trkpt lat="45.08701" lon="0.58663">
        <ele>104.80000305176</ele>
        <time>2020-09-22T09:00:06.000Z</time>
      </trkpt>
      <trkpt lat="45.08705" lon="0.58664">
        <ele>105</ele>
        <time>2020-09-22T09:00:07.000Z</time>
      </trkpt>
      <trkpt lat="45.08708" lon="0.58664">
        <ele>105</ele>
        <time>2020-09-22T09:00:08.000Z</time>
      </trkpt>
      <trkpt lat="45.08711" lon="0.58665">
        <ele>105.19999694824</ele>
        <time>2020-09-22T09:00:09.000Z</time>
      </trkpt>
      <trkpt lat="45.08714" lon="0.58665">
        <ele>105.19999694824</ele>
        <time>2020-09-22T09:00:10.000Z</time>
      </trkpt>
      <trkpt lat="45.08717" lon="0.58666">
        <ele>105.19999694824</ele>
        <time>2020-09-22T09:00:11.000Z</time>
      </trkpt>
      <trkpt lat="45.0872" lon="0.58666">
        <ele>105.19999694824</ele>
        <time>2020-09-22T09:00:12.000Z</time>
      </trkpt>
      <trkpt lat="45.08724" lon="0.58667">
        <ele>105.19999694824</ele>
        <time>2020-09-22T09:00:13.000Z</time>
      </trkpt>
      <trkpt lat="45.08727" lon="0.58667">
        <ele>105.19999694824</ele>
        <time>2020-09-22T09:00:14.000Z</time>
      </trkpt>
      <trkpt lat="45.08731" lon="0.58668">
        <ele>105.19999694824</ele>
        <time>2020-09-22T09:00:15.000Z</time>
      </trkpt>
      <trkpt lat="45.08736" lon="0.58669">
        <ele>105.19999694824</ele>
        <time>2020-09-22T09:00:16.000Z</time>
      </trkpt>
      <trkpt lat="45.08742" lon="0.58669">
        <ele>105</ele>
        <time>2020-09-22T09:00:17.000Z</time>
      </trkpt>
      <trkpt lat="45.08746" lon="0.58669">
        <ele>105</ele>
        <time>2020-09-22T09:00:18.000Z</time>
      </trkpt>
      <trkpt lat="45.08751" lon="0.58669">
        <ele>105</ele>
        <time>2020-09-22T09:00:19.000Z</time>
      </trkpt>
      <trkpt lat="45.08756" lon="0.5867">
        <ele>104.80000305176</ele>
        <time>2020-09-22T09:00:20.000Z</time>
      </trkpt>
      <trkpt lat="45.08761" lon="0.58671">
        <ele>104.80000305176</ele>
        <time>2020-09-22T09:00:21.000Z</time>
      </trkpt>
      <trkpt lat="45.08765" lon="0.58671">
        <ele>104.80000305176</ele>
        <time>2020-09-22T09:00:22.000Z</time>
      </trkpt>
      <trkpt lat="45.08769" lon="0.58672">
        <ele>104.59999847412</ele>
        <time>2020-09-22T09:00:23.000Z</time>
      </trkpt>
      <trkpt lat="45.08774" lon="0.58671">
        <ele>104.59999847412</ele>
        <time>2020-09-22T09:00:24.000Z</time>
      </trkpt>
      <trkpt lat="45.08781" lon="0.5867">
        <ele>104.19999694824</ele>
        <time>2020-09-22T09:00:25.000Z</time>
      </trkpt>
      <trkpt lat="45.08785" lon="0.58668">
        <ele>104</ele>
        <time>2020-09-22T09:00:26.000Z</time>
      </trkpt>
      <trkpt lat="45.08785" lon="0.58668">
        <ele>104</ele>
        <time>2020-09-22T09:00:27.000Z</time>
      </trkpt>
      <trkpt lat="45.08788" lon="0.58665">
        <ele>103.59999847412</ele>
        <time>2020-09-22T09:00:28.000Z</time>
      </trkpt>
      <trkpt lat="45.08791" lon="0.58662">
        <ele>103.40000152588</ele>
        <time>2020-09-22T09:00:29.000Z</time>
      </trkpt>
      <trkpt lat="45.08794" lon="0.5866">
        <ele>103</ele>
        <time>2020-09-22T09:00:30.000Z</time>
      </trkpt>
      <trkpt lat="45.08798" lon="0.58659">
        <ele>102.59999847412</ele>
        <time>2020-09-22T09:00:31.000Z</time>
      </trkpt>
      <trkpt lat="45.08802" lon="0.58658">
        <ele>102.40000152588</ele>
        <time>2020-09-22T09:00:32.000Z</time>
      </trkpt>
      <trkpt lat="45.08805" lon="0.58658">
        <ele>102.19999694824</ele>
        <time>2020-09-22T09:00:33.000Z</time>
      </trkpt>
      <trkpt lat="45.08809" lon="0.58658">
        <ele>101.80000305176</ele>
        <time>2020-09-22T09:00:34.000Z</time>
      </trkpt>
      <trkpt lat="45.08813" lon="0.58658">
        <ele>101.59999847412</ele>
        <time>2020-09-22T09:00:35.000Z</time>
      </trkpt>
      <trkpt lat="45.08817" lon="0.58658">
        <ele>101.19999694824</ele>
        <time>2020-09-22T09:00:36.000Z</time>
      </trkpt>
      <trkpt lat="45.0882" lon="0.58658">
        <ele>101.19999694824</ele>
        <time>2020-09-22T09:00:37.000Z</time>
      </trkpt>
      <trkpt lat="45.08824" lon="0.58657">
        <ele>101.19999694824</ele>
        <time>2020-09-22T09:00:38.000Z</time>
      </trkpt>
      <trkpt lat="45.08827" lon="0.58656">
        <ele>101.19999694824</ele>
        <time>2020-09-22T09:00:39.000Z</time>
      </trkpt>
      <trkpt lat="45.08831" lon="0.58656">
        <ele>101</ele>
        <time>2020-09-22T09:00:40.000Z</time>
      </trkpt>
      <trkpt lat="45.08834" lon="0.58654">
        <ele>101</ele>
        <time>2020-09-22T09:00:41.000Z</time>
      </trkpt>
      <trkpt lat="45.08837" lon="0.58653">
        <ele>101</ele>
        <time>2020-09-22T09:00:42.000Z</time>
      </trkpt>
      <trkpt lat="45.0884" lon="0.58651">
        <ele>100.80000305176</ele>
        <time>2020-09-22T09:00:43.000Z</time>
      </trkpt>
      <trkpt lat="45.08842" lon="0.5865">
        <ele>100.80000305176</ele>
        <time>2020-09-22T09:00:44.000Z</time>
      </trkpt>
      <trkpt lat="45.08845" lon="0.5865">
        <ele>100.80000305176</ele>
        <time>2020-09-22T09:00:45.000Z</time>
      </trkpt>
    </trkseg>
  </trk>
</gpx>